<?xml version='1.0' encoding='UTF-8'?><gpx version="1.1" creator="JPX - https://github.com/jenetics/jpx" xmlns="http://www.topografix.com/GPX/1/1"><trk><trkseg><trkpt lat="43.1462587" lon="11.411765"><ele>261.0</ele><time>2026-05-02T09:52:48.374Z</time></trkpt><trkpt lat="43.1462078" lon="11.4118648"><ele>261.0</ele><time>2026-05-02T09:52:50.356Z</time></trkpt><trkpt lat="43.1461256" lon="11.4120113"><ele>261.0</ele><time>2026-05-02T09:52:52.359Z</time></trkpt><trkpt lat="43.1460842" lon="11.412105"><ele>261.0</ele><time>2026-05-02T09:52:53.359Z</time></trkpt><trkpt lat="43.1460444" lon="11.4122027"><ele>261.0</ele><time>2026-05-02T09:52:54.348Z</time></trkpt><trkpt lat="43.1460059" lon="11.4123047"><ele>259.40000000000003</ele><time>2026-05-02T09:52:55.351Z</time></trkpt><trkpt lat="43.1459682" lon="11.4124113"><ele>257.8</ele><time>2026-05-02T09:52:56.345Z</time></trkpt><trkpt lat="43.1459328" lon="11.412526"><ele>256.20000000000005</ele><time>2026-05-02T09:52:57.366Z</time></trkpt><trkpt lat="43.1459048" lon="11.4126481"><ele>254.60000000000002</ele><time>2026-05-02T09:52:58.355Z</time></trkpt><trkpt lat="43.1458822" lon="11.4127774"><ele>253.0</ele><time>2026-05-02T09:52:59.354Z</time></trkpt><trkpt lat="43.145857" lon="11.412911"><ele>252.8</ele><time>2026-05-02T09:53:00.347Z</time></trkpt><trkpt lat="43.1458228" lon="11.4130428"><ele>252.60000000000002</ele><time>2026-05-02T09:53:01.356Z</time></trkpt><trkpt lat="43.1457799" lon="11.4131785"><ele>252.39999999999998</ele><time>2026-05-02T09:53:02.377Z</time></trkpt><trkpt lat="43.1457278" lon="11.4133159"><ele>252.2</ele><time>2026-05-02T09:53:03.358Z</time></trkpt><trkpt lat="43.1456627" lon="11.4134514"><ele>252.0</ele><time>2026-05-02T09:53:04.352Z</time></trkpt><trkpt lat="43.1455832" lon="11.4135785"><ele>250.5</ele><time>2026-05-02T09:53:05.352Z</time></trkpt><trkpt lat="43.1454981" lon="11.4137014"><ele>249.0</ele><time>2026-05-02T09:53:06.35Z</time></trkpt><trkpt lat="43.1454154" lon="11.4138213"><ele>247.5</ele><time>2026-05-02T09:53:07.372Z</time></trkpt><trkpt lat="43.1453406" lon="11.4139429"><ele>246.0</ele><time>2026-05-02T09:53:08.351Z</time></trkpt><trkpt lat="43.1452802" lon="11.4140703"><ele>245.0</ele><time>2026-05-02T09:53:09.353Z</time></trkpt><trkpt lat="43.1452398" lon="11.4142087"><ele>244.0</ele><time>2026-05-02T09:53:10.368Z</time></trkpt><trkpt lat="43.1452217" lon="11.4143571"><ele>243.0</ele><time>2026-05-02T09:53:11.363Z</time></trkpt><trkpt lat="43.1452259" lon="11.4145152"><ele>242.0</ele><time>2026-05-02T09:53:12.36Z</time></trkpt><trkpt lat="43.145259" lon="11.4146773"><ele>240.5</ele><time>2026-05-02T09:53:13.36Z</time></trkpt><trkpt lat="43.1453241" lon="11.414832"><ele>239.0</ele><time>2026-05-02T09:53:14.379Z</time></trkpt><trkpt lat="43.1453925" lon="11.4149867"><ele>237.5</ele><time>2026-05-02T09:53:15.377Z</time></trkpt><trkpt lat="43.1454921" lon="11.4151316"><ele>236.0</ele><time>2026-05-02T09:53:16.351Z</time></trkpt><trkpt lat="43.1455835" lon="11.4152829"><ele>236.0</ele><time>2026-05-02T09:53:17.381Z</time></trkpt><trkpt lat="43.1456576" lon="11.4154449"><ele>236.0</ele><time>2026-05-02T09:53:18.381Z</time></trkpt><trkpt lat="43.1457128" lon="11.4156152"><ele>236.0</ele><time>2026-05-02T09:53:19.351Z</time></trkpt><trkpt lat="43.1457483" lon="11.4157962"><ele>236.0</ele><time>2026-05-02T09:53:20.383Z</time></trkpt><trkpt lat="43.145763" lon="11.4159821"><ele>236.0</ele><time>2026-05-02T09:53:21.355Z</time></trkpt><trkpt lat="43.145756" lon="11.4161752"><ele>236.0</ele><time>2026-05-02T09:53:22.357Z</time></trkpt><trkpt lat="43.1457389" lon="11.4163779"><ele>236.0</ele><time>2026-05-02T09:53:23.369Z</time></trkpt><trkpt lat="43.1457208" lon="11.4165876"><ele>236.0</ele><time>2026-05-02T09:53:24.352Z</time></trkpt><trkpt lat="43.1456996" lon="11.4167944"><ele>232.5</ele><time>2026-05-02T09:53:25.354Z</time></trkpt><trkpt lat="43.1456747" lon="11.416992"><ele>229.0</ele><time>2026-05-02T09:53:26.354Z</time></trkpt><trkpt lat="43.1456399" lon="11.4171862"><ele>225.5</ele><time>2026-05-02T09:53:27.353Z</time></trkpt><trkpt lat="43.1455891" lon="11.4173782"><ele>222.0</ele><time>2026-05-02T09:53:28.352Z</time></trkpt><trkpt lat="43.1455285" lon="11.4175754"><ele>220.33333333333331</ele><time>2026-05-02T09:53:29.365Z</time></trkpt><trkpt lat="43.1454697" lon="11.4177752"><ele>218.66666666666666</ele><time>2026-05-02T09:53:30.355Z</time></trkpt><trkpt lat="43.145416" lon="11.4179796"><ele>217.0</ele><time>2026-05-02T09:53:31.349Z</time></trkpt><trkpt lat="43.145374" lon="11.4181877"><ele>216.0</ele><time>2026-05-02T09:53:32.373Z</time></trkpt><trkpt lat="43.1453517" lon="11.4183963"><ele>215.0</ele><time>2026-05-02T09:53:33.351Z</time></trkpt><trkpt lat="43.1453436" lon="11.4186027"><ele>214.0</ele><time>2026-05-02T09:53:34.357Z</time></trkpt><trkpt lat="43.1453375" lon="11.4188066"><ele>213.75</ele><time>2026-05-02T09:53:35.363Z</time></trkpt><trkpt lat="43.1453276" lon="11.4190084"><ele>213.5</ele><time>2026-05-02T09:53:36.385Z</time></trkpt><trkpt lat="43.14531" lon="11.41921"><ele>213.25</ele><time>2026-05-02T09:53:37.359Z</time></trkpt><trkpt lat="43.1452809" lon="11.4194097"><ele>213.0</ele><time>2026-05-02T09:53:38.354Z</time></trkpt><trkpt lat="43.145239" lon="11.4196032"><ele>212.25</ele><time>2026-05-02T09:53:39.353Z</time></trkpt><trkpt lat="43.1451963" lon="11.4197906"><ele>211.5</ele><time>2026-05-02T09:53:40.352Z</time></trkpt><trkpt lat="43.145165" lon="11.4199791"><ele>210.75</ele><time>2026-05-02T09:53:41.351Z</time></trkpt><trkpt lat="43.1451399" lon="11.4201613"><ele>210.0</ele><time>2026-05-02T09:53:42.36Z</time></trkpt><trkpt lat="43.1451372" lon="11.4203471"><ele>209.4</ele><time>2026-05-02T09:53:43.358Z</time></trkpt><trkpt lat="43.1451416" lon="11.4205226"><ele>208.8</ele><time>2026-05-02T09:53:44.364Z</time></trkpt><trkpt lat="43.145144" lon="11.4206721"><ele>208.2</ele><time>2026-05-02T09:53:45.372Z</time></trkpt><trkpt lat="43.1451451" lon="11.420814"><ele>207.6</ele><time>2026-05-02T09:53:46.353Z</time></trkpt><trkpt lat="43.1451483" lon="11.4209396"><ele>207.0</ele><time>2026-05-02T09:53:47.351Z</time></trkpt><trkpt lat="43.1451556" lon="11.421062"><ele>207.0</ele><time>2026-05-02T09:53:48.372Z</time></trkpt><trkpt lat="43.1451743" lon="11.421174"><ele>207.0</ele><time>2026-05-02T09:53:49.374Z</time></trkpt><trkpt lat="43.1451981" lon="11.421285"><ele>207.0</ele><time>2026-05-02T09:53:50.353Z</time></trkpt><trkpt lat="43.1452251" lon="11.4213902"><ele>207.0</ele><time>2026-05-02T09:53:51.362Z</time></trkpt><trkpt lat="43.1452535" lon="11.4214909"><ele>207.0</ele><time>2026-05-02T09:53:52.357Z</time></trkpt><trkpt lat="43.1452827" lon="11.4215834"><ele>207.0</ele><time>2026-05-02T09:53:53.378Z</time></trkpt><trkpt lat="43.1453127" lon="11.4216647"><ele>206.83333333333334</ele><time>2026-05-02T09:53:54.361Z</time></trkpt><trkpt lat="43.1453624" lon="11.4217906"><ele>206.66666666666669</ele><time>2026-05-02T09:53:56.353Z</time></trkpt><trkpt lat="43.1453967" lon="11.4219016"><ele>206.5</ele><time>2026-05-02T09:53:58.353Z</time></trkpt><trkpt lat="43.1454239" lon="11.4219978"><ele>206.33333333333334</ele><time>2026-05-02T09:54:00.359Z</time></trkpt><trkpt lat="43.1454702" lon="11.4221314"><ele>206.16666666666669</ele><time>2026-05-02T09:54:02.346Z</time></trkpt><trkpt lat="43.1454974" lon="11.422219"><ele>206.0</ele><time>2026-05-02T09:54:03.365Z</time></trkpt><trkpt lat="43.1455297" lon="11.4223187"><ele>206.60000000000002</ele><time>2026-05-02T09:54:04.352Z</time></trkpt><trkpt lat="43.1455687" lon="11.4224269"><ele>207.2</ele><time>2026-05-02T09:54:05.358Z</time></trkpt><trkpt lat="43.1456092" lon="11.4225405"><ele>207.8</ele><time>2026-05-02T09:54:06.379Z</time></trkpt><trkpt lat="43.1456547" lon="11.4226624"><ele>208.39999999999998</ele><time>2026-05-02T09:54:07.372Z</time></trkpt><trkpt lat="43.1457034" lon="11.4227941"><ele>209.0</ele><time>2026-05-02T09:54:08.358Z</time></trkpt><trkpt lat="43.1457526" lon="11.4229333"><ele>208.5</ele><time>2026-05-02T09:54:09.349Z</time></trkpt><trkpt lat="43.1458024" lon="11.4230794"><ele>208.0</ele><time>2026-05-02T09:54:10.354Z</time></trkpt><trkpt lat="43.1458526" lon="11.4232306"><ele>207.5</ele><time>2026-05-02T09:54:11.359Z</time></trkpt><trkpt lat="43.1458992" lon="11.4233829"><ele>207.0</ele><time>2026-05-02T09:54:12.359Z</time></trkpt><trkpt lat="43.1459346" lon="11.4235334"><ele>207.0</ele><time>2026-05-02T09:54:13.349Z</time></trkpt><trkpt lat="43.1459562" lon="11.4236822"><ele>207.0</ele><time>2026-05-02T09:54:14.35Z</time></trkpt><trkpt lat="43.1459645" lon="11.4238287"><ele>207.0</ele><time>2026-05-02T09:54:15.349Z</time></trkpt><trkpt lat="43.1459565" lon="11.4239706"><ele>207.0</ele><time>2026-05-02T09:54:16.354Z</time></trkpt><trkpt lat="43.145932" lon="11.4241094"><ele>207.0</ele><time>2026-05-02T09:54:17.353Z</time></trkpt><trkpt lat="43.1458956" lon="11.4242429"><ele>206.83333333333334</ele><time>2026-05-02T09:54:18.357Z</time></trkpt><trkpt lat="43.1458522" lon="11.4243655"><ele>206.66666666666669</ele><time>2026-05-02T09:54:19.37Z</time></trkpt><trkpt lat="43.1458062" lon="11.4244752"><ele>206.5</ele><time>2026-05-02T09:54:20.369Z</time></trkpt><trkpt lat="43.1457579" lon="11.4245725"><ele>206.33333333333334</ele><time>2026-05-02T09:54:21.359Z</time></trkpt><trkpt lat="43.1457082" lon="11.4246561"><ele>206.16666666666669</ele><time>2026-05-02T09:54:22.357Z</time></trkpt><trkpt lat="43.1456577" lon="11.4247312"><ele>206.0</ele><time>2026-05-02T09:54:23.366Z</time></trkpt><trkpt lat="43.1456125" lon="11.4248084"><ele>206.00000000000003</ele><time>2026-05-02T09:54:24.347Z</time></trkpt><trkpt lat="43.1455748" lon="11.4248938"><ele>206.0</ele><time>2026-05-02T09:54:25.377Z</time></trkpt><trkpt lat="43.1455538" lon="11.424989"><ele>206.0</ele><time>2026-05-02T09:54:26.359Z</time></trkpt><trkpt lat="43.145557" lon="11.4250882"><ele>206.0</ele><time>2026-05-02T09:54:27.35Z</time></trkpt><trkpt lat="43.1455857" lon="11.4251792"><ele>206.00000000000003</ele><time>2026-05-02T09:54:28.367Z</time></trkpt><trkpt lat="43.1456397" lon="11.4252543"><ele>206.0</ele><time>2026-05-02T09:54:29.373Z</time></trkpt><trkpt lat="43.1457143" lon="11.4253124"><ele>206.0</ele><time>2026-05-02T09:54:30.357Z</time></trkpt><trkpt lat="43.1458022" lon="11.425365"><ele>206.0</ele><time>2026-05-02T09:54:31.352Z</time></trkpt><trkpt lat="43.1458982" lon="11.4254121"><ele>206.0</ele><time>2026-05-02T09:54:32.356Z</time></trkpt><trkpt lat="43.1459903" lon="11.4254717"><ele>206.0</ele><time>2026-05-02T09:54:33.38Z</time></trkpt><trkpt lat="43.146071" lon="11.4255405"><ele>206.0</ele><time>2026-05-02T09:54:34.378Z</time></trkpt><trkpt lat="43.1461477" lon="11.4256133"><ele>205.0</ele><time>2026-05-02T09:54:35.362Z</time></trkpt><trkpt lat="43.1462193" lon="11.4257014"><ele>204.0</ele><time>2026-05-02T09:54:36.357Z</time></trkpt><trkpt lat="43.1462914" lon="11.4257966"><ele>203.0</ele><time>2026-05-02T09:54:37.393Z</time></trkpt><trkpt lat="43.146369" lon="11.425893"><ele>202.0</ele><time>2026-05-02T09:54:38.359Z</time></trkpt><trkpt lat="43.1464555" lon="11.4259848"><ele>201.0</ele><time>2026-05-02T09:54:39.364Z</time></trkpt><trkpt lat="43.146548" lon="11.4260749"><ele>201.0</ele><time>2026-05-02T09:54:40.385Z</time></trkpt><trkpt lat="43.1466456" lon="11.4261654"><ele>201.0</ele><time>2026-05-02T09:54:41.376Z</time></trkpt><trkpt lat="43.1467458" lon="11.4262499"><ele>201.0</ele><time>2026-05-02T09:54:42.35Z</time></trkpt><trkpt lat="43.1468477" lon="11.4263259"><ele>201.0</ele><time>2026-05-02T09:54:43.377Z</time></trkpt><trkpt lat="43.1469539" lon="11.4263984"><ele>203.75</ele><time>2026-05-02T09:54:44.357Z</time></trkpt><trkpt lat="43.1470587" lon="11.4264816"><ele>206.5</ele><time>2026-05-02T09:54:45.353Z</time></trkpt><trkpt lat="43.1471579" lon="11.4265826"><ele>209.25</ele><time>2026-05-02T09:54:46.352Z</time></trkpt><trkpt lat="43.1472534" lon="11.4266939"><ele>212.0</ele><time>2026-05-02T09:54:47.365Z</time></trkpt><trkpt lat="43.1473448" lon="11.4268079"><ele>211.2</ele><time>2026-05-02T09:54:48.348Z</time></trkpt><trkpt lat="43.1474308" lon="11.4269179"><ele>210.39999999999998</ele><time>2026-05-02T09:54:49.36Z</time></trkpt><trkpt lat="43.1475173" lon="11.4270138"><ele>209.60000000000002</ele><time>2026-05-02T09:54:50.378Z</time></trkpt><trkpt lat="43.1476104" lon="11.4270905"><ele>208.8</ele><time>2026-05-02T09:54:51.353Z</time></trkpt><trkpt lat="43.1477093" lon="11.4271517"><ele>208.0</ele><time>2026-05-02T09:54:52.356Z</time></trkpt><trkpt lat="43.1478171" lon="11.4271948"><ele>208.0</ele><time>2026-05-02T09:54:53.382Z</time></trkpt><trkpt lat="43.1479314" lon="11.4272226"><ele>208.0</ele><time>2026-05-02T09:54:54.351Z</time></trkpt><trkpt lat="43.1480479" lon="11.427251"><ele>208.0</ele><time>2026-05-02T09:54:55.358Z</time></trkpt><trkpt lat="43.1481619" lon="11.4272934"><ele>208.0</ele><time>2026-05-02T09:54:56.366Z</time></trkpt><trkpt lat="43.1482741" lon="11.4273488"><ele>207.25</ele><time>2026-05-02T09:54:57.364Z</time></trkpt><trkpt lat="43.1483857" lon="11.4274074"><ele>206.5</ele><time>2026-05-02T09:54:58.359Z</time></trkpt><trkpt lat="43.1484985" lon="11.4274654"><ele>205.75</ele><time>2026-05-02T09:54:59.36Z</time></trkpt><trkpt lat="43.1486093" lon="11.4275262"><ele>205.0</ele><time>2026-05-02T09:55:00.371Z</time></trkpt><trkpt lat="43.1487115" lon="11.4275857"><ele>205.0</ele><time>2026-05-02T09:55:01.354Z</time></trkpt><trkpt lat="43.1488252" lon="11.4276398"><ele>205.0</ele><time>2026-05-02T09:55:02.354Z</time></trkpt><trkpt lat="43.1489427" lon="11.4276975"><ele>205.0</ele><time>2026-05-02T09:55:03.361Z</time></trkpt><trkpt lat="43.1490563" lon="11.4277546"><ele>205.0</ele><time>2026-05-02T09:55:04.356Z</time></trkpt><trkpt lat="43.1491624" lon="11.427818"><ele>204.75</ele><time>2026-05-02T09:55:05.371Z</time></trkpt><trkpt lat="43.1492628" lon="11.4278976"><ele>204.5</ele><time>2026-05-02T09:55:06.376Z</time></trkpt><trkpt lat="43.1493674" lon="11.4279941"><ele>204.25</ele><time>2026-05-02T09:55:07.366Z</time></trkpt><trkpt lat="43.1494587" lon="11.4281045"><ele>204.0</ele><time>2026-05-02T09:55:08.353Z</time></trkpt><trkpt lat="43.1495492" lon="11.4282103"><ele>202.5</ele><time>2026-05-02T09:55:09.356Z</time></trkpt><trkpt lat="43.1496453" lon="11.4283142"><ele>201.0</ele><time>2026-05-02T09:55:10.376Z</time></trkpt><trkpt lat="43.1497462" lon="11.4284169"><ele>199.5</ele><time>2026-05-02T09:55:11.356Z</time></trkpt><trkpt lat="43.1498456" lon="11.4285234"><ele>198.0</ele><time>2026-05-02T09:55:12.359Z</time></trkpt><trkpt lat="43.1499408" lon="11.4286266"><ele>198.0</ele><time>2026-05-02T09:55:13.352Z</time></trkpt><trkpt lat="43.150027" lon="11.4287366"><ele>198.0</ele><time>2026-05-02T09:55:14.359Z</time></trkpt><trkpt lat="43.1501032" lon="11.4288566"><ele>198.0</ele><time>2026-05-02T09:55:15.359Z</time></trkpt><trkpt lat="43.1501706" lon="11.4289834"><ele>198.0</ele><time>2026-05-02T09:55:16.358Z</time></trkpt><trkpt lat="43.1502399" lon="11.4291121"><ele>195.75</ele><time>2026-05-02T09:55:17.352Z</time></trkpt><trkpt lat="43.1503157" lon="11.4292391"><ele>193.5</ele><time>2026-05-02T09:55:18.357Z</time></trkpt><trkpt lat="43.1503971" lon="11.4293614"><ele>191.25</ele><time>2026-05-02T09:55:19.358Z</time></trkpt><trkpt lat="43.1504854" lon="11.4294812"><ele>189.0</ele><time>2026-05-02T09:55:20.37Z</time></trkpt><trkpt lat="43.1505723" lon="11.4295989"><ele>189.2</ele><time>2026-05-02T09:55:21.362Z</time></trkpt><trkpt lat="43.1506622" lon="11.4297041"><ele>189.39999999999998</ele><time>2026-05-02T09:55:22.352Z</time></trkpt><trkpt lat="43.150751" lon="11.4297929"><ele>189.6</ele><time>2026-05-02T09:55:23.359Z</time></trkpt><trkpt lat="43.150839" lon="11.4298742"><ele>189.8</ele><time>2026-05-02T09:55:24.38Z</time></trkpt><trkpt lat="43.1509194" lon="11.429952"><ele>190.0</ele><time>2026-05-02T09:55:25.357Z</time></trkpt><trkpt lat="43.1509921" lon="11.430037"><ele>190.0</ele><time>2026-05-02T09:55:26.357Z</time></trkpt><trkpt lat="43.1510536" lon="11.4301305"><ele>190.0</ele><time>2026-05-02T09:55:27.363Z</time></trkpt><trkpt lat="43.1511005" lon="11.4302336"><ele>190.0</ele><time>2026-05-02T09:55:28.365Z</time></trkpt><trkpt lat="43.1511286" lon="11.4303485"><ele>190.0</ele><time>2026-05-02T09:55:29.352Z</time></trkpt><trkpt lat="43.1511415" lon="11.4304745"><ele>190.0</ele><time>2026-05-02T09:55:30.378Z</time></trkpt><trkpt lat="43.1511398" lon="11.430613"><ele>188.25</ele><time>2026-05-02T09:55:31.356Z</time></trkpt><trkpt lat="43.1511314" lon="11.4307602"><ele>186.5</ele><time>2026-05-02T09:55:32.368Z</time></trkpt><trkpt lat="43.1511191" lon="11.4309148"><ele>184.75</ele><time>2026-05-02T09:55:33.372Z</time></trkpt><trkpt lat="43.1511044" lon="11.4310739"><ele>183.0</ele><time>2026-05-02T09:55:34.347Z</time></trkpt><trkpt lat="43.1510925" lon="11.4312344"><ele>181.8</ele><time>2026-05-02T09:55:35.372Z</time></trkpt><trkpt lat="43.1510893" lon="11.4313909"><ele>180.60000000000002</ele><time>2026-05-02T09:55:36.346Z</time></trkpt><trkpt lat="43.1510935" lon="11.4315419"><ele>179.39999999999998</ele><time>2026-05-02T09:55:37.359Z</time></trkpt><trkpt lat="43.1511044" lon="11.4316886"><ele>178.2</ele><time>2026-05-02T09:55:38.356Z</time></trkpt><trkpt lat="43.1511192" lon="11.4318327"><ele>177.0</ele><time>2026-05-02T09:55:39.367Z</time></trkpt><trkpt lat="43.151133" lon="11.4319776"><ele>177.0</ele><time>2026-05-02T09:55:40.373Z</time></trkpt><trkpt lat="43.1511366" lon="11.4321215"><ele>177.0</ele><time>2026-05-02T09:55:41.353Z</time></trkpt><trkpt lat="43.1511279" lon="11.4322595"><ele>177.0</ele><time>2026-05-02T09:55:42.352Z</time></trkpt><trkpt lat="43.1511165" lon="11.4323896"><ele>177.0</ele><time>2026-05-02T09:55:43.342Z</time></trkpt><trkpt lat="43.1511138" lon="11.4325124"><ele>177.0</ele><time>2026-05-02T09:55:44.349Z</time></trkpt><trkpt lat="43.151122" lon="11.4326295"><ele>176.39999999999998</ele><time>2026-05-02T09:55:45.359Z</time></trkpt><trkpt lat="43.1511463" lon="11.4327437"><ele>175.79999999999998</ele><time>2026-05-02T09:55:46.342Z</time></trkpt><trkpt lat="43.1511882" lon="11.4328561"><ele>175.2</ele><time>2026-05-02T09:55:47.359Z</time></trkpt><trkpt lat="43.1512454" lon="11.4329664"><ele>174.6</ele><time>2026-05-02T09:55:48.349Z</time></trkpt><trkpt lat="43.1513148" lon="11.4330737"><ele>174.0</ele><time>2026-05-02T09:55:49.361Z</time></trkpt><trkpt lat="43.1513902" lon="11.4331735"><ele>173.2</ele><time>2026-05-02T09:55:50.353Z</time></trkpt><trkpt lat="43.1514698" lon="11.4332643"><ele>172.39999999999998</ele><time>2026-05-02T09:55:51.353Z</time></trkpt><trkpt lat="43.151553" lon="11.4333511"><ele>171.6</ele><time>2026-05-02T09:55:52.351Z</time></trkpt><trkpt lat="43.1516393" lon="11.4334285"><ele>170.8</ele><time>2026-05-02T09:55:53.354Z</time></trkpt><trkpt lat="43.1517298" lon="11.4334857"><ele>170.0</ele><time>2026-05-02T09:55:54.358Z</time></trkpt><trkpt lat="43.1518228" lon="11.4335217"><ele>171.6</ele><time>2026-05-02T09:55:55.375Z</time></trkpt><trkpt lat="43.1519168" lon="11.433537"><ele>173.2</ele><time>2026-05-02T09:55:56.374Z</time></trkpt><trkpt lat="43.1520057" lon="11.433525"><ele>174.8</ele><time>2026-05-02T09:55:57.351Z</time></trkpt><trkpt lat="43.1520873" lon="11.4334859"><ele>176.4</ele><time>2026-05-02T09:55:58.364Z</time></trkpt><trkpt lat="43.1521647" lon="11.4334232"><ele>178.0</ele><time>2026-05-02T09:55:59.362Z</time></trkpt><trkpt lat="43.1522403" lon="11.4333409"><ele>178.0</ele><time>2026-05-02T09:56:00.344Z</time></trkpt><trkpt lat="43.1523166" lon="11.4332484"><ele>178.0</ele><time>2026-05-02T09:56:01.357Z</time></trkpt><trkpt lat="43.1523891" lon="11.4331586"><ele>178.0</ele><time>2026-05-02T09:56:02.355Z</time></trkpt><trkpt lat="43.1524525" lon="11.4330778"><ele>178.0</ele><time>2026-05-02T09:56:03.352Z</time></trkpt><trkpt lat="43.1525142" lon="11.4330174"><ele>178.0</ele><time>2026-05-02T09:56:04.354Z</time></trkpt><trkpt lat="43.1525799" lon="11.4329858"><ele>178.0</ele><time>2026-05-02T09:56:05.353Z</time></trkpt><trkpt lat="43.1526459" lon="11.4329848"><ele>176.99999999999997</ele><time>2026-05-02T09:56:06.358Z</time></trkpt><trkpt lat="43.1527098" lon="11.4330186"><ele>176.0</ele><time>2026-05-02T09:56:07.376Z</time></trkpt><trkpt lat="43.1527732" lon="11.4330543"><ele>175.0</ele><time>2026-05-02T09:56:08.351Z</time></trkpt><trkpt lat="43.1528039" lon="11.4331397"><ele>174.0</ele><time>2026-05-02T09:56:09.349Z</time></trkpt><trkpt lat="43.1527957" lon="11.4332395"><ele>173.0</ele><time>2026-05-02T09:56:10.347Z</time></trkpt><trkpt lat="43.1527629" lon="11.4333281"><ele>171.99999999999997</ele><time>2026-05-02T09:56:11.383Z</time></trkpt><trkpt lat="43.1527135" lon="11.4334158"><ele>171.0</ele><time>2026-05-02T09:56:12.352Z</time></trkpt><trkpt lat="43.1526471" lon="11.4335012"><ele>171.0</ele><time>2026-05-02T09:56:13.355Z</time></trkpt><trkpt lat="43.1525707" lon="11.4335901"><ele>171.0</ele><time>2026-05-02T09:56:14.348Z</time></trkpt><trkpt lat="43.1524933" lon="11.4336798"><ele>171.0</ele><time>2026-05-02T09:56:15.353Z</time></trkpt><trkpt lat="43.1524122" lon="11.4337741"><ele>171.0</ele><time>2026-05-02T09:56:16.348Z</time></trkpt><trkpt lat="43.1523255" lon="11.4338794"><ele>171.0</ele><time>2026-05-02T09:56:17.355Z</time></trkpt><trkpt lat="43.1522335" lon="11.4339887"><ele>170.25</ele><time>2026-05-02T09:56:18.358Z</time></trkpt><trkpt lat="43.1521396" lon="11.4340997"><ele>169.5</ele><time>2026-05-02T09:56:19.353Z</time></trkpt><trkpt lat="43.1520502" lon="11.4342081"><ele>168.75</ele><time>2026-05-02T09:56:20.369Z</time></trkpt><trkpt lat="43.1519637" lon="11.4343158"><ele>168.0</ele><time>2026-05-02T09:56:21.352Z</time></trkpt><trkpt lat="43.1518829" lon="11.4344184"><ele>168.0</ele><time>2026-05-02T09:56:22.351Z</time></trkpt><trkpt lat="43.1518032" lon="11.4345201"><ele>168.0</ele><time>2026-05-02T09:56:23.348Z</time></trkpt><trkpt lat="43.1517293" lon="11.4346176"><ele>168.0</ele><time>2026-05-02T09:56:24.35Z</time></trkpt><trkpt lat="43.1516665" lon="11.4347214"><ele>168.0</ele><time>2026-05-02T09:56:25.353Z</time></trkpt><trkpt lat="43.1516213" lon="11.4348339"><ele>168.0</ele><time>2026-05-02T09:56:26.349Z</time></trkpt><trkpt lat="43.1515935" lon="11.4349554"><ele>166.20000000000002</ele><time>2026-05-02T09:56:27.35Z</time></trkpt><trkpt lat="43.1515819" lon="11.4350869"><ele>164.4</ele><time>2026-05-02T09:56:28.367Z</time></trkpt><trkpt lat="43.1515854" lon="11.4352258"><ele>162.60000000000002</ele><time>2026-05-02T09:56:29.361Z</time></trkpt><trkpt lat="43.1515988" lon="11.4353631"><ele>160.8</ele><time>2026-05-02T09:56:30.347Z</time></trkpt><trkpt lat="43.1516168" lon="11.4355016"><ele>159.0</ele><time>2026-05-02T09:56:31.367Z</time></trkpt><trkpt lat="43.1516366" lon="11.4356432"><ele>158.6</ele><time>2026-05-02T09:56:32.37Z</time></trkpt><trkpt lat="43.1516585" lon="11.4357841"><ele>158.2</ele><time>2026-05-02T09:56:33.356Z</time></trkpt><trkpt lat="43.1516796" lon="11.4359255"><ele>157.79999999999998</ele><time>2026-05-02T09:56:34.349Z</time></trkpt><trkpt lat="43.1517012" lon="11.4360681"><ele>157.4</ele><time>2026-05-02T09:56:35.353Z</time></trkpt><trkpt lat="43.1517242" lon="11.4362116"><ele>157.0</ele><time>2026-05-02T09:56:36.35Z</time></trkpt><trkpt lat="43.1517464" lon="11.4363559"><ele>156.6</ele><time>2026-05-02T09:56:37.375Z</time></trkpt><trkpt lat="43.1517658" lon="11.4364967"><ele>156.2</ele><time>2026-05-02T09:56:38.353Z</time></trkpt><trkpt lat="43.1517845" lon="11.4366339"><ele>155.8</ele><time>2026-05-02T09:56:39.349Z</time></trkpt><trkpt lat="43.1518068" lon="11.4367702"><ele>155.4</ele><time>2026-05-02T09:56:40.345Z</time></trkpt><trkpt lat="43.151828" lon="11.4369074"><ele>155.0</ele><time>2026-05-02T09:56:41.357Z</time></trkpt><trkpt lat="43.1518498" lon="11.4370462"><ele>155.25</ele><time>2026-05-02T09:56:42.347Z</time></trkpt><trkpt lat="43.1518705" lon="11.4371947"><ele>155.5</ele><time>2026-05-02T09:56:43.359Z</time></trkpt><trkpt lat="43.1518943" lon="11.4373546"><ele>155.75</ele><time>2026-05-02T09:56:44.363Z</time></trkpt><trkpt lat="43.1519189" lon="11.437524"><ele>156.0</ele><time>2026-05-02T09:56:45.369Z</time></trkpt><trkpt lat="43.1519474" lon="11.4376981"><ele>156.0</ele><time>2026-05-02T09:56:46.374Z</time></trkpt><trkpt lat="43.1519752" lon="11.4378679"><ele>156.0</ele><time>2026-05-02T09:56:47.355Z</time></trkpt><trkpt lat="43.1520002" lon="11.4380332"><ele>156.0</ele><time>2026-05-02T09:56:48.361Z</time></trkpt><trkpt lat="43.1520156" lon="11.4381941"><ele>156.0</ele><time>2026-05-02T09:56:49.37Z</time></trkpt><trkpt lat="43.1520194" lon="11.4383527"><ele>157.0</ele><time>2026-05-02T09:56:50.351Z</time></trkpt><trkpt lat="43.152002" lon="11.4384985"><ele>158.0</ele><time>2026-05-02T09:56:51.353Z</time></trkpt><trkpt lat="43.1519649" lon="11.4386385"><ele>159.0</ele><time>2026-05-02T09:56:52.376Z</time></trkpt><trkpt lat="43.1519107" lon="11.4387689"><ele>160.0</ele><time>2026-05-02T09:56:53.373Z</time></trkpt><trkpt lat="43.1518416" lon="11.438889"><ele>161.0</ele><time>2026-05-02T09:56:54.346Z</time></trkpt><trkpt lat="43.1517672" lon="11.439007"><ele>161.75</ele><time>2026-05-02T09:56:55.348Z</time></trkpt><trkpt lat="43.1516881" lon="11.4391315"><ele>162.5</ele><time>2026-05-02T09:56:56.351Z</time></trkpt><trkpt lat="43.1516069" lon="11.4392604"><ele>163.25</ele><time>2026-05-02T09:56:57.358Z</time></trkpt><trkpt lat="43.1515255" lon="11.4393925"><ele>164.0</ele><time>2026-05-02T09:56:58.352Z</time></trkpt><trkpt lat="43.1514454" lon="11.439531"><ele>163.5</ele><time>2026-05-02T09:56:59.356Z</time></trkpt><trkpt lat="43.1513703" lon="11.4396668"><ele>163.0</ele><time>2026-05-02T09:57:00.351Z</time></trkpt><trkpt lat="43.1512939" lon="11.4398072"><ele>162.5</ele><time>2026-05-02T09:57:01.368Z</time></trkpt><trkpt lat="43.1512256" lon="11.4399525"><ele>162.0</ele><time>2026-05-02T09:57:02.366Z</time></trkpt><trkpt lat="43.1511619" lon="11.4401005"><ele>162.0</ele><time>2026-05-02T09:57:03.349Z</time></trkpt><trkpt lat="43.1511032" lon="11.4402504"><ele>162.0</ele><time>2026-05-02T09:57:04.358Z</time></trkpt><trkpt lat="43.1510485" lon="11.4404013"><ele>162.0</ele><time>2026-05-02T09:57:05.353Z</time></trkpt><trkpt lat="43.1509918" lon="11.4405373"><ele>162.0</ele><time>2026-05-02T09:57:06.365Z</time></trkpt><trkpt lat="43.1509216" lon="11.4406564"><ele>162.25</ele><time>2026-05-02T09:57:07.386Z</time></trkpt><trkpt lat="43.1508365" lon="11.4407613"><ele>162.5</ele><time>2026-05-02T09:57:08.377Z</time></trkpt><trkpt lat="43.1507413" lon="11.44086"><ele>162.75</ele><time>2026-05-02T09:57:09.359Z</time></trkpt><trkpt lat="43.150638" lon="11.4409501"><ele>163.0</ele><time>2026-05-02T09:57:10.351Z</time></trkpt><trkpt lat="43.1505303" lon="11.4410429"><ele>163.0</ele><time>2026-05-02T09:57:11.353Z</time></trkpt><trkpt lat="43.1504157" lon="11.4411369"><ele>163.0</ele><time>2026-05-02T09:57:12.349Z</time></trkpt><trkpt lat="43.1503001" lon="11.4412259"><ele>163.0</ele><time>2026-05-02T09:57:13.35Z</time></trkpt><trkpt lat="43.1501848" lon="11.4413139"><ele>163.0</ele><time>2026-05-02T09:57:14.356Z</time></trkpt><trkpt lat="43.1500666" lon="11.441407"><ele>163.0</ele><time>2026-05-02T09:57:15.374Z</time></trkpt><trkpt lat="43.149949" lon="11.4414985"><ele>163.0</ele><time>2026-05-02T09:57:16.379Z</time></trkpt><trkpt lat="43.1498339" lon="11.4415904"><ele>163.0</ele><time>2026-05-02T09:57:17.369Z</time></trkpt><trkpt lat="43.1497207" lon="11.4416804"><ele>163.0</ele><time>2026-05-02T09:57:18.351Z</time></trkpt><trkpt lat="43.1496071" lon="11.4417709"><ele>163.0</ele><time>2026-05-02T09:57:19.352Z</time></trkpt><trkpt lat="43.149493" lon="11.4418612"><ele>163.0</ele><time>2026-05-02T09:57:20.384Z</time></trkpt><trkpt lat="43.149379" lon="11.441953"><ele>163.0</ele><time>2026-05-02T09:57:21.359Z</time></trkpt><trkpt lat="43.1492643" lon="11.4420451"><ele>163.0</ele><time>2026-05-02T09:57:22.352Z</time></trkpt><trkpt lat="43.1491507" lon="11.4421355"><ele>163.25</ele><time>2026-05-02T09:57:23.373Z</time></trkpt><trkpt lat="43.1490387" lon="11.4422283"><ele>163.5</ele><time>2026-05-02T09:57:24.357Z</time></trkpt><trkpt lat="43.1489339" lon="11.4423176"><ele>163.75</ele><time>2026-05-02T09:57:25.377Z</time></trkpt><trkpt lat="43.1488307" lon="11.4424064"><ele>164.0</ele><time>2026-05-02T09:57:26.351Z</time></trkpt><trkpt lat="43.1487397" lon="11.4425111"><ele>164.0</ele><time>2026-05-02T09:57:27.353Z</time></trkpt><trkpt lat="43.1486546" lon="11.4426306"><ele>164.0</ele><time>2026-05-02T09:57:28.35Z</time></trkpt><trkpt lat="43.1485752" lon="11.4427559"><ele>164.0</ele><time>2026-05-02T09:57:29.343Z</time></trkpt><trkpt lat="43.1484947" lon="11.4428826"><ele>164.0</ele><time>2026-05-02T09:57:30.347Z</time></trkpt><trkpt lat="43.1484071" lon="11.4430149"><ele>163.75</ele><time>2026-05-02T09:57:31.352Z</time></trkpt><trkpt lat="43.1483205" lon="11.4431426"><ele>163.5</ele><time>2026-05-02T09:57:32.357Z</time></trkpt><trkpt lat="43.14824" lon="11.443265"><ele>163.25</ele><time>2026-05-02T09:57:33.371Z</time></trkpt><trkpt lat="43.1481703" lon="11.4433812"><ele>163.0</ele><time>2026-05-02T09:57:34.371Z</time></trkpt><trkpt lat="43.1481141" lon="11.4434979"><ele>163.0</ele><time>2026-05-02T09:57:35.35Z</time></trkpt><trkpt lat="43.1480757" lon="11.4436167"><ele>163.0</ele><time>2026-05-02T09:57:36.369Z</time></trkpt><trkpt lat="43.1480601" lon="11.4437352"><ele>163.0</ele><time>2026-05-02T09:57:37.354Z</time></trkpt><trkpt lat="43.1480697" lon="11.4438567"><ele>163.0</ele><time>2026-05-02T09:57:38.364Z</time></trkpt><trkpt lat="43.1481036" lon="11.4439794"><ele>163.0</ele><time>2026-05-02T09:57:39.369Z</time></trkpt><trkpt lat="43.1481477" lon="11.4441086"><ele>163.2</ele><time>2026-05-02T09:57:40.351Z</time></trkpt><trkpt lat="43.1481914" lon="11.4442437"><ele>163.4</ele><time>2026-05-02T09:57:41.345Z</time></trkpt><trkpt lat="43.1482132" lon="11.4443791"><ele>163.6</ele><time>2026-05-02T09:57:42.365Z</time></trkpt><trkpt lat="43.148218" lon="11.4445131"><ele>163.79999999999998</ele><time>2026-05-02T09:57:43.353Z</time></trkpt><trkpt lat="43.1481888" lon="11.4446347"><ele>164.0</ele><time>2026-05-02T09:57:44.345Z</time></trkpt><trkpt lat="43.148137" lon="11.4447315"><ele>165.16666666666666</ele><time>2026-05-02T09:57:45.345Z</time></trkpt><trkpt lat="43.1480678" lon="11.4447974"><ele>166.33333333333331</ele><time>2026-05-02T09:57:46.359Z</time></trkpt><trkpt lat="43.1479889" lon="11.444827"><ele>167.5</ele><time>2026-05-02T09:57:47.349Z</time></trkpt><trkpt lat="43.1479052" lon="11.4448243"><ele>168.66666666666666</ele><time>2026-05-02T09:57:48.355Z</time></trkpt><trkpt lat="43.1478165" lon="11.444795"><ele>169.83333333333334</ele><time>2026-05-02T09:57:49.354Z</time></trkpt><trkpt lat="43.1477218" lon="11.4447479"><ele>171.0</ele><time>2026-05-02T09:57:50.357Z</time></trkpt><trkpt lat="43.1476206" lon="11.4446973"><ele>171.0</ele><time>2026-05-02T09:57:51.386Z</time></trkpt><trkpt lat="43.1475135" lon="11.444649"><ele>171.0</ele><time>2026-05-02T09:57:52.357Z</time></trkpt><trkpt lat="43.1474048" lon="11.4446013"><ele>171.0</ele><time>2026-05-02T09:57:53.359Z</time></trkpt><trkpt lat="43.1472901" lon="11.444571"><ele>171.0</ele><time>2026-05-02T09:57:54.35Z</time></trkpt><trkpt lat="43.1471716" lon="11.4445419"><ele>168.75</ele><time>2026-05-02T09:57:55.356Z</time></trkpt><trkpt lat="43.1470502" lon="11.444523"><ele>166.5</ele><time>2026-05-02T09:57:56.353Z</time></trkpt><trkpt lat="43.1469309" lon="11.4445205"><ele>164.25</ele><time>2026-05-02T09:57:57.378Z</time></trkpt><trkpt lat="43.1468144" lon="11.4445264"><ele>162.0</ele><time>2026-05-02T09:57:58.352Z</time></trkpt><trkpt lat="43.1466973" lon="11.4445363"><ele>162.0</ele><time>2026-05-02T09:57:59.349Z</time></trkpt><trkpt lat="43.1465837" lon="11.444558"><ele>162.0</ele><time>2026-05-02T09:58:00.353Z</time></trkpt><trkpt lat="43.1464755" lon="11.4445934"><ele>162.0</ele><time>2026-05-02T09:58:01.373Z</time></trkpt><trkpt lat="43.1463788" lon="11.4446464"><ele>162.0</ele><time>2026-05-02T09:58:02.345Z</time></trkpt><trkpt lat="43.1462999" lon="11.4447232"><ele>162.0</ele><time>2026-05-02T09:58:03.36Z</time></trkpt><trkpt lat="43.14624" lon="11.4448182"><ele>162.0</ele><time>2026-05-02T09:58:04.355Z</time></trkpt><trkpt lat="43.1461943" lon="11.4449246"><ele>162.0</ele><time>2026-05-02T09:58:05.352Z</time></trkpt><trkpt lat="43.1461576" lon="11.4450411"><ele>162.0</ele><time>2026-05-02T09:58:06.35Z</time></trkpt><trkpt lat="43.1461336" lon="11.4451569"><ele>162.0</ele><time>2026-05-02T09:58:07.362Z</time></trkpt><trkpt lat="43.1461253" lon="11.4452689"><ele>162.0</ele><time>2026-05-02T09:58:08.351Z</time></trkpt><trkpt lat="43.146132" lon="11.4453796"><ele>162.0</ele><time>2026-05-02T09:58:09.346Z</time></trkpt><trkpt lat="43.1461515" lon="11.4454865"><ele>161.83333333333334</ele><time>2026-05-02T09:58:10.348Z</time></trkpt><trkpt lat="43.1461767" lon="11.4455943"><ele>161.66666666666666</ele><time>2026-05-02T09:58:11.357Z</time></trkpt><trkpt lat="43.1462037" lon="11.4457041"><ele>161.5</ele><time>2026-05-02T09:58:12.356Z</time></trkpt><trkpt lat="43.1462273" lon="11.4458152"><ele>161.33333333333331</ele><time>2026-05-02T09:58:13.36Z</time></trkpt><trkpt lat="43.1462505" lon="11.4459232"><ele>161.16666666666666</ele><time>2026-05-02T09:58:14.375Z</time></trkpt><trkpt lat="43.1462769" lon="11.4460314"><ele>161.0</ele><time>2026-05-02T09:58:15.354Z</time></trkpt><trkpt lat="43.1463056" lon="11.4461375"><ele>161.0</ele><time>2026-05-02T09:58:16.353Z</time></trkpt><trkpt lat="43.1463342" lon="11.4462408"><ele>161.0</ele><time>2026-05-02T09:58:17.365Z</time></trkpt><trkpt lat="43.146359" lon="11.4463406"><ele>161.0</ele><time>2026-05-02T09:58:18.348Z</time></trkpt><trkpt lat="43.1463822" lon="11.4464334"><ele>161.0</ele><time>2026-05-02T09:58:19.353Z</time></trkpt><trkpt lat="43.1464037" lon="11.4465208"><ele>161.0</ele><time>2026-05-02T09:58:20.375Z</time></trkpt><trkpt lat="43.1464209" lon="11.4466049"><ele>161.0</ele><time>2026-05-02T09:58:21.36Z</time></trkpt><trkpt lat="43.1464293" lon="11.4467689"><ele>161.83333333333331</ele><time>2026-05-02T09:58:23.349Z</time></trkpt><trkpt lat="43.1463667" lon="11.4468962"><ele>162.66666666666666</ele><time>2026-05-02T09:58:25.348Z</time></trkpt><trkpt lat="43.146254" lon="11.4469285"><ele>163.5</ele><time>2026-05-02T09:58:27.358Z</time></trkpt><trkpt lat="43.1461889" lon="11.4469221"><ele>164.33333333333334</ele><time>2026-05-02T09:58:28.356Z</time></trkpt><trkpt lat="43.1461169" lon="11.4469115"><ele>165.16666666666669</ele><time>2026-05-02T09:58:29.356Z</time></trkpt><trkpt lat="43.146039" lon="11.4468981"><ele>166.0</ele><time>2026-05-02T09:58:30.362Z</time></trkpt><trkpt lat="43.1459597" lon="11.4468823"><ele>166.0</ele><time>2026-05-02T09:58:31.354Z</time></trkpt><trkpt lat="43.1458837" lon="11.4468718"><ele>166.0</ele><time>2026-05-02T09:58:32.357Z</time></trkpt><trkpt lat="43.1458134" lon="11.4468711"><ele>166.0</ele><time>2026-05-02T09:58:33.365Z</time></trkpt><trkpt lat="43.1457472" lon="11.4468743"><ele>166.0</ele><time>2026-05-02T09:58:34.346Z</time></trkpt><trkpt lat="43.1456845" lon="11.4468826"><ele>166.0</ele><time>2026-05-02T09:58:35.35Z</time></trkpt><trkpt lat="43.1455601" lon="11.4469124"><ele>166.0</ele><time>2026-05-02T09:58:37.361Z</time></trkpt><trkpt lat="43.1454982" lon="11.4469388"><ele>166.33333333333334</ele><time>2026-05-02T09:58:38.367Z</time></trkpt><trkpt lat="43.1454366" lon="11.4469802"><ele>166.66666666666669</ele><time>2026-05-02T09:58:39.374Z</time></trkpt><trkpt lat="43.1453727" lon="11.4470379"><ele>167.0</ele><time>2026-05-02T09:58:40.359Z</time></trkpt><trkpt lat="43.1453072" lon="11.4471032"><ele>167.33333333333334</ele><time>2026-05-02T09:58:41.347Z</time></trkpt><trkpt lat="43.1452441" lon="11.4471672"><ele>167.66666666666666</ele><time>2026-05-02T09:58:42.344Z</time></trkpt><trkpt lat="43.145184" lon="11.4472319"><ele>168.0</ele><time>2026-05-02T09:58:43.343Z</time></trkpt><trkpt lat="43.1451251" lon="11.4472954"><ele>168.0</ele><time>2026-05-02T09:58:44.38Z</time></trkpt><trkpt lat="43.1450699" lon="11.4473542"><ele>168.0</ele><time>2026-05-02T09:58:45.351Z</time></trkpt><trkpt lat="43.1450202" lon="11.4474107"><ele>168.0</ele><time>2026-05-02T09:58:46.364Z</time></trkpt><trkpt lat="43.1449763" lon="11.447479"><ele>168.0</ele><time>2026-05-02T09:58:47.377Z</time></trkpt><trkpt lat="43.1449431" lon="11.4475573"><ele>168.0</ele><time>2026-05-02T09:58:48.353Z</time></trkpt><trkpt lat="43.1449207" lon="11.4476457"><ele>168.0</ele><time>2026-05-02T09:58:49.35Z</time></trkpt><trkpt lat="43.1449069" lon="11.4478054"><ele>168.0</ele><time>2026-05-02T09:58:51.356Z</time></trkpt><trkpt lat="43.1449027" lon="11.4479561"><ele>168.0</ele><time>2026-05-02T09:58:53.352Z</time></trkpt><trkpt lat="43.1449016" lon="11.448117"><ele>168.0</ele><time>2026-05-02T09:58:55.372Z</time></trkpt><trkpt lat="43.1449" lon="11.448205"><ele>168.0</ele><time>2026-05-02T09:58:56.351Z</time></trkpt><trkpt lat="43.1448881" lon="11.4482942"><ele>168.0</ele><time>2026-05-02T09:58:57.377Z</time></trkpt><trkpt lat="43.144861" lon="11.448379"><ele>168.0</ele><time>2026-05-02T09:58:58.355Z</time></trkpt><trkpt lat="43.1448212" lon="11.4484489"><ele>167.85714285714286</ele><time>2026-05-02T09:58:59.352Z</time></trkpt><trkpt lat="43.1447697" lon="11.4485049"><ele>167.71428571428572</ele><time>2026-05-02T09:59:00.355Z</time></trkpt><trkpt lat="43.1447112" lon="11.4485501"><ele>167.57142857142856</ele><time>2026-05-02T09:59:01.36Z</time></trkpt><trkpt lat="43.1446431" lon="11.4485816"><ele>167.42857142857144</ele><time>2026-05-02T09:59:02.369Z</time></trkpt><trkpt lat="43.1445684" lon="11.448598"><ele>167.28571428571428</ele><time>2026-05-02T09:59:03.349Z</time></trkpt><trkpt lat="43.1444889" lon="11.4486034"><ele>167.14285714285714</ele><time>2026-05-02T09:59:04.356Z</time></trkpt><trkpt lat="43.1444046" lon="11.4485977"><ele>167.0</ele><time>2026-05-02T09:59:05.35Z</time></trkpt><trkpt lat="43.144315" lon="11.4485813"><ele>167.0</ele><time>2026-05-02T09:59:06.357Z</time></trkpt><trkpt lat="43.1442214" lon="11.4485635"><ele>167.0</ele><time>2026-05-02T09:59:07.35Z</time></trkpt><trkpt lat="43.1441251" lon="11.4485228"><ele>167.0</ele><time>2026-05-02T09:59:08.352Z</time></trkpt><trkpt lat="43.1440257" lon="11.4484745"><ele>167.0</ele><time>2026-05-02T09:59:09.357Z</time></trkpt><trkpt lat="43.1439279" lon="11.4484205"><ele>167.0</ele><time>2026-05-02T09:59:10.357Z</time></trkpt><trkpt lat="43.1438283" lon="11.4483575"><ele>168.25</ele><time>2026-05-02T09:59:11.371Z</time></trkpt><trkpt lat="43.1437277" lon="11.4482891"><ele>169.5</ele><time>2026-05-02T09:59:12.361Z</time></trkpt><trkpt lat="43.1436208" lon="11.4482171"><ele>170.75</ele><time>2026-05-02T09:59:13.37Z</time></trkpt><trkpt lat="43.1435103" lon="11.4481423"><ele>172.0</ele><time>2026-05-02T09:59:14.373Z</time></trkpt><trkpt lat="43.1433979" lon="11.4480596"><ele>172.0</ele><time>2026-05-02T09:59:15.355Z</time></trkpt><trkpt lat="43.1432877" lon="11.4479714"><ele>172.0</ele><time>2026-05-02T09:59:16.374Z</time></trkpt><trkpt lat="43.1431826" lon="11.4478894"><ele>172.0</ele><time>2026-05-02T09:59:17.347Z</time></trkpt><trkpt lat="43.1430821" lon="11.4478203"><ele>172.0</ele><time>2026-05-02T09:59:18.354Z</time></trkpt><trkpt lat="43.1429834" lon="11.4477664"><ele>170.2</ele><time>2026-05-02T09:59:19.355Z</time></trkpt><trkpt lat="43.1428835" lon="11.4477289"><ele>168.39999999999998</ele><time>2026-05-02T09:59:20.371Z</time></trkpt><trkpt lat="43.142782" lon="11.4477023"><ele>166.60000000000002</ele><time>2026-05-02T09:59:21.373Z</time></trkpt><trkpt lat="43.1426793" lon="11.4476935"><ele>164.8</ele><time>2026-05-02T09:59:22.351Z</time></trkpt><trkpt lat="43.1425737" lon="11.4477019"><ele>163.0</ele><time>2026-05-02T09:59:23.347Z</time></trkpt><trkpt lat="43.1424656" lon="11.447722"><ele>162.75</ele><time>2026-05-02T09:59:24.346Z</time></trkpt><trkpt lat="43.1423546" lon="11.4477483"><ele>162.5</ele><time>2026-05-02T09:59:25.344Z</time></trkpt><trkpt lat="43.1422422" lon="11.4477787"><ele>162.25</ele><time>2026-05-02T09:59:26.351Z</time></trkpt><trkpt lat="43.1421297" lon="11.4478149"><ele>162.0</ele><time>2026-05-02T09:59:27.355Z</time></trkpt><trkpt lat="43.1420178" lon="11.4478527"><ele>162.0</ele><time>2026-05-02T09:59:28.367Z</time></trkpt><trkpt lat="43.1419055" lon="11.4478932"><ele>162.0</ele><time>2026-05-02T09:59:29.343Z</time></trkpt><trkpt lat="43.1417924" lon="11.4479353"><ele>162.0</ele><time>2026-05-02T09:59:30.357Z</time></trkpt><trkpt lat="43.1416772" lon="11.4479771"><ele>162.0</ele><time>2026-05-02T09:59:31.362Z</time></trkpt><trkpt lat="43.1415596" lon="11.4480147"><ele>164.25</ele><time>2026-05-02T09:59:32.355Z</time></trkpt><trkpt lat="43.1414407" lon="11.448048"><ele>166.5</ele><time>2026-05-02T09:59:33.346Z</time></trkpt><trkpt lat="43.1413219" lon="11.4480769"><ele>168.75</ele><time>2026-05-02T09:59:34.348Z</time></trkpt><trkpt lat="43.1412042" lon="11.4481005"><ele>171.0</ele><time>2026-05-02T09:59:35.347Z</time></trkpt><trkpt lat="43.141087" lon="11.4481209"><ele>171.0</ele><time>2026-05-02T09:59:36.346Z</time></trkpt><trkpt lat="43.1409737" lon="11.4481409"><ele>171.0</ele><time>2026-05-02T09:59:37.356Z</time></trkpt><trkpt lat="43.1408684" lon="11.4481592"><ele>171.0</ele><time>2026-05-02T09:59:38.354Z</time></trkpt><trkpt lat="43.1407685" lon="11.4481739"><ele>171.0</ele><time>2026-05-02T09:59:39.38Z</time></trkpt><trkpt lat="43.1406721" lon="11.4481812"><ele>171.0</ele><time>2026-05-02T09:59:40.37Z</time></trkpt><trkpt lat="43.1405762" lon="11.4481788"><ele>170.4</ele><time>2026-05-02T09:59:41.356Z</time></trkpt><trkpt lat="43.140482" lon="11.4481649"><ele>169.8</ele><time>2026-05-02T09:59:42.355Z</time></trkpt><trkpt lat="43.1403892" lon="11.4481409"><ele>169.20000000000002</ele><time>2026-05-02T09:59:43.36Z</time></trkpt><trkpt lat="43.1402949" lon="11.4481081"><ele>168.60000000000002</ele><time>2026-05-02T09:59:44.365Z</time></trkpt><trkpt lat="43.1402024" lon="11.4480694"><ele>168.0</ele><time>2026-05-02T09:59:45.349Z</time></trkpt><trkpt lat="43.1401097" lon="11.4480246"><ele>168.0</ele><time>2026-05-02T09:59:46.351Z</time></trkpt><trkpt lat="43.1400215" lon="11.4479751"><ele>168.0</ele><time>2026-05-02T09:59:47.358Z</time></trkpt><trkpt lat="43.1399442" lon="11.4479273"><ele>168.0</ele><time>2026-05-02T09:59:48.375Z</time></trkpt><trkpt lat="43.1398713" lon="11.4478829"><ele>168.0</ele><time>2026-05-02T09:59:49.351Z</time></trkpt><trkpt lat="43.139805" lon="11.4478427"><ele>168.0</ele><time>2026-05-02T09:59:50.349Z</time></trkpt><trkpt lat="43.1397412" lon="11.4478171"><ele>168.0</ele><time>2026-05-02T09:59:51.349Z</time></trkpt><trkpt lat="43.1396752" lon="11.4478093"><ele>166.66666666666666</ele><time>2026-05-02T09:59:52.366Z</time></trkpt><trkpt lat="43.139601" lon="11.4478256"><ele>165.33333333333334</ele><time>2026-05-02T09:59:53.378Z</time></trkpt><trkpt lat="43.1395295" lon="11.4478667"><ele>164.0</ele><time>2026-05-02T09:59:54.35Z</time></trkpt><trkpt lat="43.139459" lon="11.4479107"><ele>162.66666666666669</ele><time>2026-05-02T09:59:55.354Z</time></trkpt><trkpt lat="43.139403" lon="11.4480056"><ele>161.33333333333334</ele><time>2026-05-02T09:59:56.349Z</time></trkpt><trkpt lat="43.1393619" lon="11.4481257"><ele>160.0</ele><time>2026-05-02T09:59:57.357Z</time></trkpt><trkpt lat="43.1393357" lon="11.4482681"><ele>160.0</ele><time>2026-05-02T09:59:58.372Z</time></trkpt><trkpt lat="43.1393184" lon="11.4484291"><ele>160.0</ele><time>2026-05-02T09:59:59.356Z</time></trkpt><trkpt lat="43.1393062" lon="11.4486064"><ele>160.0</ele><time>2026-05-02T10:00:00.345Z</time></trkpt><trkpt lat="43.1393001" lon="11.4487965"><ele>160.0</ele><time>2026-05-02T10:00:01.349Z</time></trkpt><trkpt lat="43.1392962" lon="11.448993"><ele>160.0</ele><time>2026-05-02T10:00:02.352Z</time></trkpt><trkpt lat="43.1392911" lon="11.4491907"><ele>160.0</ele><time>2026-05-02T10:00:03.352Z</time></trkpt><trkpt lat="43.1392856" lon="11.4493902"><ele>160.0</ele><time>2026-05-02T10:00:04.353Z</time></trkpt><trkpt lat="43.1392827" lon="11.449587"><ele>160.0</ele><time>2026-05-02T10:00:05.352Z</time></trkpt><trkpt lat="43.1392854" lon="11.4497793"><ele>160.0</ele><time>2026-05-02T10:00:06.349Z</time></trkpt><trkpt lat="43.1392891" lon="11.4499704"><ele>160.0</ele><time>2026-05-02T10:00:07.356Z</time></trkpt><trkpt lat="43.1392943" lon="11.4501586"><ele>160.0</ele><time>2026-05-02T10:00:08.35Z</time></trkpt><trkpt lat="43.1392996" lon="11.4503377"><ele>160.0</ele><time>2026-05-02T10:00:09.352Z</time></trkpt><trkpt lat="43.1393" lon="11.450512"><ele>160.5</ele><time>2026-05-02T10:00:10.355Z</time></trkpt><trkpt lat="43.139287" lon="11.4506798"><ele>161.0</ele><time>2026-05-02T10:00:11.346Z</time></trkpt><trkpt lat="43.1392559" lon="11.4508352"><ele>161.5</ele><time>2026-05-02T10:00:12.361Z</time></trkpt><trkpt lat="43.1392064" lon="11.4509814"><ele>162.0</ele><time>2026-05-02T10:00:13.352Z</time></trkpt><trkpt lat="43.1391437" lon="11.4511237"><ele>162.0</ele><time>2026-05-02T10:00:14.382Z</time></trkpt><trkpt lat="43.1390718" lon="11.4512667"><ele>162.0</ele><time>2026-05-02T10:00:15.374Z</time></trkpt><trkpt lat="43.1389966" lon="11.4514151"><ele>162.0</ele><time>2026-05-02T10:00:16.366Z</time></trkpt><trkpt lat="43.1389187" lon="11.4515711"><ele>162.0</ele><time>2026-05-02T10:00:17.351Z</time></trkpt><trkpt lat="43.1388383" lon="11.4517296"><ele>161.25</ele><time>2026-05-02T10:00:18.366Z</time></trkpt><trkpt lat="43.1387589" lon="11.4518844"><ele>160.5</ele><time>2026-05-02T10:00:19.372Z</time></trkpt><trkpt lat="43.1386744" lon="11.4520249"><ele>159.75</ele><time>2026-05-02T10:00:20.348Z</time></trkpt><trkpt lat="43.1385859" lon="11.4521576"><ele>159.0</ele><time>2026-05-02T10:00:21.342Z</time></trkpt><trkpt lat="43.138495" lon="11.4522839"><ele>159.0</ele><time>2026-05-02T10:00:22.345Z</time></trkpt><trkpt lat="43.1383957" lon="11.452404"><ele>159.0</ele><time>2026-05-02T10:00:23.353Z</time></trkpt><trkpt lat="43.1382941" lon="11.4525172"><ele>159.0</ele><time>2026-05-02T10:00:24.363Z</time></trkpt><trkpt lat="43.1381834" lon="11.4526207"><ele>159.0</ele><time>2026-05-02T10:00:25.345Z</time></trkpt><trkpt lat="43.1380635" lon="11.4527139"><ele>159.66666666666666</ele><time>2026-05-02T10:00:26.352Z</time></trkpt><trkpt lat="43.1379326" lon="11.4528029"><ele>160.33333333333331</ele><time>2026-05-02T10:00:27.376Z</time></trkpt><trkpt lat="43.13779" lon="11.4528944"><ele>161.0</ele><time>2026-05-02T10:00:28.358Z</time></trkpt><trkpt lat="43.1376526" lon="11.4529808"><ele>161.0</ele><time>2026-05-02T10:00:29.373Z</time></trkpt><trkpt lat="43.137524" lon="11.4530621"><ele>161.0</ele><time>2026-05-02T10:00:30.356Z</time></trkpt><trkpt lat="43.1374028" lon="11.453146"><ele>161.0</ele><time>2026-05-02T10:00:31.354Z</time></trkpt><trkpt lat="43.1372876" lon="11.4532411"><ele>161.0</ele><time>2026-05-02T10:00:32.368Z</time></trkpt><trkpt lat="43.1371767" lon="11.4533422"><ele>161.0</ele><time>2026-05-02T10:00:33.375Z</time></trkpt><trkpt lat="43.1370667" lon="11.4534499"><ele>161.0</ele><time>2026-05-02T10:00:34.374Z</time></trkpt><trkpt lat="43.1369556" lon="11.4535641"><ele>161.0</ele><time>2026-05-02T10:00:35.361Z</time></trkpt><trkpt lat="43.1368436" lon="11.4536784"><ele>161.0</ele><time>2026-05-02T10:00:36.36Z</time></trkpt><trkpt lat="43.1367338" lon="11.4538002"><ele>161.0</ele><time>2026-05-02T10:00:37.351Z</time></trkpt><trkpt lat="43.136632" lon="11.4539269"><ele>161.0</ele><time>2026-05-02T10:00:38.355Z</time></trkpt><trkpt lat="43.1365336" lon="11.4540607"><ele>161.0</ele><time>2026-05-02T10:00:39.355Z</time></trkpt><trkpt lat="43.1364416" lon="11.4542002"><ele>161.0</ele><time>2026-05-02T10:00:40.352Z</time></trkpt><trkpt lat="43.1363534" lon="11.4543473"><ele>159.75</ele><time>2026-05-02T10:00:41.361Z</time></trkpt><trkpt lat="43.1362688" lon="11.4545028"><ele>158.5</ele><time>2026-05-02T10:00:42.359Z</time></trkpt><trkpt lat="43.1361875" lon="11.4546653"><ele>157.25</ele><time>2026-05-02T10:00:43.363Z</time></trkpt><trkpt lat="43.1361097" lon="11.4548327"><ele>156.0</ele><time>2026-05-02T10:00:44.353Z</time></trkpt><trkpt lat="43.1360328" lon="11.4550039"><ele>156.0</ele><time>2026-05-02T10:00:45.352Z</time></trkpt><trkpt lat="43.1359584" lon="11.455174"><ele>156.0</ele><time>2026-05-02T10:00:46.356Z</time></trkpt><trkpt lat="43.1358784" lon="11.4553367"><ele>156.0</ele><time>2026-05-02T10:00:47.347Z</time></trkpt><trkpt lat="43.1357906" lon="11.4554849"><ele>156.0</ele><time>2026-05-02T10:00:48.357Z</time></trkpt><trkpt lat="43.1357045" lon="11.4556282"><ele>155.0</ele><time>2026-05-02T10:00:49.343Z</time></trkpt><trkpt lat="43.135603" lon="11.4557414"><ele>154.0</ele><time>2026-05-02T10:00:50.352Z</time></trkpt><trkpt lat="43.1355014" lon="11.455848"><ele>153.0</ele><time>2026-05-02T10:00:51.347Z</time></trkpt><trkpt lat="43.1353985" lon="11.4559534"><ele>152.0</ele><time>2026-05-02T10:00:52.36Z</time></trkpt><trkpt lat="43.1352952" lon="11.456056"><ele>152.0</ele><time>2026-05-02T10:00:53.355Z</time></trkpt><trkpt lat="43.1351932" lon="11.4561577"><ele>152.0</ele><time>2026-05-02T10:00:54.351Z</time></trkpt><trkpt lat="43.1350929" lon="11.456259"><ele>152.0</ele><time>2026-05-02T10:00:55.351Z</time></trkpt><trkpt lat="43.1349928" lon="11.4563599"><ele>152.0</ele><time>2026-05-02T10:00:56.352Z</time></trkpt><trkpt lat="43.1348925" lon="11.4564634"><ele>152.0</ele><time>2026-05-02T10:00:57.353Z</time></trkpt><trkpt lat="43.1347889" lon="11.4565747"><ele>152.0</ele><time>2026-05-02T10:00:58.379Z</time></trkpt><trkpt lat="43.1346804" lon="11.4566909"><ele>152.0</ele><time>2026-05-02T10:00:59.345Z</time></trkpt><trkpt lat="43.1345671" lon="11.4568046"><ele>152.0</ele><time>2026-05-02T10:01:00.359Z</time></trkpt><trkpt lat="43.1344527" lon="11.4569181"><ele>152.0</ele><time>2026-05-02T10:01:01.348Z</time></trkpt><trkpt lat="43.1343392" lon="11.4570334"><ele>152.0</ele><time>2026-05-02T10:01:02.344Z</time></trkpt><trkpt lat="43.1342227" lon="11.4571483"><ele>152.0</ele><time>2026-05-02T10:01:03.339Z</time></trkpt><trkpt lat="43.1341067" lon="11.4572613"><ele>152.0</ele><time>2026-05-02T10:01:04.361Z</time></trkpt><trkpt lat="43.1339907" lon="11.457374"><ele>151.5</ele><time>2026-05-02T10:01:05.349Z</time></trkpt><trkpt lat="43.1338732" lon="11.457485"><ele>151.0</ele><time>2026-05-02T10:01:06.363Z</time></trkpt><trkpt lat="43.1337578" lon="11.4575922"><ele>150.5</ele><time>2026-05-02T10:01:07.352Z</time></trkpt><trkpt lat="43.1336456" lon="11.4576946"><ele>150.0</ele><time>2026-05-02T10:01:08.368Z</time></trkpt><trkpt lat="43.1335331" lon="11.4577932"><ele>150.0</ele><time>2026-05-02T10:01:09.343Z</time></trkpt><trkpt lat="43.1334207" lon="11.4578909"><ele>150.0</ele><time>2026-05-02T10:01:10.342Z</time></trkpt><trkpt lat="43.1333097" lon="11.4579915"><ele>150.0</ele><time>2026-05-02T10:01:11.343Z</time></trkpt><trkpt lat="43.1332025" lon="11.4580999"><ele>150.0</ele><time>2026-05-02T10:01:12.351Z</time></trkpt><trkpt lat="43.1331015" lon="11.4582154"><ele>149.25</ele><time>2026-05-02T10:01:13.35Z</time></trkpt><trkpt lat="43.1330012" lon="11.4583331"><ele>148.5</ele><time>2026-05-02T10:01:14.348Z</time></trkpt><trkpt lat="43.1329063" lon="11.458446"><ele>147.75</ele><time>2026-05-02T10:01:15.345Z</time></trkpt><trkpt lat="43.1328168" lon="11.4585534"><ele>147.0</ele><time>2026-05-02T10:01:16.35Z</time></trkpt><trkpt lat="43.1327413" lon="11.4586571"><ele>147.0</ele><time>2026-05-02T10:01:17.352Z</time></trkpt><trkpt lat="43.132674" lon="11.4587702"><ele>147.0</ele><time>2026-05-02T10:01:18.362Z</time></trkpt><trkpt lat="43.1326132" lon="11.4589009"><ele>147.0</ele><time>2026-05-02T10:01:19.352Z</time></trkpt><trkpt lat="43.1325413" lon="11.4590252"><ele>147.0</ele><time>2026-05-02T10:01:20.346Z</time></trkpt><trkpt lat="43.1324946" lon="11.4591854"><ele>146.5</ele><time>2026-05-02T10:01:21.363Z</time></trkpt><trkpt lat="43.1324453" lon="11.4593525"><ele>146.0</ele><time>2026-05-02T10:01:22.347Z</time></trkpt><trkpt lat="43.1324039" lon="11.4595308"><ele>145.5</ele><time>2026-05-02T10:01:23.361Z</time></trkpt><trkpt lat="43.1323595" lon="11.4597175"><ele>145.0</ele><time>2026-05-02T10:01:24.349Z</time></trkpt><trkpt lat="43.1323184" lon="11.4598982"><ele>145.0</ele><time>2026-05-02T10:01:25.351Z</time></trkpt><trkpt lat="43.1322811" lon="11.4600709"><ele>145.0</ele><time>2026-05-02T10:01:26.349Z</time></trkpt><trkpt lat="43.1322422" lon="11.460239"><ele>145.0</ele><time>2026-05-02T10:01:27.351Z</time></trkpt><trkpt lat="43.132201" lon="11.4604007"><ele>145.0</ele><time>2026-05-02T10:01:28.36Z</time></trkpt><trkpt lat="43.1321627" lon="11.4605531"><ele>145.2</ele><time>2026-05-02T10:01:29.354Z</time></trkpt><trkpt lat="43.1321328" lon="11.460696"><ele>145.4</ele><time>2026-05-02T10:01:30.348Z</time></trkpt><trkpt lat="43.1321133" lon="11.4608353"><ele>145.6</ele><time>2026-05-02T10:01:31.356Z</time></trkpt><trkpt lat="43.1321058" lon="11.4609741"><ele>145.8</ele><time>2026-05-02T10:01:32.345Z</time></trkpt><trkpt lat="43.1321081" lon="11.4611137"><ele>146.0</ele><time>2026-05-02T10:01:33.343Z</time></trkpt><trkpt lat="43.1321118" lon="11.4612522"><ele>146.0</ele><time>2026-05-02T10:01:34.348Z</time></trkpt><trkpt lat="43.1321277" lon="11.4613769"><ele>146.0</ele><time>2026-05-02T10:01:35.358Z</time></trkpt><trkpt lat="43.1321438" lon="11.461493"><ele>146.0</ele><time>2026-05-02T10:01:36.349Z</time></trkpt><trkpt lat="43.1321576" lon="11.4615932"><ele>146.0</ele><time>2026-05-02T10:01:37.357Z</time></trkpt><trkpt lat="43.1321628" lon="11.4616806"><ele>146.0</ele><time>2026-05-02T10:01:38.356Z</time></trkpt><trkpt lat="43.1321578" lon="11.4618287"><ele>146.0</ele><time>2026-05-02T10:01:40.36Z</time></trkpt><trkpt lat="43.1321445" lon="11.4619366"><ele>146.0</ele><time>2026-05-02T10:01:42.362Z</time></trkpt><trkpt lat="43.132147" lon="11.4620403"><ele>146.0</ele><time>2026-05-02T10:01:45.341Z</time></trkpt><trkpt lat="43.1321796" lon="11.4621511"><ele>146.0</ele><time>2026-05-02T10:01:48.345Z</time></trkpt><trkpt lat="43.1322119" lon="11.4622568"><ele>146.0</ele><time>2026-05-02T10:01:51.356Z</time></trkpt><trkpt lat="43.1322461" lon="11.4623471"><ele>146.0</ele><time>2026-05-02T10:01:54.36Z</time></trkpt><trkpt lat="43.1322264" lon="11.4622245"><ele>146.0</ele><time>2026-05-02T10:02:01.355Z</time></trkpt><trkpt lat="43.1321548" lon="11.462095"><ele>146.0</ele><time>2026-05-02T10:02:03.366Z</time></trkpt><trkpt lat="43.1321105" lon="11.4620069"><ele>146.0</ele><time>2026-05-02T10:02:04.35Z</time></trkpt><trkpt lat="43.1320642" lon="11.4619103"><ele>146.0</ele><time>2026-05-02T10:02:05.364Z</time></trkpt><trkpt lat="43.1320263" lon="11.4618167"><ele>146.0</ele><time>2026-05-02T10:02:06.349Z</time></trkpt><trkpt lat="43.1319908" lon="11.4617341"><ele>146.0</ele><time>2026-05-02T10:02:07.349Z</time></trkpt><trkpt lat="43.1319485" lon="11.461668"><ele>146.0</ele><time>2026-05-02T10:02:08.377Z</time></trkpt><trkpt lat="43.1318533" lon="11.4615889"><ele>146.0</ele><time>2026-05-02T10:02:10.354Z</time></trkpt><trkpt lat="43.1317436" lon="11.4615673"><ele>146.0</ele><time>2026-05-02T10:02:12.348Z</time></trkpt><trkpt lat="43.1316212" lon="11.4615519"><ele>146.0</ele><time>2026-05-02T10:02:14.366Z</time></trkpt><trkpt lat="43.1315533" lon="11.4615363"><ele>146.0</ele><time>2026-05-02T10:02:15.352Z</time></trkpt><trkpt lat="43.1314827" lon="11.4615119"><ele>146.0</ele><time>2026-05-02T10:02:16.354Z</time></trkpt><trkpt lat="43.1314105" lon="11.4614736"><ele>145.5</ele><time>2026-05-02T10:02:17.353Z</time></trkpt><trkpt lat="43.1313436" lon="11.4614093"><ele>145.0</ele><time>2026-05-02T10:02:18.374Z</time></trkpt><trkpt lat="43.1312863" lon="11.461323"><ele>144.5</ele><time>2026-05-02T10:02:19.35Z</time></trkpt><trkpt lat="43.1312317" lon="11.4612271"><ele>144.0</ele><time>2026-05-02T10:02:20.354Z</time></trkpt><trkpt lat="43.1311743" lon="11.4611302"><ele>143.5</ele><time>2026-05-02T10:02:21.354Z</time></trkpt><trkpt lat="43.1311111" lon="11.4610375"><ele>143.0</ele><time>2026-05-02T10:02:22.353Z</time></trkpt><trkpt lat="43.1310458" lon="11.4609547"><ele>143.0</ele><time>2026-05-02T10:02:23.376Z</time></trkpt><trkpt lat="43.1309791" lon="11.4608874"><ele>143.0</ele><time>2026-05-02T10:02:24.346Z</time></trkpt><trkpt lat="43.1309079" lon="11.4608444"><ele>143.0</ele><time>2026-05-02T10:02:25.349Z</time></trkpt><trkpt lat="43.1308337" lon="11.460822"><ele>143.0</ele><time>2026-05-02T10:02:26.375Z</time></trkpt><trkpt lat="43.1307575" lon="11.4608083"><ele>143.0</ele><time>2026-05-02T10:02:27.359Z</time></trkpt><trkpt lat="43.1306826" lon="11.4607828"><ele>143.0</ele><time>2026-05-02T10:02:28.353Z</time></trkpt><trkpt lat="43.1306125" lon="11.4607428"><ele>142.85714285714283</ele><time>2026-05-02T10:02:29.351Z</time></trkpt><trkpt lat="43.1305439" lon="11.4607023"><ele>142.71428571428572</ele><time>2026-05-02T10:02:30.375Z</time></trkpt><trkpt lat="43.130492" lon="11.4606316"><ele>142.57142857142856</ele><time>2026-05-02T10:02:31.368Z</time></trkpt><trkpt lat="43.1304535" lon="11.4605489"><ele>142.42857142857142</ele><time>2026-05-02T10:02:32.345Z</time></trkpt><trkpt lat="43.1304232" lon="11.4604583"><ele>142.28571428571428</ele><time>2026-05-02T10:02:33.365Z</time></trkpt><trkpt lat="43.1303979" lon="11.4603643"><ele>142.14285714285714</ele><time>2026-05-02T10:02:34.365Z</time></trkpt><trkpt lat="43.1303783" lon="11.4602705"><ele>142.0</ele><time>2026-05-02T10:02:35.356Z</time></trkpt><trkpt lat="43.1303426" lon="11.4601407"><ele>142.4</ele><time>2026-05-02T10:02:37.344Z</time></trkpt><trkpt lat="43.1303393" lon="11.4600254"><ele>142.79999999999998</ele><time>2026-05-02T10:04:54.346Z</time></trkpt><trkpt lat="43.1303211" lon="11.4599129"><ele>143.2</ele><time>2026-05-02T10:04:55.342Z</time></trkpt><trkpt lat="43.1302885" lon="11.4597536"><ele>143.6</ele><time>2026-05-02T10:04:56.349Z</time></trkpt><trkpt lat="43.1302465" lon="11.4595598"><ele>144.0</ele><time>2026-05-02T10:04:57.339Z</time></trkpt><trkpt lat="43.1301959" lon="11.4593229"><ele>144.33333333333334</ele><time>2026-05-02T10:04:58.341Z</time></trkpt><trkpt lat="43.1301463" lon="11.4590952"><ele>144.66666666666669</ele><time>2026-05-02T10:04:59.346Z</time></trkpt><trkpt lat="43.1300996" lon="11.4588887"><ele>145.0</ele><time>2026-05-02T10:05:00.357Z</time></trkpt><trkpt lat="43.1300592" lon="11.4587059"><ele>146.2</ele><time>2026-05-02T10:05:01.348Z</time></trkpt><trkpt lat="43.1300306" lon="11.4585511"><ele>147.4</ele><time>2026-05-02T10:05:02.347Z</time></trkpt><trkpt lat="43.1300198" lon="11.4584366"><ele>148.6</ele><time>2026-05-02T10:05:03.351Z</time></trkpt><trkpt lat="43.130028" lon="11.4582793"><ele>149.8</ele><time>2026-05-02T10:05:05.342Z</time></trkpt><trkpt lat="43.1299685" lon="11.4581426"><ele>151.0</ele><time>2026-05-02T10:05:07.35Z</time></trkpt><trkpt lat="43.1299196" lon="11.4580713"><ele>152.0</ele><time>2026-05-02T10:05:08.348Z</time></trkpt><trkpt lat="43.1298692" lon="11.4579885"><ele>153.0</ele><time>2026-05-02T10:05:09.348Z</time></trkpt><trkpt lat="43.1298183" lon="11.4578998"><ele>154.0</ele><time>2026-05-02T10:05:10.345Z</time></trkpt><trkpt lat="43.1297723" lon="11.4578077"><ele>155.0</ele><time>2026-05-02T10:05:11.359Z</time></trkpt><trkpt lat="43.129717" lon="11.4577115"><ele>156.0</ele><time>2026-05-02T10:05:12.362Z</time></trkpt><trkpt lat="43.1296565" lon="11.4576108"><ele>157.0</ele><time>2026-05-02T10:05:13.342Z</time></trkpt><trkpt lat="43.1295921" lon="11.4575069"><ele>157.8</ele><time>2026-05-02T10:05:14.358Z</time></trkpt><trkpt lat="43.1295254" lon="11.4573993"><ele>158.6</ele><time>2026-05-02T10:05:15.359Z</time></trkpt><trkpt lat="43.1294598" lon="11.4572869"><ele>159.4</ele><time>2026-05-02T10:05:16.342Z</time></trkpt><trkpt lat="43.1293931" lon="11.4571712"><ele>160.20000000000002</ele><time>2026-05-02T10:05:17.352Z</time></trkpt><trkpt lat="43.1293264" lon="11.4570551"><ele>161.0</ele><time>2026-05-02T10:05:18.367Z</time></trkpt><trkpt lat="43.129254" lon="11.4569275"><ele>161.5</ele><time>2026-05-02T10:05:19.344Z</time></trkpt><trkpt lat="43.1291776" lon="11.4567883"><ele>162.0</ele><time>2026-05-02T10:05:20.348Z</time></trkpt><trkpt lat="43.1290963" lon="11.4566429"><ele>162.5</ele><time>2026-05-02T10:05:21.358Z</time></trkpt><trkpt lat="43.1290112" lon="11.4564898"><ele>163.0</ele><time>2026-05-02T10:05:22.355Z</time></trkpt><trkpt lat="43.1289241" lon="11.4563341"><ele>166.0</ele><time>2026-05-02T10:05:23.342Z</time></trkpt><trkpt lat="43.128837" lon="11.4561761"><ele>169.0</ele><time>2026-05-02T10:05:24.341Z</time></trkpt><trkpt lat="43.1287537" lon="11.4560194"><ele>172.0</ele><time>2026-05-02T10:05:25.345Z</time></trkpt><trkpt lat="43.1286702" lon="11.455868"><ele>175.0</ele><time>2026-05-02T10:05:26.349Z</time></trkpt><trkpt lat="43.128581" lon="11.4557291"><ele>175.0</ele><time>2026-05-02T10:05:27.347Z</time></trkpt><trkpt lat="43.1284823" lon="11.4556042"><ele>175.0</ele><time>2026-05-02T10:05:28.354Z</time></trkpt><trkpt lat="43.1283644" lon="11.4555017"><ele>175.0</ele><time>2026-05-02T10:05:29.348Z</time></trkpt><trkpt lat="43.1282305" lon="11.4554233"><ele>175.0</ele><time>2026-05-02T10:05:30.347Z</time></trkpt><trkpt lat="43.1280867" lon="11.4553565"><ele>181.0</ele><time>2026-05-02T10:05:31.351Z</time></trkpt><trkpt lat="43.1279449" lon="11.455285"><ele>187.0</ele><time>2026-05-02T10:05:32.34Z</time></trkpt><trkpt lat="43.1277998" lon="11.4552134"><ele>193.0</ele><time>2026-05-02T10:05:33.36Z</time></trkpt><trkpt lat="43.1276613" lon="11.455149"><ele>193.0</ele><time>2026-05-02T10:05:34.344Z</time></trkpt><trkpt lat="43.1275258" lon="11.4550902"><ele>193.0</ele><time>2026-05-02T10:05:35.342Z</time></trkpt><trkpt lat="43.1274046" lon="11.4550315"><ele>193.0</ele><time>2026-05-02T10:05:36.354Z</time></trkpt><trkpt lat="43.1272931" lon="11.4549583"><ele>193.0</ele><time>2026-05-02T10:05:37.342Z</time></trkpt><trkpt lat="43.1271875" lon="11.4548656"><ele>195.75</ele><time>2026-05-02T10:05:38.343Z</time></trkpt><trkpt lat="43.12709" lon="11.4547454"><ele>198.5</ele><time>2026-05-02T10:05:39.34Z</time></trkpt><trkpt lat="43.1270043" lon="11.4546014"><ele>201.25</ele><time>2026-05-02T10:05:40.348Z</time></trkpt><trkpt lat="43.1269272" lon="11.4544339"><ele>204.0</ele><time>2026-05-02T10:05:41.347Z</time></trkpt><trkpt lat="43.1268621" lon="11.4542508"><ele>207.0</ele><time>2026-05-02T10:05:42.358Z</time></trkpt><trkpt lat="43.1268187" lon="11.4540514"><ele>210.0</ele><time>2026-05-02T10:05:43.348Z</time></trkpt><trkpt lat="43.1267983" lon="11.4538364"><ele>213.0</ele><time>2026-05-02T10:05:44.349Z</time></trkpt><trkpt lat="43.1267885" lon="11.4536128"><ele>215.0</ele><time>2026-05-02T10:05:45.355Z</time></trkpt><trkpt lat="43.1267784" lon="11.4533821"><ele>217.0</ele><time>2026-05-02T10:05:46.367Z</time></trkpt><trkpt lat="43.1267704" lon="11.4531496"><ele>219.0</ele><time>2026-05-02T10:05:47.344Z</time></trkpt><trkpt lat="43.1267705" lon="11.4529182"><ele>220.0</ele><time>2026-05-02T10:05:48.37Z</time></trkpt><trkpt lat="43.1267762" lon="11.4526931"><ele>221.0</ele><time>2026-05-02T10:05:49.368Z</time></trkpt><trkpt lat="43.1267784" lon="11.4524741"><ele>222.0</ele><time>2026-05-02T10:05:50.364Z</time></trkpt><trkpt lat="43.1267696" lon="11.452256"><ele>223.0</ele><time>2026-05-02T10:05:51.343Z</time></trkpt><trkpt lat="43.1267522" lon="11.4520345"><ele>224.0</ele><time>2026-05-02T10:05:52.351Z</time></trkpt><trkpt lat="43.1267316" lon="11.4518049"><ele>225.0</ele><time>2026-05-02T10:05:53.349Z</time></trkpt><trkpt lat="43.1267067" lon="11.4515716"><ele>225.0</ele><time>2026-05-02T10:05:54.354Z</time></trkpt><trkpt lat="43.1266687" lon="11.4513384"><ele>225.0</ele><time>2026-05-02T10:05:55.346Z</time></trkpt><trkpt lat="43.1266128" lon="11.4511133"><ele>225.0</ele><time>2026-05-02T10:05:56.351Z</time></trkpt><trkpt lat="43.126546" lon="11.4508954"><ele>225.0</ele><time>2026-05-02T10:05:57.352Z</time></trkpt><trkpt lat="43.1264763" lon="11.4506779"><ele>225.0</ele><time>2026-05-02T10:05:58.347Z</time></trkpt><trkpt lat="43.1264087" lon="11.4504596"><ele>225.0</ele><time>2026-05-02T10:05:59.369Z</time></trkpt><trkpt lat="43.1263455" lon="11.4502437"><ele>226.5</ele><time>2026-05-02T10:06:00.351Z</time></trkpt><trkpt lat="43.1262877" lon="11.45004"><ele>228.0</ele><time>2026-05-02T10:06:01.375Z</time></trkpt><trkpt lat="43.1262343" lon="11.4498529"><ele>229.5</ele><time>2026-05-02T10:06:02.344Z</time></trkpt><trkpt lat="43.126181" lon="11.4496841"><ele>231.0</ele><time>2026-05-02T10:06:03.351Z</time></trkpt><trkpt lat="43.126117" lon="11.4495292"><ele>233.0</ele><time>2026-05-02T10:06:04.368Z</time></trkpt><trkpt lat="43.1260329" lon="11.4493963"><ele>235.0</ele><time>2026-05-02T10:06:05.35Z</time></trkpt><trkpt lat="43.1259306" lon="11.44929"><ele>237.0</ele><time>2026-05-02T10:06:06.363Z</time></trkpt><trkpt lat="43.1258142" lon="11.4492111"><ele>239.0</ele><time>2026-05-02T10:06:07.366Z</time></trkpt><trkpt lat="43.1256876" lon="11.4491509"><ele>239.0</ele><time>2026-05-02T10:06:08.35Z</time></trkpt><trkpt lat="43.1255499" lon="11.4491002"><ele>239.0</ele><time>2026-05-02T10:06:09.35Z</time></trkpt><trkpt lat="43.1254067" lon="11.4490463"><ele>239.0</ele><time>2026-05-02T10:06:10.35Z</time></trkpt><trkpt lat="43.1252638" lon="11.4489911"><ele>239.0</ele><time>2026-05-02T10:06:11.352Z</time></trkpt><trkpt lat="43.125134" lon="11.4489395"><ele>239.0</ele><time>2026-05-02T10:06:12.347Z</time></trkpt><trkpt lat="43.1250239" lon="11.4488893"><ele>238.99999999999997</ele><time>2026-05-02T10:06:13.352Z</time></trkpt><trkpt lat="43.1249273" lon="11.4488399"><ele>238.99999999999997</ele><time>2026-05-02T10:06:14.349Z</time></trkpt><trkpt lat="43.1248344" lon="11.4487979"><ele>239.0</ele><time>2026-05-02T10:06:15.346Z</time></trkpt><trkpt lat="43.1247445" lon="11.4487733"><ele>239.0</ele><time>2026-05-02T10:06:16.348Z</time></trkpt><trkpt lat="43.1246606" lon="11.4487778"><ele>238.6</ele><time>2026-05-02T10:06:17.367Z</time></trkpt><trkpt lat="43.1245896" lon="11.4488177"><ele>238.2</ele><time>2026-05-02T10:06:18.341Z</time></trkpt><trkpt lat="43.1245165" lon="11.4488773"><ele>237.79999999999998</ele><time>2026-05-02T10:06:19.355Z</time></trkpt><trkpt lat="43.1244507" lon="11.4489808"><ele>237.39999999999998</ele><time>2026-05-02T10:06:20.347Z</time></trkpt><trkpt lat="43.124383" lon="11.4490868"><ele>237.0</ele><time>2026-05-02T10:06:21.349Z</time></trkpt><trkpt lat="43.1242933" lon="11.4491753"><ele>237.0</ele><time>2026-05-02T10:06:22.375Z</time></trkpt><trkpt lat="43.1241889" lon="11.4492341"><ele>237.0</ele><time>2026-05-02T10:06:23.371Z</time></trkpt><trkpt lat="43.1240701" lon="11.4492483"><ele>237.0</ele><time>2026-05-02T10:06:24.379Z</time></trkpt><trkpt lat="43.1239465" lon="11.449236"><ele>237.0</ele><time>2026-05-02T10:06:25.344Z</time></trkpt><trkpt lat="43.123817" lon="11.4491983"><ele>236.25</ele><time>2026-05-02T10:06:26.349Z</time></trkpt><trkpt lat="43.1236856" lon="11.4491508"><ele>235.5</ele><time>2026-05-02T10:06:27.348Z</time></trkpt><trkpt lat="43.123554" lon="11.4491049"><ele>234.75</ele><time>2026-05-02T10:06:28.351Z</time></trkpt><trkpt lat="43.123425" lon="11.4490644"><ele>234.0</ele><time>2026-05-02T10:06:29.35Z</time></trkpt><trkpt lat="43.1232988" lon="11.4490232"><ele>233.25</ele><time>2026-05-02T10:06:30.359Z</time></trkpt><trkpt lat="43.1231703" lon="11.4489807"><ele>232.5</ele><time>2026-05-02T10:06:31.352Z</time></trkpt><trkpt lat="43.1230406" lon="11.4489372"><ele>231.75</ele><time>2026-05-02T10:06:32.354Z</time></trkpt><trkpt lat="43.1229078" lon="11.4488942"><ele>231.0</ele><time>2026-05-02T10:06:33.354Z</time></trkpt><trkpt lat="43.1227837" lon="11.4488541"><ele>231.0</ele><time>2026-05-02T10:06:34.354Z</time></trkpt><trkpt lat="43.1226693" lon="11.448821"><ele>231.00000000000003</ele><time>2026-05-02T10:06:35.35Z</time></trkpt><trkpt lat="43.122566" lon="11.4487731"><ele>231.00000000000003</ele><time>2026-05-02T10:06:36.349Z</time></trkpt><trkpt lat="43.122479" lon="11.4487345"><ele>231.0</ele><time>2026-05-02T10:06:37.351Z</time></trkpt><trkpt lat="43.1223917" lon="11.4486989"><ele>231.0</ele><time>2026-05-02T10:06:38.352Z</time></trkpt><trkpt lat="43.1223036" lon="11.4486662"><ele>229.83333333333334</ele><time>2026-05-02T10:06:39.371Z</time></trkpt><trkpt lat="43.1222222" lon="11.4486339"><ele>228.66666666666669</ele><time>2026-05-02T10:06:40.348Z</time></trkpt><trkpt lat="43.122143" lon="11.4486064"><ele>227.5</ele><time>2026-05-02T10:06:41.372Z</time></trkpt><trkpt lat="43.1220643" lon="11.4485794"><ele>226.33333333333334</ele><time>2026-05-02T10:06:42.351Z</time></trkpt><trkpt lat="43.1219827" lon="11.4485551"><ele>225.16666666666669</ele><time>2026-05-02T10:06:43.35Z</time></trkpt><trkpt lat="43.1218949" lon="11.4485235"><ele>224.0</ele><time>2026-05-02T10:06:44.351Z</time></trkpt><trkpt lat="43.1218068" lon="11.4484899"><ele>224.00000000000003</ele><time>2026-05-02T10:06:45.353Z</time></trkpt><trkpt lat="43.1217227" lon="11.4484594"><ele>224.0</ele><time>2026-05-02T10:06:46.364Z</time></trkpt><trkpt lat="43.1216444" lon="11.4484297"><ele>224.0</ele><time>2026-05-02T10:06:47.353Z</time></trkpt><trkpt lat="43.1215806" lon="11.4484096"><ele>224.0</ele><time>2026-05-02T10:06:48.352Z</time></trkpt><trkpt lat="43.1214954" lon="11.448386"><ele>224.00000000000003</ele><time>2026-05-02T10:06:50.357Z</time></trkpt><trkpt lat="43.1213848" lon="11.4483573"><ele>224.0</ele><time>2026-05-02T10:07:13.361Z</time></trkpt><trkpt lat="43.1212754" lon="11.4483302"><ele>222.39999999999998</ele><time>2026-05-02T10:07:15.375Z</time></trkpt><trkpt lat="43.1211937" lon="11.4482998"><ele>220.79999999999998</ele><time>2026-05-02T10:07:16.372Z</time></trkpt><trkpt lat="43.1210951" lon="11.4482618"><ele>219.20000000000002</ele><time>2026-05-02T10:07:17.355Z</time></trkpt><trkpt lat="43.1209817" lon="11.448215"><ele>217.60000000000002</ele><time>2026-05-02T10:07:18.348Z</time></trkpt><trkpt lat="43.1208521" lon="11.4481608"><ele>216.0</ele><time>2026-05-02T10:07:19.354Z</time></trkpt><trkpt lat="43.1207108" lon="11.4481031"><ele>213.66666666666669</ele><time>2026-05-02T10:07:20.38Z</time></trkpt><trkpt lat="43.120564" lon="11.4480443"><ele>211.33333333333334</ele><time>2026-05-02T10:07:21.358Z</time></trkpt><trkpt lat="43.1204097" lon="11.4479812"><ele>209.0</ele><time>2026-05-02T10:07:22.348Z</time></trkpt><trkpt lat="43.120253" lon="11.447914"><ele>209.0</ele><time>2026-05-02T10:07:23.351Z</time></trkpt><trkpt lat="43.1200972" lon="11.4478427"><ele>209.0</ele><time>2026-05-02T10:07:24.342Z</time></trkpt><trkpt lat="43.1199424" lon="11.4477751"><ele>209.0</ele><time>2026-05-02T10:07:25.347Z</time></trkpt><trkpt lat="43.1197906" lon="11.447712"><ele>206.0</ele><time>2026-05-02T10:07:26.36Z</time></trkpt><trkpt lat="43.1196411" lon="11.4476523"><ele>203.0</ele><time>2026-05-02T10:07:27.35Z</time></trkpt><trkpt lat="43.119494" lon="11.447594"><ele>200.0</ele><time>2026-05-02T10:07:28.352Z</time></trkpt><trkpt lat="43.1193554" lon="11.447538"><ele>200.0</ele><time>2026-05-02T10:07:29.374Z</time></trkpt><trkpt lat="43.1192271" lon="11.4474841"><ele>200.0</ele><time>2026-05-02T10:07:30.351Z</time></trkpt><trkpt lat="43.1191094" lon="11.447436"><ele>200.0</ele><time>2026-05-02T10:07:31.356Z</time></trkpt><trkpt lat="43.1190022" lon="11.4473943"><ele>200.0</ele><time>2026-05-02T10:07:32.355Z</time></trkpt><trkpt lat="43.1189051" lon="11.4473583"><ele>199.00000000000003</ele><time>2026-05-02T10:07:33.352Z</time></trkpt><trkpt lat="43.118816" lon="11.4473353"><ele>198.0</ele><time>2026-05-02T10:07:34.358Z</time></trkpt><trkpt lat="43.1187308" lon="11.4473273"><ele>197.0</ele><time>2026-05-02T10:07:35.351Z</time></trkpt><trkpt lat="43.1186448" lon="11.4473354"><ele>196.0</ele><time>2026-05-02T10:07:36.353Z</time></trkpt><trkpt lat="43.1185622" lon="11.4473585"><ele>195.00000000000003</ele><time>2026-05-02T10:07:37.364Z</time></trkpt><trkpt lat="43.118484" lon="11.4473898"><ele>194.0</ele><time>2026-05-02T10:07:38.347Z</time></trkpt><trkpt lat="43.1184065" lon="11.4474287"><ele>194.00000000000003</ele><time>2026-05-02T10:07:39.355Z</time></trkpt><trkpt lat="43.1183288" lon="11.4474665"><ele>194.0</ele><time>2026-05-02T10:07:40.359Z</time></trkpt><trkpt lat="43.1182541" lon="11.4474944"><ele>194.0</ele><time>2026-05-02T10:07:41.357Z</time></trkpt><trkpt lat="43.1181714" lon="11.4475245"><ele>194.0</ele><time>2026-05-02T10:07:42.346Z</time></trkpt><trkpt lat="43.1180921" lon="11.4475471"><ele>194.00000000000003</ele><time>2026-05-02T10:07:43.353Z</time></trkpt><trkpt lat="43.1180205" lon="11.4475472"><ele>194.0</ele><time>2026-05-02T10:07:44.355Z</time></trkpt><trkpt lat="43.1179326" lon="11.4475297"><ele>191.5</ele><time>2026-05-02T10:07:45.349Z</time></trkpt><trkpt lat="43.1178254" lon="11.4474922"><ele>189.0</ele><time>2026-05-02T10:07:46.379Z</time></trkpt><trkpt lat="43.1177166" lon="11.4474508"><ele>186.5</ele><time>2026-05-02T10:07:47.348Z</time></trkpt><trkpt lat="43.1175896" lon="11.447412"><ele>184.0</ele><time>2026-05-02T10:07:48.35Z</time></trkpt><trkpt lat="43.1174614" lon="11.4473713"><ele>181.5</ele><time>2026-05-02T10:07:49.353Z</time></trkpt><trkpt lat="43.1173227" lon="11.4473209"><ele>179.0</ele><time>2026-05-02T10:07:50.358Z</time></trkpt><trkpt lat="43.1171788" lon="11.4472713"><ele>176.5</ele><time>2026-05-02T10:07:51.379Z</time></trkpt><trkpt lat="43.1170403" lon="11.4472207"><ele>174.0</ele><time>2026-05-02T10:07:52.351Z</time></trkpt><trkpt lat="43.1169052" lon="11.4471722"><ele>174.25</ele><time>2026-05-02T10:07:53.352Z</time></trkpt><trkpt lat="43.1167788" lon="11.4471182"><ele>174.5</ele><time>2026-05-02T10:07:54.373Z</time></trkpt><trkpt lat="43.11664" lon="11.4470748"><ele>174.75</ele><time>2026-05-02T10:07:55.354Z</time></trkpt><trkpt lat="43.1165035" lon="11.4470286"><ele>175.0</ele><time>2026-05-02T10:07:56.35Z</time></trkpt><trkpt lat="43.1163694" lon="11.4469763"><ele>173.75</ele><time>2026-05-02T10:07:57.348Z</time></trkpt><trkpt lat="43.1162361" lon="11.4469226"><ele>172.5</ele><time>2026-05-02T10:07:58.361Z</time></trkpt><trkpt lat="43.1161085" lon="11.4468629"><ele>171.25</ele><time>2026-05-02T10:07:59.348Z</time></trkpt><trkpt lat="43.115987" lon="11.4468151"><ele>170.0</ele><time>2026-05-02T10:08:00.352Z</time></trkpt><trkpt lat="43.1158773" lon="11.4467528"><ele>170.0</ele><time>2026-05-02T10:08:01.374Z</time></trkpt><trkpt lat="43.1157767" lon="11.4466846"><ele>170.0</ele><time>2026-05-02T10:08:02.35Z</time></trkpt><trkpt lat="43.115686" lon="11.4466065"><ele>170.0</ele><time>2026-05-02T10:08:03.359Z</time></trkpt><trkpt lat="43.1156058" lon="11.4465213"><ele>170.0</ele><time>2026-05-02T10:08:04.38Z</time></trkpt><trkpt lat="43.1155446" lon="11.4464464"><ele>170.0</ele><time>2026-05-02T10:08:05.372Z</time></trkpt><trkpt lat="43.1154846" lon="11.4463409"><ele>169.5</ele><time>2026-05-02T10:08:07.367Z</time></trkpt><trkpt lat="43.1154458" lon="11.4462282"><ele>169.0</ele><time>2026-05-02T10:08:09.37Z</time></trkpt><trkpt lat="43.1153617" lon="11.4461046"><ele>168.5</ele><time>2026-05-02T10:08:11.377Z</time></trkpt><trkpt lat="43.1153058" lon="11.446029"><ele>168.0</ele><time>2026-05-02T10:08:12.378Z</time></trkpt><trkpt lat="43.1152582" lon="11.4459555"><ele>167.5</ele><time>2026-05-02T10:08:13.356Z</time></trkpt><trkpt lat="43.1152182" lon="11.4458626"><ele>167.0</ele><time>2026-05-02T10:08:14.353Z</time></trkpt><trkpt lat="43.1151899" lon="11.4457499"><ele>167.0</ele><time>2026-05-02T10:08:15.371Z</time></trkpt><trkpt lat="43.1151709" lon="11.4456128"><ele>167.0</ele><time>2026-05-02T10:08:16.353Z</time></trkpt><trkpt lat="43.1151616" lon="11.4454613"><ele>167.0</ele><time>2026-05-02T10:08:17.344Z</time></trkpt><trkpt lat="43.1151553" lon="11.4453013"><ele>167.0</ele><time>2026-05-02T10:08:18.352Z</time></trkpt><trkpt lat="43.1151498" lon="11.4451519"><ele>167.0</ele><time>2026-05-02T10:08:19.353Z</time></trkpt><trkpt lat="43.1151354" lon="11.4450005"><ele>166.39999999999998</ele><time>2026-05-02T10:08:20.352Z</time></trkpt><trkpt lat="43.1151188" lon="11.4448526"><ele>165.79999999999998</ele><time>2026-05-02T10:08:21.358Z</time></trkpt><trkpt lat="43.1150987" lon="11.4447171"><ele>165.2</ele><time>2026-05-02T10:08:22.36Z</time></trkpt><trkpt lat="43.1150694" lon="11.4445821"><ele>164.6</ele><time>2026-05-02T10:08:23.349Z</time></trkpt><trkpt lat="43.1150296" lon="11.4444474"><ele>164.0</ele><time>2026-05-02T10:08:24.356Z</time></trkpt><trkpt lat="43.1149983" lon="11.4443048"><ele>163.6</ele><time>2026-05-02T10:08:25.345Z</time></trkpt><trkpt lat="43.1149903" lon="11.4441756"><ele>163.2</ele><time>2026-05-02T10:08:26.346Z</time></trkpt><trkpt lat="43.1149741" lon="11.4440507"><ele>162.79999999999998</ele><time>2026-05-02T10:08:27.364Z</time></trkpt><trkpt lat="43.1149715" lon="11.4439221"><ele>162.39999999999998</ele><time>2026-05-02T10:08:28.35Z</time></trkpt><trkpt lat="43.1149693" lon="11.4437985"><ele>162.0</ele><time>2026-05-02T10:08:29.342Z</time></trkpt><trkpt lat="43.1149615" lon="11.4436666"><ele>161.0</ele><time>2026-05-02T10:08:30.343Z</time></trkpt><trkpt lat="43.11495" lon="11.4435202"><ele>160.0</ele><time>2026-05-02T10:08:31.346Z</time></trkpt><trkpt lat="43.11494" lon="11.4433746"><ele>159.0</ele><time>2026-05-02T10:08:32.354Z</time></trkpt><trkpt lat="43.1149191" lon="11.4432311"><ele>158.0</ele><time>2026-05-02T10:08:33.347Z</time></trkpt><trkpt lat="43.114897" lon="11.4430884"><ele>157.0</ele><time>2026-05-02T10:08:34.342Z</time></trkpt><trkpt lat="43.114873" lon="11.4429636"><ele>154.33333333333334</ele><time>2026-05-02T10:08:35.345Z</time></trkpt><trkpt lat="43.1148529" lon="11.442849"><ele>151.66666666666669</ele><time>2026-05-02T10:08:36.344Z</time></trkpt><trkpt lat="43.1148367" lon="11.442747"><ele>149.0</ele><time>2026-05-02T10:08:37.345Z</time></trkpt><trkpt lat="43.1148218" lon="11.4426574"><ele>146.33333333333334</ele><time>2026-05-02T10:08:38.346Z</time></trkpt><trkpt lat="43.1147838" lon="11.4425638"><ele>143.66666666666666</ele><time>2026-05-02T10:08:40.345Z</time></trkpt><trkpt lat="43.1146942" lon="11.4425942"><ele>141.0</ele><time>2026-05-02T10:08:44.347Z</time></trkpt><trkpt lat="43.1146074" lon="11.4426716"><ele>141.0</ele><time>2026-05-02T10:08:46.354Z</time></trkpt><trkpt lat="43.1144894" lon="11.4427412"><ele>141.0</ele><time>2026-05-02T10:08:48.345Z</time></trkpt><trkpt lat="43.1144233" lon="11.442781"><ele>141.0</ele><time>2026-05-02T10:08:49.347Z</time></trkpt><trkpt lat="43.1143545" lon="11.4428283"><ele>141.0</ele><time>2026-05-02T10:08:50.349Z</time></trkpt><trkpt lat="43.1142869" lon="11.4428902"><ele>141.0</ele><time>2026-05-02T10:08:51.355Z</time></trkpt><trkpt lat="43.1142255" lon="11.4429681"><ele>141.0</ele><time>2026-05-02T10:08:52.344Z</time></trkpt><trkpt lat="43.1141793" lon="11.4430573"><ele>140.4</ele><time>2026-05-02T10:08:53.347Z</time></trkpt><trkpt lat="43.1141439" lon="11.4431563"><ele>139.8</ele><time>2026-05-02T10:08:54.355Z</time></trkpt><trkpt lat="43.1141101" lon="11.4432689"><ele>139.20000000000002</ele><time>2026-05-02T10:08:55.356Z</time></trkpt><trkpt lat="43.1140714" lon="11.4433874"><ele>138.6</ele><time>2026-05-02T10:08:56.352Z</time></trkpt><trkpt lat="43.114028" lon="11.4435154"><ele>138.0</ele><time>2026-05-02T10:08:57.344Z</time></trkpt><trkpt lat="43.113982" lon="11.4436546"><ele>138.0</ele><time>2026-05-02T10:08:58.352Z</time></trkpt><trkpt lat="43.1139345" lon="11.443795"><ele>138.0</ele><time>2026-05-02T10:08:59.344Z</time></trkpt><trkpt lat="43.1138876" lon="11.4439339"><ele>138.0</ele><time>2026-05-02T10:09:00.35Z</time></trkpt><trkpt lat="43.1138375" lon="11.4440799"><ele>138.0</ele><time>2026-05-02T10:09:01.343Z</time></trkpt><trkpt lat="43.1137854" lon="11.444233"><ele>138.75</ele><time>2026-05-02T10:09:02.343Z</time></trkpt><trkpt lat="43.1137315" lon="11.4443911"><ele>139.5</ele><time>2026-05-02T10:09:03.361Z</time></trkpt><trkpt lat="43.113677" lon="11.4445475"><ele>140.25</ele><time>2026-05-02T10:09:04.351Z</time></trkpt><trkpt lat="43.1136231" lon="11.4446972"><ele>141.0</ele><time>2026-05-02T10:09:05.355Z</time></trkpt><trkpt lat="43.1135674" lon="11.4448385"><ele>142.0</ele><time>2026-05-02T10:09:06.351Z</time></trkpt><trkpt lat="43.1135075" lon="11.444968"><ele>143.0</ele><time>2026-05-02T10:09:07.368Z</time></trkpt><trkpt lat="43.1134401" lon="11.4450845"><ele>144.0</ele><time>2026-05-02T10:09:08.349Z</time></trkpt><trkpt lat="43.1133633" lon="11.4451977"><ele>145.0</ele><time>2026-05-02T10:09:09.368Z</time></trkpt><trkpt lat="43.1132811" lon="11.4453143"><ele>144.2</ele><time>2026-05-02T10:09:10.369Z</time></trkpt><trkpt lat="43.1131999" lon="11.4454309"><ele>143.4</ele><time>2026-05-02T10:09:11.376Z</time></trkpt><trkpt lat="43.1131227" lon="11.4455419"><ele>142.6</ele><time>2026-05-02T10:09:12.366Z</time></trkpt><trkpt lat="43.1130475" lon="11.4456467"><ele>141.8</ele><time>2026-05-02T10:09:13.358Z</time></trkpt><trkpt lat="43.112973" lon="11.4457394"><ele>141.0</ele><time>2026-05-02T10:09:14.346Z</time></trkpt><trkpt lat="43.1128991" lon="11.4458143"><ele>141.0</ele><time>2026-05-02T10:09:15.368Z</time></trkpt><trkpt lat="43.1128209" lon="11.4458694"><ele>141.0</ele><time>2026-05-02T10:09:16.352Z</time></trkpt><trkpt lat="43.1127397" lon="11.4459012"><ele>141.0</ele><time>2026-05-02T10:09:17.346Z</time></trkpt><trkpt lat="43.1126663" lon="11.4459127"><ele>141.0</ele><time>2026-05-02T10:09:18.371Z</time></trkpt><trkpt lat="43.1125659" lon="11.4459455"><ele>141.0</ele><time>2026-05-02T10:09:20.349Z</time></trkpt><trkpt lat="43.1124907" lon="11.446027"><ele>141.0</ele><time>2026-05-02T10:09:22.354Z</time></trkpt><trkpt lat="43.112457" lon="11.4461112"><ele>141.0</ele><time>2026-05-02T10:09:23.356Z</time></trkpt><trkpt lat="43.1124243" lon="11.446204"><ele>141.0</ele><time>2026-05-02T10:09:24.351Z</time></trkpt><trkpt lat="43.1123952" lon="11.4463042"><ele>141.0</ele><time>2026-05-02T10:09:25.352Z</time></trkpt><trkpt lat="43.1123407" lon="11.4464147"><ele>141.0</ele><time>2026-05-02T10:09:26.353Z</time></trkpt><trkpt lat="43.1122803" lon="11.4465452"><ele>141.0</ele><time>2026-05-02T10:09:27.352Z</time></trkpt><trkpt lat="43.1122195" lon="11.4466833"><ele>141.25</ele><time>2026-05-02T10:09:28.367Z</time></trkpt><trkpt lat="43.1121662" lon="11.4468251"><ele>141.5</ele><time>2026-05-02T10:09:29.382Z</time></trkpt><trkpt lat="43.1121094" lon="11.4469606"><ele>141.75</ele><time>2026-05-02T10:09:30.366Z</time></trkpt><trkpt lat="43.1120488" lon="11.4470916"><ele>142.0</ele><time>2026-05-02T10:09:31.362Z</time></trkpt><trkpt lat="43.1119892" lon="11.4472118"><ele>143.4</ele><time>2026-05-02T10:09:32.365Z</time></trkpt><trkpt lat="43.1119428" lon="11.4473288"><ele>144.79999999999998</ele><time>2026-05-02T10:09:33.36Z</time></trkpt><trkpt lat="43.1118988" lon="11.4474416"><ele>146.2</ele><time>2026-05-02T10:09:34.368Z</time></trkpt><trkpt lat="43.1118818" lon="11.4475563"><ele>147.6</ele><time>2026-05-02T10:09:35.368Z</time></trkpt><trkpt lat="43.1118782" lon="11.447678"><ele>149.0</ele><time>2026-05-02T10:09:36.367Z</time></trkpt><trkpt lat="43.1118745" lon="11.4478083"><ele>149.0</ele><time>2026-05-02T10:09:37.362Z</time></trkpt><trkpt lat="43.1118901" lon="11.4479501"><ele>149.0</ele><time>2026-05-02T10:09:38.357Z</time></trkpt><trkpt lat="43.1119052" lon="11.4480906"><ele>149.0</ele><time>2026-05-02T10:09:39.369Z</time></trkpt><trkpt lat="43.1119118" lon="11.4482333"><ele>149.0</ele><time>2026-05-02T10:09:40.36Z</time></trkpt><trkpt lat="43.1119131" lon="11.4483778"><ele>149.0</ele><time>2026-05-02T10:09:41.363Z</time></trkpt><trkpt lat="43.1119117" lon="11.4485076"><ele>149.33333333333331</ele><time>2026-05-02T10:09:42.384Z</time></trkpt><trkpt lat="43.1119094" lon="11.4486234"><ele>149.66666666666666</ele><time>2026-05-02T10:09:43.357Z</time></trkpt><trkpt lat="43.1119126" lon="11.4487283"><ele>150.0</ele><time>2026-05-02T10:09:44.359Z</time></trkpt><trkpt lat="43.1119162" lon="11.4488224"><ele>150.33333333333334</ele><time>2026-05-02T10:09:45.351Z</time></trkpt><trkpt lat="43.1119386" lon="11.4489105"><ele>150.66666666666669</ele><time>2026-05-02T10:09:46.37Z</time></trkpt><trkpt lat="43.1119747" lon="11.4490126"><ele>151.0</ele><time>2026-05-02T10:09:48.369Z</time></trkpt><trkpt lat="43.1119605" lon="11.4488998"><ele>151.5</ele><time>2026-05-02T10:16:49.386Z</time></trkpt><trkpt lat="43.1119427" lon="11.448728"><ele>152.0</ele><time>2026-05-02T10:16:51.376Z</time></trkpt><trkpt lat="43.1119415" lon="11.4486338"><ele>152.5</ele><time>2026-05-02T10:16:52.364Z</time></trkpt><trkpt lat="43.1119407" lon="11.4485315"><ele>153.0</ele><time>2026-05-02T10:16:53.375Z</time></trkpt><trkpt lat="43.1119409" lon="11.4484241"><ele>153.5</ele><time>2026-05-02T10:16:54.376Z</time></trkpt><trkpt lat="43.1119416" lon="11.4483153"><ele>154.0</ele><time>2026-05-02T10:16:55.363Z</time></trkpt><trkpt lat="43.1119348" lon="11.448207"><ele>154.0</ele><time>2026-05-02T10:16:56.371Z</time></trkpt><trkpt lat="43.11192" lon="11.4481071"><ele>154.0</ele><time>2026-05-02T10:16:57.373Z</time></trkpt><trkpt lat="43.1119118" lon="11.4480108"><ele>154.0</ele><time>2026-05-02T10:16:58.364Z</time></trkpt><trkpt lat="43.1119042" lon="11.4479158"><ele>154.0</ele><time>2026-05-02T10:16:59.378Z</time></trkpt><trkpt lat="43.1118994" lon="11.4478217"><ele>154.0</ele><time>2026-05-02T10:17:00.379Z</time></trkpt><trkpt lat="43.1118953" lon="11.4477295"><ele>154.0</ele><time>2026-05-02T10:17:01.366Z</time></trkpt><trkpt lat="43.1118957" lon="11.4476372"><ele>154.0</ele><time>2026-05-02T10:17:02.388Z</time></trkpt><trkpt lat="43.111905" lon="11.4475432"><ele>153.28571428571428</ele><time>2026-05-02T10:17:03.366Z</time></trkpt><trkpt lat="43.1119238" lon="11.4474503"><ele>152.57142857142856</ele><time>2026-05-02T10:17:04.4Z</time></trkpt><trkpt lat="43.1119525" lon="11.4473595"><ele>151.85714285714286</ele><time>2026-05-02T10:17:05.373Z</time></trkpt><trkpt lat="43.1119865" lon="11.4472729"><ele>151.14285714285714</ele><time>2026-05-02T10:17:06.381Z</time></trkpt><trkpt lat="43.1120262" lon="11.4471887"><ele>150.42857142857142</ele><time>2026-05-02T10:17:07.366Z</time></trkpt><trkpt lat="43.1120668" lon="11.447099"><ele>149.71428571428572</ele><time>2026-05-02T10:17:08.372Z</time></trkpt><trkpt lat="43.1121074" lon="11.4470035"><ele>149.0</ele><time>2026-05-02T10:17:09.367Z</time></trkpt><trkpt lat="43.1121503" lon="11.4469002"><ele>147.6</ele><time>2026-05-02T10:17:10.373Z</time></trkpt><trkpt lat="43.1121939" lon="11.4467932"><ele>146.2</ele><time>2026-05-02T10:17:11.387Z</time></trkpt><trkpt lat="43.1122437" lon="11.446673"><ele>144.79999999999998</ele><time>2026-05-02T10:17:12.372Z</time></trkpt><trkpt lat="43.1122952" lon="11.4465467"><ele>143.4</ele><time>2026-05-02T10:17:13.389Z</time></trkpt><trkpt lat="43.1123436" lon="11.4464236"><ele>142.0</ele><time>2026-05-02T10:17:14.374Z</time></trkpt><trkpt lat="43.1123915" lon="11.4463037"><ele>141.83333333333334</ele><time>2026-05-02T10:17:15.372Z</time></trkpt><trkpt lat="43.1124318" lon="11.4461926"><ele>141.66666666666669</ele><time>2026-05-02T10:17:16.378Z</time></trkpt><trkpt lat="43.1124654" lon="11.4460915"><ele>141.5</ele><time>2026-05-02T10:17:17.407Z</time></trkpt><trkpt lat="43.1125006" lon="11.4460104"><ele>141.33333333333334</ele><time>2026-05-02T10:17:18.383Z</time></trkpt><trkpt lat="43.1126033" lon="11.4459258"><ele>141.16666666666666</ele><time>2026-05-02T10:17:20.371Z</time></trkpt><trkpt lat="43.1126719" lon="11.4459124"><ele>141.0</ele><time>2026-05-02T10:17:21.378Z</time></trkpt><trkpt lat="43.1127472" lon="11.4458964"><ele>141.0</ele><time>2026-05-02T10:17:22.371Z</time></trkpt><trkpt lat="43.1128243" lon="11.4458593"><ele>141.0</ele><time>2026-05-02T10:17:23.38Z</time></trkpt><trkpt lat="43.1129011" lon="11.4458017"><ele>141.0</ele><time>2026-05-02T10:17:24.365Z</time></trkpt><trkpt lat="43.1129736" lon="11.4457255"><ele>141.0</ele><time>2026-05-02T10:17:25.371Z</time></trkpt><trkpt lat="43.1130448" lon="11.4456345"><ele>141.0</ele><time>2026-05-02T10:17:26.388Z</time></trkpt><trkpt lat="43.1131155" lon="11.4455359"><ele>140.6</ele><time>2026-05-02T10:17:27.376Z</time></trkpt><trkpt lat="43.1131837" lon="11.4454417"><ele>140.2</ele><time>2026-05-02T10:17:28.385Z</time></trkpt><trkpt lat="43.1132562" lon="11.4453469"><ele>139.8</ele><time>2026-05-02T10:17:29.377Z</time></trkpt><trkpt lat="43.1133314" lon="11.4452483"><ele>139.4</ele><time>2026-05-02T10:17:30.381Z</time></trkpt><trkpt lat="43.1134059" lon="11.4451467"><ele>139.0</ele><time>2026-05-02T10:17:31.39Z</time></trkpt><trkpt lat="43.1134738" lon="11.4450409"><ele>139.5</ele><time>2026-05-02T10:17:32.375Z</time></trkpt><trkpt lat="43.1135359" lon="11.4449227"><ele>140.0</ele><time>2026-05-02T10:17:33.367Z</time></trkpt><trkpt lat="43.1135939" lon="11.4447875"><ele>140.5</ele><time>2026-05-02T10:17:34.403Z</time></trkpt><trkpt lat="43.1136504" lon="11.4446394"><ele>141.0</ele><time>2026-05-02T10:17:35.386Z</time></trkpt><trkpt lat="43.1137066" lon="11.4444833"><ele>141.0</ele><time>2026-05-02T10:17:36.376Z</time></trkpt><trkpt lat="43.1137638" lon="11.4443213"><ele>141.0</ele><time>2026-05-02T10:17:37.357Z</time></trkpt><trkpt lat="43.1138213" lon="11.4441563"><ele>141.0</ele><time>2026-05-02T10:17:38.366Z</time></trkpt><trkpt lat="43.1138769" lon="11.4439914"><ele>141.0</ele><time>2026-05-02T10:17:39.368Z</time></trkpt><trkpt lat="43.1139329" lon="11.4438305"><ele>140.25</ele><time>2026-05-02T10:17:40.37Z</time></trkpt><trkpt lat="43.1139884" lon="11.4436734"><ele>139.5</ele><time>2026-05-02T10:17:41.371Z</time></trkpt><trkpt lat="43.1140395" lon="11.4435212"><ele>138.75</ele><time>2026-05-02T10:17:42.378Z</time></trkpt><trkpt lat="43.1140856" lon="11.4433768"><ele>138.0</ele><time>2026-05-02T10:17:43.37Z</time></trkpt><trkpt lat="43.1141276" lon="11.4432418"><ele>138.5</ele><time>2026-05-02T10:17:44.376Z</time></trkpt><trkpt lat="43.1141641" lon="11.443123"><ele>139.0</ele><time>2026-05-02T10:17:45.361Z</time></trkpt><trkpt lat="43.1141983" lon="11.4430145"><ele>139.5</ele><time>2026-05-02T10:17:46.369Z</time></trkpt><trkpt lat="43.1142453" lon="11.4429362"><ele>140.0</ele><time>2026-05-02T10:17:47.37Z</time></trkpt><trkpt lat="43.1143033" lon="11.4428727"><ele>140.5</ele><time>2026-05-02T10:17:48.375Z</time></trkpt><trkpt lat="43.1143703" lon="11.4428165"><ele>141.0</ele><time>2026-05-02T10:17:49.357Z</time></trkpt><trkpt lat="43.1144453" lon="11.4427634"><ele>141.0</ele><time>2026-05-02T10:17:50.382Z</time></trkpt><trkpt lat="43.1145235" lon="11.442714"><ele>141.0</ele><time>2026-05-02T10:17:51.393Z</time></trkpt><trkpt lat="43.1145983" lon="11.4426654"><ele>141.0</ele><time>2026-05-02T10:17:52.385Z</time></trkpt><trkpt lat="43.1146647" lon="11.4426161"><ele>141.0</ele><time>2026-05-02T10:17:53.397Z</time></trkpt><trkpt lat="43.114719" lon="11.442561"><ele>141.0</ele><time>2026-05-02T10:17:54.374Z</time></trkpt><trkpt lat="43.1147771" lon="11.4424121"><ele>141.0</ele><time>2026-05-02T10:17:56.374Z</time></trkpt><trkpt lat="43.1147975" lon="11.442328"><ele>141.0</ele><time>2026-05-02T10:17:57.38Z</time></trkpt><trkpt lat="43.1147979" lon="11.4422247"><ele>141.0</ele><time>2026-05-02T10:17:58.382Z</time></trkpt><trkpt lat="43.114792" lon="11.4421128"><ele>141.0</ele><time>2026-05-02T10:17:59.384Z</time></trkpt><trkpt lat="43.1147785" lon="11.4419905"><ele>141.0</ele><time>2026-05-02T10:18:00.382Z</time></trkpt><trkpt lat="43.1147651" lon="11.4418619"><ele>141.0</ele><time>2026-05-02T10:18:01.376Z</time></trkpt><trkpt lat="43.1147545" lon="11.44174"><ele>141.0</ele><time>2026-05-02T10:18:02.369Z</time></trkpt><trkpt lat="43.114743" lon="11.441631"><ele>141.0</ele><time>2026-05-02T10:18:03.389Z</time></trkpt><trkpt lat="43.1147317" lon="11.4415335"><ele>141.0</ele><time>2026-05-02T10:18:04.372Z</time></trkpt><trkpt lat="43.1147161" lon="11.4414087"><ele>141.0</ele><time>2026-05-02T10:18:06.379Z</time></trkpt><trkpt lat="43.1146531" lon="11.4413513"><ele>141.0</ele><time>2026-05-02T10:18:09.378Z</time></trkpt><trkpt lat="43.1145506" lon="11.4413568"><ele>141.0</ele><time>2026-05-02T10:18:11.359Z</time></trkpt><trkpt lat="43.1144783" lon="11.4413645"><ele>141.0</ele><time>2026-05-02T10:18:12.388Z</time></trkpt><trkpt lat="43.1143951" lon="11.441376"><ele>141.0</ele><time>2026-05-02T10:18:13.368Z</time></trkpt><trkpt lat="43.114304" lon="11.4413824"><ele>141.0</ele><time>2026-05-02T10:18:14.39Z</time></trkpt><trkpt lat="43.1142017" lon="11.4413917"><ele>141.0</ele><time>2026-05-02T10:18:15.364Z</time></trkpt><trkpt lat="43.1140962" lon="11.4413951"><ele>141.0</ele><time>2026-05-02T10:18:16.388Z</time></trkpt><trkpt lat="43.1139799" lon="11.4414014"><ele>141.0</ele><time>2026-05-02T10:18:17.369Z</time></trkpt><trkpt lat="43.1138583" lon="11.4414134"><ele>140.25</ele><time>2026-05-02T10:18:18.366Z</time></trkpt><trkpt lat="43.1137294" lon="11.4414276"><ele>139.5</ele><time>2026-05-02T10:18:19.388Z</time></trkpt><trkpt lat="43.1135951" lon="11.441441"><ele>138.75</ele><time>2026-05-02T10:18:20.357Z</time></trkpt><trkpt lat="43.113455" lon="11.4414543"><ele>138.0</ele><time>2026-05-02T10:18:21.378Z</time></trkpt><trkpt lat="43.113317" lon="11.4414685"><ele>137.75</ele><time>2026-05-02T10:18:22.377Z</time></trkpt><trkpt lat="43.1131772" lon="11.4414838"><ele>137.5</ele><time>2026-05-02T10:18:23.369Z</time></trkpt><trkpt lat="43.1130341" lon="11.441497"><ele>137.25</ele><time>2026-05-02T10:18:24.388Z</time></trkpt><trkpt lat="43.1128884" lon="11.4415083"><ele>137.0</ele><time>2026-05-02T10:18:25.362Z</time></trkpt><trkpt lat="43.1127389" lon="11.4415227"><ele>137.0</ele><time>2026-05-02T10:18:26.383Z</time></trkpt><trkpt lat="43.1125878" lon="11.4415372"><ele>137.0</ele><time>2026-05-02T10:18:27.388Z</time></trkpt><trkpt lat="43.1124344" lon="11.4415506"><ele>137.0</ele><time>2026-05-02T10:18:28.384Z</time></trkpt><trkpt lat="43.1122841" lon="11.4415629"><ele>136.75</ele><time>2026-05-02T10:18:29.395Z</time></trkpt><trkpt lat="43.112139" lon="11.4415768"><ele>136.5</ele><time>2026-05-02T10:18:30.372Z</time></trkpt><trkpt lat="43.1119999" lon="11.4415897"><ele>136.25</ele><time>2026-05-02T10:18:31.39Z</time></trkpt><trkpt lat="43.1118677" lon="11.4416036"><ele>136.0</ele><time>2026-05-02T10:18:32.366Z</time></trkpt><trkpt lat="43.111742" lon="11.441617"><ele>136.0</ele><time>2026-05-02T10:18:33.368Z</time></trkpt><trkpt lat="43.1116194" lon="11.4416291"><ele>136.0</ele><time>2026-05-02T10:18:34.391Z</time></trkpt><trkpt lat="43.1115014" lon="11.4416449"><ele>136.0</ele><time>2026-05-02T10:18:35.364Z</time></trkpt><trkpt lat="43.1113944" lon="11.4416619"><ele>136.0</ele><time>2026-05-02T10:18:36.389Z</time></trkpt><trkpt lat="43.111284" lon="11.4416821"><ele>135.75</ele><time>2026-05-02T10:18:37.375Z</time></trkpt><trkpt lat="43.1111654" lon="11.4417022"><ele>135.5</ele><time>2026-05-02T10:18:38.359Z</time></trkpt><trkpt lat="43.1110418" lon="11.4417194"><ele>135.25</ele><time>2026-05-02T10:18:39.368Z</time></trkpt><trkpt lat="43.1109122" lon="11.4417334"><ele>135.0</ele><time>2026-05-02T10:18:40.392Z</time></trkpt><trkpt lat="43.1107792" lon="11.4417422"><ele>134.5</ele><time>2026-05-02T10:18:41.366Z</time></trkpt><trkpt lat="43.1106461" lon="11.4417432"><ele>134.0</ele><time>2026-05-02T10:18:42.367Z</time></trkpt><trkpt lat="43.1105108" lon="11.4417493"><ele>133.5</ele><time>2026-05-02T10:18:43.382Z</time></trkpt><trkpt lat="43.1103733" lon="11.4417585"><ele>133.0</ele><time>2026-05-02T10:18:44.381Z</time></trkpt><trkpt lat="43.1102386" lon="11.4417757"><ele>133.0</ele><time>2026-05-02T10:18:45.389Z</time></trkpt><trkpt lat="43.1101058" lon="11.441803"><ele>133.0</ele><time>2026-05-02T10:18:46.361Z</time></trkpt><trkpt lat="43.1099783" lon="11.4418417"><ele>133.0</ele><time>2026-05-02T10:18:47.386Z</time></trkpt><trkpt lat="43.109852" lon="11.4418903"><ele>133.0</ele><time>2026-05-02T10:18:48.392Z</time></trkpt><trkpt lat="43.1097264" lon="11.4419431"><ele>133.0</ele><time>2026-05-02T10:18:49.359Z</time></trkpt><trkpt lat="43.1095993" lon="11.4419983"><ele>133.0</ele><time>2026-05-02T10:18:50.371Z</time></trkpt><trkpt lat="43.1094702" lon="11.4420492"><ele>133.0</ele><time>2026-05-02T10:18:51.383Z</time></trkpt><trkpt lat="43.1093385" lon="11.4420986"><ele>133.0</ele><time>2026-05-02T10:18:52.376Z</time></trkpt><trkpt lat="43.109204" lon="11.4421456"><ele>133.0</ele><time>2026-05-02T10:18:53.366Z</time></trkpt><trkpt lat="43.1090668" lon="11.4421879"><ele>133.0</ele><time>2026-05-02T10:18:54.364Z</time></trkpt><trkpt lat="43.108928" lon="11.442224"><ele>133.0</ele><time>2026-05-02T10:18:55.378Z</time></trkpt><trkpt lat="43.1087859" lon="11.4422558"><ele>133.0</ele><time>2026-05-02T10:18:56.39Z</time></trkpt><trkpt lat="43.1086442" lon="11.4422867"><ele>133.0</ele><time>2026-05-02T10:18:57.364Z</time></trkpt><trkpt lat="43.1085038" lon="11.4423163"><ele>133.0</ele><time>2026-05-02T10:18:58.376Z</time></trkpt><trkpt lat="43.1083673" lon="11.4423449"><ele>133.0</ele><time>2026-05-02T10:18:59.369Z</time></trkpt><trkpt lat="43.1082365" lon="11.4423722"><ele>133.0</ele><time>2026-05-02T10:19:00.435Z</time></trkpt><trkpt lat="43.1081132" lon="11.4423988"><ele>133.20000000000002</ele><time>2026-05-02T10:19:01.374Z</time></trkpt><trkpt lat="43.1079972" lon="11.4424252"><ele>133.4</ele><time>2026-05-02T10:19:02.397Z</time></trkpt><trkpt lat="43.107888" lon="11.4424497"><ele>133.60000000000002</ele><time>2026-05-02T10:19:03.375Z</time></trkpt><trkpt lat="43.1077849" lon="11.4424706"><ele>133.8</ele><time>2026-05-02T10:19:04.38Z</time></trkpt><trkpt lat="43.1076859" lon="11.4424766"><ele>134.0</ele><time>2026-05-02T10:19:05.385Z</time></trkpt><trkpt lat="43.1075923" lon="11.4424634"><ele>134.0</ele><time>2026-05-02T10:19:06.366Z</time></trkpt><trkpt lat="43.1075043" lon="11.4424296"><ele>134.0</ele><time>2026-05-02T10:19:07.366Z</time></trkpt><trkpt lat="43.1074237" lon="11.4423754"><ele>134.0</ele><time>2026-05-02T10:19:08.374Z</time></trkpt><trkpt lat="43.1073488" lon="11.4423022"><ele>134.0</ele><time>2026-05-02T10:19:09.362Z</time></trkpt><trkpt lat="43.1072753" lon="11.4422113"><ele>134.0</ele><time>2026-05-02T10:19:10.391Z</time></trkpt><trkpt lat="43.1072012" lon="11.4421044"><ele>133.25</ele><time>2026-05-02T10:19:11.368Z</time></trkpt><trkpt lat="43.1071234" lon="11.4419906"><ele>132.5</ele><time>2026-05-02T10:19:12.377Z</time></trkpt><trkpt lat="43.1070404" lon="11.4418771"><ele>131.75</ele><time>2026-05-02T10:19:13.364Z</time></trkpt><trkpt lat="43.1069553" lon="11.4417608"><ele>131.0</ele><time>2026-05-02T10:19:14.382Z</time></trkpt><trkpt lat="43.1068676" lon="11.4416395"><ele>131.0</ele><time>2026-05-02T10:19:15.387Z</time></trkpt><trkpt lat="43.1067789" lon="11.4415128"><ele>131.0</ele><time>2026-05-02T10:19:16.388Z</time></trkpt><trkpt lat="43.1066874" lon="11.4413848"><ele>131.0</ele><time>2026-05-02T10:19:17.362Z</time></trkpt><trkpt lat="43.1065895" lon="11.4412531"><ele>131.0</ele><time>2026-05-02T10:19:18.376Z</time></trkpt><trkpt lat="43.1064932" lon="11.4411128"><ele>131.0</ele><time>2026-05-02T10:19:19.368Z</time></trkpt><trkpt lat="43.1063966" lon="11.4409761"><ele>131.0</ele><time>2026-05-02T10:19:20.371Z</time></trkpt><trkpt lat="43.1062949" lon="11.4408376"><ele>131.0</ele><time>2026-05-02T10:19:21.392Z</time></trkpt><trkpt lat="43.1061971" lon="11.4406982"><ele>131.0</ele><time>2026-05-02T10:19:22.363Z</time></trkpt><trkpt lat="43.1060942" lon="11.4405539"><ele>131.0</ele><time>2026-05-02T10:19:23.365Z</time></trkpt><trkpt lat="43.1059925" lon="11.4404152"><ele>131.0</ele><time>2026-05-02T10:19:24.368Z</time></trkpt><trkpt lat="43.1058925" lon="11.4402745"><ele>131.0</ele><time>2026-05-02T10:19:25.373Z</time></trkpt><trkpt lat="43.1057928" lon="11.4401396"><ele>131.0</ele><time>2026-05-02T10:19:26.362Z</time></trkpt><trkpt lat="43.1056907" lon="11.4400153"><ele>130.75</ele><time>2026-05-02T10:19:27.396Z</time></trkpt><trkpt lat="43.1055919" lon="11.4398861"><ele>130.5</ele><time>2026-05-02T10:19:28.361Z</time></trkpt><trkpt lat="43.105491" lon="11.4397603"><ele>130.25</ele><time>2026-05-02T10:19:29.375Z</time></trkpt><trkpt lat="43.1053937" lon="11.4396371"><ele>130.0</ele><time>2026-05-02T10:19:30.383Z</time></trkpt><trkpt lat="43.1053044" lon="11.439509"><ele>129.75</ele><time>2026-05-02T10:19:31.392Z</time></trkpt><trkpt lat="43.1052226" lon="11.4393735"><ele>129.5</ele><time>2026-05-02T10:19:32.392Z</time></trkpt><trkpt lat="43.1051424" lon="11.4392313"><ele>129.25</ele><time>2026-05-02T10:19:33.382Z</time></trkpt><trkpt lat="43.1050564" lon="11.4390866"><ele>129.0</ele><time>2026-05-02T10:19:34.377Z</time></trkpt><trkpt lat="43.1049677" lon="11.4389419"><ele>129.5</ele><time>2026-05-02T10:19:35.383Z</time></trkpt><trkpt lat="43.1048766" lon="11.4387954"><ele>130.0</ele><time>2026-05-02T10:19:36.378Z</time></trkpt><trkpt lat="43.1047807" lon="11.438649"><ele>130.5</ele><time>2026-05-02T10:19:37.373Z</time></trkpt><trkpt lat="43.1046817" lon="11.438506"><ele>131.0</ele><time>2026-05-02T10:19:38.377Z</time></trkpt><trkpt lat="43.1045807" lon="11.4383621"><ele>131.0</ele><time>2026-05-02T10:19:39.38Z</time></trkpt><trkpt lat="43.1044792" lon="11.4382192"><ele>131.0</ele><time>2026-05-02T10:19:40.389Z</time></trkpt><trkpt lat="43.1043758" lon="11.438075"><ele>131.0</ele><time>2026-05-02T10:19:41.376Z</time></trkpt><trkpt lat="43.1042721" lon="11.4379301"><ele>131.0</ele><time>2026-05-02T10:19:42.389Z</time></trkpt><trkpt lat="43.1041689" lon="11.4377844"><ele>131.25</ele><time>2026-05-02T10:19:43.387Z</time></trkpt><trkpt lat="43.1040647" lon="11.4376393"><ele>131.5</ele><time>2026-05-02T10:19:44.377Z</time></trkpt><trkpt lat="43.1039593" lon="11.4374959"><ele>131.75</ele><time>2026-05-02T10:19:45.376Z</time></trkpt><trkpt lat="43.1038537" lon="11.4373525"><ele>132.0</ele><time>2026-05-02T10:19:46.371Z</time></trkpt><trkpt lat="43.1037493" lon="11.4372071"><ele>132.5</ele><time>2026-05-02T10:19:47.374Z</time></trkpt><trkpt lat="43.1036466" lon="11.4370623"><ele>133.0</ele><time>2026-05-02T10:19:48.371Z</time></trkpt><trkpt lat="43.1035472" lon="11.4369208"><ele>133.5</ele><time>2026-05-02T10:19:49.375Z</time></trkpt><trkpt lat="43.1034473" lon="11.4367779"><ele>134.0</ele><time>2026-05-02T10:19:50.372Z</time></trkpt><trkpt lat="43.1033481" lon="11.436634"><ele>134.5</ele><time>2026-05-02T10:19:51.421Z</time></trkpt><trkpt lat="43.1032464" lon="11.4364888"><ele>135.0</ele><time>2026-05-02T10:19:52.387Z</time></trkpt><trkpt lat="43.1031418" lon="11.4363435"><ele>135.5</ele><time>2026-05-02T10:19:53.372Z</time></trkpt><trkpt lat="43.1030347" lon="11.4361967"><ele>136.0</ele><time>2026-05-02T10:19:54.388Z</time></trkpt><trkpt lat="43.1029262" lon="11.4360511"><ele>136.0</ele><time>2026-05-02T10:19:55.37Z</time></trkpt><trkpt lat="43.1028156" lon="11.4359068"><ele>136.0</ele><time>2026-05-02T10:19:56.397Z</time></trkpt><trkpt lat="43.1027114" lon="11.435764"><ele>136.0</ele><time>2026-05-02T10:19:57.387Z</time></trkpt><trkpt lat="43.1026104" lon="11.4356162"><ele>136.0</ele><time>2026-05-02T10:19:58.389Z</time></trkpt><trkpt lat="43.1025111" lon="11.4354679"><ele>136.75</ele><time>2026-05-02T10:19:59.378Z</time></trkpt><trkpt lat="43.1024118" lon="11.4353158"><ele>137.5</ele><time>2026-05-02T10:20:00.392Z</time></trkpt><trkpt lat="43.1023232" lon="11.4351642"><ele>138.25</ele><time>2026-05-02T10:20:01.382Z</time></trkpt><trkpt lat="43.102247" lon="11.4350172"><ele>139.0</ele><time>2026-05-02T10:20:02.388Z</time></trkpt><trkpt lat="43.1022088" lon="11.434858"><ele>139.0</ele><time>2026-05-02T10:20:03.403Z</time></trkpt><trkpt lat="43.1021954" lon="11.4346969"><ele>139.0</ele><time>2026-05-02T10:20:04.399Z</time></trkpt><trkpt lat="43.1022071" lon="11.4345277"><ele>139.0</ele><time>2026-05-02T10:20:05.416Z</time></trkpt><trkpt lat="43.1022334" lon="11.4343575"><ele>139.0</ele><time>2026-05-02T10:20:06.392Z</time></trkpt><trkpt lat="43.1022628" lon="11.4341792"><ele>140.5</ele><time>2026-05-02T10:20:07.403Z</time></trkpt><trkpt lat="43.1022929" lon="11.4339981"><ele>142.0</ele><time>2026-05-02T10:20:08.4Z</time></trkpt><trkpt lat="43.1023138" lon="11.4338086"><ele>143.5</ele><time>2026-05-02T10:20:09.406Z</time></trkpt><trkpt lat="43.1023282" lon="11.4336399"><ele>145.0</ele><time>2026-05-02T10:20:10.385Z</time></trkpt><trkpt lat="43.1023336" lon="11.4334815"><ele>145.25</ele><time>2026-05-02T10:20:11.374Z</time></trkpt><trkpt lat="43.1023196" lon="11.4333303"><ele>145.5</ele><time>2026-05-02T10:20:12.402Z</time></trkpt><trkpt lat="43.1022968" lon="11.4331712"><ele>145.75</ele><time>2026-05-02T10:20:13.383Z</time></trkpt><trkpt lat="43.1022678" lon="11.4330181"><ele>146.0</ele><time>2026-05-02T10:20:14.375Z</time></trkpt><trkpt lat="43.1022286" lon="11.4328766"><ele>146.0</ele><time>2026-05-02T10:20:15.364Z</time></trkpt><trkpt lat="43.1021656" lon="11.4327597"><ele>146.0</ele><time>2026-05-02T10:20:16.403Z</time></trkpt><trkpt lat="43.1020831" lon="11.432654"><ele>146.0</ele><time>2026-05-02T10:20:17.376Z</time></trkpt><trkpt lat="43.1019983" lon="11.4325728"><ele>146.0</ele><time>2026-05-02T10:20:18.385Z</time></trkpt><trkpt lat="43.1019041" lon="11.4325139"><ele>146.0</ele><time>2026-05-02T10:20:19.403Z</time></trkpt><trkpt lat="43.1017965" lon="11.4324837"><ele>146.0</ele><time>2026-05-02T10:20:20.388Z</time></trkpt><trkpt lat="43.1016765" lon="11.4324679"><ele>146.0</ele><time>2026-05-02T10:20:21.384Z</time></trkpt><trkpt lat="43.1015583" lon="11.4324539"><ele>146.0</ele><time>2026-05-02T10:20:22.387Z</time></trkpt><trkpt lat="43.1014241" lon="11.4324589"><ele>146.0</ele><time>2026-05-02T10:20:23.363Z</time></trkpt><trkpt lat="43.1012903" lon="11.4324514"><ele>147.5</ele><time>2026-05-02T10:20:24.378Z</time></trkpt><trkpt lat="43.1011553" lon="11.4324354"><ele>149.0</ele><time>2026-05-02T10:20:25.382Z</time></trkpt><trkpt lat="43.1010169" lon="11.4324209"><ele>150.5</ele><time>2026-05-02T10:20:26.386Z</time></trkpt><trkpt lat="43.1008768" lon="11.4324082"><ele>152.0</ele><time>2026-05-02T10:20:27.389Z</time></trkpt><trkpt lat="43.100734" lon="11.432395"><ele>153.5</ele><time>2026-05-02T10:20:28.375Z</time></trkpt><trkpt lat="43.1005886" lon="11.4323797"><ele>155.0</ele><time>2026-05-02T10:20:29.383Z</time></trkpt><trkpt lat="43.1004457" lon="11.4323634"><ele>156.5</ele><time>2026-05-02T10:20:30.376Z</time></trkpt><trkpt lat="43.1003069" lon="11.4323519"><ele>158.0</ele><time>2026-05-02T10:20:31.373Z</time></trkpt><trkpt lat="43.1001725" lon="11.4323416"><ele>158.0</ele><time>2026-05-02T10:20:32.411Z</time></trkpt><trkpt lat="43.1000333" lon="11.4323252"><ele>158.0</ele><time>2026-05-02T10:20:33.378Z</time></trkpt><trkpt lat="43.0998944" lon="11.4323122"><ele>158.0</ele><time>2026-05-02T10:20:34.361Z</time></trkpt><trkpt lat="43.0997505" lon="11.4322972"><ele>158.0</ele><time>2026-05-02T10:20:35.379Z</time></trkpt><trkpt lat="43.0996164" lon="11.4322828"><ele>157.75</ele><time>2026-05-02T10:20:36.396Z</time></trkpt><trkpt lat="43.0994816" lon="11.4322691"><ele>157.5</ele><time>2026-05-02T10:20:37.375Z</time></trkpt><trkpt lat="43.0993471" lon="11.4322673"><ele>157.25</ele><time>2026-05-02T10:20:38.368Z</time></trkpt><trkpt lat="43.0992103" lon="11.4322545"><ele>157.0</ele><time>2026-05-02T10:20:39.376Z</time></trkpt><trkpt lat="43.0990768" lon="11.4322506"><ele>157.0</ele><time>2026-05-02T10:20:40.385Z</time></trkpt><trkpt lat="43.0989524" lon="11.4322407"><ele>157.0</ele><time>2026-05-02T10:20:41.386Z</time></trkpt><trkpt lat="43.0988391" lon="11.4322171"><ele>157.0</ele><time>2026-05-02T10:20:42.381Z</time></trkpt><trkpt lat="43.098722" lon="11.4321766"><ele>157.0</ele><time>2026-05-02T10:20:43.383Z</time></trkpt><trkpt lat="43.0986013" lon="11.4321303"><ele>158.5</ele><time>2026-05-02T10:20:44.373Z</time></trkpt><trkpt lat="43.0984822" lon="11.4320548"><ele>160.0</ele><time>2026-05-02T10:20:45.365Z</time></trkpt><trkpt lat="43.098363" lon="11.4319679"><ele>161.5</ele><time>2026-05-02T10:20:46.387Z</time></trkpt><trkpt lat="43.0982409" lon="11.4318751"><ele>163.0</ele><time>2026-05-02T10:20:47.386Z</time></trkpt><trkpt lat="43.0981208" lon="11.4317757"><ele>163.0</ele><time>2026-05-02T10:20:48.394Z</time></trkpt><trkpt lat="43.0979995" lon="11.4316727"><ele>163.0</ele><time>2026-05-02T10:20:49.374Z</time></trkpt><trkpt lat="43.0978771" lon="11.4315637"><ele>163.0</ele><time>2026-05-02T10:20:50.373Z</time></trkpt><trkpt lat="43.097755" lon="11.4314601"><ele>163.0</ele><time>2026-05-02T10:20:51.384Z</time></trkpt><trkpt lat="43.0976317" lon="11.4313585"><ele>164.0</ele><time>2026-05-02T10:20:52.395Z</time></trkpt><trkpt lat="43.0975079" lon="11.4312567"><ele>165.0</ele><time>2026-05-02T10:20:53.397Z</time></trkpt><trkpt lat="43.0973848" lon="11.4311575"><ele>166.0</ele><time>2026-05-02T10:20:54.374Z</time></trkpt><trkpt lat="43.0972565" lon="11.4310449"><ele>167.0</ele><time>2026-05-02T10:20:55.392Z</time></trkpt><trkpt lat="43.0971379" lon="11.4309386"><ele>167.0</ele><time>2026-05-02T10:20:56.392Z</time></trkpt><trkpt lat="43.0970173" lon="11.430847"><ele>167.0</ele><time>2026-05-02T10:20:57.394Z</time></trkpt><trkpt lat="43.0968962" lon="11.4307535"><ele>167.0</ele><time>2026-05-02T10:20:58.371Z</time></trkpt><trkpt lat="43.0967833" lon="11.4306427"><ele>167.0</ele><time>2026-05-02T10:20:59.366Z</time></trkpt><trkpt lat="43.0966728" lon="11.4305156"><ele>168.0</ele><time>2026-05-02T10:21:00.399Z</time></trkpt><trkpt lat="43.0965657" lon="11.4303805"><ele>169.0</ele><time>2026-05-02T10:21:01.375Z</time></trkpt><trkpt lat="43.0964537" lon="11.4302415"><ele>170.0</ele><time>2026-05-02T10:21:02.399Z</time></trkpt><trkpt lat="43.0963436" lon="11.4300988"><ele>171.0</ele><time>2026-05-02T10:21:03.392Z</time></trkpt><trkpt lat="43.0962325" lon="11.4299596"><ele>171.0</ele><time>2026-05-02T10:21:04.375Z</time></trkpt><trkpt lat="43.0961217" lon="11.4298252"><ele>171.0</ele><time>2026-05-02T10:21:05.385Z</time></trkpt><trkpt lat="43.0960022" lon="11.4297034"><ele>171.0</ele><time>2026-05-02T10:21:06.373Z</time></trkpt><trkpt lat="43.0958762" lon="11.4295922"><ele>171.0</ele><time>2026-05-02T10:21:07.378Z</time></trkpt><trkpt lat="43.0957457" lon="11.4294876"><ele>173.66666666666666</ele><time>2026-05-02T10:21:08.391Z</time></trkpt><trkpt lat="43.0956121" lon="11.4293866"><ele>176.33333333333331</ele><time>2026-05-02T10:21:09.364Z</time></trkpt><trkpt lat="43.0954755" lon="11.4292896"><ele>179.0</ele><time>2026-05-02T10:21:10.371Z</time></trkpt><trkpt lat="43.0953407" lon="11.429203"><ele>179.0</ele><time>2026-05-02T10:21:11.37Z</time></trkpt><trkpt lat="43.0952064" lon="11.4290995"><ele>179.0</ele><time>2026-05-02T10:21:12.371Z</time></trkpt><trkpt lat="43.095066" lon="11.4289923"><ele>179.0</ele><time>2026-05-02T10:21:13.386Z</time></trkpt><trkpt lat="43.0949341" lon="11.428909"><ele>179.75</ele><time>2026-05-02T10:21:14.381Z</time></trkpt><trkpt lat="43.0947995" lon="11.4288138"><ele>180.5</ele><time>2026-05-02T10:21:15.372Z</time></trkpt><trkpt lat="43.0946692" lon="11.4287205"><ele>181.25</ele><time>2026-05-02T10:21:16.399Z</time></trkpt><trkpt lat="43.0945403" lon="11.4286206"><ele>182.0</ele><time>2026-05-02T10:21:17.391Z</time></trkpt><trkpt lat="43.0944108" lon="11.4285188"><ele>183.0</ele><time>2026-05-02T10:21:18.375Z</time></trkpt><trkpt lat="43.0942797" lon="11.4284214"><ele>184.0</ele><time>2026-05-02T10:21:19.371Z</time></trkpt><trkpt lat="43.094147" lon="11.4283279"><ele>185.0</ele><time>2026-05-02T10:21:20.393Z</time></trkpt><trkpt lat="43.0940134" lon="11.4282364"><ele>186.0</ele><time>2026-05-02T10:21:21.374Z</time></trkpt><trkpt lat="43.0938792" lon="11.4281323"><ele>186.66666666666666</ele><time>2026-05-02T10:21:22.388Z</time></trkpt><trkpt lat="43.0937457" lon="11.4280372"><ele>187.33333333333331</ele><time>2026-05-02T10:21:23.396Z</time></trkpt><trkpt lat="43.0936072" lon="11.4279282"><ele>188.0</ele><time>2026-05-02T10:21:24.374Z</time></trkpt><trkpt lat="43.0934674" lon="11.4278254"><ele>189.0</ele><time>2026-05-02T10:21:25.382Z</time></trkpt><trkpt lat="43.0933261" lon="11.4277269"><ele>190.0</ele><time>2026-05-02T10:21:26.396Z</time></trkpt><trkpt lat="43.0931863" lon="11.4276338"><ele>191.0</ele><time>2026-05-02T10:21:27.395Z</time></trkpt><trkpt lat="43.0930447" lon="11.4275354"><ele>192.0</ele><time>2026-05-02T10:21:28.378Z</time></trkpt><trkpt lat="43.0928989" lon="11.4274238"><ele>193.0</ele><time>2026-05-02T10:21:29.376Z</time></trkpt><trkpt lat="43.0927532" lon="11.4273101"><ele>194.0</ele><time>2026-05-02T10:21:30.378Z</time></trkpt><trkpt lat="43.0926081" lon="11.4271995"><ele>195.0</ele><time>2026-05-02T10:21:31.366Z</time></trkpt><trkpt lat="43.0924615" lon="11.4270912"><ele>196.0</ele><time>2026-05-02T10:21:32.385Z</time></trkpt><trkpt lat="43.0923195" lon="11.4269886"><ele>197.0</ele><time>2026-05-02T10:21:33.369Z</time></trkpt><trkpt lat="43.092163" lon="11.426878"><ele>198.0</ele><time>2026-05-02T10:21:34.378Z</time></trkpt><trkpt lat="43.0920183" lon="11.4267785"><ele>199.0</ele><time>2026-05-02T10:21:35.384Z</time></trkpt><trkpt lat="43.0918769" lon="11.4266721"><ele>200.0</ele><time>2026-05-02T10:21:36.392Z</time></trkpt><trkpt lat="43.0917367" lon="11.4265681"><ele>200.0</ele><time>2026-05-02T10:21:37.388Z</time></trkpt><trkpt lat="43.0915921" lon="11.4264751"><ele>200.0</ele><time>2026-05-02T10:21:38.388Z</time></trkpt><trkpt lat="43.0914511" lon="11.4263746"><ele>200.0</ele><time>2026-05-02T10:21:39.388Z</time></trkpt><trkpt lat="43.0913191" lon="11.4262668"><ele>201.0</ele><time>2026-05-02T10:21:40.369Z</time></trkpt><trkpt lat="43.0911834" lon="11.4261717"><ele>202.0</ele><time>2026-05-02T10:21:41.37Z</time></trkpt><trkpt lat="43.0910467" lon="11.4260716"><ele>203.0</ele><time>2026-05-02T10:21:42.37Z</time></trkpt><trkpt lat="43.090912" lon="11.4259882"><ele>205.0</ele><time>2026-05-02T10:21:43.376Z</time></trkpt><trkpt lat="43.0907566" lon="11.4259297"><ele>207.0</ele><time>2026-05-02T10:21:44.388Z</time></trkpt><trkpt lat="43.0906093" lon="11.4259014"><ele>209.0</ele><time>2026-05-02T10:21:45.377Z</time></trkpt><trkpt lat="43.0904562" lon="11.4258661"><ele>209.0</ele><time>2026-05-02T10:21:46.392Z</time></trkpt><trkpt lat="43.0903145" lon="11.4258307"><ele>209.0</ele><time>2026-05-02T10:21:47.389Z</time></trkpt><trkpt lat="43.0901756" lon="11.4257931"><ele>209.0</ele><time>2026-05-02T10:21:48.377Z</time></trkpt><trkpt lat="43.0900358" lon="11.425757"><ele>209.0</ele><time>2026-05-02T10:21:49.363Z</time></trkpt><trkpt lat="43.0898969" lon="11.4257183"><ele>210.25</ele><time>2026-05-02T10:21:50.381Z</time></trkpt><trkpt lat="43.089766" lon="11.4256889"><ele>211.5</ele><time>2026-05-02T10:21:51.374Z</time></trkpt><trkpt lat="43.0896357" lon="11.425646"><ele>212.75</ele><time>2026-05-02T10:21:52.374Z</time></trkpt><trkpt lat="43.0895012" lon="11.4256036"><ele>214.0</ele><time>2026-05-02T10:21:53.399Z</time></trkpt><trkpt lat="43.089377" lon="11.4255735"><ele>214.0</ele><time>2026-05-02T10:21:54.386Z</time></trkpt><trkpt lat="43.0892565" lon="11.4255362"><ele>213.99999999999997</ele><time>2026-05-02T10:21:55.379Z</time></trkpt><trkpt lat="43.0891605" lon="11.4254952"><ele>213.99999999999997</ele><time>2026-05-02T10:21:56.394Z</time></trkpt><trkpt lat="43.0890712" lon="11.4254463"><ele>214.0</ele><time>2026-05-02T10:21:57.39Z</time></trkpt><trkpt lat="43.0890058" lon="11.4253736"><ele>214.0</ele><time>2026-05-02T10:21:58.392Z</time></trkpt><trkpt lat="43.0889583" lon="11.4252633"><ele>219.2</ele><time>2026-05-02T10:21:59.376Z</time></trkpt><trkpt lat="43.088937" lon="11.4251297"><ele>224.39999999999998</ele><time>2026-05-02T10:22:00.407Z</time></trkpt><trkpt lat="43.0889403" lon="11.4249882"><ele>229.6</ele><time>2026-05-02T10:22:01.399Z</time></trkpt><trkpt lat="43.0889523" lon="11.4248426"><ele>234.8</ele><time>2026-05-02T10:22:02.392Z</time></trkpt><trkpt lat="43.088974" lon="11.4247029"><ele>240.0</ele><time>2026-05-02T10:22:03.404Z</time></trkpt><trkpt lat="43.0890013" lon="11.424558"><ele>244.0</ele><time>2026-05-02T10:22:04.386Z</time></trkpt><trkpt lat="43.0890281" lon="11.4244059"><ele>248.0</ele><time>2026-05-02T10:22:05.376Z</time></trkpt><trkpt lat="43.089047" lon="11.4242489"><ele>252.0</ele><time>2026-05-02T10:22:06.398Z</time></trkpt><trkpt lat="43.0890617" lon="11.4240964"><ele>256.0</ele><time>2026-05-02T10:22:07.387Z</time></trkpt><trkpt lat="43.0890885" lon="11.423943"><ele>252.4</ele><time>2026-05-02T10:22:08.375Z</time></trkpt><trkpt lat="43.0891206" lon="11.4237964"><ele>248.8</ele><time>2026-05-02T10:22:09.393Z</time></trkpt><trkpt lat="43.0891451" lon="11.4236498"><ele>245.20000000000002</ele><time>2026-05-02T10:22:10.381Z</time></trkpt><trkpt lat="43.0891515" lon="11.4235049"><ele>241.60000000000002</ele><time>2026-05-02T10:22:11.384Z</time></trkpt><trkpt lat="43.0891416" lon="11.423363"><ele>238.0</ele><time>2026-05-02T10:22:12.387Z</time></trkpt><trkpt lat="43.0891182" lon="11.4232223"><ele>244.0</ele><time>2026-05-02T10:22:13.363Z</time></trkpt><trkpt lat="43.0890848" lon="11.4230794"><ele>250.0</ele><time>2026-05-02T10:22:14.369Z</time></trkpt><trkpt lat="43.0890321" lon="11.4229459"><ele>256.0</ele><time>2026-05-02T10:22:15.392Z</time></trkpt><trkpt lat="43.0889749" lon="11.422805"><ele>262.0</ele><time>2026-05-02T10:22:16.386Z</time></trkpt><trkpt lat="43.0889167" lon="11.4226551"><ele>262.25</ele><time>2026-05-02T10:22:17.397Z</time></trkpt><trkpt lat="43.0888582" lon="11.422502"><ele>262.5</ele><time>2026-05-02T10:22:18.375Z</time></trkpt><trkpt lat="43.0888037" lon="11.4223602"><ele>262.75</ele><time>2026-05-02T10:22:19.374Z</time></trkpt><trkpt lat="43.0887534" lon="11.4222145"><ele>263.0</ele><time>2026-05-02T10:22:20.411Z</time></trkpt><trkpt lat="43.0887129" lon="11.4220911"><ele>262.0</ele><time>2026-05-02T10:22:21.394Z</time></trkpt><trkpt lat="43.0886681" lon="11.4219877"><ele>261.0</ele><time>2026-05-02T10:22:22.39Z</time></trkpt><trkpt lat="43.0886235" lon="11.4219015"><ele>260.0</ele><time>2026-05-02T10:22:23.381Z</time></trkpt><trkpt lat="43.0885706" lon="11.421832"><ele>259.0</ele><time>2026-05-02T10:22:24.384Z</time></trkpt><trkpt lat="43.0884933" lon="11.4217719"><ele>258.0</ele><time>2026-05-02T10:22:25.362Z</time></trkpt><trkpt lat="43.0884101" lon="11.4217402"><ele>257.0</ele><time>2026-05-02T10:22:26.396Z</time></trkpt><trkpt lat="43.0883298" lon="11.4217404"><ele>257.0</ele><time>2026-05-02T10:22:27.396Z</time></trkpt><trkpt lat="43.0882598" lon="11.4217759"><ele>257.0</ele><time>2026-05-02T10:22:28.375Z</time></trkpt><trkpt lat="43.0882041" lon="11.421841"><ele>257.0</ele><time>2026-05-02T10:22:29.378Z</time></trkpt><trkpt lat="43.0881575" lon="11.4219348"><ele>257.0</ele><time>2026-05-02T10:22:30.363Z</time></trkpt><trkpt lat="43.088124" lon="11.4220432"><ele>257.0</ele><time>2026-05-02T10:22:31.397Z</time></trkpt><trkpt lat="43.0880951" lon="11.4221645"><ele>257.0</ele><time>2026-05-02T10:22:32.378Z</time></trkpt><trkpt lat="43.0880664" lon="11.4222941"><ele>262.0</ele><time>2026-05-02T10:22:33.38Z</time></trkpt><trkpt lat="43.0880338" lon="11.4224274"><ele>267.0</ele><time>2026-05-02T10:22:34.385Z</time></trkpt><trkpt lat="43.0880009" lon="11.4225649"><ele>272.0</ele><time>2026-05-02T10:22:35.386Z</time></trkpt><trkpt lat="43.0879691" lon="11.4227034"><ele>277.0</ele><time>2026-05-02T10:22:36.369Z</time></trkpt><trkpt lat="43.0879342" lon="11.4228374"><ele>282.0</ele><time>2026-05-02T10:22:37.384Z</time></trkpt><trkpt lat="43.0878959" lon="11.4229692"><ele>282.2</ele><time>2026-05-02T10:22:38.404Z</time></trkpt><trkpt lat="43.0878536" lon="11.4231005"><ele>282.4</ele><time>2026-05-02T10:22:39.388Z</time></trkpt><trkpt lat="43.0878029" lon="11.423225"><ele>282.6</ele><time>2026-05-02T10:22:40.364Z</time></trkpt><trkpt lat="43.0877479" lon="11.4233388"><ele>282.8</ele><time>2026-05-02T10:22:41.399Z</time></trkpt><trkpt lat="43.0876953" lon="11.4234219"><ele>283.0</ele><time>2026-05-02T10:22:42.382Z</time></trkpt><trkpt lat="43.0876037" lon="11.4234828"><ele>283.0</ele><time>2026-05-02T10:22:44.364Z</time></trkpt><trkpt lat="43.0875143" lon="11.4234256"><ele>283.0</ele><time>2026-05-02T10:22:46.377Z</time></trkpt><trkpt lat="43.0874584" lon="11.4232722"><ele>283.0</ele><time>2026-05-02T10:22:48.373Z</time></trkpt><trkpt lat="43.0874377" lon="11.4231704"><ele>283.0</ele><time>2026-05-02T10:22:49.37Z</time></trkpt><trkpt lat="43.0874152" lon="11.4230568"><ele>283.0</ele><time>2026-05-02T10:22:50.381Z</time></trkpt><trkpt lat="43.0873996" lon="11.422966"><ele>288.4</ele><time>2026-05-02T10:22:51.396Z</time></trkpt><trkpt lat="43.0873789" lon="11.4228201"><ele>293.8</ele><time>2026-05-02T10:22:53.38Z</time></trkpt><trkpt lat="43.0873364" lon="11.4227018"><ele>299.2</ele><time>2026-05-02T10:22:55.392Z</time></trkpt><trkpt lat="43.0872601" lon="11.4226331"><ele>304.6</ele><time>2026-05-02T10:22:57.377Z</time></trkpt><trkpt lat="43.0871794" lon="11.4226766"><ele>310.0</ele><time>2026-05-02T10:22:59.375Z</time></trkpt><trkpt lat="43.0871316" lon="11.4228134"><ele>310.0</ele><time>2026-05-02T10:23:01.394Z</time></trkpt><trkpt lat="43.0871187" lon="11.4228996"><ele>310.0</ele><time>2026-05-02T10:23:02.373Z</time></trkpt><trkpt lat="43.0871105" lon="11.4229949"><ele>310.0</ele><time>2026-05-02T10:23:03.373Z</time></trkpt><trkpt lat="43.0870926" lon="11.4230938"><ele>310.0</ele><time>2026-05-02T10:23:04.371Z</time></trkpt><trkpt lat="43.0870734" lon="11.423198"><ele>310.0</ele><time>2026-05-02T10:23:05.396Z</time></trkpt><trkpt lat="43.0870527" lon="11.4233017"><ele>310.0</ele><time>2026-05-02T10:23:06.366Z</time></trkpt><trkpt lat="43.087034" lon="11.423396"><ele>310.0</ele><time>2026-05-02T10:23:07.391Z</time></trkpt><trkpt lat="43.0870121" lon="11.4234925"><ele>310.0</ele><time>2026-05-02T10:23:08.392Z</time></trkpt><trkpt lat="43.0869995" lon="11.4235967"><ele>310.0</ele><time>2026-05-02T10:23:09.379Z</time></trkpt><trkpt lat="43.0869626" lon="11.4236793"><ele>310.0</ele><time>2026-05-02T10:23:10.402Z</time></trkpt><trkpt lat="43.0869164" lon="11.4237522"><ele>310.0</ele><time>2026-05-02T10:23:11.38Z</time></trkpt><trkpt lat="43.0868672" lon="11.4238098"><ele>310.0</ele><time>2026-05-02T10:23:12.373Z</time></trkpt><trkpt lat="43.0868096" lon="11.4238498"><ele>310.0</ele><time>2026-05-02T10:23:13.371Z</time></trkpt><trkpt lat="43.0867479" lon="11.4238676"><ele>310.0</ele><time>2026-05-02T10:23:14.366Z</time></trkpt><trkpt lat="43.0866804" lon="11.4238631"><ele>311.3333333333333</ele><time>2026-05-02T10:23:15.371Z</time></trkpt><trkpt lat="43.0866117" lon="11.4238426"><ele>312.66666666666663</ele><time>2026-05-02T10:23:16.382Z</time></trkpt><trkpt lat="43.0865427" lon="11.423827"><ele>314.0</ele><time>2026-05-02T10:23:17.365Z</time></trkpt><trkpt lat="43.0864818" lon="11.4237919"><ele>315.3333333333333</ele><time>2026-05-02T10:23:18.367Z</time></trkpt><trkpt lat="43.0864337" lon="11.4237175"><ele>316.6666666666667</ele><time>2026-05-02T10:23:19.372Z</time></trkpt><trkpt lat="43.0863678" lon="11.4235528"><ele>318.0</ele><time>2026-05-02T10:23:21.366Z</time></trkpt><trkpt lat="43.08638" lon="11.4234606"><ele>319.6666666666667</ele><time>2026-05-02T10:23:22.362Z</time></trkpt><trkpt lat="43.0864391" lon="11.423302"><ele>321.3333333333333</ele><time>2026-05-02T10:23:24.367Z</time></trkpt><trkpt lat="43.0864691" lon="11.4232127"><ele>323.0</ele><time>2026-05-02T10:23:25.372Z</time></trkpt><trkpt lat="43.0864975" lon="11.4231204"><ele>324.66666666666663</ele><time>2026-05-02T10:23:26.366Z</time></trkpt><trkpt lat="43.0865101" lon="11.4230124"><ele>326.3333333333333</ele><time>2026-05-02T10:23:27.362Z</time></trkpt><trkpt lat="43.0865105" lon="11.4229037"><ele>328.0</ele><time>2026-05-02T10:23:28.367Z</time></trkpt><trkpt lat="43.0864968" lon="11.422803"><ele>328.0</ele><time>2026-05-02T10:23:29.386Z</time></trkpt><trkpt lat="43.0864692" lon="11.4227176"><ele>328.0</ele><time>2026-05-02T10:23:30.391Z</time></trkpt><trkpt lat="43.0863707" lon="11.4226269"><ele>328.0</ele><time>2026-05-02T10:23:32.369Z</time></trkpt><trkpt lat="43.0862444" lon="11.4226414"><ele>328.0</ele><time>2026-05-02T10:23:34.367Z</time></trkpt><trkpt lat="43.0861902" lon="11.422704"><ele>328.0</ele><time>2026-05-02T10:23:35.373Z</time></trkpt><trkpt lat="43.086143" lon="11.4227844"><ele>328.0</ele><time>2026-05-02T10:23:36.385Z</time></trkpt><trkpt lat="43.0860999" lon="11.4228742"><ele>328.0</ele><time>2026-05-02T10:23:37.388Z</time></trkpt><trkpt lat="43.0860557" lon="11.422965"><ele>328.0</ele><time>2026-05-02T10:23:38.398Z</time></trkpt><trkpt lat="43.0860092" lon="11.4230541"><ele>328.0</ele><time>2026-05-02T10:23:39.397Z</time></trkpt><trkpt lat="43.0859536" lon="11.4231435"><ele>328.0</ele><time>2026-05-02T10:23:40.367Z</time></trkpt><trkpt lat="43.0858929" lon="11.4232236"><ele>328.0</ele><time>2026-05-02T10:23:41.388Z</time></trkpt><trkpt lat="43.0858388" lon="11.4233079"><ele>330.8333333333333</ele><time>2026-05-02T10:23:42.378Z</time></trkpt><trkpt lat="43.0857594" lon="11.4233169"><ele>333.66666666666663</ele><time>2026-05-02T10:23:43.363Z</time></trkpt><trkpt lat="43.0856916" lon="11.4232725"><ele>336.5</ele><time>2026-05-02T10:23:44.396Z</time></trkpt><trkpt lat="43.0856352" lon="11.4232063"><ele>339.3333333333333</ele><time>2026-05-02T10:23:45.368Z</time></trkpt><trkpt lat="43.0855831" lon="11.4231233"><ele>342.1666666666667</ele><time>2026-05-02T10:23:46.369Z</time></trkpt><trkpt lat="43.0855405" lon="11.4230315"><ele>345.0</ele><time>2026-05-02T10:23:47.394Z</time></trkpt><trkpt lat="43.0855122" lon="11.4229258"><ele>345.8</ele><time>2026-05-02T10:23:48.392Z</time></trkpt><trkpt lat="43.0854925" lon="11.4228147"><ele>346.6</ele><time>2026-05-02T10:23:49.368Z</time></trkpt><trkpt lat="43.0854711" lon="11.4226978"><ele>347.4</ele><time>2026-05-02T10:23:50.388Z</time></trkpt><trkpt lat="43.0854446" lon="11.4225779"><ele>348.2</ele><time>2026-05-02T10:23:51.366Z</time></trkpt><trkpt lat="43.0854123" lon="11.4224618"><ele>349.0</ele><time>2026-05-02T10:23:52.379Z</time></trkpt><trkpt lat="43.0853768" lon="11.4223363"><ele>349.0</ele><time>2026-05-02T10:23:53.361Z</time></trkpt><trkpt lat="43.0853367" lon="11.4222131"><ele>349.0</ele><time>2026-05-02T10:23:54.369Z</time></trkpt><trkpt lat="43.0852899" lon="11.4220966"><ele>349.0</ele><time>2026-05-02T10:23:55.385Z</time></trkpt><trkpt lat="43.0852268" lon="11.4219914"><ele>349.0</ele><time>2026-05-02T10:23:56.384Z</time></trkpt><trkpt lat="43.0851512" lon="11.4218988"><ele>349.0</ele><time>2026-05-02T10:23:57.367Z</time></trkpt><trkpt lat="43.0850747" lon="11.4218088"><ele>348.0</ele><time>2026-05-02T10:23:58.371Z</time></trkpt><trkpt lat="43.0849728" lon="11.4217449"><ele>347.0</ele><time>2026-05-02T10:23:59.372Z</time></trkpt><trkpt lat="43.0848613" lon="11.4216956"><ele>346.0</ele><time>2026-05-02T10:24:00.369Z</time></trkpt><trkpt lat="43.0847398" lon="11.4216495"><ele>345.0</ele><time>2026-05-02T10:24:01.384Z</time></trkpt><trkpt lat="43.0846094" lon="11.421598"><ele>345.0</ele><time>2026-05-02T10:24:02.393Z</time></trkpt><trkpt lat="43.0844784" lon="11.4215402"><ele>345.0</ele><time>2026-05-02T10:24:03.372Z</time></trkpt><trkpt lat="43.0843486" lon="11.4214635"><ele>345.0</ele><time>2026-05-02T10:24:04.376Z</time></trkpt><trkpt lat="43.0842191" lon="11.4213684"><ele>345.0</ele><time>2026-05-02T10:24:05.388Z</time></trkpt><trkpt lat="43.0840928" lon="11.4212702"><ele>345.5</ele><time>2026-05-02T10:24:06.369Z</time></trkpt><trkpt lat="43.0839699" lon="11.4211765"><ele>346.0</ele><time>2026-05-02T10:24:07.362Z</time></trkpt><trkpt lat="43.0838475" lon="11.4210898"><ele>346.5</ele><time>2026-05-02T10:24:08.363Z</time></trkpt><trkpt lat="43.0837211" lon="11.4210146"><ele>347.0</ele><time>2026-05-02T10:24:09.362Z</time></trkpt><trkpt lat="43.0835877" lon="11.420955"><ele>347.0</ele><time>2026-05-02T10:24:10.389Z</time></trkpt><trkpt lat="43.0834522" lon="11.4209022"><ele>347.0</ele><time>2026-05-02T10:24:11.357Z</time></trkpt><trkpt lat="43.0833155" lon="11.420855"><ele>347.0</ele><time>2026-05-02T10:24:12.382Z</time></trkpt><trkpt lat="43.0831795" lon="11.4208131"><ele>347.0</ele><time>2026-05-02T10:24:13.369Z</time></trkpt><trkpt lat="43.0830415" lon="11.4207707"><ele>349.0</ele><time>2026-05-02T10:24:14.395Z</time></trkpt><trkpt lat="43.0829011" lon="11.4207226"><ele>351.0</ele><time>2026-05-02T10:24:15.393Z</time></trkpt><trkpt lat="43.0827616" lon="11.420676"><ele>353.0</ele><time>2026-05-02T10:24:16.38Z</time></trkpt><trkpt lat="43.0826224" lon="11.4206328"><ele>355.0</ele><time>2026-05-02T10:24:17.382Z</time></trkpt><trkpt lat="43.0824881" lon="11.4205978"><ele>354.75</ele><time>2026-05-02T10:24:18.37Z</time></trkpt><trkpt lat="43.0823628" lon="11.4205705"><ele>354.5</ele><time>2026-05-02T10:24:19.365Z</time></trkpt><trkpt lat="43.0822423" lon="11.4205597"><ele>354.25</ele><time>2026-05-02T10:24:20.381Z</time></trkpt><trkpt lat="43.0821317" lon="11.4205534"><ele>354.0</ele><time>2026-05-02T10:24:21.377Z</time></trkpt><trkpt lat="43.0820234" lon="11.4205536"><ele>354.0</ele><time>2026-05-02T10:24:22.376Z</time></trkpt><trkpt lat="43.0819171" lon="11.4205452"><ele>354.0</ele><time>2026-05-02T10:24:23.372Z</time></trkpt><trkpt lat="43.0818151" lon="11.4205128"><ele>354.0</ele><time>2026-05-02T10:24:24.363Z</time></trkpt><trkpt lat="43.0817202" lon="11.4204549"><ele>354.0</ele><time>2026-05-02T10:24:25.375Z</time></trkpt><trkpt lat="43.0816256" lon="11.4203954"><ele>354.0</ele><time>2026-05-02T10:24:26.367Z</time></trkpt><trkpt lat="43.0815423" lon="11.420304"><ele>357.2</ele><time>2026-05-02T10:24:27.369Z</time></trkpt><trkpt lat="43.0814616" lon="11.4201984"><ele>360.4</ele><time>2026-05-02T10:24:28.371Z</time></trkpt><trkpt lat="43.0813868" lon="11.420085"><ele>363.6</ele><time>2026-05-02T10:24:29.364Z</time></trkpt><trkpt lat="43.0813182" lon="11.4199685"><ele>366.8</ele><time>2026-05-02T10:24:30.368Z</time></trkpt><trkpt lat="43.081256" lon="11.4198535"><ele>370.0</ele><time>2026-05-02T10:24:31.37Z</time></trkpt><trkpt lat="43.0811906" lon="11.4197424"><ele>369.0</ele><time>2026-05-02T10:24:32.369Z</time></trkpt><trkpt lat="43.0811238" lon="11.4196287"><ele>368.0</ele><time>2026-05-02T10:24:33.371Z</time></trkpt><trkpt lat="43.0810217" lon="11.4195455"><ele>367.0</ele><time>2026-05-02T10:24:34.368Z</time></trkpt><trkpt lat="43.0809098" lon="11.4194825"><ele>366.0</ele><time>2026-05-02T10:24:35.367Z</time></trkpt><trkpt lat="43.080799" lon="11.4194427"><ele>369.8</ele><time>2026-05-02T10:24:36.39Z</time></trkpt><trkpt lat="43.0806983" lon="11.4194065"><ele>373.6</ele><time>2026-05-02T10:24:37.378Z</time></trkpt><trkpt lat="43.080608" lon="11.4193943"><ele>377.4</ele><time>2026-05-02T10:24:38.376Z</time></trkpt><trkpt lat="43.0805209" lon="11.4193783"><ele>381.2</ele><time>2026-05-02T10:24:39.373Z</time></trkpt><trkpt lat="43.0804378" lon="11.4193512"><ele>385.0</ele><time>2026-05-02T10:24:40.366Z</time></trkpt><trkpt lat="43.0803555" lon="11.4193082"><ele>385.00000000000006</ele><time>2026-05-02T10:24:41.367Z</time></trkpt><trkpt lat="43.0802858" lon="11.4192435"><ele>385.0</ele><time>2026-05-02T10:24:42.365Z</time></trkpt><trkpt lat="43.0802286" lon="11.4191612"><ele>385.0</ele><time>2026-05-02T10:24:43.382Z</time></trkpt><trkpt lat="43.080186" lon="11.419067"><ele>385.0</ele><time>2026-05-02T10:24:44.391Z</time></trkpt><trkpt lat="43.0801441" lon="11.4189766"><ele>385.00000000000006</ele><time>2026-05-02T10:24:45.366Z</time></trkpt><trkpt lat="43.0800939" lon="11.4188914"><ele>385.0</ele><time>2026-05-02T10:24:46.369Z</time></trkpt><trkpt lat="43.0800384" lon="11.4188167"><ele>383.7142857142857</ele><time>2026-05-02T10:24:47.372Z</time></trkpt><trkpt lat="43.0799781" lon="11.4187526"><ele>382.42857142857144</ele><time>2026-05-02T10:24:48.366Z</time></trkpt><trkpt lat="43.0799149" lon="11.4187014"><ele>381.1428571428571</ele><time>2026-05-02T10:24:49.385Z</time></trkpt><trkpt lat="43.0798496" lon="11.4186644"><ele>379.8571428571429</ele><time>2026-05-02T10:24:50.374Z</time></trkpt><trkpt lat="43.0797862" lon="11.4186311"><ele>378.57142857142856</ele><time>2026-05-02T10:24:51.371Z</time></trkpt><trkpt lat="43.0797229" lon="11.4185983"><ele>377.2857142857143</ele><time>2026-05-02T10:24:52.354Z</time></trkpt><trkpt lat="43.0796582" lon="11.4185662"><ele>376.0</ele><time>2026-05-02T10:24:53.391Z</time></trkpt><trkpt lat="43.0795885" lon="11.4185324"><ele>379.5</ele><time>2026-05-02T10:24:54.407Z</time></trkpt><trkpt lat="43.079513" lon="11.4184995"><ele>383.0</ele><time>2026-05-02T10:24:55.368Z</time></trkpt><trkpt lat="43.0794329" lon="11.4184624"><ele>386.5</ele><time>2026-05-02T10:24:56.372Z</time></trkpt><trkpt lat="43.0793502" lon="11.4184182"><ele>390.0</ele><time>2026-05-02T10:24:57.379Z</time></trkpt><trkpt lat="43.0792684" lon="11.4183642"><ele>393.50000000000006</ele><time>2026-05-02T10:24:58.382Z</time></trkpt><trkpt lat="43.0791929" lon="11.4182968"><ele>397.0</ele><time>2026-05-02T10:24:59.364Z</time></trkpt><trkpt lat="43.0791256" lon="11.4182265"><ele>396.6666666666667</ele><time>2026-05-02T10:25:00.363Z</time></trkpt><trkpt lat="43.0790642" lon="11.418165"><ele>396.33333333333337</ele><time>2026-05-02T10:25:01.364Z</time></trkpt><trkpt lat="43.0790007" lon="11.4181095"><ele>396.0</ele><time>2026-05-02T10:25:02.37Z</time></trkpt><trkpt lat="43.0789348" lon="11.4180523"><ele>395.66666666666663</ele><time>2026-05-02T10:25:03.377Z</time></trkpt><trkpt lat="43.0788533" lon="11.4180151"><ele>395.3333333333333</ele><time>2026-05-02T10:25:04.375Z</time></trkpt><trkpt lat="43.078767" lon="11.4179911"><ele>395.0</ele><time>2026-05-02T10:25:05.377Z</time></trkpt><trkpt lat="43.0786801" lon="11.4179749"><ele>394.99999999999994</ele><time>2026-05-02T10:25:06.381Z</time></trkpt><trkpt lat="43.0785944" lon="11.4179602"><ele>395.0</ele><time>2026-05-02T10:25:07.403Z</time></trkpt><trkpt lat="43.0785115" lon="11.417953"><ele>395.0</ele><time>2026-05-02T10:25:08.37Z</time></trkpt><trkpt lat="43.078425" lon="11.4179498"><ele>395.0</ele><time>2026-05-02T10:25:09.381Z</time></trkpt><trkpt lat="43.0783338" lon="11.4179457"><ele>394.99999999999994</ele><time>2026-05-02T10:25:10.382Z</time></trkpt><trkpt lat="43.0782409" lon="11.4179346"><ele>395.0</ele><time>2026-05-02T10:25:11.376Z</time></trkpt><trkpt lat="43.0781443" lon="11.4179216"><ele>397.8</ele><time>2026-05-02T10:25:12.364Z</time></trkpt><trkpt lat="43.0780474" lon="11.4179144"><ele>400.6</ele><time>2026-05-02T10:25:13.377Z</time></trkpt><trkpt lat="43.0779484" lon="11.4179119"><ele>403.4</ele><time>2026-05-02T10:25:14.403Z</time></trkpt><trkpt lat="43.0778494" lon="11.4179184"><ele>406.2</ele><time>2026-05-02T10:25:15.378Z</time></trkpt><trkpt lat="43.077749" lon="11.4179259"><ele>409.0</ele><time>2026-05-02T10:25:16.381Z</time></trkpt><trkpt lat="43.0776476" lon="11.4179257"><ele>409.0</ele><time>2026-05-02T10:25:17.371Z</time></trkpt><trkpt lat="43.077545" lon="11.4179068"><ele>409.0</ele><time>2026-05-02T10:25:18.386Z</time></trkpt><trkpt lat="43.0774443" lon="11.4178692"><ele>409.0</ele><time>2026-05-02T10:25:19.379Z</time></trkpt><trkpt lat="43.0773465" lon="11.4178208"><ele>409.0</ele><time>2026-05-02T10:25:20.367Z</time></trkpt><trkpt lat="43.0772523" lon="11.4177646"><ele>409.0</ele><time>2026-05-02T10:25:21.407Z</time></trkpt><trkpt lat="43.0771629" lon="11.4176971"><ele>412.00000000000006</ele><time>2026-05-02T10:25:22.364Z</time></trkpt><trkpt lat="43.077082" lon="11.4176315"><ele>415.0</ele><time>2026-05-02T10:25:23.38Z</time></trkpt><trkpt lat="43.0770083" lon="11.4175629"><ele>418.0</ele><time>2026-05-02T10:25:24.374Z</time></trkpt><trkpt lat="43.0769453" lon="11.4174792"><ele>421.0</ele><time>2026-05-02T10:25:25.366Z</time></trkpt><trkpt lat="43.0768946" lon="11.417382"><ele>424.00000000000006</ele><time>2026-05-02T10:25:26.378Z</time></trkpt><trkpt lat="43.0768576" lon="11.417288"><ele>427.0</ele><time>2026-05-02T10:25:27.384Z</time></trkpt><trkpt lat="43.0768288" lon="11.4171981"><ele>427.42857142857144</ele><time>2026-05-02T10:25:28.38Z</time></trkpt><trkpt lat="43.0768014" lon="11.4171103"><ele>427.8571428571429</ele><time>2026-05-02T10:25:29.368Z</time></trkpt><trkpt lat="43.0767637" lon="11.417032"><ele>428.2857142857143</ele><time>2026-05-02T10:25:30.39Z</time></trkpt><trkpt lat="43.0767119" lon="11.4169654"><ele>428.7142857142857</ele><time>2026-05-02T10:25:31.373Z</time></trkpt><trkpt lat="43.076647" lon="11.4169179"><ele>429.14285714285717</ele><time>2026-05-02T10:25:32.367Z</time></trkpt><trkpt lat="43.0765713" lon="11.4168825"><ele>429.57142857142856</ele><time>2026-05-02T10:25:33.369Z</time></trkpt><trkpt lat="43.0764902" lon="11.4168531"><ele>430.0</ele><time>2026-05-02T10:25:34.379Z</time></trkpt><trkpt lat="43.0764035" lon="11.416824"><ele>430.0</ele><time>2026-05-02T10:25:35.365Z</time></trkpt><trkpt lat="43.076314" lon="11.4167956"><ele>430.0</ele><time>2026-05-02T10:25:36.37Z</time></trkpt><trkpt lat="43.0762215" lon="11.4167669"><ele>430.0</ele><time>2026-05-02T10:25:37.362Z</time></trkpt><trkpt lat="43.0761276" lon="11.416732"><ele>430.0</ele><time>2026-05-02T10:25:38.363Z</time></trkpt><trkpt lat="43.0760355" lon="11.416684"><ele>430.0</ele><time>2026-05-02T10:25:39.386Z</time></trkpt><trkpt lat="43.0759471" lon="11.4166223"><ele>430.0</ele><time>2026-05-02T10:25:40.361Z</time></trkpt><trkpt lat="43.0758615" lon="11.4165553"><ele>430.0</ele><time>2026-05-02T10:25:41.378Z</time></trkpt><trkpt lat="43.0757743" lon="11.4164875"><ele>430.0</ele><time>2026-05-02T10:25:42.365Z</time></trkpt><trkpt lat="43.0756838" lon="11.4164208"><ele>430.0</ele><time>2026-05-02T10:25:43.372Z</time></trkpt><trkpt lat="43.0755904" lon="11.416354"><ele>430.0</ele><time>2026-05-02T10:25:44.36Z</time></trkpt><trkpt lat="43.0754971" lon="11.416287"><ele>431.0</ele><time>2026-05-02T10:25:45.373Z</time></trkpt><trkpt lat="43.0754109" lon="11.4162182"><ele>432.0</ele><time>2026-05-02T10:25:46.379Z</time></trkpt><trkpt lat="43.0753218" lon="11.4161513"><ele>433.0</ele><time>2026-05-02T10:25:47.374Z</time></trkpt><trkpt lat="43.0752342" lon="11.4160855"><ele>434.0</ele><time>2026-05-02T10:25:48.362Z</time></trkpt><trkpt lat="43.0751405" lon="11.4160212"><ele>435.0</ele><time>2026-05-02T10:25:49.375Z</time></trkpt><trkpt lat="43.0750468" lon="11.4159625"><ele>435.0</ele><time>2026-05-02T10:25:50.384Z</time></trkpt><trkpt lat="43.0749491" lon="11.415912"><ele>435.0</ele><time>2026-05-02T10:25:51.369Z</time></trkpt><trkpt lat="43.0748472" lon="11.4158674"><ele>435.0</ele><time>2026-05-02T10:25:52.371Z</time></trkpt><trkpt lat="43.0747407" lon="11.4158354"><ele>435.0</ele><time>2026-05-02T10:25:53.377Z</time></trkpt><trkpt lat="43.0746465" lon="11.4158091"><ele>435.0</ele><time>2026-05-02T10:25:54.355Z</time></trkpt><trkpt lat="43.0745688" lon="11.4157902"><ele>435.8333333333333</ele><time>2026-05-02T10:25:55.368Z</time></trkpt><trkpt lat="43.0745043" lon="11.4157725"><ele>436.66666666666663</ele><time>2026-05-02T10:25:56.389Z</time></trkpt><trkpt lat="43.0744014" lon="11.4156785"><ele>437.5</ele><time>2026-05-02T10:25:58.38Z</time></trkpt><trkpt lat="43.074372" lon="11.4155971"><ele>438.3333333333333</ele><time>2026-05-02T10:25:59.368Z</time></trkpt><trkpt lat="43.0743565" lon="11.415513"><ele>439.16666666666663</ele><time>2026-05-02T10:26:00.379Z</time></trkpt><trkpt lat="43.0743511" lon="11.4154258"><ele>440.0</ele><time>2026-05-02T10:26:01.393Z</time></trkpt><trkpt lat="43.0743482" lon="11.4153339"><ele>441.4285714285714</ele><time>2026-05-02T10:26:02.367Z</time></trkpt><trkpt lat="43.0743439" lon="11.4152372"><ele>442.8571428571429</ele><time>2026-05-02T10:26:03.366Z</time></trkpt><trkpt lat="43.0743373" lon="11.4151396"><ele>444.28571428571433</ele><time>2026-05-02T10:26:04.375Z</time></trkpt><trkpt lat="43.0743299" lon="11.4150416"><ele>445.7142857142857</ele><time>2026-05-02T10:26:05.36Z</time></trkpt><trkpt lat="43.0743108" lon="11.4149421"><ele>447.14285714285717</ele><time>2026-05-02T10:26:06.388Z</time></trkpt><trkpt lat="43.0742871" lon="11.4148441"><ele>448.5714285714286</ele><time>2026-05-02T10:26:07.361Z</time></trkpt><trkpt lat="43.0742592" lon="11.41475"><ele>450.00000000000006</ele><time>2026-05-02T10:26:08.371Z</time></trkpt><trkpt lat="43.0742295" lon="11.4146674"><ele>451.4</ele><time>2026-05-02T10:26:09.366Z</time></trkpt><trkpt lat="43.0741676" lon="11.4145341"><ele>452.8</ele><time>2026-05-02T10:26:11.385Z</time></trkpt><trkpt lat="43.0740876" lon="11.4144347"><ele>454.20000000000005</ele><time>2026-05-02T10:26:13.377Z</time></trkpt><trkpt lat="43.0739735" lon="11.4143927"><ele>455.6</ele><time>2026-05-02T10:26:15.375Z</time></trkpt><trkpt lat="43.0739076" lon="11.4143856"><ele>457.0</ele><time>2026-05-02T10:26:16.369Z</time></trkpt><trkpt lat="43.0738402" lon="11.4143854"><ele>458.57142857142867</ele><time>2026-05-02T10:26:17.368Z</time></trkpt><trkpt lat="43.0737679" lon="11.4143808"><ele>460.14285714285717</ele><time>2026-05-02T10:26:18.386Z</time></trkpt><trkpt lat="43.0736913" lon="11.4143764"><ele>461.7142857142858</ele><time>2026-05-02T10:26:19.363Z</time></trkpt><trkpt lat="43.073614" lon="11.4143683"><ele>463.28571428571433</ele><time>2026-05-02T10:26:20.365Z</time></trkpt><trkpt lat="43.0735404" lon="11.4143584"><ele>464.8571428571429</ele><time>2026-05-02T10:26:21.383Z</time></trkpt><trkpt lat="43.0734714" lon="11.4143425"><ele>466.42857142857144</ele><time>2026-05-02T10:26:22.371Z</time></trkpt><trkpt lat="43.0733956" lon="11.4143211"><ele>468.0</ele><time>2026-05-02T10:26:23.369Z</time></trkpt><trkpt lat="43.0733173" lon="11.414299"><ele>469.79999999999995</ele><time>2026-05-02T10:26:24.359Z</time></trkpt><trkpt lat="43.0732295" lon="11.4142765"><ele>471.59999999999997</ele><time>2026-05-02T10:26:25.37Z</time></trkpt><trkpt lat="43.0731354" lon="11.4142658"><ele>473.40000000000003</ele><time>2026-05-02T10:26:26.362Z</time></trkpt><trkpt lat="43.073037" lon="11.4142685"><ele>475.20000000000005</ele><time>2026-05-02T10:26:27.385Z</time></trkpt><trkpt lat="43.0729393" lon="11.4142798"><ele>477.0</ele><time>2026-05-02T10:26:28.37Z</time></trkpt><trkpt lat="43.0728462" lon="11.4142889"><ele>477.0</ele><time>2026-05-02T10:26:29.37Z</time></trkpt><trkpt lat="43.0727534" lon="11.4142894"><ele>477.00000000000006</ele><time>2026-05-02T10:26:30.354Z</time></trkpt><trkpt lat="43.0726612" lon="11.4142784"><ele>477.00000000000006</ele><time>2026-05-02T10:26:31.365Z</time></trkpt><trkpt lat="43.0725721" lon="11.4142505"><ele>477.0</ele><time>2026-05-02T10:26:32.367Z</time></trkpt><trkpt lat="43.0724883" lon="11.4142125"><ele>477.0</ele><time>2026-05-02T10:26:33.359Z</time></trkpt><trkpt lat="43.0724087" lon="11.4141724"><ele>476.6666666666667</ele><time>2026-05-02T10:26:34.367Z</time></trkpt><trkpt lat="43.0723332" lon="11.4141302"><ele>476.33333333333337</ele><time>2026-05-02T10:26:35.385Z</time></trkpt><trkpt lat="43.0722585" lon="11.4140808"><ele>476.0</ele><time>2026-05-02T10:26:36.397Z</time></trkpt><trkpt lat="43.0721812" lon="11.4140267"><ele>475.6666666666667</ele><time>2026-05-02T10:26:37.369Z</time></trkpt><trkpt lat="43.0721029" lon="11.4139742"><ele>475.33333333333337</ele><time>2026-05-02T10:26:38.361Z</time></trkpt><trkpt lat="43.0720285" lon="11.4139258"><ele>475.0</ele><time>2026-05-02T10:26:39.363Z</time></trkpt><trkpt lat="43.0719533" lon="11.4138974"><ele>475.00000000000006</ele><time>2026-05-02T10:26:40.377Z</time></trkpt><trkpt lat="43.0718814" lon="11.4138694"><ele>475.0</ele><time>2026-05-02T10:26:41.363Z</time></trkpt><trkpt lat="43.0718103" lon="11.4138308"><ele>475.0</ele><time>2026-05-02T10:26:42.367Z</time></trkpt><trkpt lat="43.0717399" lon="11.4137824"><ele>475.0</ele><time>2026-05-02T10:26:43.367Z</time></trkpt><trkpt lat="43.0716706" lon="11.4137279"><ele>475.00000000000006</ele><time>2026-05-02T10:26:44.359Z</time></trkpt><trkpt lat="43.0716047" lon="11.413671"><ele>475.0</ele><time>2026-05-02T10:26:45.364Z</time></trkpt><trkpt lat="43.0715381" lon="11.4136176"><ele>476.83333333333337</ele><time>2026-05-02T10:26:46.363Z</time></trkpt><trkpt lat="43.0714657" lon="11.4135807"><ele>478.6666666666667</ele><time>2026-05-02T10:26:47.363Z</time></trkpt><trkpt lat="43.0713886" lon="11.4135677"><ele>480.5</ele><time>2026-05-02T10:26:48.376Z</time></trkpt><trkpt lat="43.0713082" lon="11.413578"><ele>482.33333333333337</ele><time>2026-05-02T10:26:49.375Z</time></trkpt><trkpt lat="43.0712258" lon="11.4135952"><ele>484.1666666666667</ele><time>2026-05-02T10:26:50.377Z</time></trkpt><trkpt lat="43.0711432" lon="11.4136068"><ele>486.0</ele><time>2026-05-02T10:26:51.367Z</time></trkpt><trkpt lat="43.0710576" lon="11.4136186"><ele>486.0</ele><time>2026-05-02T10:26:52.388Z</time></trkpt><trkpt lat="43.0709781" lon="11.4135877"><ele>486.0</ele><time>2026-05-02T10:26:53.365Z</time></trkpt><trkpt lat="43.0708953" lon="11.4135529"><ele>486.0</ele><time>2026-05-02T10:26:54.374Z</time></trkpt><trkpt lat="43.0708223" lon="11.4134865"><ele>486.0</ele><time>2026-05-02T10:26:55.384Z</time></trkpt><trkpt lat="43.0707501" lon="11.4134059"><ele>486.0</ele><time>2026-05-02T10:26:56.378Z</time></trkpt><trkpt lat="43.0706791" lon="11.4133136"><ele>486.0</ele><time>2026-05-02T10:26:57.356Z</time></trkpt><trkpt lat="43.0706064" lon="11.4132177"><ele>487.5</ele><time>2026-05-02T10:26:58.371Z</time></trkpt><trkpt lat="43.0705354" lon="11.4131264"><ele>489.0</ele><time>2026-05-02T10:26:59.382Z</time></trkpt><trkpt lat="43.0704706" lon="11.4130484"><ele>490.5</ele><time>2026-05-02T10:27:00.382Z</time></trkpt><trkpt lat="43.0704121" lon="11.4129792"><ele>492.0</ele><time>2026-05-02T10:27:01.386Z</time></trkpt><trkpt lat="43.0703443" lon="11.4129342"><ele>493.5</ele><time>2026-05-02T10:27:02.369Z</time></trkpt><trkpt lat="43.0702771" lon="11.4129239"><ele>495.0</ele><time>2026-05-02T10:27:03.378Z</time></trkpt><trkpt lat="43.0702139" lon="11.4129497"><ele>495.0</ele><time>2026-05-02T10:27:04.39Z</time></trkpt><trkpt lat="43.0701583" lon="11.4130088"><ele>495.0</ele><time>2026-05-02T10:27:05.397Z</time></trkpt><trkpt lat="43.0701154" lon="11.4130925"><ele>495.0</ele><time>2026-05-02T10:27:06.384Z</time></trkpt><trkpt lat="43.0700765" lon="11.4131891"><ele>495.0</ele><time>2026-05-02T10:27:07.39Z</time></trkpt><trkpt lat="43.0700412" lon="11.4132915"><ele>495.0</ele><time>2026-05-02T10:27:08.379Z</time></trkpt><trkpt lat="43.0700023" lon="11.413387"><ele>495.0</ele><time>2026-05-02T10:27:09.385Z</time></trkpt><trkpt lat="43.0699777" lon="11.4135032"><ele>495.0</ele><time>2026-05-02T10:27:10.365Z</time></trkpt><trkpt lat="43.0699539" lon="11.4136226"><ele>495.0</ele><time>2026-05-02T10:27:11.36Z</time></trkpt><trkpt lat="43.0699626" lon="11.413742"><ele>495.0</ele><time>2026-05-02T10:27:12.378Z</time></trkpt><trkpt lat="43.069971" lon="11.4138648"><ele>495.0</ele><time>2026-05-02T10:27:13.375Z</time></trkpt><trkpt lat="43.0699877" lon="11.4139855"><ele>495.0</ele><time>2026-05-02T10:27:14.367Z</time></trkpt><trkpt lat="43.0699971" lon="11.4141083"><ele>495.0</ele><time>2026-05-02T10:27:15.366Z</time></trkpt><trkpt lat="43.0699999" lon="11.4142328"><ele>494.8</ele><time>2026-05-02T10:27:16.371Z</time></trkpt><trkpt lat="43.0699948" lon="11.414355"><ele>494.6</ele><time>2026-05-02T10:27:17.367Z</time></trkpt><trkpt lat="43.0699767" lon="11.4144775"><ele>494.4</ele><time>2026-05-02T10:27:18.375Z</time></trkpt><trkpt lat="43.0699472" lon="11.4145942"><ele>494.2</ele><time>2026-05-02T10:27:19.366Z</time></trkpt><trkpt lat="43.0699048" lon="11.4147043"><ele>494.0</ele><time>2026-05-02T10:27:20.389Z</time></trkpt><trkpt lat="43.0698533" lon="11.4148081"><ele>495.0</ele><time>2026-05-02T10:27:21.363Z</time></trkpt><trkpt lat="43.0697915" lon="11.4149008"><ele>496.0</ele><time>2026-05-02T10:27:22.366Z</time></trkpt><trkpt lat="43.0697183" lon="11.4149782"><ele>497.0</ele><time>2026-05-02T10:27:23.363Z</time></trkpt><trkpt lat="43.0696336" lon="11.4150464"><ele>498.0</ele><time>2026-05-02T10:27:24.365Z</time></trkpt><trkpt lat="43.0695422" lon="11.4151149"><ele>499.0</ele><time>2026-05-02T10:27:25.364Z</time></trkpt><trkpt lat="43.0694476" lon="11.4151895"><ele>499.0</ele><time>2026-05-02T10:27:26.386Z</time></trkpt><trkpt lat="43.0693592" lon="11.4152746"><ele>499.0</ele><time>2026-05-02T10:27:27.371Z</time></trkpt><trkpt lat="43.0692736" lon="11.4153597"><ele>499.0</ele><time>2026-05-02T10:27:28.367Z</time></trkpt><trkpt lat="43.0691856" lon="11.4154331"><ele>499.0</ele><time>2026-05-02T10:27:29.386Z</time></trkpt><trkpt lat="43.0690949" lon="11.4154897"><ele>499.0</ele><time>2026-05-02T10:27:30.369Z</time></trkpt><trkpt lat="43.0690073" lon="11.4155428"><ele>496.79999999999995</ele><time>2026-05-02T10:27:31.364Z</time></trkpt><trkpt lat="43.0689161" lon="11.4155664"><ele>494.59999999999997</ele><time>2026-05-02T10:27:32.366Z</time></trkpt><trkpt lat="43.0688235" lon="11.4155949"><ele>492.4</ele><time>2026-05-02T10:27:33.381Z</time></trkpt><trkpt lat="43.0687308" lon="11.4156307"><ele>490.2</ele><time>2026-05-02T10:27:34.376Z</time></trkpt><trkpt lat="43.0686383" lon="11.4156849"><ele>488.0</ele><time>2026-05-02T10:27:35.357Z</time></trkpt><trkpt lat="43.0685492" lon="11.4157596"><ele>488.0</ele><time>2026-05-02T10:27:36.385Z</time></trkpt><trkpt lat="43.068464" lon="11.4158476"><ele>487.99999999999994</ele><time>2026-05-02T10:27:37.398Z</time></trkpt><trkpt lat="43.0683831" lon="11.4159399"><ele>487.99999999999994</ele><time>2026-05-02T10:27:38.381Z</time></trkpt><trkpt lat="43.0683039" lon="11.4160333"><ele>488.0</ele><time>2026-05-02T10:27:39.37Z</time></trkpt><trkpt lat="43.0682223" lon="11.416121"><ele>488.0</ele><time>2026-05-02T10:27:40.355Z</time></trkpt><trkpt lat="43.0681334" lon="11.4161991"><ele>487.79999999999995</ele><time>2026-05-02T10:27:41.383Z</time></trkpt><trkpt lat="43.0680407" lon="11.4162701"><ele>487.59999999999997</ele><time>2026-05-02T10:27:42.37Z</time></trkpt><trkpt lat="43.0679545" lon="11.4163341"><ele>487.40000000000003</ele><time>2026-05-02T10:27:43.371Z</time></trkpt><trkpt lat="43.0678806" lon="11.4163966"><ele>487.20000000000005</ele><time>2026-05-02T10:27:44.371Z</time></trkpt><trkpt lat="43.0678198" lon="11.4164678"><ele>487.0</ele><time>2026-05-02T10:27:45.361Z</time></trkpt><trkpt lat="43.067768" lon="11.4165525"><ele>488.1666666666667</ele><time>2026-05-02T10:27:46.361Z</time></trkpt><trkpt lat="43.0677282" lon="11.4166484"><ele>489.33333333333337</ele><time>2026-05-02T10:27:47.38Z</time></trkpt><trkpt lat="43.0676986" lon="11.4167543"><ele>490.5</ele><time>2026-05-02T10:27:48.376Z</time></trkpt><trkpt lat="43.0676714" lon="11.4168573"><ele>491.66666666666663</ele><time>2026-05-02T10:27:49.377Z</time></trkpt><trkpt lat="43.0676341" lon="11.4169663"><ele>492.8333333333333</ele><time>2026-05-02T10:27:50.383Z</time></trkpt><trkpt lat="43.0675972" lon="11.4170737"><ele>494.0</ele><time>2026-05-02T10:27:51.37Z</time></trkpt><trkpt lat="43.0675378" lon="11.4171702"><ele>493.99999999999994</ele><time>2026-05-02T10:27:52.375Z</time></trkpt><trkpt lat="43.0674786" lon="11.4172558"><ele>494.0</ele><time>2026-05-02T10:27:53.374Z</time></trkpt><trkpt lat="43.0674186" lon="11.4173467"><ele>494.0</ele><time>2026-05-02T10:27:54.382Z</time></trkpt><trkpt lat="43.0673575" lon="11.4174285"><ele>494.0</ele><time>2026-05-02T10:27:55.358Z</time></trkpt><trkpt lat="43.0672872" lon="11.4175005"><ele>493.99999999999994</ele><time>2026-05-02T10:27:56.368Z</time></trkpt><trkpt lat="43.0672113" lon="11.4175617"><ele>494.0</ele><time>2026-05-02T10:27:57.372Z</time></trkpt><trkpt lat="43.0671301" lon="11.4176136"><ele>494.49999999999994</ele><time>2026-05-02T10:27:58.364Z</time></trkpt><trkpt lat="43.0670431" lon="11.4176541"><ele>495.0</ele><time>2026-05-02T10:27:59.391Z</time></trkpt><trkpt lat="43.0669535" lon="11.4176903"><ele>495.5</ele><time>2026-05-02T10:28:00.37Z</time></trkpt><trkpt lat="43.0668714" lon="11.4177419"><ele>496.0</ele><time>2026-05-02T10:28:01.366Z</time></trkpt><trkpt lat="43.0668082" lon="11.41781"><ele>496.49999999999994</ele><time>2026-05-02T10:28:02.362Z</time></trkpt><trkpt lat="43.0667564" lon="11.4178988"><ele>497.0</ele><time>2026-05-02T10:28:03.366Z</time></trkpt><trkpt lat="43.0667122" lon="11.418002"><ele>497.0</ele><time>2026-05-02T10:28:04.377Z</time></trkpt><trkpt lat="43.066675" lon="11.4181151"><ele>497.00000000000006</ele><time>2026-05-02T10:28:05.379Z</time></trkpt><trkpt lat="43.0666392" lon="11.4182375"><ele>497.00000000000006</ele><time>2026-05-02T10:28:06.364Z</time></trkpt><trkpt lat="43.0666076" lon="11.4183624"><ele>497.0</ele><time>2026-05-02T10:28:07.366Z</time></trkpt><trkpt lat="43.0665819" lon="11.4184913"><ele>497.0</ele><time>2026-05-02T10:28:08.369Z</time></trkpt><trkpt lat="43.0665672" lon="11.4186205"><ele>495.49999999999994</ele><time>2026-05-02T10:28:09.369Z</time></trkpt><trkpt lat="43.0665595" lon="11.4187434"><ele>494.0</ele><time>2026-05-02T10:28:10.364Z</time></trkpt><trkpt lat="43.0665526" lon="11.4188607"><ele>492.5</ele><time>2026-05-02T10:28:11.377Z</time></trkpt><trkpt lat="43.0665508" lon="11.4189819"><ele>491.0</ele><time>2026-05-02T10:28:12.364Z</time></trkpt><trkpt lat="43.0665502" lon="11.4191018"><ele>489.49999999999994</ele><time>2026-05-02T10:28:13.367Z</time></trkpt><trkpt lat="43.0665524" lon="11.4192216"><ele>488.0</ele><time>2026-05-02T10:28:14.372Z</time></trkpt><trkpt lat="43.0665598" lon="11.4193411"><ele>487.49999999999994</ele><time>2026-05-02T10:28:15.375Z</time></trkpt><trkpt lat="43.066567" lon="11.4194604"><ele>487.0</ele><time>2026-05-02T10:28:16.372Z</time></trkpt><trkpt lat="43.0665684" lon="11.4195765"><ele>486.5</ele><time>2026-05-02T10:28:17.382Z</time></trkpt><trkpt lat="43.0665683" lon="11.4196864"><ele>486.0</ele><time>2026-05-02T10:28:18.369Z</time></trkpt><trkpt lat="43.0665647" lon="11.4197916"><ele>485.49999999999994</ele><time>2026-05-02T10:28:19.391Z</time></trkpt><trkpt lat="43.0665467" lon="11.4199022"><ele>485.0</ele><time>2026-05-02T10:28:20.382Z</time></trkpt><trkpt lat="43.0665148" lon="11.4200158"><ele>485.0</ele><time>2026-05-02T10:28:21.379Z</time></trkpt><trkpt lat="43.0664651" lon="11.4201271"><ele>485.0</ele><time>2026-05-02T10:28:22.406Z</time></trkpt><trkpt lat="43.0664072" lon="11.4202367"><ele>485.0</ele><time>2026-05-02T10:28:23.377Z</time></trkpt><trkpt lat="43.066349" lon="11.4203534"><ele>485.0</ele><time>2026-05-02T10:28:24.371Z</time></trkpt><trkpt lat="43.0662945" lon="11.4204794"><ele>485.0</ele><time>2026-05-02T10:28:25.383Z</time></trkpt><trkpt lat="43.0662426" lon="11.4206084"><ele>486.4</ele><time>2026-05-02T10:28:26.393Z</time></trkpt><trkpt lat="43.0661862" lon="11.4207331"><ele>487.8</ele><time>2026-05-02T10:28:27.364Z</time></trkpt><trkpt lat="43.0661236" lon="11.4208516"><ele>489.20000000000005</ele><time>2026-05-02T10:28:28.38Z</time></trkpt><trkpt lat="43.0660572" lon="11.4209648"><ele>490.6</ele><time>2026-05-02T10:28:29.369Z</time></trkpt><trkpt lat="43.0659907" lon="11.421078"><ele>492.0</ele><time>2026-05-02T10:28:30.372Z</time></trkpt><trkpt lat="43.065925" lon="11.4211951"><ele>493.0</ele><time>2026-05-02T10:28:31.383Z</time></trkpt><trkpt lat="43.0658612" lon="11.4213175"><ele>494.00000000000006</ele><time>2026-05-02T10:28:32.371Z</time></trkpt><trkpt lat="43.0657964" lon="11.4214396"><ele>495.00000000000006</ele><time>2026-05-02T10:28:33.368Z</time></trkpt><trkpt lat="43.0657356" lon="11.4215618"><ele>496.0</ele><time>2026-05-02T10:28:34.362Z</time></trkpt><trkpt lat="43.0656784" lon="11.4216776"><ele>497.0</ele><time>2026-05-02T10:28:35.366Z</time></trkpt><trkpt lat="43.0656141" lon="11.4217775"><ele>496.49999999999994</ele><time>2026-05-02T10:28:36.399Z</time></trkpt><trkpt lat="43.0655451" lon="11.4218588"><ele>496.0</ele><time>2026-05-02T10:28:37.39Z</time></trkpt><trkpt lat="43.0654738" lon="11.4219275"><ele>495.5</ele><time>2026-05-02T10:28:38.374Z</time></trkpt><trkpt lat="43.0654061" lon="11.4219966"><ele>495.0</ele><time>2026-05-02T10:28:39.381Z</time></trkpt><trkpt lat="43.0653385" lon="11.4220688"><ele>494.49999999999994</ele><time>2026-05-02T10:28:40.38Z</time></trkpt><trkpt lat="43.065269" lon="11.4221345"><ele>494.0</ele><time>2026-05-02T10:28:41.368Z</time></trkpt><trkpt lat="43.0651955" lon="11.4221844"><ele>493.99999999999994</ele><time>2026-05-02T10:28:42.38Z</time></trkpt><trkpt lat="43.0651191" lon="11.4222166"><ele>494.0</ele><time>2026-05-02T10:28:43.371Z</time></trkpt><trkpt lat="43.0650363" lon="11.4222358"><ele>494.0</ele><time>2026-05-02T10:28:44.396Z</time></trkpt><trkpt lat="43.0649486" lon="11.4222472"><ele>494.0</ele><time>2026-05-02T10:28:45.376Z</time></trkpt><trkpt lat="43.0648574" lon="11.4222546"><ele>493.99999999999994</ele><time>2026-05-02T10:28:46.378Z</time></trkpt><trkpt lat="43.0647629" lon="11.4222592"><ele>494.0</ele><time>2026-05-02T10:28:47.368Z</time></trkpt><trkpt lat="43.0646647" lon="11.4222541"><ele>492.4</ele><time>2026-05-02T10:28:48.381Z</time></trkpt><trkpt lat="43.0645642" lon="11.4222369"><ele>490.79999999999995</ele><time>2026-05-02T10:28:49.368Z</time></trkpt><trkpt lat="43.0644621" lon="11.4222069"><ele>489.20000000000005</ele><time>2026-05-02T10:28:50.379Z</time></trkpt><trkpt lat="43.0643624" lon="11.4221643"><ele>487.6</ele><time>2026-05-02T10:28:51.369Z</time></trkpt><trkpt lat="43.0642645" lon="11.4221273"><ele>486.0</ele><time>2026-05-02T10:28:52.392Z</time></trkpt><trkpt lat="43.0641758" lon="11.4220839"><ele>483.6666666666667</ele><time>2026-05-02T10:28:53.376Z</time></trkpt><trkpt lat="43.0640935" lon="11.4220403"><ele>481.33333333333337</ele><time>2026-05-02T10:28:54.369Z</time></trkpt><trkpt lat="43.0640164" lon="11.4220074"><ele>479.0</ele><time>2026-05-02T10:28:55.394Z</time></trkpt><trkpt lat="43.0639358" lon="11.421995"><ele>476.6666666666667</ele><time>2026-05-02T10:28:56.373Z</time></trkpt><trkpt lat="43.0638544" lon="11.4219974"><ele>474.33333333333337</ele><time>2026-05-02T10:28:57.365Z</time></trkpt><trkpt lat="43.0637743" lon="11.4220069"><ele>472.0</ele><time>2026-05-02T10:28:58.398Z</time></trkpt><trkpt lat="43.0636964" lon="11.422021"><ele>472.00000000000006</ele><time>2026-05-02T10:28:59.37Z</time></trkpt><trkpt lat="43.063628" lon="11.4220386"><ele>472.0</ele><time>2026-05-02T10:29:00.369Z</time></trkpt><trkpt lat="43.0635696" lon="11.4220734"><ele>472.0</ele><time>2026-05-02T10:29:01.385Z</time></trkpt><trkpt lat="43.0634926" lon="11.4222048"><ele>472.0</ele><time>2026-05-02T10:29:03.386Z</time></trkpt><trkpt lat="43.0634862" lon="11.4222926"><ele>472.00000000000006</ele><time>2026-05-02T10:29:04.367Z</time></trkpt><trkpt lat="43.0634963" lon="11.4223862"><ele>472.0</ele><time>2026-05-02T10:29:05.374Z</time></trkpt><trkpt lat="43.0635086" lon="11.4224822"><ele>472.00000000000006</ele><time>2026-05-02T10:29:06.364Z</time></trkpt><trkpt lat="43.0635302" lon="11.422586"><ele>472.0</ele><time>2026-05-02T10:29:07.387Z</time></trkpt><trkpt lat="43.0635379" lon="11.4226896"><ele>472.0</ele><time>2026-05-02T10:29:08.367Z</time></trkpt><trkpt lat="43.0635314" lon="11.422793"><ele>472.0</ele><time>2026-05-02T10:29:09.376Z</time></trkpt><trkpt lat="43.0635134" lon="11.4228933"><ele>472.00000000000006</ele><time>2026-05-02T10:29:10.368Z</time></trkpt><trkpt lat="43.0634874" lon="11.4229952"><ele>472.0</ele><time>2026-05-02T10:29:11.402Z</time></trkpt><trkpt lat="43.0634429" lon="11.4230925"><ele>471.50000000000006</ele><time>2026-05-02T10:29:12.37Z</time></trkpt><trkpt lat="43.0634007" lon="11.4231896"><ele>471.0</ele><time>2026-05-02T10:29:13.367Z</time></trkpt><trkpt lat="43.0633681" lon="11.4232922"><ele>470.5</ele><time>2026-05-02T10:29:14.401Z</time></trkpt><trkpt lat="43.0633442" lon="11.4233936"><ele>470.0</ele><time>2026-05-02T10:29:15.381Z</time></trkpt><trkpt lat="43.0633235" lon="11.4234918"><ele>469.50000000000006</ele><time>2026-05-02T10:29:16.371Z</time></trkpt><trkpt lat="43.063319" lon="11.4235922"><ele>469.0</ele><time>2026-05-02T10:29:17.37Z</time></trkpt><trkpt lat="43.0633409" lon="11.4236927"><ele>469.00000000000006</ele><time>2026-05-02T10:29:18.383Z</time></trkpt><trkpt lat="43.0633637" lon="11.4237958"><ele>469.0</ele><time>2026-05-02T10:29:19.36Z</time></trkpt><trkpt lat="43.0633747" lon="11.4239031"><ele>469.0</ele><time>2026-05-02T10:29:20.382Z</time></trkpt><trkpt lat="43.0633784" lon="11.4240142"><ele>469.0</ele><time>2026-05-02T10:29:21.367Z</time></trkpt><trkpt lat="43.0633676" lon="11.424125"><ele>469.00000000000006</ele><time>2026-05-02T10:29:22.374Z</time></trkpt><trkpt lat="43.0633405" lon="11.4242381"><ele>469.0</ele><time>2026-05-02T10:29:23.37Z</time></trkpt><trkpt lat="43.0633061" lon="11.4243557"><ele>467.6</ele><time>2026-05-02T10:29:24.386Z</time></trkpt><trkpt lat="43.0632761" lon="11.4244821"><ele>466.2</ele><time>2026-05-02T10:29:25.375Z</time></trkpt><trkpt lat="43.0632529" lon="11.4246148"><ele>464.80000000000007</ele><time>2026-05-02T10:29:26.383Z</time></trkpt><trkpt lat="43.063236" lon="11.4247452"><ele>463.40000000000003</ele><time>2026-05-02T10:29:27.388Z</time></trkpt><trkpt lat="43.0632177" lon="11.4248703"><ele>462.0</ele><time>2026-05-02T10:29:28.369Z</time></trkpt><trkpt lat="43.0631927" lon="11.4249912"><ele>462.0</ele><time>2026-05-02T10:29:29.382Z</time></trkpt><trkpt lat="43.0631536" lon="11.4251032"><ele>462.00000000000006</ele><time>2026-05-02T10:29:30.363Z</time></trkpt><trkpt lat="43.0631032" lon="11.425207"><ele>462.00000000000006</ele><time>2026-05-02T10:29:31.379Z</time></trkpt><trkpt lat="43.0630508" lon="11.4253085"><ele>462.0</ele><time>2026-05-02T10:29:32.383Z</time></trkpt><trkpt lat="43.0629939" lon="11.4254099"><ele>462.0</ele><time>2026-05-02T10:29:33.383Z</time></trkpt><trkpt lat="43.0629391" lon="11.4255117"><ele>462.8</ele><time>2026-05-02T10:29:34.372Z</time></trkpt><trkpt lat="43.0628927" lon="11.4256201"><ele>463.6</ele><time>2026-05-02T10:29:35.379Z</time></trkpt><trkpt lat="43.0628589" lon="11.4257352"><ele>464.40000000000003</ele><time>2026-05-02T10:29:36.365Z</time></trkpt><trkpt lat="43.0628276" lon="11.4258497"><ele>465.20000000000005</ele><time>2026-05-02T10:29:37.383Z</time></trkpt><trkpt lat="43.0628204" lon="11.4259719"><ele>466.0</ele><time>2026-05-02T10:29:38.371Z</time></trkpt><trkpt lat="43.0628169" lon="11.4260946"><ele>466.0</ele><time>2026-05-02T10:29:39.413Z</time></trkpt><trkpt lat="43.0628171" lon="11.4262199"><ele>466.0</ele><time>2026-05-02T10:29:40.376Z</time></trkpt><trkpt lat="43.0628231" lon="11.4263508"><ele>466.0</ele><time>2026-05-02T10:29:41.398Z</time></trkpt><trkpt lat="43.062838" lon="11.4264877"><ele>466.0</ele><time>2026-05-02T10:29:42.397Z</time></trkpt><trkpt lat="43.0628588" lon="11.4266303"><ele>466.0</ele><time>2026-05-02T10:29:43.393Z</time></trkpt><trkpt lat="43.0628782" lon="11.4267721"><ele>466.00000000000006</ele><time>2026-05-02T10:29:44.39Z</time></trkpt><trkpt lat="43.062887" lon="11.4269004"><ele>466.0</ele><time>2026-05-02T10:29:45.4Z</time></trkpt><trkpt lat="43.06288" lon="11.4270177"><ele>466.0</ele><time>2026-05-02T10:29:46.373Z</time></trkpt><trkpt lat="43.0628505" lon="11.4271308"><ele>466.0</ele><time>2026-05-02T10:29:47.4Z</time></trkpt><trkpt lat="43.0627986" lon="11.4272284"><ele>466.00000000000006</ele><time>2026-05-02T10:29:48.4Z</time></trkpt><trkpt lat="43.0627445" lon="11.4273241"><ele>466.0</ele><time>2026-05-02T10:29:49.379Z</time></trkpt><trkpt lat="43.0626665" lon="11.4273926"><ele>466.0</ele><time>2026-05-02T10:29:50.389Z</time></trkpt><trkpt lat="43.0625847" lon="11.4274406"><ele>466.0</ele><time>2026-05-02T10:29:51.384Z</time></trkpt><trkpt lat="43.0625016" lon="11.4274863"><ele>466.0</ele><time>2026-05-02T10:29:52.377Z</time></trkpt><trkpt lat="43.0624115" lon="11.4275274"><ele>466.0</ele><time>2026-05-02T10:29:53.364Z</time></trkpt><trkpt lat="43.062316" lon="11.4275627"><ele>466.0</ele><time>2026-05-02T10:29:54.375Z</time></trkpt><trkpt lat="43.0622137" lon="11.4276022"><ele>466.8</ele><time>2026-05-02T10:29:55.374Z</time></trkpt><trkpt lat="43.062113" lon="11.4276298"><ele>467.6</ele><time>2026-05-02T10:29:56.381Z</time></trkpt><trkpt lat="43.0620161" lon="11.4276415"><ele>468.4</ele><time>2026-05-02T10:29:57.37Z</time></trkpt><trkpt lat="43.0619247" lon="11.4276297"><ele>469.2</ele><time>2026-05-02T10:29:58.4Z</time></trkpt><trkpt lat="43.0618315" lon="11.4275929"><ele>470.0</ele><time>2026-05-02T10:29:59.395Z</time></trkpt><trkpt lat="43.061737" lon="11.4275401"><ele>470.0</ele><time>2026-05-02T10:30:00.374Z</time></trkpt><trkpt lat="43.0616462" lon="11.4274776"><ele>470.0</ele><time>2026-05-02T10:30:01.389Z</time></trkpt><trkpt lat="43.0615532" lon="11.4274289"><ele>470.0</ele><time>2026-05-02T10:30:02.385Z</time></trkpt><trkpt lat="43.061453" lon="11.427403"><ele>470.0</ele><time>2026-05-02T10:30:03.388Z</time></trkpt><trkpt lat="43.0613479" lon="11.427405"><ele>470.0</ele><time>2026-05-02T10:30:04.403Z</time></trkpt><trkpt lat="43.0612401" lon="11.4274293"><ele>470.2</ele><time>2026-05-02T10:30:05.376Z</time></trkpt><trkpt lat="43.0611312" lon="11.4274639"><ele>470.4</ele><time>2026-05-02T10:30:06.38Z</time></trkpt><trkpt lat="43.061028" lon="11.4274955"><ele>470.6</ele><time>2026-05-02T10:30:07.379Z</time></trkpt><trkpt lat="43.0609325" lon="11.4275087"><ele>470.8</ele><time>2026-05-02T10:30:08.36Z</time></trkpt><trkpt lat="43.0608438" lon="11.427494"><ele>471.0</ele><time>2026-05-02T10:30:09.365Z</time></trkpt><trkpt lat="43.0607619" lon="11.4274495"><ele>472.6</ele><time>2026-05-02T10:30:10.368Z</time></trkpt><trkpt lat="43.06068" lon="11.4273934"><ele>474.20000000000005</ele><time>2026-05-02T10:30:11.383Z</time></trkpt><trkpt lat="43.0605949" lon="11.4273367"><ele>475.79999999999995</ele><time>2026-05-02T10:30:12.38Z</time></trkpt><trkpt lat="43.0605167" lon="11.4272905"><ele>477.4</ele><time>2026-05-02T10:30:13.376Z</time></trkpt><trkpt lat="43.0604465" lon="11.4272679"><ele>479.0</ele><time>2026-05-02T10:30:14.381Z</time></trkpt><trkpt lat="43.0603389" lon="11.42729"><ele>478.99999999999994</ele><time>2026-05-02T10:30:16.38Z</time></trkpt><trkpt lat="43.0602816" lon="11.4274396"><ele>479.0</ele><time>2026-05-02T10:30:18.367Z</time></trkpt><trkpt lat="43.0602699" lon="11.4275432"><ele>479.0</ele><time>2026-05-02T10:30:19.374Z</time></trkpt><trkpt lat="43.0602456" lon="11.4276369"><ele>479.0</ele><time>2026-05-02T10:30:20.374Z</time></trkpt><trkpt lat="43.060198" lon="11.4277065"><ele>478.99999999999994</ele><time>2026-05-02T10:30:21.372Z</time></trkpt><trkpt lat="43.0601432" lon="11.4277791"><ele>479.0</ele><time>2026-05-02T10:30:22.397Z</time></trkpt><trkpt lat="43.0600728" lon="11.4278199"><ele>478.99999999999994</ele><time>2026-05-02T10:30:23.395Z</time></trkpt><trkpt lat="43.0599971" lon="11.4278657"><ele>479.0</ele><time>2026-05-02T10:30:24.371Z</time></trkpt><trkpt lat="43.0599223" lon="11.4279025"><ele>479.0</ele><time>2026-05-02T10:30:25.363Z</time></trkpt><trkpt lat="43.0598493" lon="11.4279132"><ele>479.0</ele><time>2026-05-02T10:30:26.371Z</time></trkpt><trkpt lat="43.0597794" lon="11.4278892"><ele>478.99999999999994</ele><time>2026-05-02T10:30:27.362Z</time></trkpt><trkpt lat="43.0597135" lon="11.4278624"><ele>479.0</ele><time>2026-05-02T10:30:28.406Z</time></trkpt><trkpt lat="43.059657" lon="11.4277832"><ele>480.0</ele><time>2026-05-02T10:30:29.393Z</time></trkpt><trkpt lat="43.0595963" lon="11.4276887"><ele>481.0</ele><time>2026-05-02T10:30:30.391Z</time></trkpt><trkpt lat="43.0595368" lon="11.4275889"><ele>482.0</ele><time>2026-05-02T10:30:31.393Z</time></trkpt><trkpt lat="43.0594746" lon="11.4274893"><ele>483.0</ele><time>2026-05-02T10:30:32.37Z</time></trkpt><trkpt lat="43.0594071" lon="11.4274033"><ele>484.0</ele><time>2026-05-02T10:30:33.375Z</time></trkpt><trkpt lat="43.0593375" lon="11.4273374"><ele>484.00000000000006</ele><time>2026-05-02T10:30:34.373Z</time></trkpt><trkpt lat="43.0592681" lon="11.4273005"><ele>484.0</ele><time>2026-05-02T10:30:35.361Z</time></trkpt><trkpt lat="43.0591992" lon="11.4272954"><ele>484.0</ele><time>2026-05-02T10:30:36.379Z</time></trkpt><trkpt lat="43.0591338" lon="11.4272933"><ele>484.0</ele><time>2026-05-02T10:30:37.378Z</time></trkpt><trkpt lat="43.0590722" lon="11.4273335"><ele>484.00000000000006</ele><time>2026-05-02T10:30:38.381Z</time></trkpt><trkpt lat="43.0590205" lon="11.427383"><ele>484.0</ele><time>2026-05-02T10:30:39.383Z</time></trkpt><trkpt lat="43.0590162" lon="11.4275641"><ele>484.0</ele><time>2026-05-02T10:30:41.38Z</time></trkpt><trkpt lat="43.059039" lon="11.4276663"><ele>484.0</ele><time>2026-05-02T10:30:42.388Z</time></trkpt><trkpt lat="43.0590836" lon="11.427786"><ele>484.0</ele><time>2026-05-02T10:30:43.374Z</time></trkpt><trkpt lat="43.0591315" lon="11.4279094"><ele>484.0</ele><time>2026-05-02T10:30:44.38Z</time></trkpt><trkpt lat="43.0591654" lon="11.4280311"><ele>484.0</ele><time>2026-05-02T10:30:45.372Z</time></trkpt><trkpt lat="43.0591786" lon="11.4281392"><ele>483.1666666666667</ele><time>2026-05-02T10:30:46.37Z</time></trkpt><trkpt lat="43.0591871" lon="11.4282358"><ele>482.33333333333337</ele><time>2026-05-02T10:30:47.376Z</time></trkpt><trkpt lat="43.0590998" lon="11.4283623"><ele>481.5</ele><time>2026-05-02T10:30:49.381Z</time></trkpt><trkpt lat="43.0590335" lon="11.4283889"><ele>480.66666666666663</ele><time>2026-05-02T10:30:50.386Z</time></trkpt><trkpt lat="43.0589704" lon="11.4284076"><ele>479.8333333333333</ele><time>2026-05-02T10:30:51.366Z</time></trkpt><trkpt lat="43.0588729" lon="11.428477"><ele>479.0</ele><time>2026-05-02T10:30:53.365Z</time></trkpt><trkpt lat="43.058776" lon="11.4285836"><ele>480.0</ele><time>2026-05-02T10:30:55.396Z</time></trkpt><trkpt lat="43.0587268" lon="11.4286433"><ele>481.0</ele><time>2026-05-02T10:30:56.4Z</time></trkpt><trkpt lat="43.0586766" lon="11.4287044"><ele>482.0</ele><time>2026-05-02T10:30:57.37Z</time></trkpt><trkpt lat="43.0586357" lon="11.428784"><ele>483.0</ele><time>2026-05-02T10:30:58.371Z</time></trkpt><trkpt lat="43.0586001" lon="11.4288713"><ele>484.0</ele><time>2026-05-02T10:30:59.386Z</time></trkpt><trkpt lat="43.0585664" lon="11.4289572"><ele>485.0</ele><time>2026-05-02T10:31:00.369Z</time></trkpt><trkpt lat="43.0585323" lon="11.4290582"><ele>486.0</ele><time>2026-05-02T10:31:01.392Z</time></trkpt><trkpt lat="43.0584959" lon="11.4291553"><ele>486.0</ele><time>2026-05-02T10:31:02.374Z</time></trkpt><trkpt lat="43.0584595" lon="11.4292604"><ele>486.0</ele><time>2026-05-02T10:31:03.375Z</time></trkpt><trkpt lat="43.0584266" lon="11.4293705"><ele>486.0</ele><time>2026-05-02T10:31:04.37Z</time></trkpt><trkpt lat="43.058396" lon="11.4294871"><ele>486.0</ele><time>2026-05-02T10:31:05.372Z</time></trkpt><trkpt lat="43.0583697" lon="11.4296056"><ele>486.0</ele><time>2026-05-02T10:31:06.368Z</time></trkpt><trkpt lat="43.058346" lon="11.4297298"><ele>486.0</ele><time>2026-05-02T10:31:07.383Z</time></trkpt><trkpt lat="43.0583211" lon="11.4298568"><ele>486.0</ele><time>2026-05-02T10:31:08.368Z</time></trkpt><trkpt lat="43.0582972" lon="11.4299885"><ele>486.0</ele><time>2026-05-02T10:31:09.37Z</time></trkpt><trkpt lat="43.0582832" lon="11.4301107"><ele>486.0</ele><time>2026-05-02T10:31:10.363Z</time></trkpt><trkpt lat="43.0582765" lon="11.4302236"><ele>486.0</ele><time>2026-05-02T10:31:11.409Z</time></trkpt><trkpt lat="43.0582762" lon="11.4303398"><ele>486.0</ele><time>2026-05-02T10:31:12.383Z</time></trkpt><trkpt lat="43.0582857" lon="11.430461"><ele>486.0</ele><time>2026-05-02T10:31:13.37Z</time></trkpt><trkpt lat="43.0582944" lon="11.4305867"><ele>485.8333333333333</ele><time>2026-05-02T10:31:14.381Z</time></trkpt><trkpt lat="43.0582862" lon="11.4307056"><ele>485.66666666666663</ele><time>2026-05-02T10:31:15.368Z</time></trkpt><trkpt lat="43.0582585" lon="11.4308155"><ele>485.5</ele><time>2026-05-02T10:31:16.366Z</time></trkpt><trkpt lat="43.0582075" lon="11.4309063"><ele>485.3333333333333</ele><time>2026-05-02T10:31:17.389Z</time></trkpt><trkpt lat="43.058136" lon="11.4309834"><ele>485.16666666666663</ele><time>2026-05-02T10:31:18.37Z</time></trkpt><trkpt lat="43.05805" lon="11.431051"><ele>485.0</ele><time>2026-05-02T10:31:19.378Z</time></trkpt><trkpt lat="43.0579562" lon="11.4311197"><ele>485.6</ele><time>2026-05-02T10:31:20.365Z</time></trkpt><trkpt lat="43.057855" lon="11.431189"><ele>486.2</ele><time>2026-05-02T10:31:21.367Z</time></trkpt><trkpt lat="43.0577528" lon="11.4312552"><ele>486.79999999999995</ele><time>2026-05-02T10:31:22.365Z</time></trkpt><trkpt lat="43.0576569" lon="11.4313216"><ele>487.4</ele><time>2026-05-02T10:31:23.371Z</time></trkpt><trkpt lat="43.0575655" lon="11.431402"><ele>488.0</ele><time>2026-05-02T10:31:24.379Z</time></trkpt><trkpt lat="43.0574807" lon="11.4314993"><ele>488.2</ele><time>2026-05-02T10:31:25.398Z</time></trkpt><trkpt lat="43.0573961" lon="11.4316001"><ele>488.4</ele><time>2026-05-02T10:31:26.384Z</time></trkpt><trkpt lat="43.0573161" lon="11.4316995"><ele>488.59999999999997</ele><time>2026-05-02T10:31:27.368Z</time></trkpt><trkpt lat="43.0572448" lon="11.4318001"><ele>488.79999999999995</ele><time>2026-05-02T10:31:28.377Z</time></trkpt><trkpt lat="43.0571843" lon="11.4318972"><ele>489.0</ele><time>2026-05-02T10:31:29.37Z</time></trkpt><trkpt lat="43.0571319" lon="11.4319878"><ele>489.0</ele><time>2026-05-02T10:31:30.353Z</time></trkpt><trkpt lat="43.0570851" lon="11.4320684"><ele>489.0</ele><time>2026-05-02T10:31:31.367Z</time></trkpt><trkpt lat="43.0570146" lon="11.4321822"><ele>489.0</ele><time>2026-05-02T10:31:33.385Z</time></trkpt><trkpt lat="43.0569572" lon="11.4322302"><ele>489.0</ele><time>2026-05-02T10:32:30.373Z</time></trkpt><trkpt lat="43.0568874" lon="11.4322744"><ele>489.0</ele><time>2026-05-02T10:32:32.378Z</time></trkpt><trkpt lat="43.0567869" lon="11.4322939"><ele>489.0</ele><time>2026-05-02T10:32:34.367Z</time></trkpt><trkpt lat="43.0566842" lon="11.4322646"><ele>489.1666666666667</ele><time>2026-05-02T10:32:36.365Z</time></trkpt><trkpt lat="43.0565813" lon="11.4321895"><ele>489.33333333333337</ele><time>2026-05-02T10:32:38.366Z</time></trkpt><trkpt lat="43.0565263" lon="11.4321433"><ele>489.5</ele><time>2026-05-02T10:32:39.38Z</time></trkpt><trkpt lat="43.0564658" lon="11.4320979"><ele>489.6666666666667</ele><time>2026-05-02T10:32:40.367Z</time></trkpt><trkpt lat="43.0563995" lon="11.432056"><ele>489.83333333333337</ele><time>2026-05-02T10:32:41.369Z</time></trkpt><trkpt lat="43.0563367" lon="11.432015"><ele>490.0</ele><time>2026-05-02T10:32:42.371Z</time></trkpt><trkpt lat="43.0562695" lon="11.431977"><ele>488.83333333333337</ele><time>2026-05-02T10:32:43.364Z</time></trkpt><trkpt lat="43.0561984" lon="11.4319439"><ele>487.6666666666667</ele><time>2026-05-02T10:32:44.365Z</time></trkpt><trkpt lat="43.0561304" lon="11.4319126"><ele>486.5</ele><time>2026-05-02T10:32:45.365Z</time></trkpt><trkpt lat="43.056053" lon="11.4318876"><ele>485.33333333333337</ele><time>2026-05-02T10:32:46.371Z</time></trkpt><trkpt lat="43.0559785" lon="11.4318635"><ele>484.1666666666667</ele><time>2026-05-02T10:32:47.357Z</time></trkpt><trkpt lat="43.0559069" lon="11.4318366"><ele>483.0</ele><time>2026-05-02T10:32:48.376Z</time></trkpt><trkpt lat="43.0558304" lon="11.4318131"><ele>482.1666666666667</ele><time>2026-05-02T10:32:49.363Z</time></trkpt><trkpt lat="43.0557529" lon="11.4317959"><ele>481.33333333333337</ele><time>2026-05-02T10:32:50.368Z</time></trkpt><trkpt lat="43.0556764" lon="11.4317769"><ele>480.5</ele><time>2026-05-02T10:32:51.361Z</time></trkpt><trkpt lat="43.0556041" lon="11.4317709"><ele>479.6666666666667</ele><time>2026-05-02T10:32:52.361Z</time></trkpt><trkpt lat="43.0555275" lon="11.4317561"><ele>478.83333333333337</ele><time>2026-05-02T10:32:53.364Z</time></trkpt><trkpt lat="43.055458" lon="11.4317445"><ele>478.0</ele><time>2026-05-02T10:32:54.374Z</time></trkpt><trkpt lat="43.0553439" lon="11.431665"><ele>478.00000000000006</ele><time>2026-05-02T10:32:56.365Z</time></trkpt><trkpt lat="43.0553026" lon="11.4315928"><ele>478.0</ele><time>2026-05-02T10:32:57.367Z</time></trkpt><trkpt lat="43.0552576" lon="11.4315216"><ele>478.00000000000006</ele><time>2026-05-02T10:32:58.376Z</time></trkpt><trkpt lat="43.055205" lon="11.4314444"><ele>478.00000000000006</ele><time>2026-05-02T10:32:59.395Z</time></trkpt><trkpt lat="43.0551525" lon="11.4313743"><ele>478.0</ele><time>2026-05-02T10:33:00.362Z</time></trkpt><trkpt lat="43.0550882" lon="11.4313016"><ele>478.00000000000006</ele><time>2026-05-02T10:33:01.358Z</time></trkpt><trkpt lat="43.0550281" lon="11.4312316"><ele>478.00000000000006</ele><time>2026-05-02T10:33:02.377Z</time></trkpt><trkpt lat="43.0549666" lon="11.4311451"><ele>476.00000000000006</ele><time>2026-05-02T10:33:03.369Z</time></trkpt><trkpt lat="43.0549107" lon="11.4310806"><ele>474.0</ele><time>2026-05-02T10:33:04.387Z</time></trkpt><trkpt lat="43.0548478" lon="11.4310305"><ele>472.0</ele><time>2026-05-02T10:33:05.366Z</time></trkpt><trkpt lat="43.0547785" lon="11.4309847"><ele>470.0</ele><time>2026-05-02T10:33:06.37Z</time></trkpt><trkpt lat="43.0547085" lon="11.4309482"><ele>468.00000000000006</ele><time>2026-05-02T10:33:07.36Z</time></trkpt><trkpt lat="43.0546347" lon="11.4309184"><ele>466.0</ele><time>2026-05-02T10:33:08.366Z</time></trkpt><trkpt lat="43.0545582" lon="11.430889"><ele>466.00000000000006</ele><time>2026-05-02T10:33:09.373Z</time></trkpt><trkpt lat="43.054478" lon="11.4308757"><ele>466.0</ele><time>2026-05-02T10:33:10.371Z</time></trkpt><trkpt lat="43.0543963" lon="11.430858"><ele>466.0</ele><time>2026-05-02T10:33:11.369Z</time></trkpt><trkpt lat="43.054309" lon="11.4308414"><ele>466.0</ele><time>2026-05-02T10:33:12.367Z</time></trkpt><trkpt lat="43.0542166" lon="11.4308259"><ele>466.00000000000006</ele><time>2026-05-02T10:33:13.399Z</time></trkpt><trkpt lat="43.054121" lon="11.4308099"><ele>466.0</ele><time>2026-05-02T10:33:14.373Z</time></trkpt><trkpt lat="43.0540213" lon="11.4307942"><ele>464.4</ele><time>2026-05-02T10:33:15.357Z</time></trkpt><trkpt lat="43.0539204" lon="11.4307866"><ele>462.8</ele><time>2026-05-02T10:33:16.365Z</time></trkpt><trkpt lat="43.053822" lon="11.4307831"><ele>461.19999999999993</ele><time>2026-05-02T10:33:17.358Z</time></trkpt><trkpt lat="43.0537257" lon="11.4307799"><ele>459.59999999999997</ele><time>2026-05-02T10:33:18.372Z</time></trkpt><trkpt lat="43.0536279" lon="11.4307659"><ele>458.0</ele><time>2026-05-02T10:33:19.38Z</time></trkpt><trkpt lat="43.0535342" lon="11.4307338"><ele>458.0</ele><time>2026-05-02T10:33:20.361Z</time></trkpt><trkpt lat="43.0534402" lon="11.4306919"><ele>457.99999999999994</ele><time>2026-05-02T10:33:21.374Z</time></trkpt><trkpt lat="43.0533481" lon="11.4306426"><ele>457.99999999999994</ele><time>2026-05-02T10:33:22.395Z</time></trkpt><trkpt lat="43.0532568" lon="11.4305948"><ele>458.0</ele><time>2026-05-02T10:33:23.368Z</time></trkpt><trkpt lat="43.0531658" lon="11.4305492"><ele>458.0</ele><time>2026-05-02T10:33:24.383Z</time></trkpt><trkpt lat="43.0530703" lon="11.4305117"><ele>455.59999999999997</ele><time>2026-05-02T10:33:25.373Z</time></trkpt><trkpt lat="43.0529789" lon="11.4304676"><ele>453.19999999999993</ele><time>2026-05-02T10:33:26.375Z</time></trkpt><trkpt lat="43.0528891" lon="11.4304085"><ele>450.8</ele><time>2026-05-02T10:33:27.381Z</time></trkpt><trkpt lat="43.0527979" lon="11.4303368"><ele>448.4</ele><time>2026-05-02T10:33:28.37Z</time></trkpt><trkpt lat="43.0527039" lon="11.4302674"><ele>446.0</ele><time>2026-05-02T10:33:29.392Z</time></trkpt><trkpt lat="43.0526064" lon="11.4302062"><ele>446.0</ele><time>2026-05-02T10:33:30.373Z</time></trkpt><trkpt lat="43.0525063" lon="11.4301479"><ele>446.0</ele><time>2026-05-02T10:33:31.385Z</time></trkpt><trkpt lat="43.0524082" lon="11.4300909"><ele>446.0</ele><time>2026-05-02T10:33:32.379Z</time></trkpt><trkpt lat="43.052311" lon="11.4300332"><ele>446.0</ele><time>2026-05-02T10:33:33.372Z</time></trkpt><trkpt lat="43.0522124" lon="11.4299799"><ele>446.0</ele><time>2026-05-02T10:33:34.375Z</time></trkpt><trkpt lat="43.0521149" lon="11.4299364"><ele>443.20000000000005</ele><time>2026-05-02T10:33:35.364Z</time></trkpt><trkpt lat="43.052018" lon="11.4298964"><ele>440.40000000000003</ele><time>2026-05-02T10:33:36.364Z</time></trkpt><trkpt lat="43.0519238" lon="11.4298622"><ele>437.6</ele><time>2026-05-02T10:33:37.365Z</time></trkpt><trkpt lat="43.0518268" lon="11.4298298"><ele>434.8</ele><time>2026-05-02T10:33:38.37Z</time></trkpt><trkpt lat="43.0517223" lon="11.4297934"><ele>432.0</ele><time>2026-05-02T10:33:39.374Z</time></trkpt><trkpt lat="43.0516129" lon="11.4297489"><ele>432.0</ele><time>2026-05-02T10:33:40.376Z</time></trkpt><trkpt lat="43.0515031" lon="11.4296891"><ele>432.0</ele><time>2026-05-02T10:33:41.387Z</time></trkpt><trkpt lat="43.0513937" lon="11.4296177"><ele>432.0</ele><time>2026-05-02T10:33:42.373Z</time></trkpt><trkpt lat="43.0512872" lon="11.429547"><ele>432.0</ele><time>2026-05-02T10:33:43.368Z</time></trkpt><trkpt lat="43.0511866" lon="11.4294556"><ele>433.0</ele><time>2026-05-02T10:33:44.39Z</time></trkpt><trkpt lat="43.0510896" lon="11.4293649"><ele>434.0</ele><time>2026-05-02T10:33:45.368Z</time></trkpt><trkpt lat="43.050996" lon="11.4292675"><ele>435.0</ele><time>2026-05-02T10:33:46.368Z</time></trkpt><trkpt lat="43.0509057" lon="11.429169"><ele>436.0</ele><time>2026-05-02T10:33:47.373Z</time></trkpt><trkpt lat="43.0508202" lon="11.4290746"><ele>436.20000000000005</ele><time>2026-05-02T10:33:48.363Z</time></trkpt><trkpt lat="43.0507364" lon="11.4289838"><ele>436.40000000000003</ele><time>2026-05-02T10:33:49.387Z</time></trkpt><trkpt lat="43.0506534" lon="11.4289029"><ele>436.6</ele><time>2026-05-02T10:33:50.367Z</time></trkpt><trkpt lat="43.0505682" lon="11.4288248"><ele>436.8</ele><time>2026-05-02T10:33:51.396Z</time></trkpt><trkpt lat="43.0504778" lon="11.4287378"><ele>437.0</ele><time>2026-05-02T10:33:52.369Z</time></trkpt><trkpt lat="43.0503848" lon="11.4286411"><ele>437.0</ele><time>2026-05-02T10:33:53.378Z</time></trkpt><trkpt lat="43.0502911" lon="11.4285482"><ele>437.00000000000006</ele><time>2026-05-02T10:33:54.372Z</time></trkpt><trkpt lat="43.0501994" lon="11.4284694"><ele>437.00000000000006</ele><time>2026-05-02T10:33:55.39Z</time></trkpt><trkpt lat="43.0501046" lon="11.4284093"><ele>437.0</ele><time>2026-05-02T10:33:56.365Z</time></trkpt><trkpt lat="43.0500081" lon="11.4283687"><ele>437.0</ele><time>2026-05-02T10:33:57.364Z</time></trkpt><trkpt lat="43.0499118" lon="11.4283386"><ele>438.0</ele><time>2026-05-02T10:33:58.367Z</time></trkpt><trkpt lat="43.0498185" lon="11.428297"><ele>439.00000000000006</ele><time>2026-05-02T10:33:59.37Z</time></trkpt><trkpt lat="43.0497306" lon="11.4282321"><ele>440.00000000000006</ele><time>2026-05-02T10:34:00.367Z</time></trkpt><trkpt lat="43.0496492" lon="11.4281457"><ele>441.0</ele><time>2026-05-02T10:34:01.369Z</time></trkpt><trkpt lat="43.0495693" lon="11.4280502"><ele>442.0</ele><time>2026-05-02T10:34:02.359Z</time></trkpt><trkpt lat="43.0494898" lon="11.4279566"><ele>439.20000000000005</ele><time>2026-05-02T10:34:03.387Z</time></trkpt><trkpt lat="43.0494042" lon="11.4278661"><ele>436.40000000000003</ele><time>2026-05-02T10:34:04.366Z</time></trkpt><trkpt lat="43.049321" lon="11.427776"><ele>433.59999999999997</ele><time>2026-05-02T10:34:05.379Z</time></trkpt><trkpt lat="43.0492251" lon="11.4277008"><ele>430.79999999999995</ele><time>2026-05-02T10:34:06.372Z</time></trkpt><trkpt lat="43.0491311" lon="11.4276265"><ele>428.0</ele><time>2026-05-02T10:34:07.376Z</time></trkpt><trkpt lat="43.0490403" lon="11.4275495"><ele>427.79999999999995</ele><time>2026-05-02T10:34:08.367Z</time></trkpt><trkpt lat="43.0489565" lon="11.4274694"><ele>427.59999999999997</ele><time>2026-05-02T10:34:09.37Z</time></trkpt><trkpt lat="43.0488715" lon="11.4273897"><ele>427.40000000000003</ele><time>2026-05-02T10:34:10.37Z</time></trkpt><trkpt lat="43.0487975" lon="11.427302"><ele>427.20000000000005</ele><time>2026-05-02T10:34:11.374Z</time></trkpt><trkpt lat="43.0487365" lon="11.4272059"><ele>427.0</ele><time>2026-05-02T10:34:12.373Z</time></trkpt><trkpt lat="43.0486839" lon="11.4271109"><ele>425.50000000000006</ele><time>2026-05-02T10:34:13.382Z</time></trkpt><trkpt lat="43.0486322" lon="11.4270184"><ele>424.0</ele><time>2026-05-02T10:34:14.361Z</time></trkpt><trkpt lat="43.0485781" lon="11.4269271"><ele>422.5</ele><time>2026-05-02T10:34:15.364Z</time></trkpt><trkpt lat="43.0485162" lon="11.4268402"><ele>421.0</ele><time>2026-05-02T10:34:16.367Z</time></trkpt><trkpt lat="43.0484526" lon="11.426752"><ele>419.50000000000006</ele><time>2026-05-02T10:34:17.367Z</time></trkpt><trkpt lat="43.0483888" lon="11.4266545"><ele>418.0</ele><time>2026-05-02T10:34:18.373Z</time></trkpt><trkpt lat="43.0483326" lon="11.4265468"><ele>417.0</ele><time>2026-05-02T10:34:19.369Z</time></trkpt><trkpt lat="43.0482843" lon="11.4264377"><ele>416.0</ele><time>2026-05-02T10:34:20.361Z</time></trkpt><trkpt lat="43.0482408" lon="11.4263256"><ele>415.0</ele><time>2026-05-02T10:34:21.378Z</time></trkpt><trkpt lat="43.0481954" lon="11.426214"><ele>414.0</ele><time>2026-05-02T10:34:22.384Z</time></trkpt><trkpt lat="43.0481437" lon="11.4261038"><ele>413.0</ele><time>2026-05-02T10:34:23.365Z</time></trkpt><trkpt lat="43.0480932" lon="11.4259936"><ele>411.79999999999995</ele><time>2026-05-02T10:34:24.367Z</time></trkpt><trkpt lat="43.0480427" lon="11.4258836"><ele>410.6</ele><time>2026-05-02T10:34:25.387Z</time></trkpt><trkpt lat="43.047984" lon="11.4257698"><ele>409.4</ele><time>2026-05-02T10:34:26.374Z</time></trkpt><trkpt lat="43.04792" lon="11.4256555"><ele>408.20000000000005</ele><time>2026-05-02T10:34:27.377Z</time></trkpt><trkpt lat="43.0478524" lon="11.4255416"><ele>407.0</ele><time>2026-05-02T10:34:28.369Z</time></trkpt><trkpt lat="43.0477826" lon="11.4254291"><ele>405.0</ele><time>2026-05-02T10:34:29.393Z</time></trkpt><trkpt lat="43.04771" lon="11.4253142"><ele>403.0</ele><time>2026-05-02T10:34:30.367Z</time></trkpt><trkpt lat="43.0476399" lon="11.4252029"><ele>401.0</ele><time>2026-05-02T10:34:31.392Z</time></trkpt><trkpt lat="43.0475727" lon="11.4250974"><ele>399.0</ele><time>2026-05-02T10:34:32.367Z</time></trkpt><trkpt lat="43.0475094" lon="11.4249981"><ele>397.0</ele><time>2026-05-02T10:34:33.371Z</time></trkpt><trkpt lat="43.0474502" lon="11.4249111"><ele>396.50000000000006</ele><time>2026-05-02T10:34:34.368Z</time></trkpt><trkpt lat="43.0473905" lon="11.4248335"><ele>396.0</ele><time>2026-05-02T10:34:35.375Z</time></trkpt><trkpt lat="43.0473244" lon="11.4247659"><ele>395.5</ele><time>2026-05-02T10:34:36.364Z</time></trkpt><trkpt lat="43.0472545" lon="11.4247089"><ele>395.0</ele><time>2026-05-02T10:34:37.371Z</time></trkpt><trkpt lat="43.0471849" lon="11.4246656"><ele>394.50000000000006</ele><time>2026-05-02T10:34:38.385Z</time></trkpt><trkpt lat="43.0471138" lon="11.4246208"><ele>394.0</ele><time>2026-05-02T10:34:39.388Z</time></trkpt><trkpt lat="43.0470443" lon="11.4245608"><ele>393.1666666666667</ele><time>2026-05-02T10:34:40.372Z</time></trkpt><trkpt lat="43.0469854" lon="11.424479"><ele>392.33333333333337</ele><time>2026-05-02T10:34:41.385Z</time></trkpt><trkpt lat="43.046937" lon="11.4243817"><ele>391.5</ele><time>2026-05-02T10:34:42.375Z</time></trkpt><trkpt lat="43.0468974" lon="11.4242755"><ele>390.66666666666663</ele><time>2026-05-02T10:34:43.367Z</time></trkpt><trkpt lat="43.046865" lon="11.4241655"><ele>389.8333333333333</ele><time>2026-05-02T10:34:44.385Z</time></trkpt><trkpt lat="43.0468295" lon="11.4240534"><ele>389.0</ele><time>2026-05-02T10:34:45.37Z</time></trkpt><trkpt lat="43.0467896" lon="11.4239395"><ele>389.0</ele><time>2026-05-02T10:34:46.366Z</time></trkpt><trkpt lat="43.046748" lon="11.4238249"><ele>389.0</ele><time>2026-05-02T10:34:47.394Z</time></trkpt><trkpt lat="43.046702" lon="11.4236999"><ele>389.0</ele><time>2026-05-02T10:34:48.372Z</time></trkpt><trkpt lat="43.0466538" lon="11.4235701"><ele>389.0</ele><time>2026-05-02T10:34:49.37Z</time></trkpt><trkpt lat="43.0466064" lon="11.4234386"><ele>389.0</ele><time>2026-05-02T10:34:50.389Z</time></trkpt><trkpt lat="43.0465598" lon="11.4233046"><ele>388.6</ele><time>2026-05-02T10:34:51.37Z</time></trkpt><trkpt lat="43.0465126" lon="11.423174"><ele>388.2</ele><time>2026-05-02T10:34:52.367Z</time></trkpt><trkpt lat="43.0464648" lon="11.423053"><ele>387.8</ele><time>2026-05-02T10:34:53.358Z</time></trkpt><trkpt lat="43.0464195" lon="11.4229343"><ele>387.40000000000003</ele><time>2026-05-02T10:34:54.378Z</time></trkpt><trkpt lat="43.0463713" lon="11.4228121"><ele>387.0</ele><time>2026-05-02T10:34:55.37Z</time></trkpt><trkpt lat="43.04632" lon="11.4226881"><ele>389.1666666666667</ele><time>2026-05-02T10:34:56.368Z</time></trkpt><trkpt lat="43.0462703" lon="11.4225673"><ele>391.33333333333337</ele><time>2026-05-02T10:34:57.365Z</time></trkpt><trkpt lat="43.0462234" lon="11.4224519"><ele>393.5</ele><time>2026-05-02T10:34:58.389Z</time></trkpt><trkpt lat="43.0461787" lon="11.4223404"><ele>395.6666666666667</ele><time>2026-05-02T10:34:59.368Z</time></trkpt><trkpt lat="43.0461412" lon="11.4222374"><ele>397.83333333333337</ele><time>2026-05-02T10:35:00.374Z</time></trkpt><trkpt lat="43.0461095" lon="11.4221519"><ele>400.0</ele><time>2026-05-02T10:35:01.387Z</time></trkpt><trkpt lat="43.0461077" lon="11.4220276"><ele>401.1666666666667</ele><time>2026-05-02T10:35:03.394Z</time></trkpt><trkpt lat="43.0461305" lon="11.4219303"><ele>402.33333333333337</ele><time>2026-05-02T10:35:05.366Z</time></trkpt><trkpt lat="43.0461505" lon="11.4218033"><ele>403.5</ele><time>2026-05-02T10:35:07.377Z</time></trkpt><trkpt lat="43.0461798" lon="11.4216447"><ele>404.66666666666663</ele><time>2026-05-02T10:35:09.371Z</time></trkpt><trkpt lat="43.0461986" lon="11.4215567"><ele>405.8333333333333</ele><time>2026-05-02T10:35:10.373Z</time></trkpt><trkpt lat="43.0462325" lon="11.4214691"><ele>407.0</ele><time>2026-05-02T10:35:11.367Z</time></trkpt><trkpt lat="43.0462754" lon="11.4213841"><ele>405.8333333333333</ele><time>2026-05-02T10:35:12.371Z</time></trkpt><trkpt lat="43.0463158" lon="11.4212998"><ele>404.66666666666663</ele><time>2026-05-02T10:35:13.371Z</time></trkpt><trkpt lat="43.0463573" lon="11.4212045"><ele>403.5</ele><time>2026-05-02T10:35:14.377Z</time></trkpt><trkpt lat="43.0463966" lon="11.4211145"><ele>402.33333333333337</ele><time>2026-05-02T10:35:15.383Z</time></trkpt><trkpt lat="43.0464296" lon="11.4210141"><ele>401.1666666666667</ele><time>2026-05-02T10:35:16.379Z</time></trkpt><trkpt lat="43.0464579" lon="11.4209198"><ele>400.0</ele><time>2026-05-02T10:35:17.401Z</time></trkpt><trkpt lat="43.0464721" lon="11.4208225"><ele>400.00000000000006</ele><time>2026-05-02T10:35:18.403Z</time></trkpt><trkpt lat="43.0464829" lon="11.4207284"><ele>400.0</ele><time>2026-05-02T10:35:19.377Z</time></trkpt><trkpt lat="43.046476" lon="11.4206406"><ele>400.0</ele><time>2026-05-02T10:35:20.402Z</time></trkpt><trkpt lat="43.0464579" lon="11.4205536"><ele>400.0</ele><time>2026-05-02T10:35:21.393Z</time></trkpt><trkpt lat="43.0464335" lon="11.4204681"><ele>400.0</ele><time>2026-05-02T10:35:22.386Z</time></trkpt><trkpt lat="43.0463819" lon="11.4203883"><ele>400.00000000000006</ele><time>2026-05-02T10:35:23.402Z</time></trkpt><trkpt lat="43.04633" lon="11.4203025"><ele>400.0</ele><time>2026-05-02T10:35:24.395Z</time></trkpt><trkpt lat="43.0462751" lon="11.4202154"><ele>398.2</ele><time>2026-05-02T10:35:25.383Z</time></trkpt><trkpt lat="43.0462168" lon="11.4201136"><ele>396.4</ele><time>2026-05-02T10:35:26.401Z</time></trkpt><trkpt lat="43.0461549" lon="11.4200082"><ele>394.6</ele><time>2026-05-02T10:35:27.373Z</time></trkpt><trkpt lat="43.0460911" lon="11.4198916"><ele>392.8</ele><time>2026-05-02T10:35:28.374Z</time></trkpt><trkpt lat="43.0460296" lon="11.4197746"><ele>391.0</ele><time>2026-05-02T10:35:29.371Z</time></trkpt><trkpt lat="43.0459705" lon="11.4196619"><ele>389.6</ele><time>2026-05-02T10:35:30.386Z</time></trkpt><trkpt lat="43.0459127" lon="11.419555"><ele>388.20000000000005</ele><time>2026-05-02T10:35:31.391Z</time></trkpt><trkpt lat="43.0458594" lon="11.4194531"><ele>386.79999999999995</ele><time>2026-05-02T10:35:32.368Z</time></trkpt><trkpt lat="43.0458059" lon="11.4193521"><ele>385.4</ele><time>2026-05-02T10:35:33.396Z</time></trkpt><trkpt lat="43.045741" lon="11.4192608"><ele>384.0</ele><time>2026-05-02T10:35:34.369Z</time></trkpt><trkpt lat="43.0456742" lon="11.419174"><ele>383.6</ele><time>2026-05-02T10:35:35.387Z</time></trkpt><trkpt lat="43.0455924" lon="11.419103"><ele>383.2</ele><time>2026-05-02T10:35:36.407Z</time></trkpt><trkpt lat="43.045509" lon="11.419025"><ele>382.8</ele><time>2026-05-02T10:35:37.399Z</time></trkpt><trkpt lat="43.0454237" lon="11.4189515"><ele>382.40000000000003</ele><time>2026-05-02T10:35:38.374Z</time></trkpt><trkpt lat="43.0453422" lon="11.4188806"><ele>382.0</ele><time>2026-05-02T10:35:39.394Z</time></trkpt><trkpt lat="43.0452659" lon="11.4188097"><ele>381.6</ele><time>2026-05-02T10:35:40.378Z</time></trkpt><trkpt lat="43.0451837" lon="11.4187219"><ele>381.20000000000005</ele><time>2026-05-02T10:35:41.382Z</time></trkpt><trkpt lat="43.0451" lon="11.4186453"><ele>380.8</ele><time>2026-05-02T10:35:42.373Z</time></trkpt><trkpt lat="43.0450182" lon="11.4185592"><ele>380.4</ele><time>2026-05-02T10:35:43.417Z</time></trkpt><trkpt lat="43.0449422" lon="11.4184668"><ele>380.0</ele><time>2026-05-02T10:35:44.383Z</time></trkpt><trkpt lat="43.0448718" lon="11.4183799"><ele>378.6</ele><time>2026-05-02T10:35:45.37Z</time></trkpt><trkpt lat="43.0448023" lon="11.4182986"><ele>377.2</ele><time>2026-05-02T10:35:46.381Z</time></trkpt><trkpt lat="43.044732" lon="11.4182154"><ele>375.79999999999995</ele><time>2026-05-02T10:35:47.378Z</time></trkpt><trkpt lat="43.0446616" lon="11.4181282"><ele>374.4</ele><time>2026-05-02T10:35:48.371Z</time></trkpt><trkpt lat="43.0445868" lon="11.4180396"><ele>373.0</ele><time>2026-05-02T10:35:49.407Z</time></trkpt><trkpt lat="43.0445113" lon="11.4179503"><ele>373.0</ele><time>2026-05-02T10:35:50.383Z</time></trkpt><trkpt lat="43.0444261" lon="11.4178617"><ele>373.0</ele><time>2026-05-02T10:35:51.38Z</time></trkpt><trkpt lat="43.0443415" lon="11.4177695"><ele>373.0</ele><time>2026-05-02T10:35:52.4Z</time></trkpt><trkpt lat="43.0442567" lon="11.4176751"><ele>373.0</ele><time>2026-05-02T10:35:53.383Z</time></trkpt><trkpt lat="43.0441723" lon="11.4175818"><ele>373.0</ele><time>2026-05-02T10:35:54.386Z</time></trkpt><trkpt lat="43.0440899" lon="11.4174876"><ele>372.0</ele><time>2026-05-02T10:35:55.377Z</time></trkpt><trkpt lat="43.0440086" lon="11.4173884"><ele>371.0</ele><time>2026-05-02T10:35:56.402Z</time></trkpt><trkpt lat="43.0439294" lon="11.4172834"><ele>370.0</ele><time>2026-05-02T10:35:57.386Z</time></trkpt><trkpt lat="43.0438546" lon="11.4171728"><ele>369.0</ele><time>2026-05-02T10:35:58.376Z</time></trkpt><trkpt lat="43.0437824" lon="11.4170599"><ele>368.0</ele><time>2026-05-02T10:35:59.403Z</time></trkpt><trkpt lat="43.0437107" lon="11.4169426"><ele>368.0</ele><time>2026-05-02T10:36:00.397Z</time></trkpt><trkpt lat="43.0436404" lon="11.4168227"><ele>368.0</ele><time>2026-05-02T10:36:01.405Z</time></trkpt><trkpt lat="43.0435723" lon="11.4166986"><ele>368.0</ele><time>2026-05-02T10:36:02.372Z</time></trkpt><trkpt lat="43.0435033" lon="11.4165776"><ele>368.0</ele><time>2026-05-02T10:36:03.401Z</time></trkpt><trkpt lat="43.0434363" lon="11.4164622"><ele>368.0</ele><time>2026-05-02T10:36:04.375Z</time></trkpt><trkpt lat="43.0433705" lon="11.4163479"><ele>367.59999999999997</ele><time>2026-05-02T10:36:05.364Z</time></trkpt><trkpt lat="43.043307" lon="11.4162376"><ele>367.2</ele><time>2026-05-02T10:36:06.388Z</time></trkpt><trkpt lat="43.0432404" lon="11.4161292"><ele>366.8</ele><time>2026-05-02T10:36:07.403Z</time></trkpt><trkpt lat="43.0431757" lon="11.4160213"><ele>366.4</ele><time>2026-05-02T10:36:08.369Z</time></trkpt><trkpt lat="43.0431128" lon="11.4159146"><ele>366.0</ele><time>2026-05-02T10:36:09.382Z</time></trkpt><trkpt lat="43.0430515" lon="11.4158064"><ele>365.0</ele><time>2026-05-02T10:36:10.38Z</time></trkpt><trkpt lat="43.0429932" lon="11.4156936"><ele>364.0</ele><time>2026-05-02T10:36:11.366Z</time></trkpt><trkpt lat="43.0429358" lon="11.4155755"><ele>363.0</ele><time>2026-05-02T10:36:12.402Z</time></trkpt><trkpt lat="43.0428801" lon="11.4154512"><ele>362.0</ele><time>2026-05-02T10:36:13.403Z</time></trkpt><trkpt lat="43.0428221" lon="11.4153234"><ele>361.0</ele><time>2026-05-02T10:36:14.372Z</time></trkpt><trkpt lat="43.042758" lon="11.4152"><ele>360.8</ele><time>2026-05-02T10:36:15.387Z</time></trkpt><trkpt lat="43.0426897" lon="11.4150824"><ele>360.6</ele><time>2026-05-02T10:36:16.374Z</time></trkpt><trkpt lat="43.0426198" lon="11.4149747"><ele>360.4</ele><time>2026-05-02T10:36:17.385Z</time></trkpt><trkpt lat="43.0425484" lon="11.4148789"><ele>360.2</ele><time>2026-05-02T10:36:18.373Z</time></trkpt><trkpt lat="43.0424786" lon="11.4147862"><ele>360.0</ele><time>2026-05-02T10:36:19.396Z</time></trkpt><trkpt lat="43.0424094" lon="11.4147017"><ele>358.2</ele><time>2026-05-02T10:36:20.379Z</time></trkpt><trkpt lat="43.0423402" lon="11.4146143"><ele>356.4</ele><time>2026-05-02T10:36:21.385Z</time></trkpt><trkpt lat="43.0422753" lon="11.4145265"><ele>354.6</ele><time>2026-05-02T10:36:22.377Z</time></trkpt><trkpt lat="43.0422124" lon="11.4144403"><ele>352.8</ele><time>2026-05-02T10:36:23.4Z</time></trkpt><trkpt lat="43.0421485" lon="11.4143531"><ele>351.0</ele><time>2026-05-02T10:36:24.399Z</time></trkpt><trkpt lat="43.0420893" lon="11.4142582"><ele>351.0</ele><time>2026-05-02T10:36:25.399Z</time></trkpt><trkpt lat="43.0420381" lon="11.414152"><ele>351.0</ele><time>2026-05-02T10:36:26.4Z</time></trkpt><trkpt lat="43.0419971" lon="11.4140364"><ele>351.0</ele><time>2026-05-02T10:36:27.405Z</time></trkpt><trkpt lat="43.0419613" lon="11.4139163"><ele>351.0</ele><time>2026-05-02T10:36:28.395Z</time></trkpt><trkpt lat="43.0419259" lon="11.4137956"><ele>351.0</ele><time>2026-05-02T10:36:29.363Z</time></trkpt><trkpt lat="43.0418877" lon="11.4136751"><ele>349.8</ele><time>2026-05-02T10:36:30.392Z</time></trkpt><trkpt lat="43.0418458" lon="11.4135535"><ele>348.6</ele><time>2026-05-02T10:36:31.385Z</time></trkpt><trkpt lat="43.0418038" lon="11.4134307"><ele>347.4</ele><time>2026-05-02T10:36:32.384Z</time></trkpt><trkpt lat="43.0417612" lon="11.413308"><ele>346.2</ele><time>2026-05-02T10:36:33.38Z</time></trkpt><trkpt lat="43.0417213" lon="11.4131867"><ele>345.0</ele><time>2026-05-02T10:36:34.378Z</time></trkpt><trkpt lat="43.0416849" lon="11.4130622"><ele>344.0</ele><time>2026-05-02T10:36:35.379Z</time></trkpt><trkpt lat="43.0416515" lon="11.4129396"><ele>343.0</ele><time>2026-05-02T10:36:36.368Z</time></trkpt><trkpt lat="43.0416161" lon="11.4128192"><ele>342.0</ele><time>2026-05-02T10:36:37.365Z</time></trkpt><trkpt lat="43.0415849" lon="11.4126974"><ele>341.0</ele><time>2026-05-02T10:36:38.386Z</time></trkpt><trkpt lat="43.0415586" lon="11.4125725"><ele>340.0</ele><time>2026-05-02T10:36:39.39Z</time></trkpt><trkpt lat="43.0415417" lon="11.4124438"><ele>338.2</ele><time>2026-05-02T10:36:40.369Z</time></trkpt><trkpt lat="43.0415335" lon="11.4123164"><ele>336.4</ele><time>2026-05-02T10:36:41.375Z</time></trkpt><trkpt lat="43.0415283" lon="11.4121888"><ele>334.6</ele><time>2026-05-02T10:36:42.385Z</time></trkpt><trkpt lat="43.0415246" lon="11.4120611"><ele>332.8</ele><time>2026-05-02T10:36:43.388Z</time></trkpt><trkpt lat="43.0415244" lon="11.4119242"><ele>331.0</ele><time>2026-05-02T10:36:44.396Z</time></trkpt><trkpt lat="43.0415293" lon="11.4117818"><ele>329.6</ele><time>2026-05-02T10:36:45.38Z</time></trkpt><trkpt lat="43.0415305" lon="11.4116377"><ele>328.20000000000005</ele><time>2026-05-02T10:36:46.37Z</time></trkpt><trkpt lat="43.0415306" lon="11.4114972"><ele>326.79999999999995</ele><time>2026-05-02T10:36:47.38Z</time></trkpt><trkpt lat="43.0415348" lon="11.4113619"><ele>325.4</ele><time>2026-05-02T10:36:48.371Z</time></trkpt><trkpt lat="43.0415443" lon="11.4112306"><ele>324.0</ele><time>2026-05-02T10:36:49.404Z</time></trkpt><trkpt lat="43.0415566" lon="11.4110979"><ele>323.6</ele><time>2026-05-02T10:36:50.392Z</time></trkpt><trkpt lat="43.0415689" lon="11.4109641"><ele>323.2</ele><time>2026-05-02T10:36:51.396Z</time></trkpt><trkpt lat="43.0415833" lon="11.4108192"><ele>322.8</ele><time>2026-05-02T10:36:52.378Z</time></trkpt><trkpt lat="43.0416003" lon="11.4106759"><ele>322.40000000000003</ele><time>2026-05-02T10:36:53.386Z</time></trkpt><trkpt lat="43.0416188" lon="11.4105337"><ele>322.0</ele><time>2026-05-02T10:36:54.387Z</time></trkpt><trkpt lat="43.0416365" lon="11.4103874"><ele>321.75</ele><time>2026-05-02T10:36:55.363Z</time></trkpt><trkpt lat="43.041653" lon="11.4102402"><ele>321.5</ele><time>2026-05-02T10:36:56.385Z</time></trkpt><trkpt lat="43.0416703" lon="11.4100886"><ele>321.25</ele><time>2026-05-02T10:36:57.373Z</time></trkpt><trkpt lat="43.0416876" lon="11.4099349"><ele>321.0</ele><time>2026-05-02T10:36:58.385Z</time></trkpt><trkpt lat="43.0417039" lon="11.4097758"><ele>319.40000000000003</ele><time>2026-05-02T10:36:59.386Z</time></trkpt><trkpt lat="43.0417175" lon="11.4096193"><ele>317.8</ele><time>2026-05-02T10:37:00.371Z</time></trkpt><trkpt lat="43.0417256" lon="11.4094657"><ele>316.20000000000005</ele><time>2026-05-02T10:37:01.386Z</time></trkpt><trkpt lat="43.0417343" lon="11.4093185"><ele>314.6</ele><time>2026-05-02T10:37:02.372Z</time></trkpt><trkpt lat="43.041738" lon="11.4091731"><ele>313.0</ele><time>2026-05-02T10:37:03.401Z</time></trkpt><trkpt lat="43.0417422" lon="11.4090314"><ele>313.0</ele><time>2026-05-02T10:37:04.385Z</time></trkpt><trkpt lat="43.0417461" lon="11.4088942"><ele>313.0</ele><time>2026-05-02T10:37:05.387Z</time></trkpt><trkpt lat="43.0417506" lon="11.4087604"><ele>313.0</ele><time>2026-05-02T10:37:06.369Z</time></trkpt><trkpt lat="43.041756" lon="11.4086277"><ele>313.0</ele><time>2026-05-02T10:37:07.386Z</time></trkpt><trkpt lat="43.0417615" lon="11.4085003"><ele>313.0</ele><time>2026-05-02T10:37:08.405Z</time></trkpt><trkpt lat="43.0417639" lon="11.4083754"><ele>311.66666666666663</ele><time>2026-05-02T10:37:09.383Z</time></trkpt><trkpt lat="43.0417685" lon="11.4082592"><ele>310.3333333333333</ele><time>2026-05-02T10:37:10.371Z</time></trkpt><trkpt lat="43.0417747" lon="11.4081533"><ele>309.0</ele><time>2026-05-02T10:37:11.378Z</time></trkpt><trkpt lat="43.0417741" lon="11.4080499"><ele>307.6666666666667</ele><time>2026-05-02T10:37:12.373Z</time></trkpt><trkpt lat="43.041762" lon="11.4079524"><ele>306.33333333333337</ele><time>2026-05-02T10:37:13.371Z</time></trkpt><trkpt lat="43.0417321" lon="11.4078647"><ele>305.0</ele><time>2026-05-02T10:37:14.407Z</time></trkpt><trkpt lat="43.0417004" lon="11.4077798"><ele>303.2</ele><time>2026-05-02T10:37:15.401Z</time></trkpt><trkpt lat="43.0416335" lon="11.4077355"><ele>301.4</ele><time>2026-05-02T10:37:16.389Z</time></trkpt><trkpt lat="43.0415495" lon="11.4077085"><ele>299.6</ele><time>2026-05-02T10:37:17.377Z</time></trkpt><trkpt lat="43.0414576" lon="11.4076926"><ele>297.8</ele><time>2026-05-02T10:37:18.4Z</time></trkpt><trkpt lat="43.0413605" lon="11.4076769"><ele>296.0</ele><time>2026-05-02T10:37:19.371Z</time></trkpt><trkpt lat="43.0412568" lon="11.4076601"><ele>296.0</ele><time>2026-05-02T10:37:20.395Z</time></trkpt><trkpt lat="43.0411475" lon="11.4076354"><ele>296.0</ele><time>2026-05-02T10:37:21.381Z</time></trkpt><trkpt lat="43.0410382" lon="11.4076099"><ele>296.0</ele><time>2026-05-02T10:37:22.393Z</time></trkpt><trkpt lat="43.0409263" lon="11.4075859"><ele>296.0</ele><time>2026-05-02T10:37:23.4Z</time></trkpt><trkpt lat="43.0408192" lon="11.4075699"><ele>296.0</ele><time>2026-05-02T10:37:24.388Z</time></trkpt><trkpt lat="43.0407197" lon="11.4075657"><ele>295.1666666666667</ele><time>2026-05-02T10:37:25.364Z</time></trkpt><trkpt lat="43.0406279" lon="11.4075714"><ele>294.33333333333337</ele><time>2026-05-02T10:37:26.381Z</time></trkpt><trkpt lat="43.0405419" lon="11.40759"><ele>293.5</ele><time>2026-05-02T10:37:27.378Z</time></trkpt><trkpt lat="43.0404653" lon="11.4076227"><ele>292.6666666666667</ele><time>2026-05-02T10:37:28.371Z</time></trkpt><trkpt lat="43.0403927" lon="11.4076644"><ele>291.8333333333333</ele><time>2026-05-02T10:37:29.384Z</time></trkpt><trkpt lat="43.0403197" lon="11.4077095"><ele>291.0</ele><time>2026-05-02T10:37:30.378Z</time></trkpt><trkpt lat="43.0402449" lon="11.4077637"><ele>291.0</ele><time>2026-05-02T10:37:31.371Z</time></trkpt><trkpt lat="43.0401665" lon="11.407821"><ele>291.0</ele><time>2026-05-02T10:37:32.399Z</time></trkpt><trkpt lat="43.0400866" lon="11.4078794"><ele>291.0</ele><time>2026-05-02T10:37:33.379Z</time></trkpt><trkpt lat="43.0400054" lon="11.4079365"><ele>291.0</ele><time>2026-05-02T10:37:34.374Z</time></trkpt><trkpt lat="43.0399113" lon="11.4079826"><ele>291.0</ele><time>2026-05-02T10:37:35.37Z</time></trkpt><trkpt lat="43.0398202" lon="11.4080227"><ele>290.6</ele><time>2026-05-02T10:37:36.383Z</time></trkpt><trkpt lat="43.0397284" lon="11.4080551"><ele>290.20000000000005</ele><time>2026-05-02T10:37:37.379Z</time></trkpt><trkpt lat="43.0396346" lon="11.4080804"><ele>289.79999999999995</ele><time>2026-05-02T10:37:38.4Z</time></trkpt><trkpt lat="43.0395349" lon="11.4081054"><ele>289.4</ele><time>2026-05-02T10:37:39.375Z</time></trkpt><trkpt lat="43.0394353" lon="11.4081269"><ele>289.0</ele><time>2026-05-02T10:37:40.398Z</time></trkpt><trkpt lat="43.0393385" lon="11.4081514"><ele>289.0</ele><time>2026-05-02T10:37:41.387Z</time></trkpt><trkpt lat="43.0392451" lon="11.4081751"><ele>289.0</ele><time>2026-05-02T10:37:42.385Z</time></trkpt><trkpt lat="43.0391532" lon="11.4082056"><ele>289.0</ele><time>2026-05-02T10:37:43.411Z</time></trkpt><trkpt lat="43.0390604" lon="11.4082414"><ele>289.0</ele><time>2026-05-02T10:37:44.401Z</time></trkpt><trkpt lat="43.038971" lon="11.4082813"><ele>289.0</ele><time>2026-05-02T10:37:45.398Z</time></trkpt><trkpt lat="43.0388847" lon="11.4083249"><ele>287.4</ele><time>2026-05-02T10:37:46.408Z</time></trkpt><trkpt lat="43.0387983" lon="11.4083678"><ele>285.79999999999995</ele><time>2026-05-02T10:37:47.371Z</time></trkpt><trkpt lat="43.0387096" lon="11.4084103"><ele>284.20000000000005</ele><time>2026-05-02T10:37:48.389Z</time></trkpt><trkpt lat="43.0386199" lon="11.4084579"><ele>282.6</ele><time>2026-05-02T10:37:49.381Z</time></trkpt><trkpt lat="43.0385283" lon="11.4085111"><ele>281.0</ele><time>2026-05-02T10:37:50.39Z</time></trkpt><trkpt lat="43.0384363" lon="11.4085698"><ele>281.0</ele><time>2026-05-02T10:37:51.419Z</time></trkpt><trkpt lat="43.0383462" lon="11.4086332"><ele>281.0</ele><time>2026-05-02T10:37:52.389Z</time></trkpt><trkpt lat="43.0382581" lon="11.408708"><ele>281.0</ele><time>2026-05-02T10:37:53.373Z</time></trkpt><trkpt lat="43.0381764" lon="11.4087953"><ele>281.0</ele><time>2026-05-02T10:37:54.4Z</time></trkpt><trkpt lat="43.0380943" lon="11.4088829"><ele>281.0</ele><time>2026-05-02T10:37:55.391Z</time></trkpt><trkpt lat="43.0380206" lon="11.40899"><ele>280.2</ele><time>2026-05-02T10:37:56.391Z</time></trkpt><trkpt lat="43.0379445" lon="11.4090964"><ele>279.40000000000003</ele><time>2026-05-02T10:37:57.397Z</time></trkpt><trkpt lat="43.0378735" lon="11.4091948"><ele>278.6</ele><time>2026-05-02T10:37:58.373Z</time></trkpt><trkpt lat="43.0378113" lon="11.4092853"><ele>277.8</ele><time>2026-05-02T10:37:59.381Z</time></trkpt><trkpt lat="43.0377535" lon="11.4093645"><ele>277.0</ele><time>2026-05-02T10:38:00.38Z</time></trkpt><trkpt lat="43.0376954" lon="11.4094279"><ele>277.0</ele><time>2026-05-02T10:38:01.398Z</time></trkpt><trkpt lat="43.0376343" lon="11.4094723"><ele>277.0</ele><time>2026-05-02T10:38:02.385Z</time></trkpt><trkpt lat="43.0375661" lon="11.4094894"><ele>277.0</ele><time>2026-05-02T10:38:03.394Z</time></trkpt><trkpt lat="43.0374993" lon="11.4094701"><ele>277.0</ele><time>2026-05-02T10:38:04.396Z</time></trkpt><trkpt lat="43.0374376" lon="11.409415"><ele>277.0</ele><time>2026-05-02T10:38:05.385Z</time></trkpt><trkpt lat="43.0373753" lon="11.4093342"><ele>277.0</ele><time>2026-05-02T10:38:06.377Z</time></trkpt><trkpt lat="43.0373123" lon="11.4092339"><ele>276.6</ele><time>2026-05-02T10:38:07.385Z</time></trkpt><trkpt lat="43.0372458" lon="11.4091258"><ele>276.2</ele><time>2026-05-02T10:38:08.404Z</time></trkpt><trkpt lat="43.0371768" lon="11.409017"><ele>275.8</ele><time>2026-05-02T10:38:09.386Z</time></trkpt><trkpt lat="43.037106" lon="11.4089036"><ele>275.4</ele><time>2026-05-02T10:38:10.399Z</time></trkpt><trkpt lat="43.0370344" lon="11.4087931"><ele>275.0</ele><time>2026-05-02T10:38:11.39Z</time></trkpt><trkpt lat="43.0369633" lon="11.4086856"><ele>274.0</ele><time>2026-05-02T10:38:12.38Z</time></trkpt><trkpt lat="43.0368949" lon="11.4085827"><ele>273.0</ele><time>2026-05-02T10:38:13.374Z</time></trkpt><trkpt lat="43.0368318" lon="11.4084871"><ele>272.0</ele><time>2026-05-02T10:38:14.382Z</time></trkpt><trkpt lat="43.0367759" lon="11.4083996"><ele>271.0</ele><time>2026-05-02T10:38:15.401Z</time></trkpt><trkpt lat="43.0367255" lon="11.4083265"><ele>270.0</ele><time>2026-05-02T10:38:16.415Z</time></trkpt><trkpt lat="43.0366243" lon="11.4082576"><ele>269.4</ele><time>2026-05-02T10:38:18.404Z</time></trkpt><trkpt lat="43.0365262" lon="11.4082928"><ele>268.8</ele><time>2026-05-02T10:38:20.373Z</time></trkpt><trkpt lat="43.0364173" lon="11.4084013"><ele>268.2</ele><time>2026-05-02T10:38:22.393Z</time></trkpt><trkpt lat="43.0363567" lon="11.4084718"><ele>267.6</ele><time>2026-05-02T10:38:23.372Z</time></trkpt><trkpt lat="43.0362939" lon="11.4085544"><ele>267.0</ele><time>2026-05-02T10:38:24.376Z</time></trkpt><trkpt lat="43.0362286" lon="11.4086449"><ele>267.0</ele><time>2026-05-02T10:38:25.373Z</time></trkpt><trkpt lat="43.0361629" lon="11.4087441"><ele>267.0</ele><time>2026-05-02T10:38:26.394Z</time></trkpt><trkpt lat="43.0360949" lon="11.4088476"><ele>267.0</ele><time>2026-05-02T10:38:27.409Z</time></trkpt><trkpt lat="43.0360222" lon="11.4089525"><ele>267.0</ele><time>2026-05-02T10:38:28.393Z</time></trkpt><trkpt lat="43.0359473" lon="11.4090567"><ele>267.0</ele><time>2026-05-02T10:38:29.406Z</time></trkpt><trkpt lat="43.0358725" lon="11.4091569"><ele>267.6</ele><time>2026-05-02T10:38:30.391Z</time></trkpt><trkpt lat="43.0358017" lon="11.4092546"><ele>268.2</ele><time>2026-05-02T10:38:31.39Z</time></trkpt><trkpt lat="43.0357332" lon="11.4093487"><ele>268.8</ele><time>2026-05-02T10:38:32.377Z</time></trkpt><trkpt lat="43.0356637" lon="11.4094385"><ele>269.4</ele><time>2026-05-02T10:38:33.379Z</time></trkpt><trkpt lat="43.0355924" lon="11.4095213"><ele>270.0</ele><time>2026-05-02T10:38:34.389Z</time></trkpt><trkpt lat="43.0355189" lon="11.4095964"><ele>271.4</ele><time>2026-05-02T10:38:35.399Z</time></trkpt><trkpt lat="43.0354462" lon="11.4096675"><ele>272.8</ele><time>2026-05-02T10:38:36.412Z</time></trkpt><trkpt lat="43.0353733" lon="11.4097379"><ele>274.2</ele><time>2026-05-02T10:38:37.392Z</time></trkpt><trkpt lat="43.035297" lon="11.4098048"><ele>275.6</ele><time>2026-05-02T10:38:38.37Z</time></trkpt><trkpt lat="43.0352175" lon="11.4098683"><ele>277.0</ele><time>2026-05-02T10:38:39.413Z</time></trkpt><trkpt lat="43.0351343" lon="11.4099247"><ele>277.0</ele><time>2026-05-02T10:38:40.411Z</time></trkpt><trkpt lat="43.03505" lon="11.4099771"><ele>277.0</ele><time>2026-05-02T10:38:41.384Z</time></trkpt><trkpt lat="43.034973" lon="11.4100366"><ele>277.0</ele><time>2026-05-02T10:38:42.404Z</time></trkpt><trkpt lat="43.0348991" lon="11.4100971"><ele>277.0</ele><time>2026-05-02T10:38:43.407Z</time></trkpt><trkpt lat="43.0348235" lon="11.4101419"><ele>277.0</ele><time>2026-05-02T10:38:44.385Z</time></trkpt><trkpt lat="43.0347507" lon="11.4101837"><ele>277.0</ele><time>2026-05-02T10:38:45.377Z</time></trkpt><trkpt lat="43.0346771" lon="11.4101984"><ele>276.57142857142856</ele><time>2026-05-02T10:38:46.399Z</time></trkpt><trkpt lat="43.0346019" lon="11.4102263"><ele>276.1428571428571</ele><time>2026-05-02T10:38:47.372Z</time></trkpt><trkpt lat="43.0345338" lon="11.4102648"><ele>275.7142857142857</ele><time>2026-05-02T10:38:48.377Z</time></trkpt><trkpt lat="43.0344674" lon="11.4103109"><ele>275.2857142857143</ele><time>2026-05-02T10:38:49.401Z</time></trkpt><trkpt lat="43.0343977" lon="11.4103597"><ele>274.8571428571429</ele><time>2026-05-02T10:38:50.401Z</time></trkpt><trkpt lat="43.0343289" lon="11.4103943"><ele>274.42857142857144</ele><time>2026-05-02T10:38:51.381Z</time></trkpt><trkpt lat="43.0342587" lon="11.4104145"><ele>274.0</ele><time>2026-05-02T10:38:52.399Z</time></trkpt><trkpt lat="43.0341868" lon="11.4104334"><ele>272.8333333333333</ele><time>2026-05-02T10:38:53.394Z</time></trkpt><trkpt lat="43.0341173" lon="11.4104524"><ele>271.66666666666663</ele><time>2026-05-02T10:38:54.406Z</time></trkpt><trkpt lat="43.0340427" lon="11.4104599"><ele>270.5</ele><time>2026-05-02T10:38:55.394Z</time></trkpt><trkpt lat="43.0339638" lon="11.4104626"><ele>269.3333333333333</ele><time>2026-05-02T10:38:56.396Z</time></trkpt><trkpt lat="43.0338872" lon="11.4104606"><ele>268.1666666666667</ele><time>2026-05-02T10:38:57.37Z</time></trkpt><trkpt lat="43.0338117" lon="11.4104701"><ele>267.0</ele><time>2026-05-02T10:38:58.375Z</time></trkpt><trkpt lat="43.033736" lon="11.4104851"><ele>266.3333333333333</ele><time>2026-05-02T10:38:59.383Z</time></trkpt><trkpt lat="43.0336561" lon="11.4104981"><ele>265.6666666666667</ele><time>2026-05-02T10:39:00.377Z</time></trkpt><trkpt lat="43.0335759" lon="11.4105135"><ele>265.0</ele><time>2026-05-02T10:39:01.373Z</time></trkpt><trkpt lat="43.0334944" lon="11.4105372"><ele>264.33333333333337</ele><time>2026-05-02T10:39:02.385Z</time></trkpt><trkpt lat="43.0334107" lon="11.4105603"><ele>263.6666666666667</ele><time>2026-05-02T10:39:03.393Z</time></trkpt><trkpt lat="43.0333219" lon="11.4105767"><ele>263.0</ele><time>2026-05-02T10:39:04.368Z</time></trkpt><trkpt lat="43.0332312" lon="11.4105945"><ele>263.0</ele><time>2026-05-02T10:39:05.377Z</time></trkpt><trkpt lat="43.0331355" lon="11.410611"><ele>263.0</ele><time>2026-05-02T10:39:06.385Z</time></trkpt><trkpt lat="43.0330373" lon="11.4106269"><ele>263.0</ele><time>2026-05-02T10:39:07.382Z</time></trkpt><trkpt lat="43.0329353" lon="11.4106436"><ele>263.0</ele><time>2026-05-02T10:39:08.398Z</time></trkpt><trkpt lat="43.0328288" lon="11.4106577"><ele>263.0</ele><time>2026-05-02T10:39:09.371Z</time></trkpt><trkpt lat="43.0327231" lon="11.4106785"><ele>263.0</ele><time>2026-05-02T10:39:10.391Z</time></trkpt><trkpt lat="43.0326204" lon="11.4107038"><ele>263.0</ele><time>2026-05-02T10:39:11.373Z</time></trkpt><trkpt lat="43.0325177" lon="11.4107329"><ele>263.0</ele><time>2026-05-02T10:39:12.389Z</time></trkpt><trkpt lat="43.0324194" lon="11.4107612"><ele>263.0</ele><time>2026-05-02T10:39:13.39Z</time></trkpt><trkpt lat="43.0323257" lon="11.4107968"><ele>263.0</ele><time>2026-05-02T10:39:14.373Z</time></trkpt><trkpt lat="43.0322341" lon="11.4108334"><ele>260.8</ele><time>2026-05-02T10:39:15.375Z</time></trkpt><trkpt lat="43.032143" lon="11.4108711"><ele>258.6</ele><time>2026-05-02T10:39:16.381Z</time></trkpt><trkpt lat="43.0320561" lon="11.4109085"><ele>256.4</ele><time>2026-05-02T10:39:17.401Z</time></trkpt><trkpt lat="43.0319714" lon="11.4109482"><ele>254.2</ele><time>2026-05-02T10:39:18.381Z</time></trkpt><trkpt lat="43.0318853" lon="11.4109896"><ele>252.0</ele><time>2026-05-02T10:39:19.395Z</time></trkpt><trkpt lat="43.0317951" lon="11.4110327"><ele>252.0</ele><time>2026-05-02T10:39:20.389Z</time></trkpt><trkpt lat="43.0317023" lon="11.4110769"><ele>252.0</ele><time>2026-05-02T10:39:21.376Z</time></trkpt><trkpt lat="43.0316042" lon="11.4111182"><ele>252.0</ele><time>2026-05-02T10:39:22.383Z</time></trkpt><trkpt lat="43.0315042" lon="11.4111565"><ele>252.0</ele><time>2026-05-02T10:39:23.398Z</time></trkpt><trkpt lat="43.0314055" lon="11.4111947"><ele>252.0</ele><time>2026-05-02T10:39:24.381Z</time></trkpt><trkpt lat="43.0313065" lon="11.4112342"><ele>252.2</ele><time>2026-05-02T10:39:25.386Z</time></trkpt><trkpt lat="43.031207" lon="11.4112731"><ele>252.39999999999998</ele><time>2026-05-02T10:39:26.384Z</time></trkpt><trkpt lat="43.0311041" lon="11.4113108"><ele>252.60000000000002</ele><time>2026-05-02T10:39:27.381Z</time></trkpt><trkpt lat="43.0309994" lon="11.411347"><ele>252.8</ele><time>2026-05-02T10:39:28.382Z</time></trkpt><trkpt lat="43.0308941" lon="11.4113866"><ele>253.0</ele><time>2026-05-02T10:39:29.385Z</time></trkpt><trkpt lat="43.0307917" lon="11.4114388"><ele>250.2</ele><time>2026-05-02T10:39:30.398Z</time></trkpt><trkpt lat="43.0306936" lon="11.411505"><ele>247.4</ele><time>2026-05-02T10:39:31.369Z</time></trkpt><trkpt lat="43.0305992" lon="11.4115816"><ele>244.59999999999997</ele><time>2026-05-02T10:39:32.384Z</time></trkpt><trkpt lat="43.0305088" lon="11.4116641"><ele>241.79999999999998</ele><time>2026-05-02T10:39:33.369Z</time></trkpt><trkpt lat="43.0304209" lon="11.4117504"><ele>239.0</ele><time>2026-05-02T10:39:34.376Z</time></trkpt><trkpt lat="43.0303375" lon="11.4118372"><ele>239.0</ele><time>2026-05-02T10:39:35.385Z</time></trkpt><trkpt lat="43.0302582" lon="11.41193"><ele>239.0</ele><time>2026-05-02T10:39:36.368Z</time></trkpt><trkpt lat="43.030181" lon="11.4120323"><ele>239.0</ele><time>2026-05-02T10:39:37.37Z</time></trkpt><trkpt lat="43.030101" lon="11.4121502"><ele>239.0</ele><time>2026-05-02T10:39:38.405Z</time></trkpt><trkpt lat="43.0300195" lon="11.4122871"><ele>237.25</ele><time>2026-05-02T10:39:39.389Z</time></trkpt><trkpt lat="43.0299397" lon="11.4124383"><ele>235.5</ele><time>2026-05-02T10:39:40.372Z</time></trkpt><trkpt lat="43.0298627" lon="11.4125902"><ele>233.75</ele><time>2026-05-02T10:39:41.397Z</time></trkpt><trkpt lat="43.0297855" lon="11.4127356"><ele>232.0</ele><time>2026-05-02T10:39:42.399Z</time></trkpt><trkpt lat="43.0297092" lon="11.4128794"><ele>234.0</ele><time>2026-05-02T10:39:43.366Z</time></trkpt><trkpt lat="43.0296345" lon="11.4130217"><ele>236.0</ele><time>2026-05-02T10:39:44.386Z</time></trkpt><trkpt lat="43.0295573" lon="11.4131596"><ele>238.0</ele><time>2026-05-02T10:39:45.376Z</time></trkpt><trkpt lat="43.0294775" lon="11.4132942"><ele>240.0</ele><time>2026-05-02T10:39:46.382Z</time></trkpt><trkpt lat="43.0293967" lon="11.4134271"><ele>240.0</ele><time>2026-05-02T10:39:47.386Z</time></trkpt><trkpt lat="43.0293152" lon="11.4135584"><ele>240.0</ele><time>2026-05-02T10:39:48.369Z</time></trkpt><trkpt lat="43.029232" lon="11.4136898"><ele>240.0</ele><time>2026-05-02T10:39:49.38Z</time></trkpt><trkpt lat="43.0291493" lon="11.4138242"><ele>240.0</ele><time>2026-05-02T10:39:50.374Z</time></trkpt><trkpt lat="43.0290675" lon="11.4139624"><ele>239.25</ele><time>2026-05-02T10:39:51.386Z</time></trkpt><trkpt lat="43.0289848" lon="11.4140992"><ele>238.5</ele><time>2026-05-02T10:39:52.379Z</time></trkpt><trkpt lat="43.0289052" lon="11.4142342"><ele>237.75</ele><time>2026-05-02T10:39:53.373Z</time></trkpt><trkpt lat="43.0288236" lon="11.4143638"><ele>237.0</ele><time>2026-05-02T10:39:54.38Z</time></trkpt><trkpt lat="43.0287402" lon="11.4144916"><ele>237.0</ele><time>2026-05-02T10:39:55.376Z</time></trkpt><trkpt lat="43.0286568" lon="11.414621"><ele>237.0</ele><time>2026-05-02T10:39:56.375Z</time></trkpt><trkpt lat="43.0285753" lon="11.4147496"><ele>237.0</ele><time>2026-05-02T10:39:57.374Z</time></trkpt><trkpt lat="43.0284955" lon="11.4148797"><ele>237.0</ele><time>2026-05-02T10:39:58.396Z</time></trkpt><trkpt lat="43.0284173" lon="11.4150054"><ele>237.5</ele><time>2026-05-02T10:39:59.392Z</time></trkpt><trkpt lat="43.0283422" lon="11.4151295"><ele>238.0</ele><time>2026-05-02T10:40:00.374Z</time></trkpt><trkpt lat="43.0282701" lon="11.4152483"><ele>238.5</ele><time>2026-05-02T10:40:01.392Z</time></trkpt><trkpt lat="43.0281974" lon="11.4153645"><ele>239.0</ele><time>2026-05-02T10:40:02.391Z</time></trkpt><trkpt lat="43.0281253" lon="11.4154801"><ele>240.2</ele><time>2026-05-02T10:40:03.407Z</time></trkpt><trkpt lat="43.0280542" lon="11.4155955"><ele>241.39999999999998</ele><time>2026-05-02T10:40:04.375Z</time></trkpt><trkpt lat="43.0279812" lon="11.4157091"><ele>242.6</ele><time>2026-05-02T10:40:05.388Z</time></trkpt><trkpt lat="43.0279082" lon="11.4158254"><ele>243.8</ele><time>2026-05-02T10:40:06.389Z</time></trkpt><trkpt lat="43.0278378" lon="11.41595"><ele>245.0</ele><time>2026-05-02T10:40:07.381Z</time></trkpt><trkpt lat="43.0277672" lon="11.4160764"><ele>245.0</ele><time>2026-05-02T10:40:08.377Z</time></trkpt><trkpt lat="43.0276953" lon="11.4162083"><ele>245.0</ele><time>2026-05-02T10:40:09.379Z</time></trkpt><trkpt lat="43.0276213" lon="11.4163439"><ele>245.0</ele><time>2026-05-02T10:40:10.407Z</time></trkpt><trkpt lat="43.0275444" lon="11.4164799"><ele>245.0</ele><time>2026-05-02T10:40:11.366Z</time></trkpt><trkpt lat="43.0274645" lon="11.4166135"><ele>243.5</ele><time>2026-05-02T10:40:12.382Z</time></trkpt><trkpt lat="43.0273865" lon="11.4167472"><ele>242.0</ele><time>2026-05-02T10:40:13.369Z</time></trkpt><trkpt lat="43.0273119" lon="11.4168821"><ele>240.5</ele><time>2026-05-02T10:40:14.374Z</time></trkpt><trkpt lat="43.0272355" lon="11.4170134"><ele>239.0</ele><time>2026-05-02T10:40:15.379Z</time></trkpt><trkpt lat="43.0271581" lon="11.4171418"><ele>240.5</ele><time>2026-05-02T10:40:16.378Z</time></trkpt><trkpt lat="43.0270805" lon="11.4172689"><ele>242.0</ele><time>2026-05-02T10:40:17.373Z</time></trkpt><trkpt lat="43.0270006" lon="11.4173962"><ele>243.5</ele><time>2026-05-02T10:40:18.395Z</time></trkpt><trkpt lat="43.0269174" lon="11.4175256"><ele>245.0</ele><time>2026-05-02T10:40:19.391Z</time></trkpt><trkpt lat="43.0268293" lon="11.4176543"><ele>245.0</ele><time>2026-05-02T10:40:20.4Z</time></trkpt><trkpt lat="43.0267388" lon="11.4177816"><ele>245.0</ele><time>2026-05-02T10:40:21.371Z</time></trkpt><trkpt lat="43.0266481" lon="11.4179054"><ele>245.0</ele><time>2026-05-02T10:40:22.396Z</time></trkpt><trkpt lat="43.0265599" lon="11.4180215"><ele>245.0</ele><time>2026-05-02T10:40:23.378Z</time></trkpt><trkpt lat="43.0264754" lon="11.4181243"><ele>245.2</ele><time>2026-05-02T10:40:24.373Z</time></trkpt><trkpt lat="43.0263996" lon="11.4182181"><ele>245.4</ele><time>2026-05-02T10:40:25.387Z</time></trkpt><trkpt lat="43.0263314" lon="11.4183052"><ele>245.60000000000002</ele><time>2026-05-02T10:40:26.379Z</time></trkpt><trkpt lat="43.0262667" lon="11.4183878"><ele>245.8</ele><time>2026-05-02T10:40:27.363Z</time></trkpt><trkpt lat="43.0261999" lon="11.4184698"><ele>246.0</ele><time>2026-05-02T10:40:28.371Z</time></trkpt><trkpt lat="43.0261309" lon="11.4185574"><ele>246.0</ele><time>2026-05-02T10:40:29.391Z</time></trkpt><trkpt lat="43.0260627" lon="11.4186455"><ele>246.00000000000003</ele><time>2026-05-02T10:40:30.385Z</time></trkpt><trkpt lat="43.0259949" lon="11.4187324"><ele>246.00000000000003</ele><time>2026-05-02T10:40:31.388Z</time></trkpt><trkpt lat="43.025927" lon="11.4188181"><ele>246.0</ele><time>2026-05-02T10:40:32.389Z</time></trkpt><trkpt lat="43.0258583" lon="11.4189039"><ele>246.0</ele><time>2026-05-02T10:40:33.38Z</time></trkpt><trkpt lat="43.0257906" lon="11.4189913"><ele>243.60000000000002</ele><time>2026-05-02T10:40:34.38Z</time></trkpt><trkpt lat="43.0257234" lon="11.4190819"><ele>241.20000000000002</ele><time>2026-05-02T10:40:35.378Z</time></trkpt><trkpt lat="43.0256561" lon="11.419174"><ele>238.79999999999998</ele><time>2026-05-02T10:40:36.372Z</time></trkpt><trkpt lat="43.0255879" lon="11.4192651"><ele>236.39999999999998</ele><time>2026-05-02T10:40:37.379Z</time></trkpt><trkpt lat="43.0255172" lon="11.4193559"><ele>234.0</ele><time>2026-05-02T10:40:38.387Z</time></trkpt><trkpt lat="43.0254438" lon="11.4194456"><ele>234.0</ele><time>2026-05-02T10:40:39.382Z</time></trkpt><trkpt lat="43.0253691" lon="11.4195366"><ele>233.99999999999997</ele><time>2026-05-02T10:40:40.368Z</time></trkpt><trkpt lat="43.0252923" lon="11.4196291"><ele>233.99999999999997</ele><time>2026-05-02T10:40:41.387Z</time></trkpt><trkpt lat="43.025216" lon="11.4197199"><ele>234.0</ele><time>2026-05-02T10:40:42.386Z</time></trkpt><trkpt lat="43.0251398" lon="11.4198062"><ele>234.0</ele><time>2026-05-02T10:40:43.383Z</time></trkpt><trkpt lat="43.025063" lon="11.4198844"><ele>233.39999999999998</ele><time>2026-05-02T10:40:44.384Z</time></trkpt><trkpt lat="43.0249861" lon="11.4199578"><ele>232.79999999999998</ele><time>2026-05-02T10:40:45.366Z</time></trkpt><trkpt lat="43.0249021" lon="11.4200112"><ele>232.20000000000002</ele><time>2026-05-02T10:40:46.385Z</time></trkpt><trkpt lat="43.0248142" lon="11.4200482"><ele>231.60000000000002</ele><time>2026-05-02T10:40:47.378Z</time></trkpt><trkpt lat="43.0247217" lon="11.4200692"><ele>231.0</ele><time>2026-05-02T10:40:48.411Z</time></trkpt><trkpt lat="43.0246243" lon="11.4200823"><ele>231.0</ele><time>2026-05-02T10:40:49.378Z</time></trkpt><trkpt lat="43.0245212" lon="11.4200921"><ele>231.00000000000003</ele><time>2026-05-02T10:40:50.387Z</time></trkpt><trkpt lat="43.0244137" lon="11.4200986"><ele>231.00000000000003</ele><time>2026-05-02T10:40:51.366Z</time></trkpt><trkpt lat="43.0243023" lon="11.4201037"><ele>231.0</ele><time>2026-05-02T10:40:52.374Z</time></trkpt><trkpt lat="43.0241908" lon="11.4201076"><ele>231.0</ele><time>2026-05-02T10:40:53.379Z</time></trkpt><trkpt lat="43.0240805" lon="11.4201115"><ele>230.0</ele><time>2026-05-02T10:40:54.371Z</time></trkpt><trkpt lat="43.023972" lon="11.420115"><ele>229.00000000000003</ele><time>2026-05-02T10:40:55.383Z</time></trkpt><trkpt lat="43.0238636" lon="11.4201174"><ele>228.00000000000003</ele><time>2026-05-02T10:40:56.374Z</time></trkpt><trkpt lat="43.0237562" lon="11.4201134"><ele>227.0</ele><time>2026-05-02T10:40:57.389Z</time></trkpt><trkpt lat="43.0236491" lon="11.4201036"><ele>226.0</ele><time>2026-05-02T10:40:58.374Z</time></trkpt><trkpt lat="43.0235426" lon="11.4200928"><ele>226.0</ele><time>2026-05-02T10:40:59.375Z</time></trkpt><trkpt lat="43.0234389" lon="11.4200593"><ele>226.0</ele><time>2026-05-02T10:41:00.396Z</time></trkpt><trkpt lat="43.0233349" lon="11.4200077"><ele>226.0</ele><time>2026-05-02T10:41:01.393Z</time></trkpt><trkpt lat="43.0232288" lon="11.4199433"><ele>226.0</ele><time>2026-05-02T10:41:02.382Z</time></trkpt><trkpt lat="43.0231221" lon="11.4198693"><ele>226.25</ele><time>2026-05-02T10:41:03.394Z</time></trkpt><trkpt lat="43.0230135" lon="11.4197863"><ele>226.5</ele><time>2026-05-02T10:41:04.382Z</time></trkpt><trkpt lat="43.0229035" lon="11.4196996"><ele>226.75</ele><time>2026-05-02T10:41:05.386Z</time></trkpt><trkpt lat="43.0227917" lon="11.4196096"><ele>227.0</ele><time>2026-05-02T10:41:06.391Z</time></trkpt><trkpt lat="43.0226779" lon="11.4195194"><ele>226.25</ele><time>2026-05-02T10:41:07.384Z</time></trkpt><trkpt lat="43.0225621" lon="11.4194293"><ele>225.5</ele><time>2026-05-02T10:41:08.397Z</time></trkpt><trkpt lat="43.0224442" lon="11.4193369"><ele>224.75</ele><time>2026-05-02T10:41:09.403Z</time></trkpt><trkpt lat="43.0223276" lon="11.4192421"><ele>224.0</ele><time>2026-05-02T10:41:10.379Z</time></trkpt><trkpt lat="43.0222163" lon="11.4191485"><ele>224.0</ele><time>2026-05-02T10:41:11.377Z</time></trkpt><trkpt lat="43.0221061" lon="11.419063"><ele>224.0</ele><time>2026-05-02T10:41:12.372Z</time></trkpt><trkpt lat="43.0219987" lon="11.4189833"><ele>224.0</ele><time>2026-05-02T10:41:13.388Z</time></trkpt><trkpt lat="43.0218922" lon="11.4189131"><ele>224.0</ele><time>2026-05-02T10:41:14.407Z</time></trkpt><trkpt lat="43.0217835" lon="11.4188547"><ele>223.0</ele><time>2026-05-02T10:41:15.401Z</time></trkpt><trkpt lat="43.0216739" lon="11.4188035"><ele>221.99999999999997</ele><time>2026-05-02T10:41:16.39Z</time></trkpt><trkpt lat="43.021569" lon="11.4187582"><ele>220.99999999999997</ele><time>2026-05-02T10:41:17.378Z</time></trkpt><trkpt lat="43.0214712" lon="11.4187214"><ele>220.0</ele><time>2026-05-02T10:41:18.385Z</time></trkpt><trkpt lat="43.0213848" lon="11.4186907"><ele>219.0</ele><time>2026-05-02T10:41:19.407Z</time></trkpt><trkpt lat="43.0213116" lon="11.4186719"><ele>219.0</ele><time>2026-05-02T10:41:20.401Z</time></trkpt><trkpt lat="43.0212095" lon="11.4186648"><ele>218.99999999999997</ele><time>2026-05-02T10:41:22.402Z</time></trkpt><trkpt lat="43.0211445" lon="11.4186834"><ele>218.99999999999997</ele><time>2026-05-02T10:41:24.383Z</time></trkpt><trkpt lat="43.021119" lon="11.4187659"><ele>219.0</ele><time>2026-05-02T10:41:27.382Z</time></trkpt><trkpt lat="43.0211647" lon="11.4188808"><ele>219.0</ele><time>2026-05-02T10:41:29.377Z</time></trkpt><trkpt lat="43.0212367" lon="11.419023"><ele>220.6</ele><time>2026-05-02T10:41:31.413Z</time></trkpt><trkpt lat="43.0212834" lon="11.4191087"><ele>222.2</ele><time>2026-05-02T10:41:32.37Z</time></trkpt><trkpt lat="43.0213389" lon="11.4192041"><ele>223.79999999999998</ele><time>2026-05-02T10:41:33.369Z</time></trkpt><trkpt lat="43.0213958" lon="11.4193012"><ele>225.39999999999998</ele><time>2026-05-02T10:41:34.364Z</time></trkpt><trkpt lat="43.0214578" lon="11.4194083"><ele>227.0</ele><time>2026-05-02T10:41:35.375Z</time></trkpt><trkpt lat="43.0215245" lon="11.4195264"><ele>228.25</ele><time>2026-05-02T10:41:36.362Z</time></trkpt><trkpt lat="43.0215961" lon="11.4196515"><ele>229.5</ele><time>2026-05-02T10:41:37.365Z</time></trkpt><trkpt lat="43.0216692" lon="11.4197732"><ele>230.75</ele><time>2026-05-02T10:41:38.367Z</time></trkpt><trkpt lat="43.0217431" lon="11.4198966"><ele>232.0</ele><time>2026-05-02T10:41:39.362Z</time></trkpt><trkpt lat="43.0218179" lon="11.4200239"><ele>232.0</ele><time>2026-05-02T10:41:40.368Z</time></trkpt><trkpt lat="43.0218947" lon="11.420158"><ele>232.0</ele><time>2026-05-02T10:41:41.367Z</time></trkpt><trkpt lat="43.0219729" lon="11.4202995"><ele>232.0</ele><time>2026-05-02T10:41:42.371Z</time></trkpt><trkpt lat="43.0220526" lon="11.4204427"><ele>232.0</ele><time>2026-05-02T10:41:43.379Z</time></trkpt><trkpt lat="43.0221344" lon="11.4205853"><ele>232.0</ele><time>2026-05-02T10:41:44.362Z</time></trkpt><trkpt lat="43.0222087" lon="11.4207271"><ele>232.0</ele><time>2026-05-02T10:41:45.374Z</time></trkpt><trkpt lat="43.0222667" lon="11.4208737"><ele>232.0</ele><time>2026-05-02T10:41:46.376Z</time></trkpt><trkpt lat="43.0223014" lon="11.4210275"><ele>232.0</ele><time>2026-05-02T10:41:47.396Z</time></trkpt><trkpt lat="43.022311" lon="11.4211841"><ele>229.5</ele><time>2026-05-02T10:41:48.365Z</time></trkpt><trkpt lat="43.022296" lon="11.421338"><ele>227.0</ele><time>2026-05-02T10:41:49.403Z</time></trkpt><trkpt lat="43.0222584" lon="11.4214904"><ele>224.5</ele><time>2026-05-02T10:41:50.382Z</time></trkpt><trkpt lat="43.0222026" lon="11.4216479"><ele>222.0</ele><time>2026-05-02T10:41:51.367Z</time></trkpt><trkpt lat="43.0221357" lon="11.4218134"><ele>222.0</ele><time>2026-05-02T10:41:52.364Z</time></trkpt><trkpt lat="43.0220618" lon="11.4219877"><ele>222.0</ele><time>2026-05-02T10:41:53.362Z</time></trkpt><trkpt lat="43.0219836" lon="11.4221728"><ele>222.0</ele><time>2026-05-02T10:41:54.368Z</time></trkpt><trkpt lat="43.0219006" lon="11.4223674"><ele>220.0</ele><time>2026-05-02T10:41:55.366Z</time></trkpt><trkpt lat="43.021816" lon="11.4225693"><ele>218.0</ele><time>2026-05-02T10:41:56.363Z</time></trkpt><trkpt lat="43.0217306" lon="11.422777"><ele>216.0</ele><time>2026-05-02T10:41:57.38Z</time></trkpt><trkpt lat="43.0216455" lon="11.4229854"><ele>215.0</ele><time>2026-05-02T10:41:58.371Z</time></trkpt><trkpt lat="43.0215598" lon="11.4231896"><ele>214.0</ele><time>2026-05-02T10:41:59.379Z</time></trkpt><trkpt lat="43.0214697" lon="11.423386"><ele>213.0</ele><time>2026-05-02T10:42:00.367Z</time></trkpt><trkpt lat="43.0213722" lon="11.4235739"><ele>213.0</ele><time>2026-05-02T10:42:01.379Z</time></trkpt><trkpt lat="43.0212677" lon="11.4237524"><ele>213.0</ele><time>2026-05-02T10:42:02.385Z</time></trkpt><trkpt lat="43.0211548" lon="11.4239191"><ele>213.0</ele><time>2026-05-02T10:42:03.365Z</time></trkpt><trkpt lat="43.0210345" lon="11.4240718"><ele>214.66666666666669</ele><time>2026-05-02T10:42:04.372Z</time></trkpt><trkpt lat="43.0209091" lon="11.4242238"><ele>216.33333333333334</ele><time>2026-05-02T10:42:05.365Z</time></trkpt><trkpt lat="43.0207837" lon="11.4243561"><ele>218.0</ele><time>2026-05-02T10:42:06.366Z</time></trkpt><trkpt lat="43.020662" lon="11.424481"><ele>218.25</ele><time>2026-05-02T10:42:07.368Z</time></trkpt><trkpt lat="43.0205491" lon="11.4246102"><ele>218.5</ele><time>2026-05-02T10:42:08.367Z</time></trkpt><trkpt lat="43.0204399" lon="11.4247479"><ele>218.75</ele><time>2026-05-02T10:42:09.382Z</time></trkpt><trkpt lat="43.0203401" lon="11.4248982"><ele>219.0</ele><time>2026-05-02T10:42:10.368Z</time></trkpt><trkpt lat="43.0202449" lon="11.4250592"><ele>221.66666666666669</ele><time>2026-05-02T10:42:11.357Z</time></trkpt><trkpt lat="43.0201558" lon="11.4252328"><ele>224.33333333333334</ele><time>2026-05-02T10:42:12.363Z</time></trkpt><trkpt lat="43.0200709" lon="11.4254188"><ele>227.0</ele><time>2026-05-02T10:42:13.366Z</time></trkpt><trkpt lat="43.0199838" lon="11.425608"><ele>231.33333333333334</ele><time>2026-05-02T10:42:14.359Z</time></trkpt><trkpt lat="43.0198952" lon="11.425797"><ele>235.66666666666669</ele><time>2026-05-02T10:42:15.363Z</time></trkpt><trkpt lat="43.0198044" lon="11.4259912"><ele>240.0</ele><time>2026-05-02T10:42:16.364Z</time></trkpt><trkpt lat="43.0197139" lon="11.4261869"><ele>241.33333333333331</ele><time>2026-05-02T10:42:17.371Z</time></trkpt><trkpt lat="43.0196235" lon="11.4263853"><ele>242.66666666666666</ele><time>2026-05-02T10:42:18.371Z</time></trkpt><trkpt lat="43.0195348" lon="11.4265882"><ele>244.0</ele><time>2026-05-02T10:42:19.365Z</time></trkpt><trkpt lat="43.0194457" lon="11.4267929"><ele>244.0</ele><time>2026-05-02T10:42:20.374Z</time></trkpt><trkpt lat="43.0193555" lon="11.4269975"><ele>244.0</ele><time>2026-05-02T10:42:21.368Z</time></trkpt><trkpt lat="43.0192664" lon="11.4272031"><ele>244.0</ele><time>2026-05-02T10:42:22.367Z</time></trkpt><trkpt lat="43.0191792" lon="11.427409"><ele>246.66666666666666</ele><time>2026-05-02T10:42:23.371Z</time></trkpt><trkpt lat="43.0190937" lon="11.4276181"><ele>249.33333333333331</ele><time>2026-05-02T10:42:24.389Z</time></trkpt><trkpt lat="43.0190122" lon="11.4278299"><ele>252.0</ele><time>2026-05-02T10:42:25.367Z</time></trkpt><trkpt lat="43.0189377" lon="11.4280448"><ele>252.0</ele><time>2026-05-02T10:42:26.375Z</time></trkpt><trkpt lat="43.0188685" lon="11.4282588"><ele>252.0</ele><time>2026-05-02T10:42:27.376Z</time></trkpt><trkpt lat="43.0188047" lon="11.4284655"><ele>252.0</ele><time>2026-05-02T10:42:28.393Z</time></trkpt><trkpt lat="43.0187421" lon="11.4286716"><ele>251.33333333333331</ele><time>2026-05-02T10:42:29.369Z</time></trkpt><trkpt lat="43.0186801" lon="11.42888"><ele>250.66666666666666</ele><time>2026-05-02T10:42:30.385Z</time></trkpt><trkpt lat="43.0186167" lon="11.4290893"><ele>250.0</ele><time>2026-05-02T10:42:31.372Z</time></trkpt><trkpt lat="43.0185536" lon="11.4293015"><ele>250.0</ele><time>2026-05-02T10:42:32.393Z</time></trkpt><trkpt lat="43.018491" lon="11.4295173"><ele>250.0</ele><time>2026-05-02T10:42:33.369Z</time></trkpt><trkpt lat="43.0184278" lon="11.4297349"><ele>250.0</ele><time>2026-05-02T10:42:34.377Z</time></trkpt><trkpt lat="43.018365" lon="11.4299542"><ele>249.33333333333331</ele><time>2026-05-02T10:42:35.373Z</time></trkpt><trkpt lat="43.0183" lon="11.4301711"><ele>248.66666666666669</ele><time>2026-05-02T10:42:36.382Z</time></trkpt><trkpt lat="43.0182364" lon="11.4303892"><ele>248.0</ele><time>2026-05-02T10:42:37.365Z</time></trkpt><trkpt lat="43.0181737" lon="11.4306109"><ele>246.0</ele><time>2026-05-02T10:42:38.363Z</time></trkpt><trkpt lat="43.0181101" lon="11.430835"><ele>244.0</ele><time>2026-05-02T10:42:39.374Z</time></trkpt><trkpt lat="43.0180438" lon="11.4310572"><ele>242.0</ele><time>2026-05-02T10:42:40.368Z</time></trkpt><trkpt lat="43.0179766" lon="11.4312737"><ele>241.0</ele><time>2026-05-02T10:42:41.367Z</time></trkpt><trkpt lat="43.0179101" lon="11.4314925"><ele>240.0</ele><time>2026-05-02T10:42:42.368Z</time></trkpt><trkpt lat="43.0178456" lon="11.4317176"><ele>239.0</ele><time>2026-05-02T10:42:43.395Z</time></trkpt><trkpt lat="43.0177793" lon="11.4319442"><ele>239.0</ele><time>2026-05-02T10:42:44.365Z</time></trkpt><trkpt lat="43.0177128" lon="11.4321734"><ele>239.0</ele><time>2026-05-02T10:42:45.381Z</time></trkpt><trkpt lat="43.0176463" lon="11.4324049"><ele>239.0</ele><time>2026-05-02T10:42:46.367Z</time></trkpt><trkpt lat="43.0175795" lon="11.432637"><ele>239.0</ele><time>2026-05-02T10:42:47.368Z</time></trkpt><trkpt lat="43.0175113" lon="11.4328684"><ele>239.0</ele><time>2026-05-02T10:42:48.389Z</time></trkpt><trkpt lat="43.0174419" lon="11.4330988"><ele>239.0</ele><time>2026-05-02T10:42:49.391Z</time></trkpt><trkpt lat="43.0173744" lon="11.4333288"><ele>240.33333333333334</ele><time>2026-05-02T10:42:50.38Z</time></trkpt><trkpt lat="43.017309" lon="11.4335576"><ele>241.66666666666669</ele><time>2026-05-02T10:42:51.366Z</time></trkpt><trkpt lat="43.0172446" lon="11.4337824"><ele>243.0</ele><time>2026-05-02T10:42:52.392Z</time></trkpt><trkpt lat="43.0171788" lon="11.4340039"><ele>245.0</ele><time>2026-05-02T10:42:53.372Z</time></trkpt><trkpt lat="43.0171124" lon="11.4342234"><ele>247.0</ele><time>2026-05-02T10:42:54.372Z</time></trkpt><trkpt lat="43.0170463" lon="11.4344446"><ele>249.0</ele><time>2026-05-02T10:42:55.354Z</time></trkpt><trkpt lat="43.0169806" lon="11.4346677"><ele>249.66666666666669</ele><time>2026-05-02T10:42:56.36Z</time></trkpt><trkpt lat="43.0169143" lon="11.4348927"><ele>250.33333333333334</ele><time>2026-05-02T10:42:57.372Z</time></trkpt><trkpt lat="43.016847" lon="11.4351209"><ele>251.0</ele><time>2026-05-02T10:42:58.374Z</time></trkpt><trkpt lat="43.0167803" lon="11.435352"><ele>252.0</ele><time>2026-05-02T10:42:59.359Z</time></trkpt><trkpt lat="43.0167126" lon="11.435585"><ele>253.0</ele><time>2026-05-02T10:43:00.392Z</time></trkpt><trkpt lat="43.0166442" lon="11.4358184"><ele>254.0</ele><time>2026-05-02T10:43:01.373Z</time></trkpt><trkpt lat="43.016574" lon="11.4360523"><ele>254.66666666666669</ele><time>2026-05-02T10:43:02.37Z</time></trkpt><trkpt lat="43.0165038" lon="11.4362842"><ele>255.33333333333331</ele><time>2026-05-02T10:43:03.387Z</time></trkpt><trkpt lat="43.0164347" lon="11.4365124"><ele>256.0</ele><time>2026-05-02T10:43:04.404Z</time></trkpt><trkpt lat="43.0163661" lon="11.4367399"><ele>257.0</ele><time>2026-05-02T10:43:05.378Z</time></trkpt><trkpt lat="43.0162984" lon="11.436968"><ele>258.0</ele><time>2026-05-02T10:43:06.365Z</time></trkpt><trkpt lat="43.0162325" lon="11.4371969"><ele>259.0</ele><time>2026-05-02T10:43:07.374Z</time></trkpt><trkpt lat="43.0161667" lon="11.4374251"><ele>261.0</ele><time>2026-05-02T10:43:08.371Z</time></trkpt><trkpt lat="43.016101" lon="11.4376489"><ele>263.0</ele><time>2026-05-02T10:43:09.363Z</time></trkpt><trkpt lat="43.0160379" lon="11.4378638"><ele>265.0</ele><time>2026-05-02T10:43:10.37Z</time></trkpt><trkpt lat="43.0159796" lon="11.4380636"><ele>266.25</ele><time>2026-05-02T10:43:11.36Z</time></trkpt><trkpt lat="43.0159264" lon="11.438248"><ele>267.5</ele><time>2026-05-02T10:43:12.366Z</time></trkpt><trkpt lat="43.0158743" lon="11.4384047"><ele>268.75</ele><time>2026-05-02T10:43:13.366Z</time></trkpt><trkpt lat="43.0158276" lon="11.4385419"><ele>270.0</ele><time>2026-05-02T10:43:14.388Z</time></trkpt><trkpt lat="43.0157767" lon="11.4386618"><ele>270.8</ele><time>2026-05-02T10:43:15.396Z</time></trkpt><trkpt lat="43.0157192" lon="11.4387274"><ele>271.6</ele><time>2026-05-02T10:43:16.368Z</time></trkpt><trkpt lat="43.0156324" lon="11.4387868"><ele>272.4</ele><time>2026-05-02T10:43:18.389Z</time></trkpt><trkpt lat="43.0155579" lon="11.4387531"><ele>273.2</ele><time>2026-05-02T10:43:25.403Z</time></trkpt><trkpt lat="43.0155026" lon="11.4386466"><ele>274.0</ele><time>2026-05-02T10:43:27.404Z</time></trkpt><trkpt lat="43.0154552" lon="11.4384954"><ele>274.0</ele><time>2026-05-02T10:43:29.379Z</time></trkpt><trkpt lat="43.0154241" lon="11.4384198"><ele>274.0</ele><time>2026-05-02T10:43:30.375Z</time></trkpt><trkpt lat="43.0153712" lon="11.4382824"><ele>274.0</ele><time>2026-05-02T10:43:32.371Z</time></trkpt><trkpt lat="43.0153265" lon="11.4381864"><ele>274.0</ele><time>2026-05-02T10:43:34.361Z</time></trkpt><trkpt lat="43.0152812" lon="11.4381082"><ele>274.0</ele><time>2026-05-02T10:43:36.381Z</time></trkpt><trkpt lat="43.015226" lon="11.4379917"><ele>274.0</ele><time>2026-05-02T10:43:38.376Z</time></trkpt><trkpt lat="43.0151904" lon="11.4379107"><ele>273.0</ele><time>2026-05-02T10:43:39.388Z</time></trkpt><trkpt lat="43.0151509" lon="11.4378178"><ele>272.0</ele><time>2026-05-02T10:43:40.381Z</time></trkpt><trkpt lat="43.0151095" lon="11.4377162"><ele>271.0</ele><time>2026-05-02T10:43:41.37Z</time></trkpt><trkpt lat="43.0150679" lon="11.4376077"><ele>270.0</ele><time>2026-05-02T10:43:42.373Z</time></trkpt><trkpt lat="43.01503" lon="11.4374987"><ele>269.0</ele><time>2026-05-02T10:43:43.379Z</time></trkpt><trkpt lat="43.0149985" lon="11.4373944"><ele>268.0</ele><time>2026-05-02T10:43:44.383Z</time></trkpt><trkpt lat="43.0149713" lon="11.4372955"><ele>267.0</ele><time>2026-05-02T10:43:45.372Z</time></trkpt><trkpt lat="43.0149512" lon="11.437198"><ele>266.0</ele><time>2026-05-02T10:43:46.376Z</time></trkpt><trkpt lat="43.0149371" lon="11.4370998"><ele>265.0</ele><time>2026-05-02T10:43:47.36Z</time></trkpt><trkpt lat="43.0149299" lon="11.4370094"><ele>264.0</ele><time>2026-05-02T10:43:48.404Z</time></trkpt><trkpt lat="43.0149265" lon="11.4368589"><ele>263.0</ele><time>2026-05-02T10:43:50.396Z</time></trkpt><trkpt lat="43.0149253" lon="11.4367662"><ele>262.0</ele><time>2026-05-02T10:43:52.4Z</time></trkpt><trkpt lat="43.0149085" lon="11.4368966"><ele>262.0</ele><time>2026-05-02T10:45:49.386Z</time></trkpt><trkpt lat="43.0149153" lon="11.4370095"><ele>262.0</ele><time>2026-05-02T10:45:51.396Z</time></trkpt><trkpt lat="43.0149347" lon="11.4371478"><ele>262.0</ele><time>2026-05-02T10:45:53.377Z</time></trkpt><trkpt lat="43.0149666" lon="11.4373033"><ele>262.0</ele><time>2026-05-02T10:45:55.381Z</time></trkpt><trkpt lat="43.0149862" lon="11.4373884"><ele>262.0</ele><time>2026-05-02T10:45:56.383Z</time></trkpt><trkpt lat="43.0150112" lon="11.4374743"><ele>262.0</ele><time>2026-05-02T10:45:57.382Z</time></trkpt><trkpt lat="43.0150372" lon="11.4375555"><ele>263.2</ele><time>2026-05-02T10:45:58.365Z</time></trkpt><trkpt lat="43.0150912" lon="11.437711"><ele>264.4</ele><time>2026-05-02T10:46:00.366Z</time></trkpt><trkpt lat="43.0151242" lon="11.4377987"><ele>265.6</ele><time>2026-05-02T10:46:01.366Z</time></trkpt><trkpt lat="43.0151591" lon="11.4378865"><ele>266.8</ele><time>2026-05-02T10:46:02.412Z</time></trkpt><trkpt lat="43.015199" lon="11.437971"><ele>268.0</ele><time>2026-05-02T10:46:03.379Z</time></trkpt><trkpt lat="43.0152898" lon="11.4381402"><ele>269.0</ele><time>2026-05-02T10:46:05.403Z</time></trkpt><trkpt lat="43.0153358" lon="11.4382266"><ele>270.0</ele><time>2026-05-02T10:46:06.368Z</time></trkpt><trkpt lat="43.0153781" lon="11.4383168"><ele>271.0</ele><time>2026-05-02T10:46:07.383Z</time></trkpt><trkpt lat="43.0154185" lon="11.4384104"><ele>272.0</ele><time>2026-05-02T10:46:08.395Z</time></trkpt><trkpt lat="43.0154594" lon="11.4385074"><ele>273.0</ele><time>2026-05-02T10:46:09.368Z</time></trkpt><trkpt lat="43.0154987" lon="11.438609"><ele>274.0</ele><time>2026-05-02T10:46:10.393Z</time></trkpt><trkpt lat="43.0155364" lon="11.4387173"><ele>274.8</ele><time>2026-05-02T10:46:11.384Z</time></trkpt><trkpt lat="43.015576" lon="11.438828"><ele>275.59999999999997</ele><time>2026-05-02T10:46:12.367Z</time></trkpt><trkpt lat="43.0156162" lon="11.4389389"><ele>276.4</ele><time>2026-05-02T10:46:13.386Z</time></trkpt><trkpt lat="43.0156531" lon="11.4390529"><ele>277.2</ele><time>2026-05-02T10:46:14.408Z</time></trkpt><trkpt lat="43.0156854" lon="11.4391756"><ele>278.0</ele><time>2026-05-02T10:46:15.398Z</time></trkpt><trkpt lat="43.0157146" lon="11.4393062"><ele>278.0</ele><time>2026-05-02T10:46:16.385Z</time></trkpt><trkpt lat="43.0157454" lon="11.4394445"><ele>278.0</ele><time>2026-05-02T10:46:17.392Z</time></trkpt><trkpt lat="43.0157786" lon="11.4395904"><ele>278.0</ele><time>2026-05-02T10:46:18.402Z</time></trkpt><trkpt lat="43.0158126" lon="11.4397404"><ele>278.0</ele><time>2026-05-02T10:46:19.374Z</time></trkpt><trkpt lat="43.0158501" lon="11.4398898"><ele>278.0</ele><time>2026-05-02T10:46:20.377Z</time></trkpt><trkpt lat="43.0158919" lon="11.4400349"><ele>279.25</ele><time>2026-05-02T10:46:21.372Z</time></trkpt><trkpt lat="43.0159399" lon="11.4401754"><ele>280.5</ele><time>2026-05-02T10:46:22.389Z</time></trkpt><trkpt lat="43.0159902" lon="11.4403151"><ele>281.75</ele><time>2026-05-02T10:46:23.376Z</time></trkpt><trkpt lat="43.016043" lon="11.4404554"><ele>283.0</ele><time>2026-05-02T10:46:24.386Z</time></trkpt><trkpt lat="43.0160979" lon="11.4405956"><ele>284.75</ele><time>2026-05-02T10:46:25.367Z</time></trkpt><trkpt lat="43.0161574" lon="11.4407343"><ele>286.5</ele><time>2026-05-02T10:46:26.379Z</time></trkpt><trkpt lat="43.0162242" lon="11.4408709"><ele>288.25</ele><time>2026-05-02T10:46:27.38Z</time></trkpt><trkpt lat="43.0162963" lon="11.4409971"><ele>290.0</ele><time>2026-05-02T10:46:28.38Z</time></trkpt><trkpt lat="43.0163745" lon="11.4411034"><ele>290.0</ele><time>2026-05-02T10:46:29.372Z</time></trkpt><trkpt lat="43.016461" lon="11.4411985"><ele>290.0</ele><time>2026-05-02T10:46:30.382Z</time></trkpt><trkpt lat="43.0165619" lon="11.4412849"><ele>290.0</ele><time>2026-05-02T10:46:31.402Z</time></trkpt><trkpt lat="43.0166734" lon="11.4413674"><ele>290.0</ele><time>2026-05-02T10:46:32.395Z</time></trkpt><trkpt lat="43.0167846" lon="11.441447"><ele>291.25</ele><time>2026-05-02T10:46:33.402Z</time></trkpt><trkpt lat="43.0168988" lon="11.4415258"><ele>292.5</ele><time>2026-05-02T10:46:34.401Z</time></trkpt><trkpt lat="43.0170179" lon="11.4416095"><ele>293.75</ele><time>2026-05-02T10:46:35.379Z</time></trkpt><trkpt lat="43.0171405" lon="11.4416975"><ele>295.0</ele><time>2026-05-02T10:46:36.382Z</time></trkpt><trkpt lat="43.0172668" lon="11.441788"><ele>295.0</ele><time>2026-05-02T10:46:37.368Z</time></trkpt><trkpt lat="43.0173952" lon="11.4418845"><ele>295.0</ele><time>2026-05-02T10:46:38.365Z</time></trkpt><trkpt lat="43.0175246" lon="11.4419899"><ele>295.0</ele><time>2026-05-02T10:46:39.362Z</time></trkpt><trkpt lat="43.0176547" lon="11.4421059"><ele>297.3333333333333</ele><time>2026-05-02T10:46:40.384Z</time></trkpt><trkpt lat="43.0177862" lon="11.4422287"><ele>299.6666666666667</ele><time>2026-05-02T10:46:41.365Z</time></trkpt><trkpt lat="43.0179175" lon="11.442359"><ele>302.0</ele><time>2026-05-02T10:46:42.373Z</time></trkpt><trkpt lat="43.0180433" lon="11.4425008"><ele>302.0</ele><time>2026-05-02T10:46:43.377Z</time></trkpt><trkpt lat="43.0181672" lon="11.4426489"><ele>302.0</ele><time>2026-05-02T10:46:44.369Z</time></trkpt><trkpt lat="43.0182916" lon="11.4427974"><ele>302.0</ele><time>2026-05-02T10:46:45.378Z</time></trkpt><trkpt lat="43.0184113" lon="11.4429424"><ele>301.75</ele><time>2026-05-02T10:46:46.362Z</time></trkpt><trkpt lat="43.0185196" lon="11.4430801"><ele>301.5</ele><time>2026-05-02T10:46:47.374Z</time></trkpt><trkpt lat="43.0186138" lon="11.4432154"><ele>301.25</ele><time>2026-05-02T10:46:48.377Z</time></trkpt><trkpt lat="43.0186943" lon="11.4433504"><ele>301.0</ele><time>2026-05-02T10:46:49.377Z</time></trkpt><trkpt lat="43.0187623" lon="11.4434915"><ele>301.0</ele><time>2026-05-02T10:46:50.376Z</time></trkpt><trkpt lat="43.018824" lon="11.4436428"><ele>301.0</ele><time>2026-05-02T10:46:51.399Z</time></trkpt><trkpt lat="43.0188897" lon="11.4437984"><ele>301.0</ele><time>2026-05-02T10:46:52.406Z</time></trkpt><trkpt lat="43.0189593" lon="11.44396"><ele>301.0</ele><time>2026-05-02T10:46:53.365Z</time></trkpt><trkpt lat="43.0190291" lon="11.444131"><ele>301.3333333333333</ele><time>2026-05-02T10:46:54.391Z</time></trkpt><trkpt lat="43.0190988" lon="11.4443075"><ele>301.6666666666667</ele><time>2026-05-02T10:46:55.385Z</time></trkpt><trkpt lat="43.019168" lon="11.4444899"><ele>302.0</ele><time>2026-05-02T10:46:56.4Z</time></trkpt><trkpt lat="43.0192324" lon="11.4446797"><ele>302.0</ele><time>2026-05-02T10:46:57.391Z</time></trkpt><trkpt lat="43.0192941" lon="11.444866"><ele>302.0</ele><time>2026-05-02T10:46:58.367Z</time></trkpt><trkpt lat="43.0193333" lon="11.4450731"><ele>302.0</ele><time>2026-05-02T10:46:59.363Z</time></trkpt><trkpt lat="43.0193596" lon="11.4452911"><ele>301.0</ele><time>2026-05-02T10:47:00.373Z</time></trkpt><trkpt lat="43.0193667" lon="11.4455112"><ele>300.0</ele><time>2026-05-02T10:47:01.374Z</time></trkpt><trkpt lat="43.0193676" lon="11.4457419"><ele>299.0</ele><time>2026-05-02T10:47:02.377Z</time></trkpt><trkpt lat="43.0193781" lon="11.4459786"><ele>299.0</ele><time>2026-05-02T10:47:03.387Z</time></trkpt><trkpt lat="43.0193931" lon="11.4462121"><ele>299.0</ele><time>2026-05-02T10:47:04.378Z</time></trkpt><trkpt lat="43.0194163" lon="11.4464434"><ele>299.0</ele><time>2026-05-02T10:47:05.403Z</time></trkpt><trkpt lat="43.0194456" lon="11.4466715"><ele>302.0</ele><time>2026-05-02T10:47:06.385Z</time></trkpt><trkpt lat="43.0194752" lon="11.4468993"><ele>305.0</ele><time>2026-05-02T10:47:07.406Z</time></trkpt><trkpt lat="43.0195076" lon="11.4471267"><ele>308.0</ele><time>2026-05-02T10:47:08.385Z</time></trkpt><trkpt lat="43.0195436" lon="11.447353"><ele>311.6666666666667</ele><time>2026-05-02T10:47:09.381Z</time></trkpt><trkpt lat="43.0195832" lon="11.4475818"><ele>315.3333333333333</ele><time>2026-05-02T10:47:10.361Z</time></trkpt><trkpt lat="43.0196265" lon="11.4478123"><ele>319.0</ele><time>2026-05-02T10:47:11.365Z</time></trkpt><trkpt lat="43.0196765" lon="11.4480434"><ele>320.66666666666663</ele><time>2026-05-02T10:47:12.364Z</time></trkpt><trkpt lat="43.0197358" lon="11.4482733"><ele>322.3333333333333</ele><time>2026-05-02T10:47:13.366Z</time></trkpt><trkpt lat="43.0198036" lon="11.4484986"><ele>324.0</ele><time>2026-05-02T10:47:14.368Z</time></trkpt><trkpt lat="43.0198783" lon="11.4487157"><ele>325.3333333333333</ele><time>2026-05-02T10:47:15.369Z</time></trkpt><trkpt lat="43.0199621" lon="11.4489185"><ele>326.66666666666663</ele><time>2026-05-02T10:47:16.365Z</time></trkpt><trkpt lat="43.0200496" lon="11.4491085"><ele>328.0</ele><time>2026-05-02T10:47:17.388Z</time></trkpt><trkpt lat="43.0201323" lon="11.449292"><ele>329.0</ele><time>2026-05-02T10:47:18.37Z</time></trkpt><trkpt lat="43.0202108" lon="11.4494702"><ele>330.0</ele><time>2026-05-02T10:47:19.402Z</time></trkpt><trkpt lat="43.0202875" lon="11.4496453"><ele>331.0</ele><time>2026-05-02T10:47:20.366Z</time></trkpt><trkpt lat="43.0203643" lon="11.4498252"><ele>332.0</ele><time>2026-05-02T10:47:21.381Z</time></trkpt><trkpt lat="43.0204396" lon="11.4500111"><ele>333.0</ele><time>2026-05-02T10:47:22.373Z</time></trkpt><trkpt lat="43.0205124" lon="11.4501976"><ele>334.0</ele><time>2026-05-02T10:47:23.383Z</time></trkpt><trkpt lat="43.020585" lon="11.4503928"><ele>335.3333333333333</ele><time>2026-05-02T10:47:24.376Z</time></trkpt><trkpt lat="43.0206574" lon="11.4505956"><ele>336.6666666666667</ele><time>2026-05-02T10:47:25.382Z</time></trkpt><trkpt lat="43.0207308" lon="11.4508045"><ele>338.0</ele><time>2026-05-02T10:47:26.385Z</time></trkpt><trkpt lat="43.0208018" lon="11.4510199"><ele>339.0</ele><time>2026-05-02T10:47:27.37Z</time></trkpt><trkpt lat="43.0208714" lon="11.451241"><ele>340.0</ele><time>2026-05-02T10:47:28.38Z</time></trkpt><trkpt lat="43.0209408" lon="11.4514655"><ele>341.0</ele><time>2026-05-02T10:47:29.37Z</time></trkpt><trkpt lat="43.021011" lon="11.4516893"><ele>343.33333333333337</ele><time>2026-05-02T10:47:30.383Z</time></trkpt><trkpt lat="43.0210809" lon="11.4519132"><ele>345.6666666666667</ele><time>2026-05-02T10:47:31.392Z</time></trkpt><trkpt lat="43.0211482" lon="11.4521372"><ele>348.0</ele><time>2026-05-02T10:47:32.39Z</time></trkpt><trkpt lat="43.0212145" lon="11.4523597"><ele>351.0</ele><time>2026-05-02T10:47:33.388Z</time></trkpt><trkpt lat="43.021282" lon="11.4525786"><ele>354.0</ele><time>2026-05-02T10:47:34.383Z</time></trkpt><trkpt lat="43.0213553" lon="11.4527913"><ele>357.0</ele><time>2026-05-02T10:47:35.388Z</time></trkpt><trkpt lat="43.0214422" lon="11.4529895"><ele>359.6666666666667</ele><time>2026-05-02T10:47:36.376Z</time></trkpt><trkpt lat="43.0215475" lon="11.4531672"><ele>362.33333333333337</ele><time>2026-05-02T10:47:37.402Z</time></trkpt><trkpt lat="43.0216725" lon="11.4533213"><ele>365.0</ele><time>2026-05-02T10:47:38.398Z</time></trkpt><trkpt lat="43.0218149" lon="11.4534526"><ele>367.33333333333337</ele><time>2026-05-02T10:47:39.376Z</time></trkpt><trkpt lat="43.0219709" lon="11.453568"><ele>369.6666666666667</ele><time>2026-05-02T10:47:40.37Z</time></trkpt><trkpt lat="43.0221287" lon="11.4536701"><ele>372.0</ele><time>2026-05-02T10:47:41.37Z</time></trkpt><trkpt lat="43.0222821" lon="11.4537893"><ele>375.0</ele><time>2026-05-02T10:47:42.383Z</time></trkpt><trkpt lat="43.0224337" lon="11.4539275"><ele>378.0</ele><time>2026-05-02T10:47:43.367Z</time></trkpt><trkpt lat="43.0225763" lon="11.4540849"><ele>381.0</ele><time>2026-05-02T10:47:44.359Z</time></trkpt><trkpt lat="43.0227125" lon="11.4542544"><ele>382.0</ele><time>2026-05-02T10:47:45.394Z</time></trkpt><trkpt lat="43.022841" lon="11.4544348"><ele>383.0</ele><time>2026-05-02T10:47:46.376Z</time></trkpt><trkpt lat="43.0229679" lon="11.4546182"><ele>384.0</ele><time>2026-05-02T10:47:47.373Z</time></trkpt><trkpt lat="43.0230914" lon="11.4548054"><ele>385.33333333333337</ele><time>2026-05-02T10:47:48.377Z</time></trkpt><trkpt lat="43.0232133" lon="11.454994"><ele>386.6666666666667</ele><time>2026-05-02T10:47:49.384Z</time></trkpt><trkpt lat="43.0233298" lon="11.4551859"><ele>388.0</ele><time>2026-05-02T10:47:50.379Z</time></trkpt><trkpt lat="43.0234399" lon="11.4553818"><ele>392.33333333333337</ele><time>2026-05-02T10:47:51.364Z</time></trkpt><trkpt lat="43.0235366" lon="11.4555857"><ele>396.66666666666663</ele><time>2026-05-02T10:47:52.374Z</time></trkpt><trkpt lat="43.023615" lon="11.455799"><ele>401.0</ele><time>2026-05-02T10:47:53.369Z</time></trkpt><trkpt lat="43.0236815" lon="11.4560137"><ele>401.0</ele><time>2026-05-02T10:47:54.381Z</time></trkpt><trkpt lat="43.023752" lon="11.4562221"><ele>401.0</ele><time>2026-05-02T10:47:55.373Z</time></trkpt><trkpt lat="43.0238332" lon="11.456417"><ele>401.0</ele><time>2026-05-02T10:47:56.403Z</time></trkpt><trkpt lat="43.0239278" lon="11.4565971"><ele>402.66666666666663</ele><time>2026-05-02T10:47:57.378Z</time></trkpt><trkpt lat="43.0240243" lon="11.4567695"><ele>404.33333333333337</ele><time>2026-05-02T10:47:58.38Z</time></trkpt><trkpt lat="43.0241146" lon="11.4569484"><ele>406.0</ele><time>2026-05-02T10:47:59.398Z</time></trkpt><trkpt lat="43.024184" lon="11.4571411"><ele>407.0</ele><time>2026-05-02T10:48:00.373Z</time></trkpt><trkpt lat="43.0242336" lon="11.4573483"><ele>408.0</ele><time>2026-05-02T10:48:01.382Z</time></trkpt><trkpt lat="43.0242684" lon="11.4575664"><ele>409.0</ele><time>2026-05-02T10:48:02.376Z</time></trkpt><trkpt lat="43.0243011" lon="11.4577877"><ele>409.33333333333337</ele><time>2026-05-02T10:48:03.385Z</time></trkpt><trkpt lat="43.0243451" lon="11.4580032"><ele>409.66666666666663</ele><time>2026-05-02T10:48:04.382Z</time></trkpt><trkpt lat="43.0244057" lon="11.4582105"><ele>410.0</ele><time>2026-05-02T10:48:05.376Z</time></trkpt><trkpt lat="43.0244815" lon="11.4584066"><ele>410.0</ele><time>2026-05-02T10:48:06.399Z</time></trkpt><trkpt lat="43.0245745" lon="11.4585912"><ele>410.0</ele><time>2026-05-02T10:48:07.371Z</time></trkpt><trkpt lat="43.0246827" lon="11.4587635"><ele>410.0</ele><time>2026-05-02T10:48:08.366Z</time></trkpt><trkpt lat="43.0248033" lon="11.458925"><ele>409.3333333333333</ele><time>2026-05-02T10:48:09.356Z</time></trkpt><trkpt lat="43.0249334" lon="11.4590786"><ele>408.66666666666663</ele><time>2026-05-02T10:48:10.363Z</time></trkpt><trkpt lat="43.0250725" lon="11.4592222"><ele>408.0</ele><time>2026-05-02T10:48:11.358Z</time></trkpt><trkpt lat="43.025215" lon="11.4593645"><ele>411.33333333333337</ele><time>2026-05-02T10:48:12.388Z</time></trkpt><trkpt lat="43.0253594" lon="11.459508"><ele>414.6666666666667</ele><time>2026-05-02T10:48:13.367Z</time></trkpt><trkpt lat="43.0255048" lon="11.4596512"><ele>418.0</ele><time>2026-05-02T10:48:14.362Z</time></trkpt><trkpt lat="43.0256523" lon="11.4597927"><ele>418.0</ele><time>2026-05-02T10:48:15.371Z</time></trkpt><trkpt lat="43.0257992" lon="11.4599353"><ele>418.0</ele><time>2026-05-02T10:48:16.362Z</time></trkpt><trkpt lat="43.0259443" lon="11.4600819"><ele>418.0</ele><time>2026-05-02T10:48:17.371Z</time></trkpt><trkpt lat="43.0260881" lon="11.4602315"><ele>425.6666666666667</ele><time>2026-05-02T10:48:18.362Z</time></trkpt><trkpt lat="43.0262311" lon="11.4603823"><ele>433.33333333333337</ele><time>2026-05-02T10:48:19.387Z</time></trkpt><trkpt lat="43.0263735" lon="11.4605364"><ele>441.0</ele><time>2026-05-02T10:48:20.37Z</time></trkpt><trkpt lat="43.0265135" lon="11.4606935"><ele>446.66666666666663</ele><time>2026-05-02T10:48:21.383Z</time></trkpt><trkpt lat="43.026655" lon="11.4608511"><ele>452.3333333333333</ele><time>2026-05-02T10:48:22.386Z</time></trkpt><trkpt lat="43.0267977" lon="11.4609996"><ele>458.0</ele><time>2026-05-02T10:48:23.366Z</time></trkpt><trkpt lat="43.026942" lon="11.4611513"><ele>458.3333333333333</ele><time>2026-05-02T10:48:24.39Z</time></trkpt><trkpt lat="43.0270856" lon="11.4613101"><ele>458.66666666666663</ele><time>2026-05-02T10:48:25.367Z</time></trkpt><trkpt lat="43.0272257" lon="11.4614716"><ele>459.0</ele><time>2026-05-02T10:48:26.364Z</time></trkpt><trkpt lat="43.0273677" lon="11.4616313"><ele>461.66666666666663</ele><time>2026-05-02T10:48:27.36Z</time></trkpt><trkpt lat="43.0275064" lon="11.4618002"><ele>464.3333333333333</ele><time>2026-05-02T10:48:28.393Z</time></trkpt><trkpt lat="43.0276421" lon="11.4619773"><ele>467.0</ele><time>2026-05-02T10:48:29.359Z</time></trkpt><trkpt lat="43.0277672" lon="11.4621659"><ele>469.3333333333333</ele><time>2026-05-02T10:48:30.372Z</time></trkpt><trkpt lat="43.0278785" lon="11.4623619"><ele>471.66666666666663</ele><time>2026-05-02T10:48:31.386Z</time></trkpt><trkpt lat="43.0279746" lon="11.4625674"><ele>474.0</ele><time>2026-05-02T10:48:32.369Z</time></trkpt><trkpt lat="43.0280674" lon="11.4627833"><ele>474.33333333333337</ele><time>2026-05-02T10:48:33.384Z</time></trkpt><trkpt lat="43.0281673" lon="11.4630007"><ele>474.6666666666667</ele><time>2026-05-02T10:48:34.364Z</time></trkpt><trkpt lat="43.0282771" lon="11.4632141"><ele>475.0</ele><time>2026-05-02T10:48:35.371Z</time></trkpt><trkpt lat="43.0283991" lon="11.463419"><ele>475.0</ele><time>2026-05-02T10:48:36.363Z</time></trkpt><trkpt lat="43.0285332" lon="11.463611"><ele>475.0</ele><time>2026-05-02T10:48:37.361Z</time></trkpt><trkpt lat="43.028678" lon="11.4637911"><ele>475.0</ele><time>2026-05-02T10:48:38.403Z</time></trkpt><trkpt lat="43.0288285" lon="11.463963"><ele>476.33333333333337</ele><time>2026-05-02T10:48:39.368Z</time></trkpt><trkpt lat="43.028981" lon="11.4641314"><ele>477.66666666666663</ele><time>2026-05-02T10:48:40.365Z</time></trkpt><trkpt lat="43.0291342" lon="11.4643002"><ele>479.0</ele><time>2026-05-02T10:48:41.357Z</time></trkpt><trkpt lat="43.0292863" lon="11.4644691"><ele>477.3333333333333</ele><time>2026-05-02T10:48:42.354Z</time></trkpt><trkpt lat="43.0294388" lon="11.4646396"><ele>475.66666666666663</ele><time>2026-05-02T10:48:43.359Z</time></trkpt><trkpt lat="43.0295922" lon="11.4648116"><ele>474.0</ele><time>2026-05-02T10:48:44.362Z</time></trkpt><trkpt lat="43.0297468" lon="11.4649818"><ele>474.0</ele><time>2026-05-02T10:48:45.369Z</time></trkpt><trkpt lat="43.0299033" lon="11.465149"><ele>474.0</ele><time>2026-05-02T10:48:46.368Z</time></trkpt><trkpt lat="43.0300614" lon="11.4653164"><ele>474.0</ele><time>2026-05-02T10:48:47.368Z</time></trkpt><trkpt lat="43.0302204" lon="11.4654832"><ele>478.0</ele><time>2026-05-02T10:48:48.369Z</time></trkpt><trkpt lat="43.0303822" lon="11.4656444"><ele>482.0</ele><time>2026-05-02T10:48:49.365Z</time></trkpt><trkpt lat="43.0305491" lon="11.4657942"><ele>486.0</ele><time>2026-05-02T10:48:50.364Z</time></trkpt><trkpt lat="43.0307227" lon="11.4659324"><ele>488.0</ele><time>2026-05-02T10:48:51.361Z</time></trkpt><trkpt lat="43.0309008" lon="11.4660603"><ele>490.0</ele><time>2026-05-02T10:48:52.365Z</time></trkpt><trkpt lat="43.0310806" lon="11.4661815"><ele>492.0</ele><time>2026-05-02T10:48:53.361Z</time></trkpt><trkpt lat="43.0312598" lon="11.4662986"><ele>494.66666666666663</ele><time>2026-05-02T10:48:54.369Z</time></trkpt><trkpt lat="43.0314355" lon="11.4664159"><ele>497.3333333333333</ele><time>2026-05-02T10:48:55.362Z</time></trkpt><trkpt lat="43.0316037" lon="11.4665284"><ele>500.0</ele><time>2026-05-02T10:48:56.359Z</time></trkpt><trkpt lat="43.0317655" lon="11.4666342"><ele>500.0</ele><time>2026-05-02T10:48:57.374Z</time></trkpt><trkpt lat="43.0319225" lon="11.4667345"><ele>500.0</ele><time>2026-05-02T10:48:58.364Z</time></trkpt><trkpt lat="43.0320776" lon="11.4668272"><ele>500.0</ele><time>2026-05-02T10:48:59.375Z</time></trkpt><trkpt lat="43.0322383" lon="11.4668973"><ele>500.0</ele><time>2026-05-02T10:49:00.365Z</time></trkpt><trkpt lat="43.0324077" lon="11.4669443"><ele>500.0</ele><time>2026-05-02T10:49:01.386Z</time></trkpt><trkpt lat="43.0325864" lon="11.4669755"><ele>500.0</ele><time>2026-05-02T10:49:02.371Z</time></trkpt><trkpt lat="43.0327716" lon="11.4669939"><ele>496.66666666666663</ele><time>2026-05-02T10:49:03.363Z</time></trkpt><trkpt lat="43.0329605" lon="11.4669965"><ele>493.33333333333337</ele><time>2026-05-02T10:49:04.365Z</time></trkpt><trkpt lat="43.0331483" lon="11.4669826"><ele>490.0</ele><time>2026-05-02T10:49:05.364Z</time></trkpt><trkpt lat="43.0333316" lon="11.466957"><ele>490.0</ele><time>2026-05-02T10:49:06.374Z</time></trkpt><trkpt lat="43.03351" lon="11.4669294"><ele>490.0</ele><time>2026-05-02T10:49:07.377Z</time></trkpt><trkpt lat="43.0336805" lon="11.4668957"><ele>490.0</ele><time>2026-05-02T10:49:08.371Z</time></trkpt><trkpt lat="43.0338506" lon="11.4668808"><ele>490.0</ele><time>2026-05-02T10:49:09.36Z</time></trkpt><trkpt lat="43.0340235" lon="11.4668893"><ele>490.0</ele><time>2026-05-02T10:49:10.364Z</time></trkpt><trkpt lat="43.0341839" lon="11.4669258"><ele>490.0</ele><time>2026-05-02T10:49:11.365Z</time></trkpt><trkpt lat="43.0343291" lon="11.4670117"><ele>495.25</ele><time>2026-05-02T10:49:12.37Z</time></trkpt><trkpt lat="43.0344472" lon="11.4671278"><ele>500.5</ele><time>2026-05-02T10:49:13.358Z</time></trkpt><trkpt lat="43.034546" lon="11.4672671"><ele>505.75</ele><time>2026-05-02T10:49:14.363Z</time></trkpt><trkpt lat="43.0346297" lon="11.4674282"><ele>511.0</ele><time>2026-05-02T10:49:15.363Z</time></trkpt><trkpt lat="43.0347039" lon="11.4676075"><ele>511.0</ele><time>2026-05-02T10:49:16.377Z</time></trkpt><trkpt lat="43.0347783" lon="11.4677885"><ele>511.0</ele><time>2026-05-02T10:49:17.389Z</time></trkpt><trkpt lat="43.0348594" lon="11.4679725"><ele>511.0</ele><time>2026-05-02T10:49:18.366Z</time></trkpt><trkpt lat="43.0349504" lon="11.4681473"><ele>511.0</ele><time>2026-05-02T10:49:19.352Z</time></trkpt><trkpt lat="43.0350602" lon="11.4682995"><ele>511.0</ele><time>2026-05-02T10:49:20.361Z</time></trkpt><trkpt lat="43.035191" lon="11.468418"><ele>511.0</ele><time>2026-05-02T10:49:21.359Z</time></trkpt><trkpt lat="43.0353375" lon="11.4685078"><ele>511.0</ele><time>2026-05-02T10:49:22.363Z</time></trkpt><trkpt lat="43.0354947" lon="11.4685755"><ele>511.0</ele><time>2026-05-02T10:49:23.358Z</time></trkpt><trkpt lat="43.035659" lon="11.4686324"><ele>511.0</ele><time>2026-05-02T10:49:24.37Z</time></trkpt><trkpt lat="43.035827" lon="11.4686867"><ele>512.0</ele><time>2026-05-02T10:49:25.363Z</time></trkpt><trkpt lat="43.0360003" lon="11.468734"><ele>513.0</ele><time>2026-05-02T10:49:26.38Z</time></trkpt><trkpt lat="43.0361765" lon="11.4687708"><ele>514.0</ele><time>2026-05-02T10:49:27.362Z</time></trkpt><trkpt lat="43.036354" lon="11.4688089"><ele>514.0</ele><time>2026-05-02T10:49:28.37Z</time></trkpt><trkpt lat="43.0365305" lon="11.4688539"><ele>514.0</ele><time>2026-05-02T10:49:29.385Z</time></trkpt><trkpt lat="43.0367034" lon="11.4689103"><ele>514.0</ele><time>2026-05-02T10:49:30.373Z</time></trkpt><trkpt lat="43.0368712" lon="11.4689836"><ele>512.3333333333334</ele><time>2026-05-02T10:49:31.362Z</time></trkpt><trkpt lat="43.0370342" lon="11.469072"><ele>510.66666666666663</ele><time>2026-05-02T10:49:32.383Z</time></trkpt><trkpt lat="43.0371906" lon="11.4691758"><ele>509.0</ele><time>2026-05-02T10:49:33.381Z</time></trkpt><trkpt lat="43.0373389" lon="11.4692978"><ele>509.3333333333333</ele><time>2026-05-02T10:49:34.364Z</time></trkpt><trkpt lat="43.0374791" lon="11.4694365"><ele>509.66666666666663</ele><time>2026-05-02T10:49:35.363Z</time></trkpt><trkpt lat="43.037616" lon="11.469582"><ele>510.0</ele><time>2026-05-02T10:49:36.379Z</time></trkpt><trkpt lat="43.0377529" lon="11.4697289"><ele>512.3333333333334</ele><time>2026-05-02T10:49:37.362Z</time></trkpt><trkpt lat="43.0378878" lon="11.4698737"><ele>514.6666666666667</ele><time>2026-05-02T10:49:38.368Z</time></trkpt><trkpt lat="43.0380273" lon="11.4699988"><ele>517.0</ele><time>2026-05-02T10:49:39.368Z</time></trkpt><trkpt lat="43.0381744" lon="11.4700937"><ele>515.3333333333334</ele><time>2026-05-02T10:49:40.361Z</time></trkpt><trkpt lat="43.0383205" lon="11.4701585"><ele>513.6666666666666</ele><time>2026-05-02T10:49:41.38Z</time></trkpt><trkpt lat="43.0384772" lon="11.4701519"><ele>512.0</ele><time>2026-05-02T10:49:42.365Z</time></trkpt><trkpt lat="43.0386255" lon="11.4701103"><ele>512.0</ele><time>2026-05-02T10:49:43.365Z</time></trkpt><trkpt lat="43.0387681" lon="11.4700397"><ele>512.0</ele><time>2026-05-02T10:49:44.375Z</time></trkpt><trkpt lat="43.0389072" lon="11.4699568"><ele>512.0</ele><time>2026-05-02T10:49:45.356Z</time></trkpt><trkpt lat="43.0390368" lon="11.4698816"><ele>512.0</ele><time>2026-05-02T10:49:46.37Z</time></trkpt><trkpt lat="43.0391535" lon="11.4698304"><ele>514.25</ele><time>2026-05-02T10:49:47.371Z</time></trkpt><trkpt lat="43.0392668" lon="11.4698268"><ele>516.5</ele><time>2026-05-02T10:49:48.366Z</time></trkpt><trkpt lat="43.0393745" lon="11.4698791"><ele>518.75</ele><time>2026-05-02T10:49:49.377Z</time></trkpt><trkpt lat="43.0394723" lon="11.4699772"><ele>521.0</ele><time>2026-05-02T10:49:50.363Z</time></trkpt><trkpt lat="43.0395624" lon="11.4701009"><ele>521.0</ele><time>2026-05-02T10:49:51.37Z</time></trkpt><trkpt lat="43.0396453" lon="11.4702472"><ele>521.0</ele><time>2026-05-02T10:49:52.386Z</time></trkpt><trkpt lat="43.0397198" lon="11.4703974"><ele>521.0</ele><time>2026-05-02T10:49:53.36Z</time></trkpt><trkpt lat="43.039783" lon="11.4705292"><ele>521.0</ele><time>2026-05-02T10:49:54.368Z</time></trkpt><trkpt lat="43.0398289" lon="11.4706389"><ele>522.8333333333333</ele><time>2026-05-02T10:49:55.387Z</time></trkpt><trkpt lat="43.0398483" lon="11.470726"><ele>524.6666666666666</ele><time>2026-05-02T10:49:56.367Z</time></trkpt><trkpt lat="43.0398308" lon="11.470836"><ele>526.5</ele><time>2026-05-02T10:49:58.372Z</time></trkpt><trkpt lat="43.0397344" lon="11.4709058"><ele>528.3333333333334</ele><time>2026-05-02T10:50:00.404Z</time></trkpt><trkpt lat="43.0396724" lon="11.4709386"><ele>530.1666666666667</ele><time>2026-05-02T10:50:01.377Z</time></trkpt><trkpt lat="43.0396069" lon="11.4709778"><ele>532.0</ele><time>2026-05-02T10:50:02.38Z</time></trkpt><trkpt lat="43.0395281" lon="11.4710274"><ele>532.0</ele><time>2026-05-02T10:50:03.376Z</time></trkpt><trkpt lat="43.0394377" lon="11.4710794"><ele>532.0</ele><time>2026-05-02T10:50:04.379Z</time></trkpt><trkpt lat="43.0393486" lon="11.4711323"><ele>532.0</ele><time>2026-05-02T10:50:05.372Z</time></trkpt><trkpt lat="43.0392559" lon="11.4711942"><ele>532.0</ele><time>2026-05-02T10:50:06.377Z</time></trkpt><trkpt lat="43.0391601" lon="11.4712657"><ele>532.0</ele><time>2026-05-02T10:50:07.381Z</time></trkpt><trkpt lat="43.0390662" lon="11.4713536"><ele>532.25</ele><time>2026-05-02T10:50:08.367Z</time></trkpt><trkpt lat="43.0389756" lon="11.4714599"><ele>532.5</ele><time>2026-05-02T10:50:09.357Z</time></trkpt><trkpt lat="43.0388893" lon="11.4715833"><ele>532.75</ele><time>2026-05-02T10:50:10.382Z</time></trkpt><trkpt lat="43.0388111" lon="11.4717235"><ele>533.0</ele><time>2026-05-02T10:50:11.378Z</time></trkpt><trkpt lat="43.0387459" lon="11.4718738"><ele>533.0</ele><time>2026-05-02T10:50:12.379Z</time></trkpt><trkpt lat="43.038698" lon="11.4720414"><ele>533.0</ele><time>2026-05-02T10:50:13.369Z</time></trkpt><trkpt lat="43.0386721" lon="11.4722247"><ele>533.0</ele><time>2026-05-02T10:50:14.363Z</time></trkpt><trkpt lat="43.0386681" lon="11.472419"><ele>533.0</ele><time>2026-05-02T10:50:15.405Z</time></trkpt><trkpt lat="43.0386814" lon="11.4726172"><ele>536.75</ele><time>2026-05-02T10:50:16.374Z</time></trkpt><trkpt lat="43.0387031" lon="11.4728137"><ele>540.5</ele><time>2026-05-02T10:50:17.387Z</time></trkpt><trkpt lat="43.0387229" lon="11.4730058"><ele>544.25</ele><time>2026-05-02T10:50:18.388Z</time></trkpt><trkpt lat="43.0387329" lon="11.4731903"><ele>548.0</ele><time>2026-05-02T10:50:19.372Z</time></trkpt><trkpt lat="43.0387227" lon="11.4733662"><ele>551.0</ele><time>2026-05-02T10:50:20.382Z</time></trkpt><trkpt lat="43.0386839" lon="11.4735287"><ele>554.0</ele><time>2026-05-02T10:50:21.4Z</time></trkpt><trkpt lat="43.0386161" lon="11.4736709"><ele>557.0</ele><time>2026-05-02T10:50:22.364Z</time></trkpt><trkpt lat="43.0385219" lon="11.4737884"><ele>560.0</ele><time>2026-05-02T10:50:23.384Z</time></trkpt><trkpt lat="43.0384062" lon="11.4738807"><ele>562.25</ele><time>2026-05-02T10:50:24.374Z</time></trkpt><trkpt lat="43.0382764" lon="11.4739555"><ele>564.5</ele><time>2026-05-02T10:50:25.369Z</time></trkpt><trkpt lat="43.0381404" lon="11.4740256"><ele>566.75</ele><time>2026-05-02T10:50:26.384Z</time></trkpt><trkpt lat="43.0380072" lon="11.4740988"><ele>569.0</ele><time>2026-05-02T10:50:27.402Z</time></trkpt><trkpt lat="43.0378852" lon="11.4741866"><ele>569.0</ele><time>2026-05-02T10:50:28.384Z</time></trkpt><trkpt lat="43.0377864" lon="11.4743052"><ele>569.0</ele><time>2026-05-02T10:50:29.381Z</time></trkpt><trkpt lat="43.0377226" lon="11.4744515"><ele>569.0</ele><time>2026-05-02T10:50:30.372Z</time></trkpt><trkpt lat="43.0376934" lon="11.4746173"><ele>569.0</ele><time>2026-05-02T10:50:31.372Z</time></trkpt><trkpt lat="43.037689" lon="11.474798"><ele>572.0</ele><time>2026-05-02T10:50:32.376Z</time></trkpt><trkpt lat="43.0376963" lon="11.4749898"><ele>575.0</ele><time>2026-05-02T10:50:33.379Z</time></trkpt><trkpt lat="43.0377048" lon="11.4751907"><ele>578.0</ele><time>2026-05-02T10:50:34.362Z</time></trkpt><trkpt lat="43.0377123" lon="11.4753992"><ele>581.0</ele><time>2026-05-02T10:50:35.365Z</time></trkpt><trkpt lat="43.03772" lon="11.475613"><ele>583.6666666666666</ele><time>2026-05-02T10:50:36.368Z</time></trkpt><trkpt lat="43.0377281" lon="11.4758311"><ele>586.3333333333334</ele><time>2026-05-02T10:50:37.377Z</time></trkpt><trkpt lat="43.0377353" lon="11.4760549"><ele>589.0</ele><time>2026-05-02T10:50:38.367Z</time></trkpt><trkpt lat="43.0377434" lon="11.4762804"><ele>590.0</ele><time>2026-05-02T10:50:39.368Z</time></trkpt><trkpt lat="43.037753" lon="11.4764974"><ele>591.0</ele><time>2026-05-02T10:50:40.407Z</time></trkpt><trkpt lat="43.0377618" lon="11.4767105"><ele>592.0</ele><time>2026-05-02T10:50:41.388Z</time></trkpt><trkpt lat="43.0377697" lon="11.47692"><ele>593.5</ele><time>2026-05-02T10:50:42.375Z</time></trkpt><trkpt lat="43.0377755" lon="11.4771254"><ele>595.0</ele><time>2026-05-02T10:50:43.397Z</time></trkpt><trkpt lat="43.037773" lon="11.4773286"><ele>596.5</ele><time>2026-05-02T10:50:44.397Z</time></trkpt><trkpt lat="43.037758" lon="11.4775299"><ele>598.0</ele><time>2026-05-02T10:50:45.371Z</time></trkpt><trkpt lat="43.0377345" lon="11.4777319"><ele>598.0</ele><time>2026-05-02T10:50:46.378Z</time></trkpt><trkpt lat="43.0377075" lon="11.4779379"><ele>598.0</ele><time>2026-05-02T10:50:47.375Z</time></trkpt><trkpt lat="43.0376718" lon="11.4781444"><ele>598.0</ele><time>2026-05-02T10:50:48.383Z</time></trkpt><trkpt lat="43.0376218" lon="11.4783457"><ele>598.0</ele><time>2026-05-02T10:50:49.377Z</time></trkpt><trkpt lat="43.0375533" lon="11.478537"><ele>598.0</ele><time>2026-05-02T10:50:50.385Z</time></trkpt><trkpt lat="43.0374824" lon="11.4787109"><ele>598.0</ele><time>2026-05-02T10:50:51.38Z</time></trkpt><trkpt lat="43.0373781" lon="11.4788719"><ele>598.25</ele><time>2026-05-02T10:50:52.379Z</time></trkpt><trkpt lat="43.0372862" lon="11.4790146"><ele>598.5</ele><time>2026-05-02T10:50:53.391Z</time></trkpt><trkpt lat="43.0371986" lon="11.4791555"><ele>598.75</ele><time>2026-05-02T10:50:54.406Z</time></trkpt><trkpt lat="43.0371185" lon="11.4792896"><ele>599.0</ele><time>2026-05-02T10:50:55.381Z</time></trkpt><trkpt lat="43.0370422" lon="11.479404"><ele>599.0</ele><time>2026-05-02T10:50:56.392Z</time></trkpt><trkpt lat="43.0369692" lon="11.4795032"><ele>599.0</ele><time>2026-05-02T10:50:57.376Z</time></trkpt><trkpt lat="43.0369095" lon="11.4795848"><ele>599.0</ele><time>2026-05-02T10:50:58.404Z</time></trkpt><trkpt lat="43.0368677" lon="11.4796506"><ele>599.0</ele><time>2026-05-02T10:50:59.384Z</time></trkpt><trkpt lat="43.0368366" lon="11.4797362"><ele>599.0</ele><time>2026-05-02T10:51:01.39Z</time></trkpt><trkpt lat="43.0368933" lon="11.4798232"><ele>599.0</ele><time>2026-05-02T10:51:05.392Z</time></trkpt><trkpt lat="43.0369931" lon="11.4799357"><ele>599.4</ele><time>2026-05-02T10:51:07.386Z</time></trkpt><trkpt lat="43.0370693" lon="11.4800029"><ele>599.8</ele><time>2026-05-02T10:51:08.382Z</time></trkpt><trkpt lat="43.0371561" lon="11.4800711"><ele>600.2</ele><time>2026-05-02T10:51:09.382Z</time></trkpt><trkpt lat="43.037254" lon="11.4801472"><ele>600.6</ele><time>2026-05-02T10:51:10.358Z</time></trkpt><trkpt lat="43.0373626" lon="11.4802411"><ele>601.0</ele><time>2026-05-02T10:51:11.384Z</time></trkpt><trkpt lat="43.0374819" lon="11.4803475"><ele>598.0</ele><time>2026-05-02T10:51:12.37Z</time></trkpt><trkpt lat="43.0376142" lon="11.4804594"><ele>595.0</ele><time>2026-05-02T10:51:13.386Z</time></trkpt><trkpt lat="43.0377521" lon="11.4805767"><ele>592.0</ele><time>2026-05-02T10:51:14.388Z</time></trkpt><trkpt lat="43.0378865" lon="11.4806941"><ele>592.0</ele><time>2026-05-02T10:51:15.386Z</time></trkpt><trkpt lat="43.0380246" lon="11.4808172"><ele>592.0</ele><time>2026-05-02T10:51:16.384Z</time></trkpt><trkpt lat="43.0381691" lon="11.4809439"><ele>592.0</ele><time>2026-05-02T10:51:17.371Z</time></trkpt><trkpt lat="43.0383212" lon="11.4810746"><ele>591.3333333333334</ele><time>2026-05-02T10:51:18.385Z</time></trkpt><trkpt lat="43.0384793" lon="11.4812083"><ele>590.6666666666666</ele><time>2026-05-02T10:51:19.371Z</time></trkpt><trkpt lat="43.0386413" lon="11.4813504"><ele>590.0</ele><time>2026-05-02T10:51:20.37Z</time></trkpt><trkpt lat="43.0388066" lon="11.4814985"><ele>589.6666666666666</ele><time>2026-05-02T10:51:21.402Z</time></trkpt><trkpt lat="43.0389742" lon="11.4816482"><ele>589.3333333333334</ele><time>2026-05-02T10:51:22.369Z</time></trkpt><trkpt lat="43.0391455" lon="11.4817974"><ele>589.0</ele><time>2026-05-02T10:51:23.375Z</time></trkpt><trkpt lat="43.0393181" lon="11.4819463"><ele>594.3333333333334</ele><time>2026-05-02T10:51:24.405Z</time></trkpt><trkpt lat="43.0394889" lon="11.4820986"><ele>599.6666666666666</ele><time>2026-05-02T10:51:25.367Z</time></trkpt><trkpt lat="43.0396559" lon="11.4822528"><ele>605.0</ele><time>2026-05-02T10:51:26.381Z</time></trkpt><trkpt lat="43.0398264" lon="11.4823969"><ele>606.6666666666666</ele><time>2026-05-02T10:51:27.4Z</time></trkpt><trkpt lat="43.0399966" lon="11.4825345"><ele>608.3333333333334</ele><time>2026-05-02T10:51:28.381Z</time></trkpt><trkpt lat="43.0401696" lon="11.4826612"><ele>610.0</ele><time>2026-05-02T10:51:29.377Z</time></trkpt><trkpt lat="43.0403491" lon="11.4827607"><ele>610.0</ele><time>2026-05-02T10:51:30.371Z</time></trkpt><trkpt lat="43.0405354" lon="11.4828464"><ele>610.0</ele><time>2026-05-02T10:51:31.384Z</time></trkpt><trkpt lat="43.0407255" lon="11.4829247"><ele>610.0</ele><time>2026-05-02T10:51:32.381Z</time></trkpt><trkpt lat="43.0409157" lon="11.4829926"><ele>612.6666666666667</ele><time>2026-05-02T10:51:33.372Z</time></trkpt><trkpt lat="43.0411183" lon="11.4830589"><ele>615.3333333333334</ele><time>2026-05-02T10:51:34.382Z</time></trkpt><trkpt lat="43.0413222" lon="11.4831208"><ele>618.0</ele><time>2026-05-02T10:51:35.372Z</time></trkpt><trkpt lat="43.0415296" lon="11.4831824"><ele>616.0</ele><time>2026-05-02T10:51:36.385Z</time></trkpt><trkpt lat="43.0417365" lon="11.4832475"><ele>614.0</ele><time>2026-05-02T10:51:37.402Z</time></trkpt><trkpt lat="43.0419437" lon="11.4833103"><ele>612.0</ele><time>2026-05-02T10:51:38.385Z</time></trkpt><trkpt lat="43.0421472" lon="11.4833713"><ele>612.0</ele><time>2026-05-02T10:51:39.377Z</time></trkpt><trkpt lat="43.0423457" lon="11.483429"><ele>612.0</ele><time>2026-05-02T10:51:40.378Z</time></trkpt><trkpt lat="43.0425368" lon="11.4834791"><ele>612.0</ele><time>2026-05-02T10:51:41.382Z</time></trkpt><trkpt lat="43.0427182" lon="11.4835268"><ele>612.3333333333334</ele><time>2026-05-02T10:51:42.376Z</time></trkpt><trkpt lat="43.0428929" lon="11.4835683"><ele>612.6666666666667</ele><time>2026-05-02T10:51:43.388Z</time></trkpt><trkpt lat="43.0430557" lon="11.4836167"><ele>613.0</ele><time>2026-05-02T10:51:44.369Z</time></trkpt><trkpt lat="43.0432131" lon="11.4836665"><ele>613.6666666666667</ele><time>2026-05-02T10:51:45.377Z</time></trkpt><trkpt lat="43.0433627" lon="11.4837181"><ele>614.3333333333334</ele><time>2026-05-02T10:51:46.368Z</time></trkpt><trkpt lat="43.0435088" lon="11.4837728"><ele>615.0</ele><time>2026-05-02T10:51:47.405Z</time></trkpt><trkpt lat="43.0436502" lon="11.4838512"><ele>613.6666666666666</ele><time>2026-05-02T10:51:48.373Z</time></trkpt><trkpt lat="43.0437848" lon="11.4839577"><ele>612.3333333333333</ele><time>2026-05-02T10:51:49.38Z</time></trkpt><trkpt lat="43.0439058" lon="11.4840773"><ele>611.0</ele><time>2026-05-02T10:51:50.381Z</time></trkpt><trkpt lat="43.044023" lon="11.4841956"><ele>611.0</ele><time>2026-05-02T10:51:51.368Z</time></trkpt><trkpt lat="43.0441391" lon="11.4843098"><ele>611.0</ele><time>2026-05-02T10:51:52.404Z</time></trkpt><trkpt lat="43.0442444" lon="11.4844238"><ele>611.0</ele><time>2026-05-02T10:51:53.374Z</time></trkpt><trkpt lat="43.0443367" lon="11.4845368"><ele>611.0</ele><time>2026-05-02T10:51:54.377Z</time></trkpt><trkpt lat="43.0444175" lon="11.4846489"><ele>611.25</ele><time>2026-05-02T10:51:55.403Z</time></trkpt><trkpt lat="43.0444863" lon="11.4847732"><ele>611.5</ele><time>2026-05-02T10:51:56.403Z</time></trkpt><trkpt lat="43.0445622" lon="11.4849008"><ele>611.75</ele><time>2026-05-02T10:51:57.384Z</time></trkpt><trkpt lat="43.0446032" lon="11.485065"><ele>612.0</ele><time>2026-05-02T10:51:58.385Z</time></trkpt><trkpt lat="43.0446462" lon="11.4852252"><ele>612.0</ele><time>2026-05-02T10:51:59.38Z</time></trkpt><trkpt lat="43.0446923" lon="11.4853907"><ele>612.0</ele><time>2026-05-02T10:52:00.38Z</time></trkpt><trkpt lat="43.0447441" lon="11.4855634"><ele>612.0</ele><time>2026-05-02T10:52:01.378Z</time></trkpt><trkpt lat="43.0447953" lon="11.4857385"><ele>612.0</ele><time>2026-05-02T10:52:02.401Z</time></trkpt><trkpt lat="43.044845" lon="11.4859193"><ele>612.5</ele><time>2026-05-02T10:52:03.403Z</time></trkpt><trkpt lat="43.044897" lon="11.4861037"><ele>613.0</ele><time>2026-05-02T10:52:04.386Z</time></trkpt><trkpt lat="43.0449465" lon="11.4862825"><ele>613.5</ele><time>2026-05-02T10:52:05.39Z</time></trkpt><trkpt lat="43.044993" lon="11.4864525"><ele>614.0</ele><time>2026-05-02T10:52:06.373Z</time></trkpt><trkpt lat="43.0450376" lon="11.4866127"><ele>614.2</ele><time>2026-05-02T10:52:07.371Z</time></trkpt><trkpt lat="43.04509" lon="11.4867587"><ele>614.4</ele><time>2026-05-02T10:52:08.38Z</time></trkpt><trkpt lat="43.0451566" lon="11.4868813"><ele>614.6</ele><time>2026-05-02T10:52:09.398Z</time></trkpt><trkpt lat="43.0452367" lon="11.4869739"><ele>614.8</ele><time>2026-05-02T10:52:10.378Z</time></trkpt><trkpt lat="43.0453252" lon="11.4870354"><ele>615.0</ele><time>2026-05-02T10:52:11.403Z</time></trkpt><trkpt lat="43.0454197" lon="11.4870657"><ele>615.0</ele><time>2026-05-02T10:52:12.366Z</time></trkpt><trkpt lat="43.0455189" lon="11.4870758"><ele>615.0</ele><time>2026-05-02T10:52:13.38Z</time></trkpt><trkpt lat="43.0456214" lon="11.4870822"><ele>615.0</ele><time>2026-05-02T10:52:14.406Z</time></trkpt><trkpt lat="43.0457225" lon="11.4870996"><ele>615.0</ele><time>2026-05-02T10:52:15.409Z</time></trkpt><trkpt lat="43.0458216" lon="11.4871373"><ele>615.0</ele><time>2026-05-02T10:52:16.383Z</time></trkpt><trkpt lat="43.0459161" lon="11.487184"><ele>614.6</ele><time>2026-05-02T10:52:17.366Z</time></trkpt><trkpt lat="43.0460018" lon="11.4872812"><ele>614.2</ele><time>2026-05-02T10:52:18.399Z</time></trkpt><trkpt lat="43.0460724" lon="11.4873928"><ele>613.8</ele><time>2026-05-02T10:52:19.395Z</time></trkpt><trkpt lat="43.0461271" lon="11.4875264"><ele>613.4</ele><time>2026-05-02T10:52:20.382Z</time></trkpt><trkpt lat="43.0461789" lon="11.4876563"><ele>613.0</ele><time>2026-05-02T10:52:21.406Z</time></trkpt><trkpt lat="43.0462264" lon="11.4878002"><ele>610.8</ele><time>2026-05-02T10:52:22.405Z</time></trkpt><trkpt lat="43.046265" lon="11.4879454"><ele>608.5999999999999</ele><time>2026-05-02T10:52:23.371Z</time></trkpt><trkpt lat="43.0462889" lon="11.4880888"><ele>606.4000000000001</ele><time>2026-05-02T10:52:24.365Z</time></trkpt><trkpt lat="43.0463124" lon="11.4882278"><ele>604.2</ele><time>2026-05-02T10:52:25.389Z</time></trkpt><trkpt lat="43.0463424" lon="11.4883672"><ele>602.0</ele><time>2026-05-02T10:52:26.39Z</time></trkpt><trkpt lat="43.0463706" lon="11.48851"><ele>602.0</ele><time>2026-05-02T10:52:27.377Z</time></trkpt><trkpt lat="43.046399" lon="11.4886568"><ele>602.0</ele><time>2026-05-02T10:52:28.402Z</time></trkpt><trkpt lat="43.0464321" lon="11.4888049"><ele>602.0</ele><time>2026-05-02T10:52:29.377Z</time></trkpt><trkpt lat="43.046471" lon="11.4889508"><ele>602.0</ele><time>2026-05-02T10:52:30.371Z</time></trkpt><trkpt lat="43.0465172" lon="11.4890911"><ele>600.4</ele><time>2026-05-02T10:52:31.383Z</time></trkpt><trkpt lat="43.0465756" lon="11.4892175"><ele>598.8000000000001</ele><time>2026-05-02T10:52:32.405Z</time></trkpt><trkpt lat="43.0466389" lon="11.4893313"><ele>597.2</ele><time>2026-05-02T10:52:33.375Z</time></trkpt><trkpt lat="43.0467241" lon="11.4894165"><ele>595.6</ele><time>2026-05-02T10:52:34.405Z</time></trkpt><trkpt lat="43.0468202" lon="11.4894793"><ele>594.0</ele><time>2026-05-02T10:52:35.401Z</time></trkpt><trkpt lat="43.0469207" lon="11.4895233"><ele>594.6</ele><time>2026-05-02T10:52:36.368Z</time></trkpt><trkpt lat="43.047025" lon="11.4895416"><ele>595.2</ele><time>2026-05-02T10:52:37.388Z</time></trkpt><trkpt lat="43.0471348" lon="11.4895447"><ele>595.8000000000001</ele><time>2026-05-02T10:52:38.388Z</time></trkpt><trkpt lat="43.0472468" lon="11.4895632"><ele>596.4</ele><time>2026-05-02T10:52:39.39Z</time></trkpt><trkpt lat="43.0473567" lon="11.4896003"><ele>597.0</ele><time>2026-05-02T10:52:40.386Z</time></trkpt><trkpt lat="43.0474522" lon="11.4896629"><ele>598.2</ele><time>2026-05-02T10:52:41.368Z</time></trkpt><trkpt lat="43.0475368" lon="11.4897447"><ele>599.4000000000001</ele><time>2026-05-02T10:52:42.361Z</time></trkpt><trkpt lat="43.0476163" lon="11.4898315"><ele>600.5999999999999</ele><time>2026-05-02T10:52:43.387Z</time></trkpt><trkpt lat="43.0476976" lon="11.4899168"><ele>601.8</ele><time>2026-05-02T10:52:44.356Z</time></trkpt><trkpt lat="43.0477812" lon="11.489996"><ele>603.0</ele><time>2026-05-02T10:52:45.381Z</time></trkpt><trkpt lat="43.0478695" lon="11.4900523"><ele>603.0</ele><time>2026-05-02T10:52:46.377Z</time></trkpt><trkpt lat="43.0479619" lon="11.4900802"><ele>603.0</ele><time>2026-05-02T10:52:47.367Z</time></trkpt><trkpt lat="43.0480562" lon="11.4900793"><ele>603.0</ele><time>2026-05-02T10:52:48.377Z</time></trkpt><trkpt lat="43.0481492" lon="11.4900557"><ele>603.0</ele><time>2026-05-02T10:52:49.367Z</time></trkpt><trkpt lat="43.0482413" lon="11.4900315"><ele>603.0</ele><time>2026-05-02T10:52:50.365Z</time></trkpt><trkpt lat="43.0483287" lon="11.4900111"><ele>603.0</ele><time>2026-05-02T10:52:51.387Z</time></trkpt><trkpt lat="43.0484164" lon="11.4899904"><ele>603.0</ele><time>2026-05-02T10:52:52.381Z</time></trkpt><trkpt lat="43.0485016" lon="11.4899689"><ele>603.0</ele><time>2026-05-02T10:52:53.365Z</time></trkpt><trkpt lat="43.0485873" lon="11.4899528"><ele>603.0</ele><time>2026-05-02T10:52:54.397Z</time></trkpt><trkpt lat="43.0486733" lon="11.4899529"><ele>603.0</ele><time>2026-05-02T10:52:55.36Z</time></trkpt><trkpt lat="43.0487535" lon="11.4900113"><ele>603.0</ele><time>2026-05-02T10:52:56.381Z</time></trkpt><trkpt lat="43.0488247" lon="11.4900986"><ele>603.0</ele><time>2026-05-02T10:52:57.388Z</time></trkpt><trkpt lat="43.0488779" lon="11.4902064"><ele>603.0</ele><time>2026-05-02T10:52:58.384Z</time></trkpt><trkpt lat="43.0489192" lon="11.4903238"><ele>603.0</ele><time>2026-05-02T10:52:59.365Z</time></trkpt><trkpt lat="43.0489577" lon="11.4904551"><ele>603.0</ele><time>2026-05-02T10:53:00.388Z</time></trkpt><trkpt lat="43.0489918" lon="11.490589"><ele>603.0</ele><time>2026-05-02T10:53:01.387Z</time></trkpt><trkpt lat="43.0490287" lon="11.4907263"><ele>601.4</ele><time>2026-05-02T10:53:02.364Z</time></trkpt><trkpt lat="43.0490769" lon="11.4908561"><ele>599.8</ele><time>2026-05-02T10:53:03.393Z</time></trkpt><trkpt lat="43.0491411" lon="11.4909662"><ele>598.2</ele><time>2026-05-02T10:53:04.399Z</time></trkpt><trkpt lat="43.0492267" lon="11.4910374"><ele>596.6</ele><time>2026-05-02T10:53:05.364Z</time></trkpt><trkpt lat="43.0493128" lon="11.491086"><ele>595.0</ele><time>2026-05-02T10:53:06.384Z</time></trkpt><trkpt lat="43.0494063" lon="11.4910665"><ele>595.0</ele><time>2026-05-02T10:53:07.385Z</time></trkpt><trkpt lat="43.0495055" lon="11.4910378"><ele>595.0</ele><time>2026-05-02T10:53:08.367Z</time></trkpt><trkpt lat="43.0496168" lon="11.491018"><ele>595.0</ele><time>2026-05-02T10:53:09.389Z</time></trkpt><trkpt lat="43.0497298" lon="11.4910153"><ele>595.0</ele><time>2026-05-02T10:53:10.354Z</time></trkpt><trkpt lat="43.0498418" lon="11.4910223"><ele>595.0</ele><time>2026-05-02T10:53:11.357Z</time></trkpt><trkpt lat="43.0499484" lon="11.4910401"><ele>595.4</ele><time>2026-05-02T10:53:12.376Z</time></trkpt><trkpt lat="43.0500494" lon="11.4910285"><ele>595.8</ele><time>2026-05-02T10:53:13.371Z</time></trkpt><trkpt lat="43.0501433" lon="11.4909815"><ele>596.2</ele><time>2026-05-02T10:53:14.362Z</time></trkpt><trkpt lat="43.0502295" lon="11.4909026"><ele>596.6</ele><time>2026-05-02T10:53:15.391Z</time></trkpt><trkpt lat="43.0503038" lon="11.4907835"><ele>597.0</ele><time>2026-05-02T10:53:16.371Z</time></trkpt><trkpt lat="43.0503752" lon="11.4906444"><ele>597.0</ele><time>2026-05-02T10:53:17.402Z</time></trkpt><trkpt lat="43.0504457" lon="11.4904937"><ele>597.0</ele><time>2026-05-02T10:53:18.397Z</time></trkpt><trkpt lat="43.0505199" lon="11.490332"><ele>597.0</ele><time>2026-05-02T10:53:19.385Z</time></trkpt><trkpt lat="43.0505961" lon="11.4901659"><ele>597.0</ele><time>2026-05-02T10:53:20.388Z</time></trkpt><trkpt lat="43.0506738" lon="11.4900081"><ele>598.25</ele><time>2026-05-02T10:53:21.388Z</time></trkpt><trkpt lat="43.0507451" lon="11.489845"><ele>599.5</ele><time>2026-05-02T10:53:22.378Z</time></trkpt><trkpt lat="43.0508201" lon="11.4897011"><ele>600.75</ele><time>2026-05-02T10:53:23.359Z</time></trkpt><trkpt lat="43.0509081" lon="11.4895917"><ele>602.0</ele><time>2026-05-02T10:53:24.406Z</time></trkpt><trkpt lat="43.0510134" lon="11.4895143"><ele>602.0</ele><time>2026-05-02T10:53:25.408Z</time></trkpt><trkpt lat="43.0511182" lon="11.4895275"><ele>602.0</ele><time>2026-05-02T10:53:26.382Z</time></trkpt><trkpt lat="43.0512112" lon="11.4895899"><ele>602.0</ele><time>2026-05-02T10:53:27.363Z</time></trkpt><trkpt lat="43.0512837" lon="11.4896869"><ele>602.0</ele><time>2026-05-02T10:53:28.395Z</time></trkpt><trkpt lat="43.0513465" lon="11.489807"><ele>602.0</ele><time>2026-05-02T10:53:29.39Z</time></trkpt><trkpt lat="43.0514087" lon="11.4899507"><ele>598.75</ele><time>2026-05-02T10:53:30.388Z</time></trkpt><trkpt lat="43.0514715" lon="11.4901058"><ele>595.5</ele><time>2026-05-02T10:53:31.366Z</time></trkpt><trkpt lat="43.0515393" lon="11.4902637"><ele>592.25</ele><time>2026-05-02T10:53:32.387Z</time></trkpt><trkpt lat="43.0516068" lon="11.4904182"><ele>589.0</ele><time>2026-05-02T10:53:33.377Z</time></trkpt><trkpt lat="43.051687" lon="11.4905588"><ele>585.0</ele><time>2026-05-02T10:53:34.375Z</time></trkpt><trkpt lat="43.0517789" lon="11.4906726"><ele>581.0</ele><time>2026-05-02T10:53:35.358Z</time></trkpt><trkpt lat="43.0518742" lon="11.4907776"><ele>577.0</ele><time>2026-05-02T10:53:36.36Z</time></trkpt><trkpt lat="43.0519757" lon="11.4908705"><ele>573.0</ele><time>2026-05-02T10:53:37.381Z</time></trkpt><trkpt lat="43.0520843" lon="11.4909436"><ele>573.0</ele><time>2026-05-02T10:53:38.38Z</time></trkpt><trkpt lat="43.0522" lon="11.4909865"><ele>573.0</ele><time>2026-05-02T10:53:39.375Z</time></trkpt><trkpt lat="43.0523181" lon="11.4909936"><ele>573.0</ele><time>2026-05-02T10:53:40.375Z</time></trkpt><trkpt lat="43.0524354" lon="11.4909887"><ele>573.0</ele><time>2026-05-02T10:53:41.366Z</time></trkpt><trkpt lat="43.0525549" lon="11.4909283"><ele>574.0</ele><time>2026-05-02T10:53:42.383Z</time></trkpt><trkpt lat="43.0526722" lon="11.4908547"><ele>575.0</ele><time>2026-05-02T10:53:43.365Z</time></trkpt><trkpt lat="43.0527843" lon="11.4907966"><ele>576.0</ele><time>2026-05-02T10:53:44.383Z</time></trkpt><trkpt lat="43.0528887" lon="11.4907226"><ele>577.0</ele><time>2026-05-02T10:53:45.402Z</time></trkpt><trkpt lat="43.0529863" lon="11.4906226"><ele>577.0</ele><time>2026-05-02T10:53:46.387Z</time></trkpt><trkpt lat="43.0530664" lon="11.490506"><ele>577.0</ele><time>2026-05-02T10:53:47.37Z</time></trkpt><trkpt lat="43.0531226" lon="11.4903775"><ele>577.0</ele><time>2026-05-02T10:53:48.37Z</time></trkpt><trkpt lat="43.0531614" lon="11.4902395"><ele>577.0</ele><time>2026-05-02T10:53:49.378Z</time></trkpt><trkpt lat="43.0531963" lon="11.4901011"><ele>577.0</ele><time>2026-05-02T10:53:50.37Z</time></trkpt><trkpt lat="43.0532282" lon="11.4899614"><ele>575.4</ele><time>2026-05-02T10:53:51.365Z</time></trkpt><trkpt lat="43.0532556" lon="11.489819"><ele>573.8000000000001</ele><time>2026-05-02T10:53:52.388Z</time></trkpt><trkpt lat="43.0532798" lon="11.4896762"><ele>572.2</ele><time>2026-05-02T10:53:53.391Z</time></trkpt><trkpt lat="43.0533057" lon="11.4895339"><ele>570.6</ele><time>2026-05-02T10:53:54.388Z</time></trkpt><trkpt lat="43.0533348" lon="11.4893929"><ele>569.0</ele><time>2026-05-02T10:53:55.385Z</time></trkpt><trkpt lat="43.0533744" lon="11.4892563"><ele>569.0</ele><time>2026-05-02T10:53:56.41Z</time></trkpt><trkpt lat="43.0534269" lon="11.4891286"><ele>569.0</ele><time>2026-05-02T10:53:57.381Z</time></trkpt><trkpt lat="43.0534994" lon="11.4890261"><ele>569.0</ele><time>2026-05-02T10:53:58.392Z</time></trkpt><trkpt lat="43.0535851" lon="11.4889551"><ele>569.0</ele><time>2026-05-02T10:53:59.376Z</time></trkpt><trkpt lat="43.0536767" lon="11.4889084"><ele>569.0</ele><time>2026-05-02T10:54:00.394Z</time></trkpt><trkpt lat="43.0537681" lon="11.4888618"><ele>569.0</ele><time>2026-05-02T10:54:01.406Z</time></trkpt><trkpt lat="43.0538611" lon="11.4888311"><ele>569.0</ele><time>2026-05-02T10:54:02.393Z</time></trkpt><trkpt lat="43.0539584" lon="11.4887995"><ele>569.0</ele><time>2026-05-02T10:54:03.393Z</time></trkpt><trkpt lat="43.054057" lon="11.488767"><ele>569.0</ele><time>2026-05-02T10:54:04.399Z</time></trkpt><trkpt lat="43.054157" lon="11.4887374"><ele>569.0</ele><time>2026-05-02T10:54:05.4Z</time></trkpt><trkpt lat="43.0542544" lon="11.4887101"><ele>568.3333333333333</ele><time>2026-05-02T10:54:06.391Z</time></trkpt><trkpt lat="43.0543519" lon="11.4886927"><ele>567.6666666666666</ele><time>2026-05-02T10:54:07.394Z</time></trkpt><trkpt lat="43.0544456" lon="11.488696"><ele>567.0</ele><time>2026-05-02T10:54:08.386Z</time></trkpt><trkpt lat="43.0545327" lon="11.4887131"><ele>566.3333333333334</ele><time>2026-05-02T10:54:09.38Z</time></trkpt><trkpt lat="43.0546132" lon="11.488739"><ele>565.6666666666667</ele><time>2026-05-02T10:54:10.391Z</time></trkpt><trkpt lat="43.0546879" lon="11.4887683"><ele>565.0</ele><time>2026-05-02T10:54:11.383Z</time></trkpt><trkpt lat="43.0547564" lon="11.4888039"><ele>563.3333333333334</ele><time>2026-05-02T10:54:12.405Z</time></trkpt><trkpt lat="43.0548163" lon="11.4888439"><ele>561.6666666666667</ele><time>2026-05-02T10:54:13.4Z</time></trkpt><trkpt lat="43.0548728" lon="11.4888896"><ele>560.0</ele><time>2026-05-02T10:54:14.39Z</time></trkpt><trkpt lat="43.0549592" lon="11.4889786"><ele>558.3333333333334</ele><time>2026-05-02T10:54:16.408Z</time></trkpt><trkpt lat="43.0550195" lon="11.4890443"><ele>556.6666666666666</ele><time>2026-05-02T10:54:18.391Z</time></trkpt><trkpt lat="43.055073" lon="11.4891099"><ele>555.0</ele><time>2026-05-02T10:54:20.409Z</time></trkpt><trkpt lat="43.055154" lon="11.4891451"><ele>554.6666666666666</ele><time>2026-05-02T10:54:27.415Z</time></trkpt><trkpt lat="43.0552514" lon="11.4890963"><ele>554.3333333333334</ele><time>2026-05-02T10:54:30.403Z</time></trkpt><trkpt lat="43.0553327" lon="11.4890777"><ele>554.0</ele><time>2026-05-02T10:54:32.407Z</time></trkpt><trkpt lat="43.0554065" lon="11.4890556"><ele>553.6666666666667</ele><time>2026-05-02T10:54:35.396Z</time></trkpt><trkpt lat="43.0554754" lon="11.4890255"><ele>553.3333333333334</ele><time>2026-05-02T10:54:37.397Z</time></trkpt><trkpt lat="43.0555848" lon="11.4889789"><ele>553.0</ele><time>2026-05-02T10:54:39.389Z</time></trkpt><trkpt lat="43.0556482" lon="11.4889604"><ele>553.0</ele><time>2026-05-02T10:54:40.385Z</time></trkpt><trkpt lat="43.0557151" lon="11.4889592"><ele>553.0</ele><time>2026-05-02T10:54:41.383Z</time></trkpt><trkpt lat="43.0558272" lon="11.4889944"><ele>553.0</ele><time>2026-05-02T10:54:43.389Z</time></trkpt><trkpt lat="43.0559201" lon="11.4890318"><ele>553.0</ele><time>2026-05-02T10:54:45.386Z</time></trkpt><trkpt lat="43.0560203" lon="11.4890516"><ele>553.0</ele><time>2026-05-02T10:54:47.383Z</time></trkpt><trkpt lat="43.0561528" lon="11.4890226"><ele>552.3333333333334</ele><time>2026-05-02T10:54:49.383Z</time></trkpt><trkpt lat="43.0562275" lon="11.4889914"><ele>551.6666666666667</ele><time>2026-05-02T10:54:50.391Z</time></trkpt><trkpt lat="43.0563057" lon="11.4889551"><ele>551.0</ele><time>2026-05-02T10:54:51.411Z</time></trkpt><trkpt lat="43.0563838" lon="11.4889201"><ele>550.3333333333334</ele><time>2026-05-02T10:54:52.392Z</time></trkpt><trkpt lat="43.0564612" lon="11.4888931"><ele>549.6666666666666</ele><time>2026-05-02T10:54:53.397Z</time></trkpt><trkpt lat="43.0565352" lon="11.4888656"><ele>549.0</ele><time>2026-05-02T10:54:54.407Z</time></trkpt><trkpt lat="43.0566027" lon="11.4888328"><ele>549.2</ele><time>2026-05-02T10:54:55.399Z</time></trkpt><trkpt lat="43.0567134" lon="11.4887944"><ele>549.4</ele><time>2026-05-02T10:54:57.402Z</time></trkpt><trkpt lat="43.056811" lon="11.488784"><ele>549.6</ele><time>2026-05-02T10:54:59.395Z</time></trkpt><trkpt lat="43.0568658" lon="11.4887264"><ele>549.8</ele><time>2026-05-02T10:55:02.399Z</time></trkpt><trkpt lat="43.0567803" lon="11.4887269"><ele>550.0</ele><time>2026-05-02T10:55:27.4Z</time></trkpt><trkpt lat="43.056675" lon="11.4888089"><ele>549.8333333333334</ele><time>2026-05-02T10:55:29.401Z</time></trkpt><trkpt lat="43.0566046" lon="11.488843"><ele>549.6666666666667</ele><time>2026-05-02T10:55:30.407Z</time></trkpt><trkpt lat="43.0565277" lon="11.4888722"><ele>549.5</ele><time>2026-05-02T10:55:31.392Z</time></trkpt><trkpt lat="43.0564436" lon="11.4889035"><ele>549.3333333333334</ele><time>2026-05-02T10:55:32.382Z</time></trkpt><trkpt lat="43.0563588" lon="11.4889416"><ele>549.1666666666666</ele><time>2026-05-02T10:55:33.407Z</time></trkpt><trkpt lat="43.0562714" lon="11.4889802"><ele>549.0</ele><time>2026-05-02T10:55:34.404Z</time></trkpt><trkpt lat="43.0561894" lon="11.4890119"><ele>549.0</ele><time>2026-05-02T10:55:35.39Z</time></trkpt><trkpt lat="43.0561129" lon="11.4890331"><ele>549.0</ele><time>2026-05-02T10:55:36.394Z</time></trkpt><trkpt lat="43.056042" lon="11.489043"><ele>549.0</ele><time>2026-05-02T10:55:37.397Z</time></trkpt><trkpt lat="43.0559766" lon="11.4890321"><ele>549.0</ele><time>2026-05-02T10:55:38.385Z</time></trkpt><trkpt lat="43.055914" lon="11.4890076"><ele>549.0</ele><time>2026-05-02T10:55:39.4Z</time></trkpt><trkpt lat="43.0558221" lon="11.4889633"><ele>549.0</ele><time>2026-05-02T10:55:41.386Z</time></trkpt><trkpt lat="43.0557456" lon="11.4889604"><ele>549.8</ele><time>2026-05-02T10:55:44.391Z</time></trkpt><trkpt lat="43.0556634" lon="11.4889426"><ele>550.5999999999999</ele><time>2026-05-02T10:55:47.394Z</time></trkpt><trkpt lat="43.0555971" lon="11.4889395"><ele>551.4</ele><time>2026-05-02T10:55:49.383Z</time></trkpt><trkpt lat="43.0555309" lon="11.4889606"><ele>552.1999999999999</ele><time>2026-05-02T10:55:51.381Z</time></trkpt><trkpt lat="43.0554661" lon="11.4889706"><ele>553.0</ele><time>2026-05-02T10:55:53.404Z</time></trkpt><trkpt lat="43.0552388" lon="11.4890118"><ele>553.0</ele><time>2026-05-02T10:56:11.401Z</time></trkpt><trkpt lat="43.0551721" lon="11.4890013"><ele>553.0</ele><time>2026-05-02T10:56:21.394Z</time></trkpt><trkpt lat="43.055102" lon="11.4890281"><ele>553.0</ele><time>2026-05-02T10:56:24.404Z</time></trkpt><trkpt lat="43.0551124" lon="11.4891271"><ele>553.0</ele><time>2026-05-02T10:56:32.403Z</time></trkpt><trkpt lat="43.0551686" lon="11.4891834"><ele>553.0</ele><time>2026-05-02T10:56:38.393Z</time></trkpt><trkpt lat="43.0552482" lon="11.4891287"><ele>553.0</ele><time>2026-05-02T10:56:41.385Z</time></trkpt><trkpt lat="43.0553253" lon="11.4890931"><ele>553.0</ele><time>2026-05-02T10:56:43.394Z</time></trkpt><trkpt lat="43.0554223" lon="11.4890515"><ele>553.0</ele><time>2026-05-02T10:56:45.397Z</time></trkpt><trkpt lat="43.0555281" lon="11.4889964"><ele>553.0</ele><time>2026-05-02T10:56:47.397Z</time></trkpt><trkpt lat="43.0556451" lon="11.4889566"><ele>553.0</ele><time>2026-05-02T10:56:49.386Z</time></trkpt><trkpt lat="43.0557426" lon="11.4889669"><ele>553.0</ele><time>2026-05-02T10:56:51.389Z</time></trkpt><trkpt lat="43.0558264" lon="11.4890282"><ele>552.3333333333334</ele><time>2026-05-02T10:56:54.404Z</time></trkpt><trkpt lat="43.0558945" lon="11.4891129"><ele>551.6666666666667</ele><time>2026-05-02T10:56:56.387Z</time></trkpt><trkpt lat="43.0559619" lon="11.4891783"><ele>551.0</ele><time>2026-05-02T10:56:58.403Z</time></trkpt><trkpt lat="43.0560273" lon="11.4892167"><ele>550.3333333333334</ele><time>2026-05-02T10:57:34.385Z</time></trkpt><trkpt lat="43.0560865" lon="11.4892717"><ele>549.6666666666666</ele><time>2026-05-02T10:57:37.386Z</time></trkpt><trkpt lat="43.05614" lon="11.4893494"><ele>549.0</ele><time>2026-05-02T10:57:39.399Z</time></trkpt><trkpt lat="43.0562082" lon="11.4893912"><ele>549.0</ele><time>2026-05-02T10:57:41.373Z</time></trkpt><trkpt lat="43.0562973" lon="11.4894398"><ele>549.0</ele><time>2026-05-02T10:57:43.405Z</time></trkpt><trkpt lat="43.0563601" lon="11.4894725"><ele>549.0</ele><time>2026-05-02T10:57:45.389Z</time></trkpt><trkpt lat="43.0563745" lon="11.4893699"><ele>549.0</ele><time>2026-05-02T10:58:07.395Z</time></trkpt><trkpt lat="43.0563948" lon="11.4894551"><ele>549.0</ele><time>2026-05-02T11:02:48.392Z</time></trkpt><trkpt lat="43.056435" lon="11.4895296"><ele>549.0</ele><time>2026-05-02T11:02:55.399Z</time></trkpt><trkpt lat="43.0564742" lon="11.4896036"><ele>549.0</ele><time>2026-05-02T11:03:12.322Z</time></trkpt><trkpt lat="43.0565321" lon="11.4896554"><ele>549.1428571428571</ele><time>2026-05-02T11:03:19.388Z</time></trkpt><trkpt lat="43.0566002" lon="11.489693"><ele>549.2857142857143</ele><time>2026-05-02T11:03:25.301Z</time></trkpt><trkpt lat="43.0566583" lon="11.4896469"><ele>549.4285714285714</ele><time>2026-05-02T11:03:34.428Z</time></trkpt><trkpt lat="43.0567205" lon="11.4896213"><ele>549.5714285714286</ele><time>2026-05-02T11:03:40.51Z</time></trkpt><trkpt lat="43.0567811" lon="11.4895948"><ele>549.7142857142857</ele><time>2026-05-02T11:03:45.428Z</time></trkpt><trkpt lat="43.0568571" lon="11.4895798"><ele>549.8571428571429</ele><time>2026-05-02T11:03:49.387Z</time></trkpt><trkpt lat="43.0569187" lon="11.4895558"><ele>550.0</ele><time>2026-05-02T11:03:54.461Z</time></trkpt><trkpt lat="43.0569793" lon="11.4895281"><ele>550.0</ele><time>2026-05-02T11:04:00.449Z</time></trkpt><trkpt lat="43.0570436" lon="11.4895133"><ele>550.0</ele><time>2026-05-02T11:04:07.303Z</time></trkpt><trkpt lat="43.057104" lon="11.4894838"><ele>550.0</ele><time>2026-05-02T11:04:15.371Z</time></trkpt><trkpt lat="43.0571609" lon="11.4894432"><ele>550.0</ele><time>2026-05-02T11:04:49.485Z</time></trkpt><trkpt lat="43.0571407" lon="11.4893531"><ele>550.0</ele><time>2026-05-02T11:04:56.444Z</time></trkpt><trkpt lat="43.057105" lon="11.4892821"><ele>550.0</ele><time>2026-05-02T11:05:00.403Z</time></trkpt><trkpt lat="43.0570741" lon="11.489205"><ele>550.0</ele><time>2026-05-02T11:05:04.483Z</time></trkpt><trkpt lat="43.0570018" lon="11.4891939"><ele>550.0</ele><time>2026-05-02T11:05:12.444Z</time></trkpt><trkpt lat="43.0569408" lon="11.4892417"><ele>550.0</ele><time>2026-05-02T11:05:18.443Z</time></trkpt><trkpt lat="43.0568765" lon="11.4892873"><ele>550.0</ele><time>2026-05-02T11:05:36.401Z</time></trkpt><trkpt lat="43.0569413" lon="11.4893211"><ele>550.0</ele><time>2026-05-02T11:06:02.918Z</time></trkpt><trkpt lat="43.0570202" lon="11.4893366"><ele>550.0</ele><time>2026-05-02T11:06:20.159Z</time></trkpt></trkseg></trk></gpx>